<?xml version="1.0" encoding="UTF-8" standalone="no" ?>
<gpx xmlns="http://www.topografix.com/GPX/1/1" xmlns:xsi="http://www.w3.org/2001/XMLSchema-instance" xsi:schemaLocation="http://www.topografix.com/GPX/1/1 http://www.topografix.com/GPX/1/1/gpx.xsd" version="1.1" creator="VisuGPX - https://www.visugpx.com">
  <metadata>
    <name>2020-05-23 Saint Félicien</name>
  </metadata>
  <trk>
    <name><![CDATA[2020-05-23 Saint Félicien]]></name>
    <trkseg>
      <trkpt lat="45.18773" lon="4.79907">
        <ele>163.2</ele>
        <time>2020-05-23T07:29:30Z</time>
      </trkpt>
      <trkpt lat="45.18767" lon="4.79905">
        <ele>162.6</ele>
        <time>2020-05-23T07:29:34Z</time>
      </trkpt>
      <trkpt lat="45.18766" lon="4.79896">
        <ele>163</ele>
        <time>2020-05-23T07:29:38Z</time>
      </trkpt>
      <trkpt lat="45.18773" lon="4.79886">
        <ele>162.6</ele>
        <time>2020-05-23T07:29:42Z</time>
      </trkpt>
      <trkpt lat="45.18785" lon="4.79884">
        <ele>162.2</ele>
        <time>2020-05-23T07:29:46Z</time>
      </trkpt>
      <trkpt lat="45.18799" lon="4.79881">
        <ele>162.4</ele>
        <time>2020-05-23T07:29:50Z</time>
      </trkpt>
      <trkpt lat="45.18807" lon="4.79879">
        <ele>163</ele>
        <time>2020-05-23T07:29:54Z</time>
      </trkpt>
      <trkpt lat="45.18814" lon="4.79879">
        <ele>163.4</ele>
        <time>2020-05-23T07:29:58Z</time>
      </trkpt>
      <trkpt lat="45.18826" lon="4.79874">
        <ele>162.6</ele>
        <time>2020-05-23T07:30:19Z</time>
      </trkpt>
      <trkpt lat="45.18839" lon="4.79872">
        <ele>162.6</ele>
        <time>2020-05-23T07:30:23Z</time>
      </trkpt>
      <trkpt lat="45.18852" lon="4.79869">
        <ele>162</ele>
        <time>2020-05-23T07:30:27Z</time>
      </trkpt>
      <trkpt lat="45.18867" lon="4.79867">
        <ele>162.2</ele>
        <time>2020-05-23T07:30:31Z</time>
      </trkpt>
      <trkpt lat="45.18881" lon="4.79864">
        <ele>161.8</ele>
        <time>2020-05-23T07:30:35Z</time>
      </trkpt>
      <trkpt lat="45.18897" lon="4.79861">
        <ele>162</ele>
        <time>2020-05-23T07:30:39Z</time>
      </trkpt>
      <trkpt lat="45.18914" lon="4.79858">
        <ele>161.6</ele>
        <time>2020-05-23T07:30:43Z</time>
      </trkpt>
      <trkpt lat="45.1893" lon="4.79854">
        <ele>161.8</ele>
        <time>2020-05-23T07:30:47Z</time>
      </trkpt>
      <trkpt lat="45.18947" lon="4.79851">
        <ele>162</ele>
        <time>2020-05-23T07:30:51Z</time>
      </trkpt>
      <trkpt lat="45.18963" lon="4.79848">
        <ele>161.4</ele>
        <time>2020-05-23T07:30:55Z</time>
      </trkpt>
      <trkpt lat="45.1898" lon="4.79844">
        <ele>161.6</ele>
        <time>2020-05-23T07:30:59Z</time>
      </trkpt>
      <trkpt lat="45.18996" lon="4.79842">
        <ele>161.4</ele>
        <time>2020-05-23T07:31:03Z</time>
      </trkpt>
      <trkpt lat="45.19013" lon="4.79839">
        <ele>161</ele>
        <time>2020-05-23T07:31:07Z</time>
      </trkpt>
      <trkpt lat="45.1903" lon="4.79835">
        <ele>161.4</ele>
        <time>2020-05-23T07:31:11Z</time>
      </trkpt>
      <trkpt lat="45.19047" lon="4.79833">
        <ele>161.6</ele>
        <time>2020-05-23T07:31:15Z</time>
      </trkpt>
      <trkpt lat="45.19064" lon="4.7983">
        <ele>161.8</ele>
        <time>2020-05-23T07:31:19Z</time>
      </trkpt>
      <trkpt lat="45.1908" lon="4.79826">
        <ele>161.6</ele>
        <time>2020-05-23T07:31:23Z</time>
      </trkpt>
      <trkpt lat="45.19097" lon="4.79823">
        <ele>161.4</ele>
        <time>2020-05-23T07:31:27Z</time>
      </trkpt>
      <trkpt lat="45.19113" lon="4.79823">
        <ele>161.4</ele>
        <time>2020-05-23T07:31:31Z</time>
      </trkpt>
      <trkpt lat="45.19128" lon="4.79829">
        <ele>161.4</ele>
        <time>2020-05-23T07:31:35Z</time>
      </trkpt>
      <trkpt lat="45.19142" lon="4.7984">
        <ele>161.6</ele>
        <time>2020-05-23T07:31:39Z</time>
      </trkpt>
      <trkpt lat="45.19154" lon="4.79854">
        <ele>162.6</ele>
        <time>2020-05-23T07:31:43Z</time>
      </trkpt>
      <trkpt lat="45.19167" lon="4.7987">
        <ele>162.6</ele>
        <time>2020-05-23T07:31:47Z</time>
      </trkpt>
      <trkpt lat="45.19179" lon="4.79886">
        <ele>163</ele>
        <time>2020-05-23T07:31:51Z</time>
      </trkpt>
      <trkpt lat="45.19192" lon="4.79903">
        <ele>162</ele>
        <time>2020-05-23T07:31:55Z</time>
      </trkpt>
      <trkpt lat="45.19205" lon="4.7992">
        <ele>162.2</ele>
        <time>2020-05-23T07:31:59Z</time>
      </trkpt>
      <trkpt lat="45.19219" lon="4.79937">
        <ele>161</ele>
        <time>2020-05-23T07:32:03Z</time>
      </trkpt>
      <trkpt lat="45.19232" lon="4.79955">
        <ele>160.2</ele>
        <time>2020-05-23T07:32:07Z</time>
      </trkpt>
      <trkpt lat="45.19247" lon="4.79976">
        <ele>159.2</ele>
        <time>2020-05-23T07:32:11Z</time>
      </trkpt>
      <trkpt lat="45.19264" lon="4.79996">
        <ele>159</ele>
        <time>2020-05-23T07:32:15Z</time>
      </trkpt>
      <trkpt lat="45.1928" lon="4.80016">
        <ele>158.2</ele>
        <time>2020-05-23T07:32:19Z</time>
      </trkpt>
      <trkpt lat="45.19296" lon="4.80036">
        <ele>157.4</ele>
        <time>2020-05-23T07:32:23Z</time>
      </trkpt>
      <trkpt lat="45.19312" lon="4.80054">
        <ele>158.2</ele>
        <time>2020-05-23T07:32:27Z</time>
      </trkpt>
      <trkpt lat="45.19329" lon="4.80067">
        <ele>158.2</ele>
        <time>2020-05-23T07:32:31Z</time>
      </trkpt>
      <trkpt lat="45.19347" lon="4.80079">
        <ele>158.4</ele>
        <time>2020-05-23T07:32:35Z</time>
      </trkpt>
      <trkpt lat="45.19366" lon="4.8009">
        <ele>158.8</ele>
        <time>2020-05-23T07:32:39Z</time>
      </trkpt>
      <trkpt lat="45.19383" lon="4.80097">
        <ele>158.8</ele>
        <time>2020-05-23T07:32:43Z</time>
      </trkpt>
      <trkpt lat="45.19403" lon="4.80102">
        <ele>158.4</ele>
        <time>2020-05-23T07:32:47Z</time>
      </trkpt>
      <trkpt lat="45.19424" lon="4.80106">
        <ele>158.4</ele>
        <time>2020-05-23T07:32:51Z</time>
      </trkpt>
      <trkpt lat="45.19444" lon="4.80108">
        <ele>158.6</ele>
        <time>2020-05-23T07:32:55Z</time>
      </trkpt>
      <trkpt lat="45.19464" lon="4.8011">
        <ele>158.4</ele>
        <time>2020-05-23T07:32:59Z</time>
      </trkpt>
      <trkpt lat="45.19484" lon="4.80111">
        <ele>158.6</ele>
        <time>2020-05-23T07:33:03Z</time>
      </trkpt>
      <trkpt lat="45.19504" lon="4.80113">
        <ele>158.6</ele>
        <time>2020-05-23T07:33:07Z</time>
      </trkpt>
      <trkpt lat="45.19524" lon="4.80115">
        <ele>158.4</ele>
        <time>2020-05-23T07:33:11Z</time>
      </trkpt>
      <trkpt lat="45.19544" lon="4.80117">
        <ele>159</ele>
        <time>2020-05-23T07:33:15Z</time>
      </trkpt>
      <trkpt lat="45.19564" lon="4.80119">
        <ele>158.6</ele>
        <time>2020-05-23T07:33:19Z</time>
      </trkpt>
      <trkpt lat="45.19584" lon="4.80121">
        <ele>158.4</ele>
        <time>2020-05-23T07:33:23Z</time>
      </trkpt>
      <trkpt lat="45.19604" lon="4.80123">
        <ele>158.6</ele>
        <time>2020-05-23T07:33:27Z</time>
      </trkpt>
      <trkpt lat="45.19624" lon="4.80124">
        <ele>158.6</ele>
        <time>2020-05-23T07:33:31Z</time>
      </trkpt>
      <trkpt lat="45.19644" lon="4.80125">
        <ele>158.4</ele>
        <time>2020-05-23T07:33:35Z</time>
      </trkpt>
      <trkpt lat="45.19664" lon="4.80127">
        <ele>158.6</ele>
        <time>2020-05-23T07:33:39Z</time>
      </trkpt>
      <trkpt lat="45.19684" lon="4.80128">
        <ele>158.6</ele>
        <time>2020-05-23T07:33:43Z</time>
      </trkpt>
      <trkpt lat="45.19703" lon="4.8013">
        <ele>158.2</ele>
        <time>2020-05-23T07:33:47Z</time>
      </trkpt>
      <trkpt lat="45.19722" lon="4.80132">
        <ele>159</ele>
        <time>2020-05-23T07:33:51Z</time>
      </trkpt>
      <trkpt lat="45.19741" lon="4.80134">
        <ele>159</ele>
        <time>2020-05-23T07:33:55Z</time>
      </trkpt>
      <trkpt lat="45.19761" lon="4.80135">
        <ele>159.2</ele>
        <time>2020-05-23T07:33:59Z</time>
      </trkpt>
      <trkpt lat="45.1978" lon="4.80137">
        <ele>158.4</ele>
        <time>2020-05-23T07:34:03Z</time>
      </trkpt>
      <trkpt lat="45.19798" lon="4.80139">
        <ele>158.6</ele>
        <time>2020-05-23T07:34:07Z</time>
      </trkpt>
      <trkpt lat="45.19817" lon="4.8014">
        <ele>159.6</ele>
        <time>2020-05-23T07:34:11Z</time>
      </trkpt>
      <trkpt lat="45.19835" lon="4.80141">
        <ele>159.6</ele>
        <time>2020-05-23T07:34:15Z</time>
      </trkpt>
      <trkpt lat="45.19854" lon="4.80143">
        <ele>159.2</ele>
        <time>2020-05-23T07:34:19Z</time>
      </trkpt>
      <trkpt lat="45.19873" lon="4.80144">
        <ele>160</ele>
        <time>2020-05-23T07:34:23Z</time>
      </trkpt>
      <trkpt lat="45.1989" lon="4.80145">
        <ele>160</ele>
        <time>2020-05-23T07:34:27Z</time>
      </trkpt>
      <trkpt lat="45.19908" lon="4.80147">
        <ele>160</ele>
        <time>2020-05-23T07:34:31Z</time>
      </trkpt>
      <trkpt lat="45.19926" lon="4.80148">
        <ele>160</ele>
        <time>2020-05-23T07:34:35Z</time>
      </trkpt>
      <trkpt lat="45.19946" lon="4.80153">
        <ele>160</ele>
        <time>2020-05-23T07:34:39Z</time>
      </trkpt>
      <trkpt lat="45.19966" lon="4.80157">
        <ele>159.6</ele>
        <time>2020-05-23T07:34:43Z</time>
      </trkpt>
      <trkpt lat="45.19986" lon="4.80155">
        <ele>160</ele>
        <time>2020-05-23T07:34:47Z</time>
      </trkpt>
      <trkpt lat="45.20006" lon="4.80157">
        <ele>160</ele>
        <time>2020-05-23T07:34:51Z</time>
      </trkpt>
      <trkpt lat="45.20026" lon="4.80159">
        <ele>160</ele>
        <time>2020-05-23T07:34:55Z</time>
      </trkpt>
      <trkpt lat="45.20046" lon="4.80161">
        <ele>160.2</ele>
        <time>2020-05-23T07:34:59Z</time>
      </trkpt>
      <trkpt lat="45.20066" lon="4.80163">
        <ele>160.2</ele>
        <time>2020-05-23T07:35:03Z</time>
      </trkpt>
      <trkpt lat="45.20086" lon="4.80164">
        <ele>159.8</ele>
        <time>2020-05-23T07:35:07Z</time>
      </trkpt>
      <trkpt lat="45.20106" lon="4.80166">
        <ele>160.4</ele>
        <time>2020-05-23T07:35:11Z</time>
      </trkpt>
      <trkpt lat="45.20126" lon="4.80168">
        <ele>160</ele>
        <time>2020-05-23T07:35:15Z</time>
      </trkpt>
      <trkpt lat="45.20146" lon="4.80169">
        <ele>160</ele>
        <time>2020-05-23T07:35:19Z</time>
      </trkpt>
      <trkpt lat="45.20165" lon="4.80172">
        <ele>160.2</ele>
        <time>2020-05-23T07:35:23Z</time>
      </trkpt>
      <trkpt lat="45.20182" lon="4.80174">
        <ele>160.6</ele>
        <time>2020-05-23T07:35:27Z</time>
      </trkpt>
      <trkpt lat="45.202" lon="4.80174">
        <ele>160.6</ele>
        <time>2020-05-23T07:35:31Z</time>
      </trkpt>
      <trkpt lat="45.20219" lon="4.80173">
        <ele>160.8</ele>
        <time>2020-05-23T07:35:35Z</time>
      </trkpt>
      <trkpt lat="45.20237" lon="4.80175">
        <ele>161</ele>
        <time>2020-05-23T07:35:39Z</time>
      </trkpt>
      <trkpt lat="45.20254" lon="4.80174">
        <ele>161</ele>
        <time>2020-05-23T07:35:43Z</time>
      </trkpt>
      <trkpt lat="45.20268" lon="4.80175">
        <ele>161</ele>
        <time>2020-05-23T07:35:47Z</time>
      </trkpt>
      <trkpt lat="45.20279" lon="4.80169">
        <ele>161.2</ele>
        <time>2020-05-23T07:35:51Z</time>
      </trkpt>
      <trkpt lat="45.20279" lon="4.80146">
        <ele>160.6</ele>
        <time>2020-05-23T07:35:55Z</time>
      </trkpt>
      <trkpt lat="45.20281" lon="4.80122">
        <ele>161</ele>
        <time>2020-05-23T07:35:59Z</time>
      </trkpt>
      <trkpt lat="45.20289" lon="4.80099">
        <ele>160</ele>
        <time>2020-05-23T07:36:03Z</time>
      </trkpt>
      <trkpt lat="45.203" lon="4.80078">
        <ele>160.2</ele>
        <time>2020-05-23T07:36:07Z</time>
      </trkpt>
      <trkpt lat="45.20311" lon="4.80057">
        <ele>160.4</ele>
        <time>2020-05-23T07:36:11Z</time>
      </trkpt>
      <trkpt lat="45.20321" lon="4.80037">
        <ele>161.2</ele>
        <time>2020-05-23T07:36:15Z</time>
      </trkpt>
      <trkpt lat="45.20331" lon="4.80015">
        <ele>161.4</ele>
        <time>2020-05-23T07:36:19Z</time>
      </trkpt>
      <trkpt lat="45.20341" lon="4.79994">
        <ele>161.8</ele>
        <time>2020-05-23T07:36:23Z</time>
      </trkpt>
      <trkpt lat="45.2035" lon="4.79976">
        <ele>162.2</ele>
        <time>2020-05-23T07:36:27Z</time>
      </trkpt>
      <trkpt lat="45.20359" lon="4.79959">
        <ele>162.6</ele>
        <time>2020-05-23T07:36:31Z</time>
      </trkpt>
      <trkpt lat="45.20367" lon="4.79942">
        <ele>162.8</ele>
        <time>2020-05-23T07:36:35Z</time>
      </trkpt>
      <trkpt lat="45.20375" lon="4.79924">
        <ele>163.6</ele>
        <time>2020-05-23T07:36:39Z</time>
      </trkpt>
      <trkpt lat="45.20383" lon="4.79908">
        <ele>164</ele>
        <time>2020-05-23T07:36:43Z</time>
      </trkpt>
      <trkpt lat="45.20391" lon="4.79891">
        <ele>164</ele>
        <time>2020-05-23T07:36:47Z</time>
      </trkpt>
      <trkpt lat="45.20399" lon="4.79875">
        <ele>164.8</ele>
        <time>2020-05-23T07:36:51Z</time>
      </trkpt>
      <trkpt lat="45.20407" lon="4.79861">
        <ele>165</ele>
        <time>2020-05-23T07:36:55Z</time>
      </trkpt>
      <trkpt lat="45.20414" lon="4.79844">
        <ele>165.2</ele>
        <time>2020-05-23T07:36:59Z</time>
      </trkpt>
      <trkpt lat="45.2042" lon="4.79828">
        <ele>166</ele>
        <time>2020-05-23T07:37:03Z</time>
      </trkpt>
      <trkpt lat="45.20425" lon="4.79813">
        <ele>166.4</ele>
        <time>2020-05-23T07:37:07Z</time>
      </trkpt>
      <trkpt lat="45.20431" lon="4.79796">
        <ele>166.6</ele>
        <time>2020-05-23T07:37:11Z</time>
      </trkpt>
      <trkpt lat="45.20437" lon="4.79779">
        <ele>167.2</ele>
        <time>2020-05-23T07:37:15Z</time>
      </trkpt>
      <trkpt lat="45.20442" lon="4.79762">
        <ele>167.4</ele>
        <time>2020-05-23T07:37:19Z</time>
      </trkpt>
      <trkpt lat="45.20447" lon="4.79743">
        <ele>167.6</ele>
        <time>2020-05-23T07:37:23Z</time>
      </trkpt>
      <trkpt lat="45.20452" lon="4.79725">
        <ele>168</ele>
        <time>2020-05-23T07:37:27Z</time>
      </trkpt>
      <trkpt lat="45.20455" lon="4.79707">
        <ele>168.6</ele>
        <time>2020-05-23T07:37:31Z</time>
      </trkpt>
      <trkpt lat="45.20457" lon="4.79691">
        <ele>168.8</ele>
        <time>2020-05-23T07:37:35Z</time>
      </trkpt>
      <trkpt lat="45.20459" lon="4.79676">
        <ele>169</ele>
        <time>2020-05-23T07:37:39Z</time>
      </trkpt>
      <trkpt lat="45.20462" lon="4.79658">
        <ele>169.4</ele>
        <time>2020-05-23T07:37:43Z</time>
      </trkpt>
      <trkpt lat="45.20464" lon="4.7964">
        <ele>169.6</ele>
        <time>2020-05-23T07:37:47Z</time>
      </trkpt>
      <trkpt lat="45.20468" lon="4.79622">
        <ele>169.8</ele>
        <time>2020-05-23T07:37:51Z</time>
      </trkpt>
      <trkpt lat="45.20468" lon="4.79602">
        <ele>170</ele>
        <time>2020-05-23T07:37:55Z</time>
      </trkpt>
      <trkpt lat="45.20464" lon="4.79582">
        <ele>170.2</ele>
        <time>2020-05-23T07:37:59Z</time>
      </trkpt>
      <trkpt lat="45.20459" lon="4.79563">
        <ele>170.2</ele>
        <time>2020-05-23T07:38:03Z</time>
      </trkpt>
      <trkpt lat="45.20456" lon="4.79542">
        <ele>169.8</ele>
        <time>2020-05-23T07:38:07Z</time>
      </trkpt>
      <trkpt lat="45.20454" lon="4.79519">
        <ele>169.6</ele>
        <time>2020-05-23T07:38:11Z</time>
      </trkpt>
      <trkpt lat="45.20453" lon="4.79497">
        <ele>169.6</ele>
        <time>2020-05-23T07:38:15Z</time>
      </trkpt>
      <trkpt lat="45.20453" lon="4.79475">
        <ele>170.4</ele>
        <time>2020-05-23T07:38:19Z</time>
      </trkpt>
      <trkpt lat="45.20454" lon="4.79454">
        <ele>170.4</ele>
        <time>2020-05-23T07:38:23Z</time>
      </trkpt>
      <trkpt lat="45.20455" lon="4.79433">
        <ele>170</ele>
        <time>2020-05-23T07:38:27Z</time>
      </trkpt>
      <trkpt lat="45.20458" lon="4.79413">
        <ele>170.6</ele>
        <time>2020-05-23T07:38:31Z</time>
      </trkpt>
      <trkpt lat="45.20458" lon="4.7939">
        <ele>171</ele>
        <time>2020-05-23T07:38:35Z</time>
      </trkpt>
      <trkpt lat="45.20457" lon="4.79366">
        <ele>171</ele>
        <time>2020-05-23T07:38:39Z</time>
      </trkpt>
      <trkpt lat="45.20458" lon="4.79342">
        <ele>171</ele>
        <time>2020-05-23T07:38:43Z</time>
      </trkpt>
      <trkpt lat="45.20456" lon="4.7932">
        <ele>170.8</ele>
        <time>2020-05-23T07:38:47Z</time>
      </trkpt>
      <trkpt lat="45.20452" lon="4.79297">
        <ele>171</ele>
        <time>2020-05-23T07:38:51Z</time>
      </trkpt>
      <trkpt lat="45.20447" lon="4.79278">
        <ele>170.4</ele>
        <time>2020-05-23T07:38:55Z</time>
      </trkpt>
      <trkpt lat="45.20447" lon="4.79255">
        <ele>170</ele>
        <time>2020-05-23T07:38:59Z</time>
      </trkpt>
      <trkpt lat="45.20448" lon="4.79234">
        <ele>171</ele>
        <time>2020-05-23T07:39:03Z</time>
      </trkpt>
      <trkpt lat="45.20449" lon="4.79213">
        <ele>171</ele>
        <time>2020-05-23T07:39:07Z</time>
      </trkpt>
      <trkpt lat="45.20443" lon="4.79192">
        <ele>171.8</ele>
        <time>2020-05-23T07:39:11Z</time>
      </trkpt>
      <trkpt lat="45.2043" lon="4.79177">
        <ele>171.6</ele>
        <time>2020-05-23T07:39:15Z</time>
      </trkpt>
      <trkpt lat="45.20415" lon="4.79166">
        <ele>172</ele>
        <time>2020-05-23T07:39:19Z</time>
      </trkpt>
      <trkpt lat="45.20401" lon="4.79155">
        <ele>171.2</ele>
        <time>2020-05-23T07:39:23Z</time>
      </trkpt>
      <trkpt lat="45.20385" lon="4.79147">
        <ele>171.2</ele>
        <time>2020-05-23T07:39:27Z</time>
      </trkpt>
      <trkpt lat="45.20369" lon="4.79141">
        <ele>171.4</ele>
        <time>2020-05-23T07:39:31Z</time>
      </trkpt>
      <trkpt lat="45.20352" lon="4.79135">
        <ele>172</ele>
        <time>2020-05-23T07:39:35Z</time>
      </trkpt>
      <trkpt lat="45.20337" lon="4.7913">
        <ele>172.2</ele>
        <time>2020-05-23T07:39:39Z</time>
      </trkpt>
      <trkpt lat="45.20324" lon="4.79124">
        <ele>172.6</ele>
        <time>2020-05-23T07:39:43Z</time>
      </trkpt>
      <trkpt lat="45.20312" lon="4.79117">
        <ele>173.4</ele>
        <time>2020-05-23T07:39:47Z</time>
      </trkpt>
      <trkpt lat="45.20299" lon="4.7911">
        <ele>173</ele>
        <time>2020-05-23T07:39:51Z</time>
      </trkpt>
      <trkpt lat="45.20287" lon="4.79102">
        <ele>174.4</ele>
        <time>2020-05-23T07:39:55Z</time>
      </trkpt>
      <trkpt lat="45.20276" lon="4.79091">
        <ele>174.2</ele>
        <time>2020-05-23T07:39:59Z</time>
      </trkpt>
      <trkpt lat="45.20268" lon="4.79076">
        <ele>174</ele>
        <time>2020-05-23T07:40:03Z</time>
      </trkpt>
      <trkpt lat="45.20263" lon="4.79059">
        <ele>174.4</ele>
        <time>2020-05-23T07:40:07Z</time>
      </trkpt>
      <trkpt lat="45.20261" lon="4.79041">
        <ele>174.8</ele>
        <time>2020-05-23T07:40:11Z</time>
      </trkpt>
      <trkpt lat="45.20262" lon="4.79022">
        <ele>174.8</ele>
        <time>2020-05-23T07:40:15Z</time>
      </trkpt>
      <trkpt lat="45.20266" lon="4.79006">
        <ele>174.8</ele>
        <time>2020-05-23T07:40:19Z</time>
      </trkpt>
      <trkpt lat="45.20272" lon="4.78989">
        <ele>174.6</ele>
        <time>2020-05-23T07:40:23Z</time>
      </trkpt>
      <trkpt lat="45.20278" lon="4.78974">
        <ele>176</ele>
        <time>2020-05-23T07:40:27Z</time>
      </trkpt>
      <trkpt lat="45.20286" lon="4.78958">
        <ele>175.8</ele>
        <time>2020-05-23T07:40:31Z</time>
      </trkpt>
      <trkpt lat="45.20294" lon="4.78941">
        <ele>175.8</ele>
        <time>2020-05-23T07:40:35Z</time>
      </trkpt>
      <trkpt lat="45.20299" lon="4.78921">
        <ele>176</ele>
        <time>2020-05-23T07:40:39Z</time>
      </trkpt>
      <trkpt lat="45.20303" lon="4.78899">
        <ele>176.2</ele>
        <time>2020-05-23T07:40:43Z</time>
      </trkpt>
      <trkpt lat="45.2031" lon="4.7888">
        <ele>175.8</ele>
        <time>2020-05-23T07:40:47Z</time>
      </trkpt>
      <trkpt lat="45.20318" lon="4.7887">
        <ele>177</ele>
        <time>2020-05-23T07:40:51Z</time>
      </trkpt>
      <trkpt lat="45.20336" lon="4.78845">
        <ele>177.2</ele>
        <time>2020-05-23T07:41:57Z</time>
      </trkpt>
      <trkpt lat="45.20347" lon="4.78834">
        <ele>177</ele>
        <time>2020-05-23T07:42:01Z</time>
      </trkpt>
      <trkpt lat="45.20358" lon="4.78826">
        <ele>177.2</ele>
        <time>2020-05-23T07:42:05Z</time>
      </trkpt>
      <trkpt lat="45.20372" lon="4.78819">
        <ele>177</ele>
        <time>2020-05-23T07:42:09Z</time>
      </trkpt>
      <trkpt lat="45.20385" lon="4.78814">
        <ele>177.4</ele>
        <time>2020-05-23T07:42:13Z</time>
      </trkpt>
      <trkpt lat="45.204" lon="4.7881">
        <ele>178</ele>
        <time>2020-05-23T07:42:17Z</time>
      </trkpt>
      <trkpt lat="45.20414" lon="4.78806">
        <ele>177.8</ele>
        <time>2020-05-23T07:42:21Z</time>
      </trkpt>
      <trkpt lat="45.20428" lon="4.78802">
        <ele>177.6</ele>
        <time>2020-05-23T07:42:25Z</time>
      </trkpt>
      <trkpt lat="45.20445" lon="4.78798">
        <ele>178</ele>
        <time>2020-05-23T07:42:29Z</time>
      </trkpt>
      <trkpt lat="45.20459" lon="4.78795">
        <ele>178.4</ele>
        <time>2020-05-23T07:42:33Z</time>
      </trkpt>
      <trkpt lat="45.20474" lon="4.7879">
        <ele>178.8</ele>
        <time>2020-05-23T07:42:37Z</time>
      </trkpt>
      <trkpt lat="45.20489" lon="4.78785">
        <ele>178.4</ele>
        <time>2020-05-23T07:42:41Z</time>
      </trkpt>
      <trkpt lat="45.20502" lon="4.78778">
        <ele>179</ele>
        <time>2020-05-23T07:42:45Z</time>
      </trkpt>
      <trkpt lat="45.20514" lon="4.78768">
        <ele>179.4</ele>
        <time>2020-05-23T07:42:49Z</time>
      </trkpt>
      <trkpt lat="45.20528" lon="4.78757">
        <ele>179.8</ele>
        <time>2020-05-23T07:42:53Z</time>
      </trkpt>
      <trkpt lat="45.20537" lon="4.78742">
        <ele>178.8</ele>
        <time>2020-05-23T07:42:57Z</time>
      </trkpt>
      <trkpt lat="45.20547" lon="4.78726">
        <ele>179.8</ele>
        <time>2020-05-23T07:43:01Z</time>
      </trkpt>
      <trkpt lat="45.20558" lon="4.78709">
        <ele>179.4</ele>
        <time>2020-05-23T07:43:05Z</time>
      </trkpt>
      <trkpt lat="45.20568" lon="4.78693">
        <ele>180.2</ele>
        <time>2020-05-23T07:43:09Z</time>
      </trkpt>
      <trkpt lat="45.20577" lon="4.78678">
        <ele>180.8</ele>
        <time>2020-05-23T07:43:13Z</time>
      </trkpt>
      <trkpt lat="45.2059" lon="4.7867">
        <ele>181.4</ele>
        <time>2020-05-23T07:43:17Z</time>
      </trkpt>
      <trkpt lat="45.20602" lon="4.78664">
        <ele>181.6</ele>
        <time>2020-05-23T07:43:21Z</time>
      </trkpt>
      <trkpt lat="45.20614" lon="4.78661">
        <ele>181.6</ele>
        <time>2020-05-23T07:43:25Z</time>
      </trkpt>
      <trkpt lat="45.20625" lon="4.78652">
        <ele>182</ele>
        <time>2020-05-23T07:43:29Z</time>
      </trkpt>
      <trkpt lat="45.20625" lon="4.78634">
        <ele>181.8</ele>
        <time>2020-05-23T07:43:33Z</time>
      </trkpt>
      <trkpt lat="45.20621" lon="4.78617">
        <ele>182</ele>
        <time>2020-05-23T07:43:37Z</time>
      </trkpt>
      <trkpt lat="45.20614" lon="4.78602">
        <ele>182</ele>
        <time>2020-05-23T07:43:41Z</time>
      </trkpt>
      <trkpt lat="45.20603" lon="4.7859">
        <ele>182.4</ele>
        <time>2020-05-23T07:43:45Z</time>
      </trkpt>
      <trkpt lat="45.20589" lon="4.78583">
        <ele>182.4</ele>
        <time>2020-05-23T07:43:49Z</time>
      </trkpt>
      <trkpt lat="45.20574" lon="4.78579">
        <ele>182.4</ele>
        <time>2020-05-23T07:43:53Z</time>
      </trkpt>
      <trkpt lat="45.20561" lon="4.78573">
        <ele>183</ele>
        <time>2020-05-23T07:43:57Z</time>
      </trkpt>
      <trkpt lat="45.20549" lon="4.78562">
        <ele>183.8</ele>
        <time>2020-05-23T07:44:01Z</time>
      </trkpt>
      <trkpt lat="45.20538" lon="4.78551">
        <ele>184</ele>
        <time>2020-05-23T07:44:05Z</time>
      </trkpt>
      <trkpt lat="45.20527" lon="4.78542">
        <ele>183.8</ele>
        <time>2020-05-23T07:44:09Z</time>
      </trkpt>
      <trkpt lat="45.20517" lon="4.78529">
        <ele>184</ele>
        <time>2020-05-23T07:44:13Z</time>
      </trkpt>
      <trkpt lat="45.2051" lon="4.78515">
        <ele>185</ele>
        <time>2020-05-23T07:44:17Z</time>
      </trkpt>
      <trkpt lat="45.20502" lon="4.78499">
        <ele>185</ele>
        <time>2020-05-23T07:44:21Z</time>
      </trkpt>
      <trkpt lat="45.20498" lon="4.78481">
        <ele>184.8</ele>
        <time>2020-05-23T07:44:25Z</time>
      </trkpt>
      <trkpt lat="45.20509" lon="4.78474">
        <ele>185.4</ele>
        <time>2020-05-23T07:44:29Z</time>
      </trkpt>
      <trkpt lat="45.20522" lon="4.78469">
        <ele>185.4</ele>
        <time>2020-05-23T07:44:33Z</time>
      </trkpt>
      <trkpt lat="45.20533" lon="4.7846">
        <ele>185.6</ele>
        <time>2020-05-23T07:44:37Z</time>
      </trkpt>
      <trkpt lat="45.20544" lon="4.7845">
        <ele>185.6</ele>
        <time>2020-05-23T07:44:41Z</time>
      </trkpt>
      <trkpt lat="45.20557" lon="4.78444">
        <ele>185.8</ele>
        <time>2020-05-23T07:44:45Z</time>
      </trkpt>
      <trkpt lat="45.20571" lon="4.78438">
        <ele>186.6</ele>
        <time>2020-05-23T07:44:49Z</time>
      </trkpt>
      <trkpt lat="45.20586" lon="4.78432">
        <ele>187</ele>
        <time>2020-05-23T07:44:53Z</time>
      </trkpt>
      <trkpt lat="45.206" lon="4.78427">
        <ele>187</ele>
        <time>2020-05-23T07:44:57Z</time>
      </trkpt>
      <trkpt lat="45.20614" lon="4.78422">
        <ele>186.8</ele>
        <time>2020-05-23T07:45:01Z</time>
      </trkpt>
      <trkpt lat="45.20629" lon="4.78418">
        <ele>187.4</ele>
        <time>2020-05-23T07:45:05Z</time>
      </trkpt>
      <trkpt lat="45.20644" lon="4.78416">
        <ele>187</ele>
        <time>2020-05-23T07:45:09Z</time>
      </trkpt>
      <trkpt lat="45.20658" lon="4.78416">
        <ele>187.6</ele>
        <time>2020-05-23T07:45:13Z</time>
      </trkpt>
      <trkpt lat="45.20672" lon="4.78418">
        <ele>187.4</ele>
        <time>2020-05-23T07:45:17Z</time>
      </trkpt>
      <trkpt lat="45.20686" lon="4.78421">
        <ele>188.2</ele>
        <time>2020-05-23T07:45:21Z</time>
      </trkpt>
      <trkpt lat="45.207" lon="4.78424">
        <ele>188.6</ele>
        <time>2020-05-23T07:45:25Z</time>
      </trkpt>
      <trkpt lat="45.20715" lon="4.78429">
        <ele>189</ele>
        <time>2020-05-23T07:45:29Z</time>
      </trkpt>
      <trkpt lat="45.20729" lon="4.78434">
        <ele>189</ele>
        <time>2020-05-23T07:45:33Z</time>
      </trkpt>
      <trkpt lat="45.20744" lon="4.7844">
        <ele>189.4</ele>
        <time>2020-05-23T07:45:37Z</time>
      </trkpt>
      <trkpt lat="45.20758" lon="4.78447">
        <ele>189.2</ele>
        <time>2020-05-23T07:45:41Z</time>
      </trkpt>
      <trkpt lat="45.20771" lon="4.78455">
        <ele>189.6</ele>
        <time>2020-05-23T07:45:45Z</time>
      </trkpt>
      <trkpt lat="45.20785" lon="4.78462">
        <ele>190</ele>
        <time>2020-05-23T07:45:49Z</time>
      </trkpt>
      <trkpt lat="45.20799" lon="4.78469">
        <ele>190</ele>
        <time>2020-05-23T07:45:53Z</time>
      </trkpt>
      <trkpt lat="45.20813" lon="4.78475">
        <ele>189.8</ele>
        <time>2020-05-23T07:45:57Z</time>
      </trkpt>
      <trkpt lat="45.20827" lon="4.78481">
        <ele>190.2</ele>
        <time>2020-05-23T07:46:01Z</time>
      </trkpt>
      <trkpt lat="45.20841" lon="4.78488">
        <ele>190.8</ele>
        <time>2020-05-23T07:46:05Z</time>
      </trkpt>
      <trkpt lat="45.20854" lon="4.78493">
        <ele>191</ele>
        <time>2020-05-23T07:46:09Z</time>
      </trkpt>
      <trkpt lat="45.20868" lon="4.78497">
        <ele>191.2</ele>
        <time>2020-05-23T07:46:13Z</time>
      </trkpt>
      <trkpt lat="45.20881" lon="4.78499">
        <ele>191.2</ele>
        <time>2020-05-23T07:46:17Z</time>
      </trkpt>
      <trkpt lat="45.20894" lon="4.78503">
        <ele>191.6</ele>
        <time>2020-05-23T07:46:21Z</time>
      </trkpt>
      <trkpt lat="45.20909" lon="4.78504">
        <ele>192</ele>
        <time>2020-05-23T07:46:25Z</time>
      </trkpt>
      <trkpt lat="45.20923" lon="4.78504">
        <ele>191.6</ele>
        <time>2020-05-23T07:46:29Z</time>
      </trkpt>
      <trkpt lat="45.20937" lon="4.78503">
        <ele>192</ele>
        <time>2020-05-23T07:46:33Z</time>
      </trkpt>
      <trkpt lat="45.20951" lon="4.78498">
        <ele>193</ele>
        <time>2020-05-23T07:46:37Z</time>
      </trkpt>
      <trkpt lat="45.20964" lon="4.7849">
        <ele>193</ele>
        <time>2020-05-23T07:46:41Z</time>
      </trkpt>
      <trkpt lat="45.20978" lon="4.78483">
        <ele>193.2</ele>
        <time>2020-05-23T07:46:45Z</time>
      </trkpt>
      <trkpt lat="45.20991" lon="4.78474">
        <ele>193</ele>
        <time>2020-05-23T07:46:49Z</time>
      </trkpt>
      <trkpt lat="45.21005" lon="4.78466">
        <ele>193</ele>
        <time>2020-05-23T07:46:53Z</time>
      </trkpt>
      <trkpt lat="45.21018" lon="4.78454">
        <ele>192.8</ele>
        <time>2020-05-23T07:46:57Z</time>
      </trkpt>
      <trkpt lat="45.21024" lon="4.78432">
        <ele>193.4</ele>
        <time>2020-05-23T07:47:01Z</time>
      </trkpt>
      <trkpt lat="45.21023" lon="4.78414">
        <ele>192.8</ele>
        <time>2020-05-23T07:47:05Z</time>
      </trkpt>
      <trkpt lat="45.21021" lon="4.78392">
        <ele>193.4</ele>
        <time>2020-05-23T07:47:09Z</time>
      </trkpt>
      <trkpt lat="45.21027" lon="4.78372">
        <ele>193.6</ele>
        <time>2020-05-23T07:47:13Z</time>
      </trkpt>
      <trkpt lat="45.21034" lon="4.78353">
        <ele>193.4</ele>
        <time>2020-05-23T07:47:17Z</time>
      </trkpt>
      <trkpt lat="45.2104" lon="4.78334">
        <ele>193.6</ele>
        <time>2020-05-23T07:47:21Z</time>
      </trkpt>
      <trkpt lat="45.21046" lon="4.78315">
        <ele>194.4</ele>
        <time>2020-05-23T07:47:25Z</time>
      </trkpt>
      <trkpt lat="45.21056" lon="4.783">
        <ele>194.4</ele>
        <time>2020-05-23T07:47:29Z</time>
      </trkpt>
      <trkpt lat="45.21066" lon="4.78287">
        <ele>194.4</ele>
        <time>2020-05-23T07:47:33Z</time>
      </trkpt>
      <trkpt lat="45.21072" lon="4.7827">
        <ele>194</ele>
        <time>2020-05-23T07:47:37Z</time>
      </trkpt>
      <trkpt lat="45.21071" lon="4.78249">
        <ele>194.6</ele>
        <time>2020-05-23T07:47:41Z</time>
      </trkpt>
      <trkpt lat="45.21069" lon="4.78229">
        <ele>195.4</ele>
        <time>2020-05-23T07:47:45Z</time>
      </trkpt>
      <trkpt lat="45.2107" lon="4.78208">
        <ele>195</ele>
        <time>2020-05-23T07:47:49Z</time>
      </trkpt>
      <trkpt lat="45.21074" lon="4.78189">
        <ele>195.8</ele>
        <time>2020-05-23T07:47:53Z</time>
      </trkpt>
      <trkpt lat="45.21074" lon="4.78169">
        <ele>196.2</ele>
        <time>2020-05-23T07:47:57Z</time>
      </trkpt>
      <trkpt lat="45.21072" lon="4.78147">
        <ele>196</ele>
        <time>2020-05-23T07:48:01Z</time>
      </trkpt>
      <trkpt lat="45.21072" lon="4.78126">
        <ele>196</ele>
        <time>2020-05-23T07:48:05Z</time>
      </trkpt>
      <trkpt lat="45.2107" lon="4.78105">
        <ele>197</ele>
        <time>2020-05-23T07:48:09Z</time>
      </trkpt>
      <trkpt lat="45.2107" lon="4.78085">
        <ele>196.6</ele>
        <time>2020-05-23T07:48:13Z</time>
      </trkpt>
      <trkpt lat="45.21073" lon="4.78065">
        <ele>196.2</ele>
        <time>2020-05-23T07:48:17Z</time>
      </trkpt>
      <trkpt lat="45.21066" lon="4.78044">
        <ele>196.8</ele>
        <time>2020-05-23T07:48:21Z</time>
      </trkpt>
      <trkpt lat="45.21063" lon="4.78025">
        <ele>196.2</ele>
        <time>2020-05-23T07:48:25Z</time>
      </trkpt>
      <trkpt lat="45.2106" lon="4.78006">
        <ele>196.8</ele>
        <time>2020-05-23T07:48:29Z</time>
      </trkpt>
      <trkpt lat="45.21056" lon="4.77988">
        <ele>197</ele>
        <time>2020-05-23T07:48:33Z</time>
      </trkpt>
      <trkpt lat="45.21052" lon="4.7797">
        <ele>197.4</ele>
        <time>2020-05-23T07:48:37Z</time>
      </trkpt>
      <trkpt lat="45.21046" lon="4.77951">
        <ele>196.8</ele>
        <time>2020-05-23T07:48:41Z</time>
      </trkpt>
      <trkpt lat="45.21043" lon="4.77934">
        <ele>197.2</ele>
        <time>2020-05-23T07:48:45Z</time>
      </trkpt>
      <trkpt lat="45.21032" lon="4.77916">
        <ele>197.2</ele>
        <time>2020-05-23T07:48:49Z</time>
      </trkpt>
      <trkpt lat="45.21021" lon="4.77901">
        <ele>198.4</ele>
        <time>2020-05-23T07:48:53Z</time>
      </trkpt>
      <trkpt lat="45.21008" lon="4.77885">
        <ele>198.6</ele>
        <time>2020-05-23T07:48:57Z</time>
      </trkpt>
      <trkpt lat="45.20997" lon="4.77867">
        <ele>198.4</ele>
        <time>2020-05-23T07:49:01Z</time>
      </trkpt>
      <trkpt lat="45.20987" lon="4.7785">
        <ele>198.6</ele>
        <time>2020-05-23T07:49:05Z</time>
      </trkpt>
      <trkpt lat="45.20978" lon="4.77837">
        <ele>198.6</ele>
        <time>2020-05-23T07:49:09Z</time>
      </trkpt>
      <trkpt lat="45.2096" lon="4.77821">
        <ele>198.8</ele>
        <time>2020-05-23T07:49:13Z</time>
      </trkpt>
      <trkpt lat="45.20947" lon="4.77804">
        <ele>200.2</ele>
        <time>2020-05-23T07:49:17Z</time>
      </trkpt>
      <trkpt lat="45.20938" lon="4.77785">
        <ele>200.2</ele>
        <time>2020-05-23T07:49:21Z</time>
      </trkpt>
      <trkpt lat="45.2093" lon="4.77768">
        <ele>200.4</ele>
        <time>2020-05-23T07:49:25Z</time>
      </trkpt>
      <trkpt lat="45.20924" lon="4.77751">
        <ele>200.6</ele>
        <time>2020-05-23T07:49:29Z</time>
      </trkpt>
      <trkpt lat="45.20918" lon="4.77736">
        <ele>201.4</ele>
        <time>2020-05-23T07:49:33Z</time>
      </trkpt>
      <trkpt lat="45.20912" lon="4.77716">
        <ele>200.6</ele>
        <time>2020-05-23T07:49:37Z</time>
      </trkpt>
      <trkpt lat="45.20908" lon="4.77695">
        <ele>200.6</ele>
        <time>2020-05-23T07:49:41Z</time>
      </trkpt>
      <trkpt lat="45.20902" lon="4.77675">
        <ele>200.8</ele>
        <time>2020-05-23T07:49:45Z</time>
      </trkpt>
      <trkpt lat="45.20901" lon="4.77656">
        <ele>201.2</ele>
        <time>2020-05-23T07:49:49Z</time>
      </trkpt>
      <trkpt lat="45.20901" lon="4.77639">
        <ele>201.4</ele>
        <time>2020-05-23T07:49:53Z</time>
      </trkpt>
      <trkpt lat="45.20901" lon="4.77619">
        <ele>201.2</ele>
        <time>2020-05-23T07:49:57Z</time>
      </trkpt>
      <trkpt lat="45.20903" lon="4.776">
        <ele>202.4</ele>
        <time>2020-05-23T07:50:01Z</time>
      </trkpt>
      <trkpt lat="45.20913" lon="4.77587">
        <ele>201.8</ele>
        <time>2020-05-23T07:50:05Z</time>
      </trkpt>
      <trkpt lat="45.20926" lon="4.77586">
        <ele>202.8</ele>
        <time>2020-05-23T07:50:09Z</time>
      </trkpt>
      <trkpt lat="45.20939" lon="4.77589">
        <ele>202.8</ele>
        <time>2020-05-23T07:50:13Z</time>
      </trkpt>
      <trkpt lat="45.20952" lon="4.77583">
        <ele>202.8</ele>
        <time>2020-05-23T07:50:17Z</time>
      </trkpt>
      <trkpt lat="45.20958" lon="4.77565">
        <ele>203.4</ele>
        <time>2020-05-23T07:50:21Z</time>
      </trkpt>
      <trkpt lat="45.20958" lon="4.77546">
        <ele>203.2</ele>
        <time>2020-05-23T07:50:25Z</time>
      </trkpt>
      <trkpt lat="45.20958" lon="4.77526">
        <ele>203.6</ele>
        <time>2020-05-23T07:50:29Z</time>
      </trkpt>
      <trkpt lat="45.2096" lon="4.775">
        <ele>203</ele>
        <time>2020-05-23T07:50:33Z</time>
      </trkpt>
      <trkpt lat="45.20959" lon="4.77478">
        <ele>204.2</ele>
        <time>2020-05-23T07:50:37Z</time>
      </trkpt>
      <trkpt lat="45.20959" lon="4.77456">
        <ele>204.4</ele>
        <time>2020-05-23T07:50:41Z</time>
      </trkpt>
      <trkpt lat="45.20962" lon="4.77432">
        <ele>203.8</ele>
        <time>2020-05-23T07:50:45Z</time>
      </trkpt>
      <trkpt lat="45.20967" lon="4.77411">
        <ele>204.2</ele>
        <time>2020-05-23T07:50:49Z</time>
      </trkpt>
      <trkpt lat="45.20972" lon="4.7739">
        <ele>204.8</ele>
        <time>2020-05-23T07:50:53Z</time>
      </trkpt>
      <trkpt lat="45.20975" lon="4.77373">
        <ele>205.4</ele>
        <time>2020-05-23T07:50:57Z</time>
      </trkpt>
      <trkpt lat="45.20977" lon="4.77355">
        <ele>205.6</ele>
        <time>2020-05-23T07:51:01Z</time>
      </trkpt>
      <trkpt lat="45.20976" lon="4.77336">
        <ele>205.6</ele>
        <time>2020-05-23T07:51:05Z</time>
      </trkpt>
      <trkpt lat="45.20972" lon="4.77317">
        <ele>205.2</ele>
        <time>2020-05-23T07:51:09Z</time>
      </trkpt>
      <trkpt lat="45.20966" lon="4.77297">
        <ele>206.4</ele>
        <time>2020-05-23T07:51:13Z</time>
      </trkpt>
      <trkpt lat="45.20962" lon="4.77279">
        <ele>206.6</ele>
        <time>2020-05-23T07:51:17Z</time>
      </trkpt>
      <trkpt lat="45.20958" lon="4.77258">
        <ele>206.6</ele>
        <time>2020-05-23T07:51:21Z</time>
      </trkpt>
      <trkpt lat="45.2096" lon="4.77238">
        <ele>206.6</ele>
        <time>2020-05-23T07:51:25Z</time>
      </trkpt>
      <trkpt lat="45.20965" lon="4.7722">
        <ele>205.8</ele>
        <time>2020-05-23T07:51:29Z</time>
      </trkpt>
      <trkpt lat="45.20964" lon="4.77201">
        <ele>206.4</ele>
        <time>2020-05-23T07:51:33Z</time>
      </trkpt>
      <trkpt lat="45.20958" lon="4.77186">
        <ele>206.8</ele>
        <time>2020-05-23T07:51:37Z</time>
      </trkpt>
      <trkpt lat="45.20947" lon="4.77173">
        <ele>207.8</ele>
        <time>2020-05-23T07:51:41Z</time>
      </trkpt>
      <trkpt lat="45.20941" lon="4.77155">
        <ele>208.6</ele>
        <time>2020-05-23T07:51:45Z</time>
      </trkpt>
      <trkpt lat="45.20936" lon="4.77134">
        <ele>208.2</ele>
        <time>2020-05-23T07:51:49Z</time>
      </trkpt>
      <trkpt lat="45.20934" lon="4.77113">
        <ele>208.2</ele>
        <time>2020-05-23T07:51:53Z</time>
      </trkpt>
      <trkpt lat="45.2093" lon="4.77094">
        <ele>208.4</ele>
        <time>2020-05-23T07:51:57Z</time>
      </trkpt>
      <trkpt lat="45.20928" lon="4.77074">
        <ele>208.8</ele>
        <time>2020-05-23T07:52:01Z</time>
      </trkpt>
      <trkpt lat="45.20927" lon="4.77054">
        <ele>209.2</ele>
        <time>2020-05-23T07:52:05Z</time>
      </trkpt>
      <trkpt lat="45.20927" lon="4.77034">
        <ele>209.4</ele>
        <time>2020-05-23T07:52:09Z</time>
      </trkpt>
      <trkpt lat="45.20923" lon="4.77013">
        <ele>209.6</ele>
        <time>2020-05-23T07:52:13Z</time>
      </trkpt>
      <trkpt lat="45.20916" lon="4.76995">
        <ele>210</ele>
        <time>2020-05-23T07:52:17Z</time>
      </trkpt>
      <trkpt lat="45.20914" lon="4.76975">
        <ele>210</ele>
        <time>2020-05-23T07:52:21Z</time>
      </trkpt>
      <trkpt lat="45.20912" lon="4.76956">
        <ele>210.4</ele>
        <time>2020-05-23T07:52:25Z</time>
      </trkpt>
      <trkpt lat="45.20908" lon="4.76937">
        <ele>210.6</ele>
        <time>2020-05-23T07:52:29Z</time>
      </trkpt>
      <trkpt lat="45.20905" lon="4.76917">
        <ele>210.6</ele>
        <time>2020-05-23T07:52:33Z</time>
      </trkpt>
      <trkpt lat="45.20901" lon="4.76897">
        <ele>211.4</ele>
        <time>2020-05-23T07:52:37Z</time>
      </trkpt>
      <trkpt lat="45.20897" lon="4.76878">
        <ele>210.8</ele>
        <time>2020-05-23T07:52:41Z</time>
      </trkpt>
      <trkpt lat="45.20892" lon="4.76859">
        <ele>211</ele>
        <time>2020-05-23T07:52:45Z</time>
      </trkpt>
      <trkpt lat="45.20891" lon="4.76839">
        <ele>211.2</ele>
        <time>2020-05-23T07:52:49Z</time>
      </trkpt>
      <trkpt lat="45.20891" lon="4.76821">
        <ele>211.4</ele>
        <time>2020-05-23T07:52:53Z</time>
      </trkpt>
      <trkpt lat="45.20884" lon="4.76805">
        <ele>212.2</ele>
        <time>2020-05-23T07:52:57Z</time>
      </trkpt>
      <trkpt lat="45.20877" lon="4.76792">
        <ele>212.2</ele>
        <time>2020-05-23T07:53:01Z</time>
      </trkpt>
      <trkpt lat="45.20872" lon="4.76777">
        <ele>213.2</ele>
        <time>2020-05-23T07:53:05Z</time>
      </trkpt>
      <trkpt lat="45.20871" lon="4.76759">
        <ele>214</ele>
        <time>2020-05-23T07:53:09Z</time>
      </trkpt>
      <trkpt lat="45.20878" lon="4.76744">
        <ele>214.2</ele>
        <time>2020-05-23T07:53:13Z</time>
      </trkpt>
      <trkpt lat="45.20886" lon="4.76731">
        <ele>214.8</ele>
        <time>2020-05-23T07:53:17Z</time>
      </trkpt>
      <trkpt lat="45.20894" lon="4.76716">
        <ele>214.8</ele>
        <time>2020-05-23T07:53:21Z</time>
      </trkpt>
      <trkpt lat="45.20901" lon="4.76702">
        <ele>215</ele>
        <time>2020-05-23T07:53:25Z</time>
      </trkpt>
      <trkpt lat="45.2091" lon="4.76688">
        <ele>215.2</ele>
        <time>2020-05-23T07:53:29Z</time>
      </trkpt>
      <trkpt lat="45.2092" lon="4.76677">
        <ele>215.2</ele>
        <time>2020-05-23T07:53:33Z</time>
      </trkpt>
      <trkpt lat="45.2093" lon="4.76665">
        <ele>216.4</ele>
        <time>2020-05-23T07:53:37Z</time>
      </trkpt>
      <trkpt lat="45.20941" lon="4.76654">
        <ele>216.4</ele>
        <time>2020-05-23T07:53:41Z</time>
      </trkpt>
      <trkpt lat="45.20952" lon="4.76642">
        <ele>216.6</ele>
        <time>2020-05-23T07:53:45Z</time>
      </trkpt>
      <trkpt lat="45.20963" lon="4.76628">
        <ele>216.2</ele>
        <time>2020-05-23T07:53:49Z</time>
      </trkpt>
      <trkpt lat="45.20974" lon="4.76614">
        <ele>216.6</ele>
        <time>2020-05-23T07:53:53Z</time>
      </trkpt>
      <trkpt lat="45.20986" lon="4.76602">
        <ele>217.4</ele>
        <time>2020-05-23T07:53:57Z</time>
      </trkpt>
      <trkpt lat="45.20997" lon="4.7659">
        <ele>216.2</ele>
        <time>2020-05-23T07:54:01Z</time>
      </trkpt>
      <trkpt lat="45.21003" lon="4.76567">
        <ele>216.2</ele>
        <time>2020-05-23T07:54:05Z</time>
      </trkpt>
      <trkpt lat="45.21002" lon="4.76545">
        <ele>217</ele>
        <time>2020-05-23T07:54:09Z</time>
      </trkpt>
      <trkpt lat="45.21008" lon="4.76523">
        <ele>217.2</ele>
        <time>2020-05-23T07:54:13Z</time>
      </trkpt>
      <trkpt lat="45.21008" lon="4.76502">
        <ele>216.4</ele>
        <time>2020-05-23T07:54:17Z</time>
      </trkpt>
      <trkpt lat="45.21001" lon="4.76486">
        <ele>216.8</ele>
        <time>2020-05-23T07:54:21Z</time>
      </trkpt>
      <trkpt lat="45.20991" lon="4.76469">
        <ele>216.8</ele>
        <time>2020-05-23T07:54:25Z</time>
      </trkpt>
      <trkpt lat="45.20982" lon="4.76454">
        <ele>217.6</ele>
        <time>2020-05-23T07:54:29Z</time>
      </trkpt>
      <trkpt lat="45.20971" lon="4.7644">
        <ele>217.2</ele>
        <time>2020-05-23T07:54:33Z</time>
      </trkpt>
      <trkpt lat="45.20959" lon="4.76428">
        <ele>217.6</ele>
        <time>2020-05-23T07:54:37Z</time>
      </trkpt>
      <trkpt lat="45.20946" lon="4.76416">
        <ele>217.6</ele>
        <time>2020-05-23T07:54:41Z</time>
      </trkpt>
      <trkpt lat="45.20934" lon="4.76406">
        <ele>217.2</ele>
        <time>2020-05-23T07:54:45Z</time>
      </trkpt>
      <trkpt lat="45.20922" lon="4.76397">
        <ele>217.8</ele>
        <time>2020-05-23T07:54:49Z</time>
      </trkpt>
      <trkpt lat="45.20907" lon="4.7639">
        <ele>218</ele>
        <time>2020-05-23T07:54:53Z</time>
      </trkpt>
      <trkpt lat="45.20894" lon="4.76382">
        <ele>218.2</ele>
        <time>2020-05-23T07:54:57Z</time>
      </trkpt>
      <trkpt lat="45.20882" lon="4.7637">
        <ele>218.6</ele>
        <time>2020-05-23T07:55:01Z</time>
      </trkpt>
      <trkpt lat="45.20871" lon="4.76353">
        <ele>217.8</ele>
        <time>2020-05-23T07:55:05Z</time>
      </trkpt>
      <trkpt lat="45.2086" lon="4.76339">
        <ele>218</ele>
        <time>2020-05-23T07:55:09Z</time>
      </trkpt>
      <trkpt lat="45.20851" lon="4.76324">
        <ele>218.2</ele>
        <time>2020-05-23T07:55:13Z</time>
      </trkpt>
      <trkpt lat="45.2084" lon="4.76308">
        <ele>218.2</ele>
        <time>2020-05-23T07:55:17Z</time>
      </trkpt>
      <trkpt lat="45.2083" lon="4.76292">
        <ele>219</ele>
        <time>2020-05-23T07:55:21Z</time>
      </trkpt>
      <trkpt lat="45.20819" lon="4.76277">
        <ele>219.4</ele>
        <time>2020-05-23T07:55:25Z</time>
      </trkpt>
      <trkpt lat="45.20811" lon="4.76262">
        <ele>219.2</ele>
        <time>2020-05-23T07:55:29Z</time>
      </trkpt>
      <trkpt lat="45.20803" lon="4.76245">
        <ele>219.8</ele>
        <time>2020-05-23T07:55:33Z</time>
      </trkpt>
      <trkpt lat="45.20798" lon="4.76227">
        <ele>220.6</ele>
        <time>2020-05-23T07:55:37Z</time>
      </trkpt>
      <trkpt lat="45.2079" lon="4.76209">
        <ele>220.4</ele>
        <time>2020-05-23T07:55:41Z</time>
      </trkpt>
      <trkpt lat="45.20782" lon="4.76194">
        <ele>221</ele>
        <time>2020-05-23T07:55:45Z</time>
      </trkpt>
      <trkpt lat="45.20774" lon="4.76182">
        <ele>221.4</ele>
        <time>2020-05-23T07:55:49Z</time>
      </trkpt>
      <trkpt lat="45.20764" lon="4.76166">
        <ele>222</ele>
        <time>2020-05-23T07:55:53Z</time>
      </trkpt>
      <trkpt lat="45.20753" lon="4.76149">
        <ele>222.4</ele>
        <time>2020-05-23T07:55:57Z</time>
      </trkpt>
      <trkpt lat="45.20745" lon="4.76133">
        <ele>223.4</ele>
        <time>2020-05-23T07:56:01Z</time>
      </trkpt>
      <trkpt lat="45.20738" lon="4.76117">
        <ele>224</ele>
        <time>2020-05-23T07:56:05Z</time>
      </trkpt>
      <trkpt lat="45.20731" lon="4.76102">
        <ele>224.2</ele>
        <time>2020-05-23T07:56:09Z</time>
      </trkpt>
      <trkpt lat="45.20724" lon="4.76085">
        <ele>224.4</ele>
        <time>2020-05-23T07:56:13Z</time>
      </trkpt>
      <trkpt lat="45.20719" lon="4.76067">
        <ele>224.4</ele>
        <time>2020-05-23T07:56:17Z</time>
      </trkpt>
      <trkpt lat="45.20715" lon="4.76049">
        <ele>224.4</ele>
        <time>2020-05-23T07:56:21Z</time>
      </trkpt>
      <trkpt lat="45.20713" lon="4.7603">
        <ele>225</ele>
        <time>2020-05-23T07:56:25Z</time>
      </trkpt>
      <trkpt lat="45.20716" lon="4.76011">
        <ele>225</ele>
        <time>2020-05-23T07:56:29Z</time>
      </trkpt>
      <trkpt lat="45.2072" lon="4.75993">
        <ele>225.8</ele>
        <time>2020-05-23T07:56:33Z</time>
      </trkpt>
      <trkpt lat="45.20724" lon="4.75975">
        <ele>225.2</ele>
        <time>2020-05-23T07:56:37Z</time>
      </trkpt>
      <trkpt lat="45.20725" lon="4.75956">
        <ele>225.6</ele>
        <time>2020-05-23T07:56:41Z</time>
      </trkpt>
      <trkpt lat="45.20719" lon="4.75941">
        <ele>225.6</ele>
        <time>2020-05-23T07:56:45Z</time>
      </trkpt>
      <trkpt lat="45.20707" lon="4.7593">
        <ele>225.6</ele>
        <time>2020-05-23T07:56:49Z</time>
      </trkpt>
      <trkpt lat="45.20693" lon="4.75928">
        <ele>226.6</ele>
        <time>2020-05-23T07:56:53Z</time>
      </trkpt>
      <trkpt lat="45.2068" lon="4.75927">
        <ele>226.8</ele>
        <time>2020-05-23T07:56:57Z</time>
      </trkpt>
      <trkpt lat="45.20669" lon="4.75914">
        <ele>228</ele>
        <time>2020-05-23T07:57:01Z</time>
      </trkpt>
      <trkpt lat="45.2066" lon="4.75898">
        <ele>227.8</ele>
        <time>2020-05-23T07:57:05Z</time>
      </trkpt>
      <trkpt lat="45.20653" lon="4.7588">
        <ele>228.2</ele>
        <time>2020-05-23T07:57:09Z</time>
      </trkpt>
      <trkpt lat="45.20646" lon="4.75863">
        <ele>229</ele>
        <time>2020-05-23T07:57:13Z</time>
      </trkpt>
      <trkpt lat="45.20636" lon="4.75849">
        <ele>229.4</ele>
        <time>2020-05-23T07:57:17Z</time>
      </trkpt>
      <trkpt lat="45.20626" lon="4.75834">
        <ele>229</ele>
        <time>2020-05-23T07:57:21Z</time>
      </trkpt>
      <trkpt lat="45.20619" lon="4.75815">
        <ele>229.8</ele>
        <time>2020-05-23T07:57:25Z</time>
      </trkpt>
      <trkpt lat="45.20613" lon="4.75798">
        <ele>230</ele>
        <time>2020-05-23T07:57:29Z</time>
      </trkpt>
      <trkpt lat="45.20606" lon="4.75781">
        <ele>230</ele>
        <time>2020-05-23T07:57:33Z</time>
      </trkpt>
      <trkpt lat="45.20598" lon="4.75766">
        <ele>230.2</ele>
        <time>2020-05-23T07:57:37Z</time>
      </trkpt>
      <trkpt lat="45.20587" lon="4.75752">
        <ele>230.6</ele>
        <time>2020-05-23T07:57:41Z</time>
      </trkpt>
      <trkpt lat="45.20575" lon="4.75739">
        <ele>230.8</ele>
        <time>2020-05-23T07:57:45Z</time>
      </trkpt>
      <trkpt lat="45.20565" lon="4.75724">
        <ele>231.4</ele>
        <time>2020-05-23T07:57:49Z</time>
      </trkpt>
      <trkpt lat="45.20559" lon="4.75707">
        <ele>232</ele>
        <time>2020-05-23T07:57:53Z</time>
      </trkpt>
      <trkpt lat="45.20553" lon="4.7569">
        <ele>232.6</ele>
        <time>2020-05-23T07:57:57Z</time>
      </trkpt>
      <trkpt lat="45.20546" lon="4.75675">
        <ele>232.6</ele>
        <time>2020-05-23T07:58:01Z</time>
      </trkpt>
      <trkpt lat="45.20537" lon="4.75663">
        <ele>233</ele>
        <time>2020-05-23T07:58:05Z</time>
      </trkpt>
      <trkpt lat="45.20528" lon="4.75651">
        <ele>234</ele>
        <time>2020-05-23T07:58:09Z</time>
      </trkpt>
      <trkpt lat="45.2052" lon="4.75638">
        <ele>234.8</ele>
        <time>2020-05-23T07:58:13Z</time>
      </trkpt>
      <trkpt lat="45.20512" lon="4.75625">
        <ele>234.8</ele>
        <time>2020-05-23T07:58:17Z</time>
      </trkpt>
      <trkpt lat="45.20504" lon="4.7561">
        <ele>235</ele>
        <time>2020-05-23T07:58:21Z</time>
      </trkpt>
      <trkpt lat="45.20497" lon="4.75595">
        <ele>235.6</ele>
        <time>2020-05-23T07:58:25Z</time>
      </trkpt>
      <trkpt lat="45.20489" lon="4.75581">
        <ele>236.2</ele>
        <time>2020-05-23T07:58:29Z</time>
      </trkpt>
      <trkpt lat="45.2048" lon="4.75568">
        <ele>236.4</ele>
        <time>2020-05-23T07:58:33Z</time>
      </trkpt>
      <trkpt lat="45.20474" lon="4.75554">
        <ele>237.4</ele>
        <time>2020-05-23T07:58:37Z</time>
      </trkpt>
      <trkpt lat="45.20467" lon="4.7554">
        <ele>237.4</ele>
        <time>2020-05-23T07:58:41Z</time>
      </trkpt>
      <trkpt lat="45.2046" lon="4.75526">
        <ele>238</ele>
        <time>2020-05-23T07:58:45Z</time>
      </trkpt>
      <trkpt lat="45.2045" lon="4.75515">
        <ele>238.4</ele>
        <time>2020-05-23T07:58:49Z</time>
      </trkpt>
      <trkpt lat="45.2044" lon="4.75505">
        <ele>238.6</ele>
        <time>2020-05-23T07:58:53Z</time>
      </trkpt>
      <trkpt lat="45.20435" lon="4.75491">
        <ele>239.2</ele>
        <time>2020-05-23T07:58:57Z</time>
      </trkpt>
      <trkpt lat="45.20433" lon="4.75477">
        <ele>239.8</ele>
        <time>2020-05-23T07:59:01Z</time>
      </trkpt>
      <trkpt lat="45.20429" lon="4.75464">
        <ele>240.4</ele>
        <time>2020-05-23T07:59:05Z</time>
      </trkpt>
      <trkpt lat="45.20423" lon="4.7545">
        <ele>239.8</ele>
        <time>2020-05-23T07:59:09Z</time>
      </trkpt>
      <trkpt lat="45.20415" lon="4.75438">
        <ele>240.6</ele>
        <time>2020-05-23T07:59:13Z</time>
      </trkpt>
      <trkpt lat="45.20408" lon="4.75426">
        <ele>240.8</ele>
        <time>2020-05-23T07:59:17Z</time>
      </trkpt>
      <trkpt lat="45.204" lon="4.75414">
        <ele>241.4</ele>
        <time>2020-05-23T07:59:21Z</time>
      </trkpt>
      <trkpt lat="45.20394" lon="4.754">
        <ele>242</ele>
        <time>2020-05-23T07:59:25Z</time>
      </trkpt>
      <trkpt lat="45.20386" lon="4.75386">
        <ele>241.8</ele>
        <time>2020-05-23T07:59:29Z</time>
      </trkpt>
      <trkpt lat="45.20379" lon="4.75371">
        <ele>241.4</ele>
        <time>2020-05-23T07:59:33Z</time>
      </trkpt>
      <trkpt lat="45.20373" lon="4.75357">
        <ele>242.2</ele>
        <time>2020-05-23T07:59:37Z</time>
      </trkpt>
      <trkpt lat="45.20368" lon="4.75341">
        <ele>242.4</ele>
        <time>2020-05-23T07:59:41Z</time>
      </trkpt>
      <trkpt lat="45.20362" lon="4.75325">
        <ele>242.6</ele>
        <time>2020-05-23T07:59:45Z</time>
      </trkpt>
      <trkpt lat="45.20356" lon="4.75309">
        <ele>243.2</ele>
        <time>2020-05-23T07:59:49Z</time>
      </trkpt>
      <trkpt lat="45.20351" lon="4.75295">
        <ele>243.6</ele>
        <time>2020-05-23T07:59:53Z</time>
      </trkpt>
      <trkpt lat="45.20348" lon="4.75278">
        <ele>244.4</ele>
        <time>2020-05-23T07:59:57Z</time>
      </trkpt>
      <trkpt lat="45.20345" lon="4.75262">
        <ele>244.4</ele>
        <time>2020-05-23T08:00:01Z</time>
      </trkpt>
      <trkpt lat="45.20339" lon="4.75247">
        <ele>245.2</ele>
        <time>2020-05-23T08:00:05Z</time>
      </trkpt>
      <trkpt lat="45.20333" lon="4.75234">
        <ele>245.2</ele>
        <time>2020-05-23T08:00:09Z</time>
      </trkpt>
      <trkpt lat="45.20326" lon="4.75221">
        <ele>245.6</ele>
        <time>2020-05-23T08:00:13Z</time>
      </trkpt>
      <trkpt lat="45.20319" lon="4.75208">
        <ele>246.2</ele>
        <time>2020-05-23T08:00:17Z</time>
      </trkpt>
      <trkpt lat="45.20313" lon="4.75194">
        <ele>246.6</ele>
        <time>2020-05-23T08:00:21Z</time>
      </trkpt>
      <trkpt lat="45.20306" lon="4.75182">
        <ele>247</ele>
        <time>2020-05-23T08:00:25Z</time>
      </trkpt>
      <trkpt lat="45.203" lon="4.75167">
        <ele>247.8</ele>
        <time>2020-05-23T08:00:29Z</time>
      </trkpt>
      <trkpt lat="45.20296" lon="4.75151">
        <ele>247.2</ele>
        <time>2020-05-23T08:00:33Z</time>
      </trkpt>
      <trkpt lat="45.20295" lon="4.75137">
        <ele>248</ele>
        <time>2020-05-23T08:00:37Z</time>
      </trkpt>
      <trkpt lat="45.20294" lon="4.75123">
        <ele>248.2</ele>
        <time>2020-05-23T08:00:41Z</time>
      </trkpt>
      <trkpt lat="45.20286" lon="4.7511">
        <ele>248.6</ele>
        <time>2020-05-23T08:00:45Z</time>
      </trkpt>
      <trkpt lat="45.20275" lon="4.75104">
        <ele>248.8</ele>
        <time>2020-05-23T08:00:49Z</time>
      </trkpt>
      <trkpt lat="45.20264" lon="4.75099">
        <ele>249</ele>
        <time>2020-05-23T08:00:53Z</time>
      </trkpt>
      <trkpt lat="45.20252" lon="4.7509">
        <ele>249.6</ele>
        <time>2020-05-23T08:00:57Z</time>
      </trkpt>
      <trkpt lat="45.20244" lon="4.75077">
        <ele>250.8</ele>
        <time>2020-05-23T08:01:01Z</time>
      </trkpt>
      <trkpt lat="45.20236" lon="4.75062">
        <ele>250</ele>
        <time>2020-05-23T08:01:05Z</time>
      </trkpt>
      <trkpt lat="45.20228" lon="4.75048">
        <ele>250.4</ele>
        <time>2020-05-23T08:01:09Z</time>
      </trkpt>
      <trkpt lat="45.20221" lon="4.75034">
        <ele>251</ele>
        <time>2020-05-23T08:01:13Z</time>
      </trkpt>
      <trkpt lat="45.20212" lon="4.75018">
        <ele>251.8</ele>
        <time>2020-05-23T08:01:17Z</time>
      </trkpt>
      <trkpt lat="45.20205" lon="4.75002">
        <ele>251.4</ele>
        <time>2020-05-23T08:01:21Z</time>
      </trkpt>
      <trkpt lat="45.20197" lon="4.74986">
        <ele>251.6</ele>
        <time>2020-05-23T08:01:25Z</time>
      </trkpt>
      <trkpt lat="45.20188" lon="4.74971">
        <ele>251.8</ele>
        <time>2020-05-23T08:01:29Z</time>
      </trkpt>
      <trkpt lat="45.20179" lon="4.74958">
        <ele>251.8</ele>
        <time>2020-05-23T08:01:33Z</time>
      </trkpt>
      <trkpt lat="45.20172" lon="4.74942">
        <ele>253</ele>
        <time>2020-05-23T08:01:37Z</time>
      </trkpt>
      <trkpt lat="45.20169" lon="4.74924">
        <ele>253.4</ele>
        <time>2020-05-23T08:01:41Z</time>
      </trkpt>
      <trkpt lat="45.20168" lon="4.74907">
        <ele>253.2</ele>
        <time>2020-05-23T08:01:45Z</time>
      </trkpt>
      <trkpt lat="45.20166" lon="4.74891">
        <ele>253.2</ele>
        <time>2020-05-23T08:01:49Z</time>
      </trkpt>
      <trkpt lat="45.20161" lon="4.74876">
        <ele>253.8</ele>
        <time>2020-05-23T08:01:53Z</time>
      </trkpt>
      <trkpt lat="45.20155" lon="4.74861">
        <ele>254</ele>
        <time>2020-05-23T08:01:57Z</time>
      </trkpt>
      <trkpt lat="45.20145" lon="4.74849">
        <ele>254.2</ele>
        <time>2020-05-23T08:02:01Z</time>
      </trkpt>
      <trkpt lat="45.20133" lon="4.74838">
        <ele>254.4</ele>
        <time>2020-05-23T08:02:05Z</time>
      </trkpt>
      <trkpt lat="45.20122" lon="4.74828">
        <ele>255.2</ele>
        <time>2020-05-23T08:02:09Z</time>
      </trkpt>
      <trkpt lat="45.20112" lon="4.74818">
        <ele>255.4</ele>
        <time>2020-05-23T08:02:13Z</time>
      </trkpt>
      <trkpt lat="45.20102" lon="4.74808">
        <ele>255</ele>
        <time>2020-05-23T08:02:17Z</time>
      </trkpt>
      <trkpt lat="45.20092" lon="4.74797">
        <ele>256.2</ele>
        <time>2020-05-23T08:02:21Z</time>
      </trkpt>
      <trkpt lat="45.20082" lon="4.74786">
        <ele>256.4</ele>
        <time>2020-05-23T08:02:25Z</time>
      </trkpt>
      <trkpt lat="45.20074" lon="4.74773">
        <ele>256.2</ele>
        <time>2020-05-23T08:02:29Z</time>
      </trkpt>
      <trkpt lat="45.20072" lon="4.74757">
        <ele>256.6</ele>
        <time>2020-05-23T08:02:33Z</time>
      </trkpt>
      <trkpt lat="45.2008" lon="4.74746">
        <ele>257.4</ele>
        <time>2020-05-23T08:02:37Z</time>
      </trkpt>
      <trkpt lat="45.20092" lon="4.74743">
        <ele>257.4</ele>
        <time>2020-05-23T08:02:41Z</time>
      </trkpt>
      <trkpt lat="45.20103" lon="4.74736">
        <ele>257.8</ele>
        <time>2020-05-23T08:02:45Z</time>
      </trkpt>
      <trkpt lat="45.20113" lon="4.74724">
        <ele>258</ele>
        <time>2020-05-23T08:02:49Z</time>
      </trkpt>
      <trkpt lat="45.20124" lon="4.74712">
        <ele>257.8</ele>
        <time>2020-05-23T08:02:53Z</time>
      </trkpt>
      <trkpt lat="45.20135" lon="4.74703">
        <ele>258.4</ele>
        <time>2020-05-23T08:02:57Z</time>
      </trkpt>
      <trkpt lat="45.20147" lon="4.74692">
        <ele>259.2</ele>
        <time>2020-05-23T08:03:01Z</time>
      </trkpt>
      <trkpt lat="45.20157" lon="4.74679">
        <ele>259.8</ele>
        <time>2020-05-23T08:03:05Z</time>
      </trkpt>
      <trkpt lat="45.20165" lon="4.74664">
        <ele>260.2</ele>
        <time>2020-05-23T08:03:09Z</time>
      </trkpt>
      <trkpt lat="45.20172" lon="4.74649">
        <ele>260.4</ele>
        <time>2020-05-23T08:03:13Z</time>
      </trkpt>
      <trkpt lat="45.2018" lon="4.74634">
        <ele>260.2</ele>
        <time>2020-05-23T08:03:17Z</time>
      </trkpt>
      <trkpt lat="45.20188" lon="4.74619">
        <ele>261.2</ele>
        <time>2020-05-23T08:03:21Z</time>
      </trkpt>
      <trkpt lat="45.20199" lon="4.74608">
        <ele>261</ele>
        <time>2020-05-23T08:03:25Z</time>
      </trkpt>
      <trkpt lat="45.20211" lon="4.74605">
        <ele>260.8</ele>
        <time>2020-05-23T08:03:29Z</time>
      </trkpt>
      <trkpt lat="45.20225" lon="4.74602">
        <ele>261.6</ele>
        <time>2020-05-23T08:03:33Z</time>
      </trkpt>
      <trkpt lat="45.20234" lon="4.74588">
        <ele>260.6</ele>
        <time>2020-05-23T08:03:37Z</time>
      </trkpt>
      <trkpt lat="45.20235" lon="4.74567">
        <ele>261.2</ele>
        <time>2020-05-23T08:03:41Z</time>
      </trkpt>
      <trkpt lat="45.20237" lon="4.74546">
        <ele>261</ele>
        <time>2020-05-23T08:03:45Z</time>
      </trkpt>
      <trkpt lat="45.20248" lon="4.74529">
        <ele>261.8</ele>
        <time>2020-05-23T08:03:49Z</time>
      </trkpt>
      <trkpt lat="45.20258" lon="4.74513">
        <ele>261.4</ele>
        <time>2020-05-23T08:03:53Z</time>
      </trkpt>
      <trkpt lat="45.20266" lon="4.74495">
        <ele>262</ele>
        <time>2020-05-23T08:03:57Z</time>
      </trkpt>
      <trkpt lat="45.20272" lon="4.74477">
        <ele>261.4</ele>
        <time>2020-05-23T08:04:01Z</time>
      </trkpt>
      <trkpt lat="45.20277" lon="4.74456">
        <ele>261.2</ele>
        <time>2020-05-23T08:04:05Z</time>
      </trkpt>
      <trkpt lat="45.2028" lon="4.74436">
        <ele>261</ele>
        <time>2020-05-23T08:04:09Z</time>
      </trkpt>
      <trkpt lat="45.20283" lon="4.74416">
        <ele>262</ele>
        <time>2020-05-23T08:04:13Z</time>
      </trkpt>
      <trkpt lat="45.20287" lon="4.74394">
        <ele>261.4</ele>
        <time>2020-05-23T08:04:17Z</time>
      </trkpt>
      <trkpt lat="45.20293" lon="4.74375">
        <ele>261.8</ele>
        <time>2020-05-23T08:04:21Z</time>
      </trkpt>
      <trkpt lat="45.20296" lon="4.74352">
        <ele>261.2</ele>
        <time>2020-05-23T08:04:25Z</time>
      </trkpt>
      <trkpt lat="45.20295" lon="4.7433">
        <ele>260.6</ele>
        <time>2020-05-23T08:04:29Z</time>
      </trkpt>
      <trkpt lat="45.20297" lon="4.74308">
        <ele>261.8</ele>
        <time>2020-05-23T08:04:33Z</time>
      </trkpt>
      <trkpt lat="45.20296" lon="4.74287">
        <ele>262.6</ele>
        <time>2020-05-23T08:04:37Z</time>
      </trkpt>
      <trkpt lat="45.2029" lon="4.74265">
        <ele>261.4</ele>
        <time>2020-05-23T08:04:41Z</time>
      </trkpt>
      <trkpt lat="45.20284" lon="4.74243">
        <ele>261.8</ele>
        <time>2020-05-23T08:04:45Z</time>
      </trkpt>
      <trkpt lat="45.20285" lon="4.7422">
        <ele>261.4</ele>
        <time>2020-05-23T08:04:49Z</time>
      </trkpt>
      <trkpt lat="45.20285" lon="4.74197">
        <ele>262.2</ele>
        <time>2020-05-23T08:04:53Z</time>
      </trkpt>
      <trkpt lat="45.20282" lon="4.74177">
        <ele>261.8</ele>
        <time>2020-05-23T08:04:57Z</time>
      </trkpt>
      <trkpt lat="45.20279" lon="4.7416">
        <ele>262.6</ele>
        <time>2020-05-23T08:05:01Z</time>
      </trkpt>
      <trkpt lat="45.20276" lon="4.74148">
        <ele>262.8</ele>
        <time>2020-05-23T08:05:05Z</time>
      </trkpt>
      <trkpt lat="45.2027" lon="4.74129">
        <ele>261.6</ele>
        <time>2020-05-23T08:05:09Z</time>
      </trkpt>
      <trkpt lat="45.20266" lon="4.74109">
        <ele>262</ele>
        <time>2020-05-23T08:05:13Z</time>
      </trkpt>
      <trkpt lat="45.20262" lon="4.74089">
        <ele>261.8</ele>
        <time>2020-05-23T08:05:17Z</time>
      </trkpt>
      <trkpt lat="45.20254" lon="4.74071">
        <ele>262.2</ele>
        <time>2020-05-23T08:05:21Z</time>
      </trkpt>
      <trkpt lat="45.20246" lon="4.7406">
        <ele>262.6</ele>
        <time>2020-05-23T08:05:25Z</time>
      </trkpt>
      <trkpt lat="45.20246" lon="4.7406">
        <ele>262.6</ele>
        <time>2020-05-23T08:05:29Z</time>
      </trkpt>
      <trkpt lat="45.2024" lon="4.7404">
        <ele>262.2</ele>
        <time>2020-05-23T08:07:42Z</time>
      </trkpt>
      <trkpt lat="45.20242" lon="4.74022">
        <ele>262.4</ele>
        <time>2020-05-23T08:07:46Z</time>
      </trkpt>
      <trkpt lat="45.20241" lon="4.74004">
        <ele>261.6</ele>
        <time>2020-05-23T08:07:50Z</time>
      </trkpt>
      <trkpt lat="45.20232" lon="4.73988">
        <ele>261.8</ele>
        <time>2020-05-23T08:07:54Z</time>
      </trkpt>
      <trkpt lat="45.20219" lon="4.7398">
        <ele>262.6</ele>
        <time>2020-05-23T08:07:58Z</time>
      </trkpt>
      <trkpt lat="45.20207" lon="4.73974">
        <ele>262.6</ele>
        <time>2020-05-23T08:08:02Z</time>
      </trkpt>
      <trkpt lat="45.20194" lon="4.73963">
        <ele>261.8</ele>
        <time>2020-05-23T08:08:06Z</time>
      </trkpt>
      <trkpt lat="45.20183" lon="4.73947">
        <ele>262.4</ele>
        <time>2020-05-23T08:08:10Z</time>
      </trkpt>
      <trkpt lat="45.20172" lon="4.7393">
        <ele>261.2</ele>
        <time>2020-05-23T08:08:14Z</time>
      </trkpt>
      <trkpt lat="45.20158" lon="4.73923">
        <ele>261.8</ele>
        <time>2020-05-23T08:08:18Z</time>
      </trkpt>
      <trkpt lat="45.20144" lon="4.73917">
        <ele>262.8</ele>
        <time>2020-05-23T08:08:22Z</time>
      </trkpt>
      <trkpt lat="45.20129" lon="4.73911">
        <ele>263.2</ele>
        <time>2020-05-23T08:08:26Z</time>
      </trkpt>
      <trkpt lat="45.20115" lon="4.73906">
        <ele>263</ele>
        <time>2020-05-23T08:08:30Z</time>
      </trkpt>
      <trkpt lat="45.20102" lon="4.73893">
        <ele>262.8</ele>
        <time>2020-05-23T08:08:34Z</time>
      </trkpt>
      <trkpt lat="45.201" lon="4.7387">
        <ele>263.2</ele>
        <time>2020-05-23T08:08:38Z</time>
      </trkpt>
      <trkpt lat="45.20105" lon="4.73847">
        <ele>262.6</ele>
        <time>2020-05-23T08:08:42Z</time>
      </trkpt>
      <trkpt lat="45.20113" lon="4.73825">
        <ele>262.8</ele>
        <time>2020-05-23T08:08:46Z</time>
      </trkpt>
      <trkpt lat="45.2012" lon="4.73803">
        <ele>262.2</ele>
        <time>2020-05-23T08:08:50Z</time>
      </trkpt>
      <trkpt lat="45.20126" lon="4.7378">
        <ele>262.4</ele>
        <time>2020-05-23T08:08:54Z</time>
      </trkpt>
      <trkpt lat="45.20131" lon="4.73758">
        <ele>262.4</ele>
        <time>2020-05-23T08:08:58Z</time>
      </trkpt>
      <trkpt lat="45.20135" lon="4.73733">
        <ele>262</ele>
        <time>2020-05-23T08:09:02Z</time>
      </trkpt>
      <trkpt lat="45.20138" lon="4.73709">
        <ele>262.6</ele>
        <time>2020-05-23T08:09:06Z</time>
      </trkpt>
      <trkpt lat="45.20141" lon="4.73686">
        <ele>262.8</ele>
        <time>2020-05-23T08:09:10Z</time>
      </trkpt>
      <trkpt lat="45.20144" lon="4.73663">
        <ele>263.4</ele>
        <time>2020-05-23T08:09:14Z</time>
      </trkpt>
      <trkpt lat="45.20147" lon="4.7364">
        <ele>263.2</ele>
        <time>2020-05-23T08:09:18Z</time>
      </trkpt>
      <trkpt lat="45.20151" lon="4.73617">
        <ele>263.8</ele>
        <time>2020-05-23T08:09:22Z</time>
      </trkpt>
      <trkpt lat="45.20158" lon="4.73596">
        <ele>262.6</ele>
        <time>2020-05-23T08:09:26Z</time>
      </trkpt>
      <trkpt lat="45.20168" lon="4.73576">
        <ele>264</ele>
        <time>2020-05-23T08:09:30Z</time>
      </trkpt>
      <trkpt lat="45.20181" lon="4.73561">
        <ele>263.2</ele>
        <time>2020-05-23T08:09:34Z</time>
      </trkpt>
      <trkpt lat="45.20194" lon="4.73548">
        <ele>262.8</ele>
        <time>2020-05-23T08:09:38Z</time>
      </trkpt>
      <trkpt lat="45.20209" lon="4.73539">
        <ele>263.6</ele>
        <time>2020-05-23T08:09:42Z</time>
      </trkpt>
      <trkpt lat="45.20222" lon="4.73538">
        <ele>264.2</ele>
        <time>2020-05-23T08:09:46Z</time>
      </trkpt>
      <trkpt lat="45.20235" lon="4.73536">
        <ele>263.8</ele>
        <time>2020-05-23T08:09:50Z</time>
      </trkpt>
      <trkpt lat="45.20248" lon="4.73536">
        <ele>263.8</ele>
        <time>2020-05-23T08:09:54Z</time>
      </trkpt>
      <trkpt lat="45.20263" lon="4.73541">
        <ele>264.4</ele>
        <time>2020-05-23T08:09:58Z</time>
      </trkpt>
      <trkpt lat="45.20275" lon="4.73548">
        <ele>263.8</ele>
        <time>2020-05-23T08:10:02Z</time>
      </trkpt>
      <trkpt lat="45.20287" lon="4.73542">
        <ele>263.8</ele>
        <time>2020-05-23T08:10:06Z</time>
      </trkpt>
      <trkpt lat="45.20293" lon="4.73524">
        <ele>264</ele>
        <time>2020-05-23T08:10:10Z</time>
      </trkpt>
      <trkpt lat="45.20294" lon="4.73507">
        <ele>264.4</ele>
        <time>2020-05-23T08:10:14Z</time>
      </trkpt>
      <trkpt lat="45.20297" lon="4.73489">
        <ele>264.4</ele>
        <time>2020-05-23T08:10:18Z</time>
      </trkpt>
      <trkpt lat="45.20304" lon="4.73467">
        <ele>265</ele>
        <time>2020-05-23T08:10:22Z</time>
      </trkpt>
      <trkpt lat="45.20312" lon="4.73446">
        <ele>264.6</ele>
        <time>2020-05-23T08:10:26Z</time>
      </trkpt>
      <trkpt lat="45.20322" lon="4.73429">
        <ele>265.6</ele>
        <time>2020-05-23T08:10:30Z</time>
      </trkpt>
      <trkpt lat="45.2033" lon="4.73408">
        <ele>265.6</ele>
        <time>2020-05-23T08:10:34Z</time>
      </trkpt>
      <trkpt lat="45.2034" lon="4.73389">
        <ele>265.4</ele>
        <time>2020-05-23T08:10:38Z</time>
      </trkpt>
      <trkpt lat="45.20351" lon="4.73372">
        <ele>265.4</ele>
        <time>2020-05-23T08:10:42Z</time>
      </trkpt>
      <trkpt lat="45.20361" lon="4.73353">
        <ele>264.8</ele>
        <time>2020-05-23T08:10:46Z</time>
      </trkpt>
      <trkpt lat="45.20365" lon="4.73332">
        <ele>265.4</ele>
        <time>2020-05-23T08:10:50Z</time>
      </trkpt>
      <trkpt lat="45.20367" lon="4.73308">
        <ele>265.4</ele>
        <time>2020-05-23T08:10:54Z</time>
      </trkpt>
      <trkpt lat="45.20372" lon="4.73283">
        <ele>266.2</ele>
        <time>2020-05-23T08:10:58Z</time>
      </trkpt>
      <trkpt lat="45.2038" lon="4.73263">
        <ele>266.4</ele>
        <time>2020-05-23T08:11:02Z</time>
      </trkpt>
      <trkpt lat="45.20385" lon="4.7324">
        <ele>265.8</ele>
        <time>2020-05-23T08:11:06Z</time>
      </trkpt>
      <trkpt lat="45.20387" lon="4.73216">
        <ele>265.8</ele>
        <time>2020-05-23T08:11:10Z</time>
      </trkpt>
      <trkpt lat="45.20388" lon="4.73191">
        <ele>266</ele>
        <time>2020-05-23T08:11:14Z</time>
      </trkpt>
      <trkpt lat="45.20386" lon="4.73165">
        <ele>266.4</ele>
        <time>2020-05-23T08:11:18Z</time>
      </trkpt>
      <trkpt lat="45.20383" lon="4.73142">
        <ele>266.4</ele>
        <time>2020-05-23T08:11:22Z</time>
      </trkpt>
      <trkpt lat="45.20378" lon="4.73121">
        <ele>266.6</ele>
        <time>2020-05-23T08:11:26Z</time>
      </trkpt>
      <trkpt lat="45.20374" lon="4.73099">
        <ele>266.6</ele>
        <time>2020-05-23T08:11:30Z</time>
      </trkpt>
      <trkpt lat="45.20372" lon="4.73077">
        <ele>266.6</ele>
        <time>2020-05-23T08:11:34Z</time>
      </trkpt>
      <trkpt lat="45.20372" lon="4.73054">
        <ele>267</ele>
        <time>2020-05-23T08:11:38Z</time>
      </trkpt>
      <trkpt lat="45.20373" lon="4.73032">
        <ele>267.2</ele>
        <time>2020-05-23T08:11:42Z</time>
      </trkpt>
      <trkpt lat="45.20378" lon="4.73009">
        <ele>266.8</ele>
        <time>2020-05-23T08:11:46Z</time>
      </trkpt>
      <trkpt lat="45.20389" lon="4.72992">
        <ele>267.2</ele>
        <time>2020-05-23T08:11:50Z</time>
      </trkpt>
      <trkpt lat="45.20398" lon="4.72974">
        <ele>267</ele>
        <time>2020-05-23T08:11:54Z</time>
      </trkpt>
      <trkpt lat="45.20402" lon="4.72951">
        <ele>266.6</ele>
        <time>2020-05-23T08:11:58Z</time>
      </trkpt>
      <trkpt lat="45.20404" lon="4.72926">
        <ele>266.6</ele>
        <time>2020-05-23T08:12:02Z</time>
      </trkpt>
      <trkpt lat="45.20404" lon="4.729">
        <ele>267.4</ele>
        <time>2020-05-23T08:12:06Z</time>
      </trkpt>
      <trkpt lat="45.20404" lon="4.72877">
        <ele>267.2</ele>
        <time>2020-05-23T08:12:10Z</time>
      </trkpt>
      <trkpt lat="45.20405" lon="4.72852">
        <ele>267.8</ele>
        <time>2020-05-23T08:12:14Z</time>
      </trkpt>
      <trkpt lat="45.20414" lon="4.72831">
        <ele>267.8</ele>
        <time>2020-05-23T08:12:18Z</time>
      </trkpt>
      <trkpt lat="45.2043" lon="4.72824">
        <ele>267.8</ele>
        <time>2020-05-23T08:12:22Z</time>
      </trkpt>
      <trkpt lat="45.20448" lon="4.72824">
        <ele>267.8</ele>
        <time>2020-05-23T08:12:26Z</time>
      </trkpt>
      <trkpt lat="45.20465" lon="4.7282">
        <ele>267.8</ele>
        <time>2020-05-23T08:12:30Z</time>
      </trkpt>
      <trkpt lat="45.20481" lon="4.72815">
        <ele>267.6</ele>
        <time>2020-05-23T08:12:34Z</time>
      </trkpt>
      <trkpt lat="45.20496" lon="4.72809">
        <ele>267.6</ele>
        <time>2020-05-23T08:12:38Z</time>
      </trkpt>
      <trkpt lat="45.20512" lon="4.72804">
        <ele>268.2</ele>
        <time>2020-05-23T08:12:42Z</time>
      </trkpt>
      <trkpt lat="45.20528" lon="4.72801">
        <ele>268.6</ele>
        <time>2020-05-23T08:12:46Z</time>
      </trkpt>
      <trkpt lat="45.20544" lon="4.72798">
        <ele>268.4</ele>
        <time>2020-05-23T08:12:50Z</time>
      </trkpt>
      <trkpt lat="45.2056" lon="4.72793">
        <ele>268</ele>
        <time>2020-05-23T08:12:54Z</time>
      </trkpt>
      <trkpt lat="45.20574" lon="4.72783">
        <ele>267.6</ele>
        <time>2020-05-23T08:12:58Z</time>
      </trkpt>
      <trkpt lat="45.20584" lon="4.72766">
        <ele>268.6</ele>
        <time>2020-05-23T08:13:02Z</time>
      </trkpt>
      <trkpt lat="45.20592" lon="4.72749">
        <ele>268.6</ele>
        <time>2020-05-23T08:13:06Z</time>
      </trkpt>
      <trkpt lat="45.20603" lon="4.72738">
        <ele>268.6</ele>
        <time>2020-05-23T08:13:10Z</time>
      </trkpt>
      <trkpt lat="45.20612" lon="4.72723">
        <ele>268.8</ele>
        <time>2020-05-23T08:13:14Z</time>
      </trkpt>
      <trkpt lat="45.20618" lon="4.72703">
        <ele>269.2</ele>
        <time>2020-05-23T08:13:18Z</time>
      </trkpt>
      <trkpt lat="45.20624" lon="4.72684">
        <ele>269.8</ele>
        <time>2020-05-23T08:13:22Z</time>
      </trkpt>
      <trkpt lat="45.20629" lon="4.72665">
        <ele>269.8</ele>
        <time>2020-05-23T08:13:26Z</time>
      </trkpt>
      <trkpt lat="45.20638" lon="4.72648">
        <ele>270</ele>
        <time>2020-05-23T08:13:30Z</time>
      </trkpt>
      <trkpt lat="45.20648" lon="4.72635">
        <ele>271.2</ele>
        <time>2020-05-23T08:13:34Z</time>
      </trkpt>
      <trkpt lat="45.20656" lon="4.72621">
        <ele>271</ele>
        <time>2020-05-23T08:13:38Z</time>
      </trkpt>
      <trkpt lat="45.2065" lon="4.72602">
        <ele>270.8</ele>
        <time>2020-05-23T08:13:42Z</time>
      </trkpt>
      <trkpt lat="45.20639" lon="4.7259">
        <ele>271.2</ele>
        <time>2020-05-23T08:13:46Z</time>
      </trkpt>
      <trkpt lat="45.20627" lon="4.72579">
        <ele>272</ele>
        <time>2020-05-23T08:13:50Z</time>
      </trkpt>
      <trkpt lat="45.20624" lon="4.72562">
        <ele>272.2</ele>
        <time>2020-05-23T08:13:54Z</time>
      </trkpt>
      <trkpt lat="45.20626" lon="4.72545">
        <ele>271.8</ele>
        <time>2020-05-23T08:13:58Z</time>
      </trkpt>
      <trkpt lat="45.20623" lon="4.72529">
        <ele>272.8</ele>
        <time>2020-05-23T08:14:02Z</time>
      </trkpt>
      <trkpt lat="45.20614" lon="4.72515">
        <ele>272.8</ele>
        <time>2020-05-23T08:14:06Z</time>
      </trkpt>
      <trkpt lat="45.20601" lon="4.72503">
        <ele>272.8</ele>
        <time>2020-05-23T08:14:10Z</time>
      </trkpt>
      <trkpt lat="45.20589" lon="4.72492">
        <ele>273.6</ele>
        <time>2020-05-23T08:14:14Z</time>
      </trkpt>
      <trkpt lat="45.20579" lon="4.72479">
        <ele>274.2</ele>
        <time>2020-05-23T08:14:18Z</time>
      </trkpt>
      <trkpt lat="45.20571" lon="4.72462">
        <ele>274</ele>
        <time>2020-05-23T08:14:22Z</time>
      </trkpt>
      <trkpt lat="45.20564" lon="4.72446">
        <ele>274.2</ele>
        <time>2020-05-23T08:14:26Z</time>
      </trkpt>
      <trkpt lat="45.20559" lon="4.7243">
        <ele>274.8</ele>
        <time>2020-05-23T08:14:30Z</time>
      </trkpt>
      <trkpt lat="45.20556" lon="4.72413">
        <ele>274.6</ele>
        <time>2020-05-23T08:14:34Z</time>
      </trkpt>
      <trkpt lat="45.20555" lon="4.72396">
        <ele>274.4</ele>
        <time>2020-05-23T08:14:38Z</time>
      </trkpt>
      <trkpt lat="45.20556" lon="4.72376">
        <ele>275</ele>
        <time>2020-05-23T08:14:42Z</time>
      </trkpt>
      <trkpt lat="45.20556" lon="4.72356">
        <ele>275.2</ele>
        <time>2020-05-23T08:14:46Z</time>
      </trkpt>
      <trkpt lat="45.20554" lon="4.72337">
        <ele>275.2</ele>
        <time>2020-05-23T08:14:50Z</time>
      </trkpt>
      <trkpt lat="45.20554" lon="4.72316">
        <ele>275.4</ele>
        <time>2020-05-23T08:14:54Z</time>
      </trkpt>
      <trkpt lat="45.20558" lon="4.72297">
        <ele>275.4</ele>
        <time>2020-05-23T08:14:58Z</time>
      </trkpt>
      <trkpt lat="45.2056" lon="4.72277">
        <ele>276.2</ele>
        <time>2020-05-23T08:15:02Z</time>
      </trkpt>
      <trkpt lat="45.20559" lon="4.72257">
        <ele>276</ele>
        <time>2020-05-23T08:15:06Z</time>
      </trkpt>
      <trkpt lat="45.20554" lon="4.72239">
        <ele>276</ele>
        <time>2020-05-23T08:15:10Z</time>
      </trkpt>
      <trkpt lat="45.20549" lon="4.72222">
        <ele>277.2</ele>
        <time>2020-05-23T08:15:14Z</time>
      </trkpt>
      <trkpt lat="45.20546" lon="4.72203">
        <ele>277.4</ele>
        <time>2020-05-23T08:15:18Z</time>
      </trkpt>
      <trkpt lat="45.2055" lon="4.72187">
        <ele>277.4</ele>
        <time>2020-05-23T08:15:22Z</time>
      </trkpt>
      <trkpt lat="45.20562" lon="4.72183">
        <ele>278.2</ele>
        <time>2020-05-23T08:15:26Z</time>
      </trkpt>
      <trkpt lat="45.20573" lon="4.7219">
        <ele>277.8</ele>
        <time>2020-05-23T08:15:30Z</time>
      </trkpt>
      <trkpt lat="45.20583" lon="4.72201">
        <ele>278.2</ele>
        <time>2020-05-23T08:15:34Z</time>
      </trkpt>
      <trkpt lat="45.20596" lon="4.7221">
        <ele>278.4</ele>
        <time>2020-05-23T08:15:38Z</time>
      </trkpt>
      <trkpt lat="45.20609" lon="4.72217">
        <ele>278.8</ele>
        <time>2020-05-23T08:15:42Z</time>
      </trkpt>
      <trkpt lat="45.20623" lon="4.72222">
        <ele>279.2</ele>
        <time>2020-05-23T08:15:46Z</time>
      </trkpt>
      <trkpt lat="45.20637" lon="4.72225">
        <ele>279.6</ele>
        <time>2020-05-23T08:15:50Z</time>
      </trkpt>
      <trkpt lat="45.20651" lon="4.72227">
        <ele>279.2</ele>
        <time>2020-05-23T08:15:54Z</time>
      </trkpt>
      <trkpt lat="45.20664" lon="4.72227">
        <ele>279.8</ele>
        <time>2020-05-23T08:15:58Z</time>
      </trkpt>
      <trkpt lat="45.20677" lon="4.7222">
        <ele>280.4</ele>
        <time>2020-05-23T08:16:02Z</time>
      </trkpt>
      <trkpt lat="45.20688" lon="4.72207">
        <ele>279.8</ele>
        <time>2020-05-23T08:16:06Z</time>
      </trkpt>
      <trkpt lat="45.207" lon="4.72193">
        <ele>279.2</ele>
        <time>2020-05-23T08:16:10Z</time>
      </trkpt>
      <trkpt lat="45.20712" lon="4.7218">
        <ele>279.2</ele>
        <time>2020-05-23T08:16:14Z</time>
      </trkpt>
      <trkpt lat="45.20723" lon="4.72165">
        <ele>280.2</ele>
        <time>2020-05-23T08:16:18Z</time>
      </trkpt>
      <trkpt lat="45.20731" lon="4.72147">
        <ele>279.6</ele>
        <time>2020-05-23T08:16:22Z</time>
      </trkpt>
      <trkpt lat="45.20739" lon="4.7213">
        <ele>280</ele>
        <time>2020-05-23T08:16:26Z</time>
      </trkpt>
      <trkpt lat="45.20748" lon="4.72114">
        <ele>280.2</ele>
        <time>2020-05-23T08:16:30Z</time>
      </trkpt>
      <trkpt lat="45.2076" lon="4.72105">
        <ele>280.4</ele>
        <time>2020-05-23T08:16:34Z</time>
      </trkpt>
      <trkpt lat="45.20775" lon="4.72103">
        <ele>280.4</ele>
        <time>2020-05-23T08:16:38Z</time>
      </trkpt>
      <trkpt lat="45.2079" lon="4.72105">
        <ele>281.2</ele>
        <time>2020-05-23T08:16:42Z</time>
      </trkpt>
      <trkpt lat="45.20804" lon="4.72107">
        <ele>281</ele>
        <time>2020-05-23T08:16:46Z</time>
      </trkpt>
      <trkpt lat="45.20818" lon="4.72103">
        <ele>280.4</ele>
        <time>2020-05-23T08:16:50Z</time>
      </trkpt>
      <trkpt lat="45.20827" lon="4.72085">
        <ele>280.2</ele>
        <time>2020-05-23T08:16:54Z</time>
      </trkpt>
      <trkpt lat="45.20826" lon="4.72063">
        <ele>281.2</ele>
        <time>2020-05-23T08:16:58Z</time>
      </trkpt>
      <trkpt lat="45.20817" lon="4.72048">
        <ele>281.2</ele>
        <time>2020-05-23T08:17:02Z</time>
      </trkpt>
      <trkpt lat="45.20806" lon="4.72035">
        <ele>281.8</ele>
        <time>2020-05-23T08:17:06Z</time>
      </trkpt>
      <trkpt lat="45.20794" lon="4.72022">
        <ele>282.6</ele>
        <time>2020-05-23T08:17:10Z</time>
      </trkpt>
      <trkpt lat="45.20783" lon="4.72007">
        <ele>282.4</ele>
        <time>2020-05-23T08:17:14Z</time>
      </trkpt>
      <trkpt lat="45.20775" lon="4.71987">
        <ele>281.6</ele>
        <time>2020-05-23T08:17:18Z</time>
      </trkpt>
      <trkpt lat="45.20767" lon="4.71968">
        <ele>282.6</ele>
        <time>2020-05-23T08:17:22Z</time>
      </trkpt>
      <trkpt lat="45.20755" lon="4.71955">
        <ele>282.8</ele>
        <time>2020-05-23T08:17:26Z</time>
      </trkpt>
      <trkpt lat="45.20747" lon="4.71937">
        <ele>283</ele>
        <time>2020-05-23T08:17:30Z</time>
      </trkpt>
      <trkpt lat="45.20745" lon="4.71916">
        <ele>282.4</ele>
        <time>2020-05-23T08:17:34Z</time>
      </trkpt>
      <trkpt lat="45.20749" lon="4.71894">
        <ele>282.4</ele>
        <time>2020-05-23T08:17:38Z</time>
      </trkpt>
      <trkpt lat="45.20759" lon="4.71878">
        <ele>283</ele>
        <time>2020-05-23T08:17:42Z</time>
      </trkpt>
      <trkpt lat="45.20766" lon="4.71857">
        <ele>282.6</ele>
        <time>2020-05-23T08:17:46Z</time>
      </trkpt>
      <trkpt lat="45.20759" lon="4.71837">
        <ele>283</ele>
        <time>2020-05-23T08:17:50Z</time>
      </trkpt>
      <trkpt lat="45.20751" lon="4.71817">
        <ele>282.6</ele>
        <time>2020-05-23T08:17:54Z</time>
      </trkpt>
      <trkpt lat="45.2075" lon="4.71794">
        <ele>282.6</ele>
        <time>2020-05-23T08:17:58Z</time>
      </trkpt>
      <trkpt lat="45.20755" lon="4.71773">
        <ele>282.8</ele>
        <time>2020-05-23T08:18:02Z</time>
      </trkpt>
      <trkpt lat="45.20763" lon="4.71756">
        <ele>283</ele>
        <time>2020-05-23T08:18:06Z</time>
      </trkpt>
      <trkpt lat="45.20773" lon="4.71739">
        <ele>282.8</ele>
        <time>2020-05-23T08:18:10Z</time>
      </trkpt>
      <trkpt lat="45.20785" lon="4.71725">
        <ele>283</ele>
        <time>2020-05-23T08:18:14Z</time>
      </trkpt>
      <trkpt lat="45.20798" lon="4.71715">
        <ele>283.2</ele>
        <time>2020-05-23T08:18:18Z</time>
      </trkpt>
      <trkpt lat="45.20812" lon="4.71707">
        <ele>283.6</ele>
        <time>2020-05-23T08:18:22Z</time>
      </trkpt>
      <trkpt lat="45.20825" lon="4.71702">
        <ele>284</ele>
        <time>2020-05-23T08:18:26Z</time>
      </trkpt>
      <trkpt lat="45.20837" lon="4.71698">
        <ele>284</ele>
        <time>2020-05-23T08:18:30Z</time>
      </trkpt>
      <trkpt lat="45.2085" lon="4.7169">
        <ele>284.2</ele>
        <time>2020-05-23T08:18:34Z</time>
      </trkpt>
      <trkpt lat="45.20862" lon="4.71687">
        <ele>283.8</ele>
        <time>2020-05-23T08:18:38Z</time>
      </trkpt>
      <trkpt lat="45.20873" lon="4.71678">
        <ele>284</ele>
        <time>2020-05-23T08:18:42Z</time>
      </trkpt>
      <trkpt lat="45.20878" lon="4.71655">
        <ele>283.8</ele>
        <time>2020-05-23T08:18:46Z</time>
      </trkpt>
      <trkpt lat="45.2087" lon="4.71636">
        <ele>284.4</ele>
        <time>2020-05-23T08:18:50Z</time>
      </trkpt>
      <trkpt lat="45.20857" lon="4.71623">
        <ele>284.6</ele>
        <time>2020-05-23T08:18:54Z</time>
      </trkpt>
      <trkpt lat="45.20842" lon="4.71613">
        <ele>284.2</ele>
        <time>2020-05-23T08:18:58Z</time>
      </trkpt>
      <trkpt lat="45.20832" lon="4.71597">
        <ele>284.6</ele>
        <time>2020-05-23T08:19:02Z</time>
      </trkpt>
      <trkpt lat="45.20835" lon="4.71577">
        <ele>283.6</ele>
        <time>2020-05-23T08:19:06Z</time>
      </trkpt>
      <trkpt lat="45.20846" lon="4.71563">
        <ele>284</ele>
        <time>2020-05-23T08:19:10Z</time>
      </trkpt>
      <trkpt lat="45.20858" lon="4.71547">
        <ele>284.6</ele>
        <time>2020-05-23T08:19:14Z</time>
      </trkpt>
      <trkpt lat="45.20861" lon="4.71526">
        <ele>284.8</ele>
        <time>2020-05-23T08:19:18Z</time>
      </trkpt>
      <trkpt lat="45.20859" lon="4.71504">
        <ele>284.6</ele>
        <time>2020-05-23T08:19:22Z</time>
      </trkpt>
      <trkpt lat="45.20857" lon="4.71482">
        <ele>285</ele>
        <time>2020-05-23T08:19:26Z</time>
      </trkpt>
      <trkpt lat="45.20856" lon="4.71459">
        <ele>284.6</ele>
        <time>2020-05-23T08:19:30Z</time>
      </trkpt>
      <trkpt lat="45.20854" lon="4.71436">
        <ele>284.8</ele>
        <time>2020-05-23T08:19:34Z</time>
      </trkpt>
      <trkpt lat="45.20853" lon="4.71413">
        <ele>285.4</ele>
        <time>2020-05-23T08:19:38Z</time>
      </trkpt>
      <trkpt lat="45.20853" lon="4.71392">
        <ele>285.6</ele>
        <time>2020-05-23T08:19:42Z</time>
      </trkpt>
      <trkpt lat="45.20854" lon="4.7137">
        <ele>286.2</ele>
        <time>2020-05-23T08:19:46Z</time>
      </trkpt>
      <trkpt lat="45.20855" lon="4.71347">
        <ele>285.6</ele>
        <time>2020-05-23T08:19:50Z</time>
      </trkpt>
      <trkpt lat="45.20855" lon="4.7133">
        <ele>286.2</ele>
        <time>2020-05-23T08:19:54Z</time>
      </trkpt>
      <trkpt lat="45.20855" lon="4.71309">
        <ele>286.4</ele>
        <time>2020-05-23T08:19:58Z</time>
      </trkpt>
      <trkpt lat="45.20853" lon="4.71286">
        <ele>285.8</ele>
        <time>2020-05-23T08:20:02Z</time>
      </trkpt>
      <trkpt lat="45.20853" lon="4.71264">
        <ele>286.4</ele>
        <time>2020-05-23T08:20:06Z</time>
      </trkpt>
      <trkpt lat="45.2085" lon="4.71239">
        <ele>286.2</ele>
        <time>2020-05-23T08:20:10Z</time>
      </trkpt>
      <trkpt lat="45.20846" lon="4.71215">
        <ele>286.8</ele>
        <time>2020-05-23T08:20:14Z</time>
      </trkpt>
      <trkpt lat="45.20843" lon="4.71189">
        <ele>286.6</ele>
        <time>2020-05-23T08:20:18Z</time>
      </trkpt>
      <trkpt lat="45.20842" lon="4.71163">
        <ele>286.4</ele>
        <time>2020-05-23T08:20:22Z</time>
      </trkpt>
      <trkpt lat="45.20838" lon="4.71137">
        <ele>286.4</ele>
        <time>2020-05-23T08:20:26Z</time>
      </trkpt>
      <trkpt lat="45.20835" lon="4.71111">
        <ele>286.8</ele>
        <time>2020-05-23T08:20:30Z</time>
      </trkpt>
      <trkpt lat="45.20833" lon="4.71086">
        <ele>286.6</ele>
        <time>2020-05-23T08:20:34Z</time>
      </trkpt>
      <trkpt lat="45.20836" lon="4.71061">
        <ele>286.2</ele>
        <time>2020-05-23T08:20:38Z</time>
      </trkpt>
      <trkpt lat="45.20842" lon="4.71038">
        <ele>286.6</ele>
        <time>2020-05-23T08:20:42Z</time>
      </trkpt>
      <trkpt lat="45.20843" lon="4.71014">
        <ele>286.4</ele>
        <time>2020-05-23T08:20:46Z</time>
      </trkpt>
      <trkpt lat="45.20846" lon="4.70991">
        <ele>286.8</ele>
        <time>2020-05-23T08:20:50Z</time>
      </trkpt>
      <trkpt lat="45.20849" lon="4.70968">
        <ele>286.4</ele>
        <time>2020-05-23T08:20:54Z</time>
      </trkpt>
      <trkpt lat="45.20855" lon="4.70947">
        <ele>286.8</ele>
        <time>2020-05-23T08:20:58Z</time>
      </trkpt>
      <trkpt lat="45.20868" lon="4.70937">
        <ele>286.6</ele>
        <time>2020-05-23T08:21:02Z</time>
      </trkpt>
      <trkpt lat="45.20882" lon="4.70929">
        <ele>287.2</ele>
        <time>2020-05-23T08:21:06Z</time>
      </trkpt>
      <trkpt lat="45.20898" lon="4.7092">
        <ele>287.2</ele>
        <time>2020-05-23T08:21:10Z</time>
      </trkpt>
      <trkpt lat="45.20914" lon="4.70909">
        <ele>287.4</ele>
        <time>2020-05-23T08:21:14Z</time>
      </trkpt>
      <trkpt lat="45.20928" lon="4.70899">
        <ele>287.2</ele>
        <time>2020-05-23T08:21:18Z</time>
      </trkpt>
      <trkpt lat="45.20942" lon="4.70892">
        <ele>287.2</ele>
        <time>2020-05-23T08:21:22Z</time>
      </trkpt>
      <trkpt lat="45.20959" lon="4.70883">
        <ele>286.8</ele>
        <time>2020-05-23T08:21:26Z</time>
      </trkpt>
      <trkpt lat="45.20975" lon="4.70868">
        <ele>286.6</ele>
        <time>2020-05-23T08:21:30Z</time>
      </trkpt>
      <trkpt lat="45.20984" lon="4.70848">
        <ele>286.8</ele>
        <time>2020-05-23T08:21:34Z</time>
      </trkpt>
      <trkpt lat="45.20992" lon="4.70827">
        <ele>286.8</ele>
        <time>2020-05-23T08:21:38Z</time>
      </trkpt>
      <trkpt lat="45.20999" lon="4.70808">
        <ele>286.6</ele>
        <time>2020-05-23T08:21:42Z</time>
      </trkpt>
      <trkpt lat="45.21003" lon="4.70786">
        <ele>286.6</ele>
        <time>2020-05-23T08:21:46Z</time>
      </trkpt>
      <trkpt lat="45.21004" lon="4.7076">
        <ele>286.6</ele>
        <time>2020-05-23T08:21:50Z</time>
      </trkpt>
      <trkpt lat="45.21007" lon="4.70734">
        <ele>286.8</ele>
        <time>2020-05-23T08:21:54Z</time>
      </trkpt>
      <trkpt lat="45.21007" lon="4.70708">
        <ele>286.4</ele>
        <time>2020-05-23T08:21:58Z</time>
      </trkpt>
      <trkpt lat="45.21006" lon="4.70685">
        <ele>286.6</ele>
        <time>2020-05-23T08:22:02Z</time>
      </trkpt>
      <trkpt lat="45.21003" lon="4.7066">
        <ele>286.4</ele>
        <time>2020-05-23T08:22:06Z</time>
      </trkpt>
      <trkpt lat="45.20997" lon="4.70636">
        <ele>286.2</ele>
        <time>2020-05-23T08:22:10Z</time>
      </trkpt>
      <trkpt lat="45.20993" lon="4.70613">
        <ele>286.2</ele>
        <time>2020-05-23T08:22:14Z</time>
      </trkpt>
      <trkpt lat="45.20992" lon="4.70586">
        <ele>286.2</ele>
        <time>2020-05-23T08:22:18Z</time>
      </trkpt>
      <trkpt lat="45.21003" lon="4.70567">
        <ele>286.2</ele>
        <time>2020-05-23T08:22:22Z</time>
      </trkpt>
      <trkpt lat="45.21019" lon="4.70555">
        <ele>285.2</ele>
        <time>2020-05-23T08:22:26Z</time>
      </trkpt>
      <trkpt lat="45.21032" lon="4.7054">
        <ele>285.6</ele>
        <time>2020-05-23T08:22:30Z</time>
      </trkpt>
      <trkpt lat="45.21046" lon="4.70522">
        <ele>285.8</ele>
        <time>2020-05-23T08:22:34Z</time>
      </trkpt>
      <trkpt lat="45.21057" lon="4.70505">
        <ele>286.2</ele>
        <time>2020-05-23T08:22:38Z</time>
      </trkpt>
      <trkpt lat="45.21069" lon="4.70489">
        <ele>286.8</ele>
        <time>2020-05-23T08:22:42Z</time>
      </trkpt>
      <trkpt lat="45.2108" lon="4.70475">
        <ele>286.2</ele>
        <time>2020-05-23T08:22:46Z</time>
      </trkpt>
      <trkpt lat="45.2109" lon="4.70458">
        <ele>287</ele>
        <time>2020-05-23T08:22:50Z</time>
      </trkpt>
      <trkpt lat="45.211" lon="4.7044">
        <ele>287.2</ele>
        <time>2020-05-23T08:22:54Z</time>
      </trkpt>
      <trkpt lat="45.21111" lon="4.70422">
        <ele>287</ele>
        <time>2020-05-23T08:22:58Z</time>
      </trkpt>
      <trkpt lat="45.2112" lon="4.70408">
        <ele>287</ele>
        <time>2020-05-23T08:23:02Z</time>
      </trkpt>
      <trkpt lat="45.21131" lon="4.70391">
        <ele>287.4</ele>
        <time>2020-05-23T08:23:06Z</time>
      </trkpt>
      <trkpt lat="45.21138" lon="4.70379">
        <ele>287.4</ele>
        <time>2020-05-23T08:23:10Z</time>
      </trkpt>
      <trkpt lat="45.21149" lon="4.70361">
        <ele>287.4</ele>
        <time>2020-05-23T08:23:14Z</time>
      </trkpt>
      <trkpt lat="45.2116" lon="4.70346">
        <ele>288</ele>
        <time>2020-05-23T08:23:18Z</time>
      </trkpt>
      <trkpt lat="45.21171" lon="4.70327">
        <ele>288.8</ele>
        <time>2020-05-23T08:23:22Z</time>
      </trkpt>
      <trkpt lat="45.21179" lon="4.7031">
        <ele>289</ele>
        <time>2020-05-23T08:23:26Z</time>
      </trkpt>
      <trkpt lat="45.2119" lon="4.70293">
        <ele>289.2</ele>
        <time>2020-05-23T08:23:30Z</time>
      </trkpt>
      <trkpt lat="45.21196" lon="4.70273">
        <ele>288.6</ele>
        <time>2020-05-23T08:23:34Z</time>
      </trkpt>
      <trkpt lat="45.21203" lon="4.70254">
        <ele>289.4</ele>
        <time>2020-05-23T08:23:38Z</time>
      </trkpt>
      <trkpt lat="45.21207" lon="4.70235">
        <ele>289.2</ele>
        <time>2020-05-23T08:23:42Z</time>
      </trkpt>
      <trkpt lat="45.21209" lon="4.70213">
        <ele>289.4</ele>
        <time>2020-05-23T08:23:46Z</time>
      </trkpt>
      <trkpt lat="45.21215" lon="4.70193">
        <ele>289.6</ele>
        <time>2020-05-23T08:23:50Z</time>
      </trkpt>
      <trkpt lat="45.21225" lon="4.70175">
        <ele>288.2</ele>
        <time>2020-05-23T08:23:54Z</time>
      </trkpt>
      <trkpt lat="45.21239" lon="4.70161">
        <ele>287.6</ele>
        <time>2020-05-23T08:23:58Z</time>
      </trkpt>
      <trkpt lat="45.21254" lon="4.70146">
        <ele>287.4</ele>
        <time>2020-05-23T08:24:02Z</time>
      </trkpt>
      <trkpt lat="45.2127" lon="4.70132">
        <ele>288</ele>
        <time>2020-05-23T08:24:06Z</time>
      </trkpt>
      <trkpt lat="45.21287" lon="4.70125">
        <ele>287.6</ele>
        <time>2020-05-23T08:24:10Z</time>
      </trkpt>
      <trkpt lat="45.21302" lon="4.70125">
        <ele>288.2</ele>
        <time>2020-05-23T08:24:14Z</time>
      </trkpt>
      <trkpt lat="45.2132" lon="4.70122">
        <ele>288.4</ele>
        <time>2020-05-23T08:24:18Z</time>
      </trkpt>
      <trkpt lat="45.21337" lon="4.70119">
        <ele>288.4</ele>
        <time>2020-05-23T08:24:22Z</time>
      </trkpt>
      <trkpt lat="45.21354" lon="4.70121">
        <ele>288.6</ele>
        <time>2020-05-23T08:24:26Z</time>
      </trkpt>
      <trkpt lat="45.21368" lon="4.70126">
        <ele>289.6</ele>
        <time>2020-05-23T08:24:30Z</time>
      </trkpt>
      <trkpt lat="45.21381" lon="4.70131">
        <ele>290.2</ele>
        <time>2020-05-23T08:24:34Z</time>
      </trkpt>
      <trkpt lat="45.21398" lon="4.70133">
        <ele>290.4</ele>
        <time>2020-05-23T08:24:38Z</time>
      </trkpt>
      <trkpt lat="45.21414" lon="4.7013">
        <ele>290.6</ele>
        <time>2020-05-23T08:24:42Z</time>
      </trkpt>
      <trkpt lat="45.21428" lon="4.70124">
        <ele>291.6</ele>
        <time>2020-05-23T08:24:46Z</time>
      </trkpt>
      <trkpt lat="45.21441" lon="4.70115">
        <ele>291.6</ele>
        <time>2020-05-23T08:24:50Z</time>
      </trkpt>
      <trkpt lat="45.21452" lon="4.70104">
        <ele>291.6</ele>
        <time>2020-05-23T08:24:54Z</time>
      </trkpt>
      <trkpt lat="45.21463" lon="4.70092">
        <ele>292.8</ele>
        <time>2020-05-23T08:24:58Z</time>
      </trkpt>
      <trkpt lat="45.21473" lon="4.70078">
        <ele>292.2</ele>
        <time>2020-05-23T08:25:02Z</time>
      </trkpt>
      <trkpt lat="45.21481" lon="4.70062">
        <ele>293</ele>
        <time>2020-05-23T08:25:06Z</time>
      </trkpt>
      <trkpt lat="45.2149" lon="4.70045">
        <ele>292.8</ele>
        <time>2020-05-23T08:25:10Z</time>
      </trkpt>
      <trkpt lat="45.21498" lon="4.70028">
        <ele>292.8</ele>
        <time>2020-05-23T08:25:14Z</time>
      </trkpt>
      <trkpt lat="45.21505" lon="4.70007">
        <ele>293</ele>
        <time>2020-05-23T08:25:18Z</time>
      </trkpt>
      <trkpt lat="45.21514" lon="4.69989">
        <ele>293</ele>
        <time>2020-05-23T08:25:22Z</time>
      </trkpt>
      <trkpt lat="45.21524" lon="4.69972">
        <ele>292.8</ele>
        <time>2020-05-23T08:25:26Z</time>
      </trkpt>
      <trkpt lat="45.21535" lon="4.69957">
        <ele>293.4</ele>
        <time>2020-05-23T08:25:30Z</time>
      </trkpt>
      <trkpt lat="45.21546" lon="4.69943">
        <ele>293.4</ele>
        <time>2020-05-23T08:25:34Z</time>
      </trkpt>
      <trkpt lat="45.21558" lon="4.69929">
        <ele>294</ele>
        <time>2020-05-23T08:25:38Z</time>
      </trkpt>
      <trkpt lat="45.21568" lon="4.69912">
        <ele>293.6</ele>
        <time>2020-05-23T08:25:42Z</time>
      </trkpt>
      <trkpt lat="45.21578" lon="4.69893">
        <ele>293.6</ele>
        <time>2020-05-23T08:25:46Z</time>
      </trkpt>
      <trkpt lat="45.2159" lon="4.69877">
        <ele>293.4</ele>
        <time>2020-05-23T08:25:50Z</time>
      </trkpt>
      <trkpt lat="45.21604" lon="4.69864">
        <ele>293</ele>
        <time>2020-05-23T08:25:54Z</time>
      </trkpt>
      <trkpt lat="45.21617" lon="4.69857">
        <ele>293.6</ele>
        <time>2020-05-23T08:25:58Z</time>
      </trkpt>
      <trkpt lat="45.21633" lon="4.69853">
        <ele>293.6</ele>
        <time>2020-05-23T08:26:02Z</time>
      </trkpt>
      <trkpt lat="45.21648" lon="4.69851">
        <ele>293</ele>
        <time>2020-05-23T08:26:06Z</time>
      </trkpt>
      <trkpt lat="45.21664" lon="4.6985">
        <ele>293.2</ele>
        <time>2020-05-23T08:26:10Z</time>
      </trkpt>
      <trkpt lat="45.21678" lon="4.69854">
        <ele>293.8</ele>
        <time>2020-05-23T08:26:14Z</time>
      </trkpt>
      <trkpt lat="45.21692" lon="4.69859">
        <ele>293.8</ele>
        <time>2020-05-23T08:26:18Z</time>
      </trkpt>
      <trkpt lat="45.21707" lon="4.69863">
        <ele>294.2</ele>
        <time>2020-05-23T08:26:22Z</time>
      </trkpt>
      <trkpt lat="45.2172" lon="4.69867">
        <ele>294.6</ele>
        <time>2020-05-23T08:26:26Z</time>
      </trkpt>
      <trkpt lat="45.21733" lon="4.69872">
        <ele>294.6</ele>
        <time>2020-05-23T08:26:30Z</time>
      </trkpt>
      <trkpt lat="45.21751" lon="4.69874">
        <ele>294.6</ele>
        <time>2020-05-23T08:26:34Z</time>
      </trkpt>
      <trkpt lat="45.21767" lon="4.69875">
        <ele>295.2</ele>
        <time>2020-05-23T08:26:38Z</time>
      </trkpt>
      <trkpt lat="45.2178" lon="4.69879">
        <ele>295.4</ele>
        <time>2020-05-23T08:26:42Z</time>
      </trkpt>
      <trkpt lat="45.21793" lon="4.69886">
        <ele>295.2</ele>
        <time>2020-05-23T08:26:46Z</time>
      </trkpt>
      <trkpt lat="45.21804" lon="4.69894">
        <ele>295.6</ele>
        <time>2020-05-23T08:26:50Z</time>
      </trkpt>
      <trkpt lat="45.21816" lon="4.69902">
        <ele>295.2</ele>
        <time>2020-05-23T08:26:54Z</time>
      </trkpt>
      <trkpt lat="45.21826" lon="4.69912">
        <ele>296.2</ele>
        <time>2020-05-23T08:26:58Z</time>
      </trkpt>
      <trkpt lat="45.2184" lon="4.69917">
        <ele>296.4</ele>
        <time>2020-05-23T08:27:02Z</time>
      </trkpt>
      <trkpt lat="45.21858" lon="4.6992">
        <ele>296.6</ele>
        <time>2020-05-23T08:27:06Z</time>
      </trkpt>
      <trkpt lat="45.21877" lon="4.69927">
        <ele>296</ele>
        <time>2020-05-23T08:27:10Z</time>
      </trkpt>
      <trkpt lat="45.21882" lon="4.69944">
        <ele>296.6</ele>
        <time>2020-05-23T08:27:14Z</time>
      </trkpt>
      <trkpt lat="45.2189" lon="4.69961">
        <ele>297.4</ele>
        <time>2020-05-23T08:27:18Z</time>
      </trkpt>
      <trkpt lat="45.21896" lon="4.69979">
        <ele>297.4</ele>
        <time>2020-05-23T08:27:22Z</time>
      </trkpt>
      <trkpt lat="45.21901" lon="4.69997">
        <ele>297.6</ele>
        <time>2020-05-23T08:27:26Z</time>
      </trkpt>
      <trkpt lat="45.21904" lon="4.70013">
        <ele>297.8</ele>
        <time>2020-05-23T08:27:30Z</time>
      </trkpt>
      <trkpt lat="45.21911" lon="4.70032">
        <ele>297.8</ele>
        <time>2020-05-23T08:27:34Z</time>
      </trkpt>
      <trkpt lat="45.21921" lon="4.70051">
        <ele>297.8</ele>
        <time>2020-05-23T08:27:38Z</time>
      </trkpt>
      <trkpt lat="45.21928" lon="4.70069">
        <ele>298.4</ele>
        <time>2020-05-23T08:27:42Z</time>
      </trkpt>
      <trkpt lat="45.21939" lon="4.70086">
        <ele>298.2</ele>
        <time>2020-05-23T08:27:46Z</time>
      </trkpt>
      <trkpt lat="45.2195" lon="4.70103">
        <ele>298.6</ele>
        <time>2020-05-23T08:27:50Z</time>
      </trkpt>
      <trkpt lat="45.2196" lon="4.70119">
        <ele>298.6</ele>
        <time>2020-05-23T08:27:54Z</time>
      </trkpt>
      <trkpt lat="45.21972" lon="4.70134">
        <ele>298.8</ele>
        <time>2020-05-23T08:27:58Z</time>
      </trkpt>
      <trkpt lat="45.21986" lon="4.70143">
        <ele>299</ele>
        <time>2020-05-23T08:28:02Z</time>
      </trkpt>
      <trkpt lat="45.22002" lon="4.70141">
        <ele>299.2</ele>
        <time>2020-05-23T08:28:06Z</time>
      </trkpt>
      <trkpt lat="45.22021" lon="4.70125">
        <ele>299.8</ele>
        <time>2020-05-23T08:28:10Z</time>
      </trkpt>
      <trkpt lat="45.22031" lon="4.70106">
        <ele>299.4</ele>
        <time>2020-05-23T08:28:14Z</time>
      </trkpt>
      <trkpt lat="45.22027" lon="4.70085">
        <ele>299.6</ele>
        <time>2020-05-23T08:28:18Z</time>
      </trkpt>
      <trkpt lat="45.22015" lon="4.70069">
        <ele>299.6</ele>
        <time>2020-05-23T08:28:22Z</time>
      </trkpt>
      <trkpt lat="45.22005" lon="4.70051">
        <ele>300.2</ele>
        <time>2020-05-23T08:28:26Z</time>
      </trkpt>
      <trkpt lat="45.21996" lon="4.70032">
        <ele>300.2</ele>
        <time>2020-05-23T08:28:30Z</time>
      </trkpt>
      <trkpt lat="45.21988" lon="4.70011">
        <ele>300.4</ele>
        <time>2020-05-23T08:28:34Z</time>
      </trkpt>
      <trkpt lat="45.21982" lon="4.69989">
        <ele>300</ele>
        <time>2020-05-23T08:28:38Z</time>
      </trkpt>
      <trkpt lat="45.21981" lon="4.69966">
        <ele>300.8</ele>
        <time>2020-05-23T08:28:42Z</time>
      </trkpt>
      <trkpt lat="45.21984" lon="4.69947">
        <ele>301</ele>
        <time>2020-05-23T08:28:46Z</time>
      </trkpt>
      <trkpt lat="45.21983" lon="4.69926">
        <ele>301.2</ele>
        <time>2020-05-23T08:28:50Z</time>
      </trkpt>
      <trkpt lat="45.21975" lon="4.69905">
        <ele>301.2</ele>
        <time>2020-05-23T08:28:54Z</time>
      </trkpt>
      <trkpt lat="45.21971" lon="4.69881">
        <ele>301.6</ele>
        <time>2020-05-23T08:28:58Z</time>
      </trkpt>
      <trkpt lat="45.21972" lon="4.69859">
        <ele>302.4</ele>
        <time>2020-05-23T08:29:02Z</time>
      </trkpt>
      <trkpt lat="45.21982" lon="4.69844">
        <ele>302.2</ele>
        <time>2020-05-23T08:29:06Z</time>
      </trkpt>
      <trkpt lat="45.21994" lon="4.69833">
        <ele>301.6</ele>
        <time>2020-05-23T08:29:10Z</time>
      </trkpt>
      <trkpt lat="45.22007" lon="4.69821">
        <ele>302.2</ele>
        <time>2020-05-23T08:29:14Z</time>
      </trkpt>
      <trkpt lat="45.22021" lon="4.69809">
        <ele>302.4</ele>
        <time>2020-05-23T08:29:18Z</time>
      </trkpt>
      <trkpt lat="45.22033" lon="4.69799">
        <ele>302.6</ele>
        <time>2020-05-23T08:29:22Z</time>
      </trkpt>
      <trkpt lat="45.22047" lon="4.6979">
        <ele>303</ele>
        <time>2020-05-23T08:29:26Z</time>
      </trkpt>
      <trkpt lat="45.22064" lon="4.6979">
        <ele>303.2</ele>
        <time>2020-05-23T08:29:30Z</time>
      </trkpt>
      <trkpt lat="45.22079" lon="4.69795">
        <ele>303.6</ele>
        <time>2020-05-23T08:29:34Z</time>
      </trkpt>
      <trkpt lat="45.22093" lon="4.69799">
        <ele>304.2</ele>
        <time>2020-05-23T08:29:38Z</time>
      </trkpt>
      <trkpt lat="45.22103" lon="4.69803">
        <ele>304.6</ele>
        <time>2020-05-23T08:29:42Z</time>
      </trkpt>
      <trkpt lat="45.22117" lon="4.69806">
        <ele>304.8</ele>
        <time>2020-05-23T08:29:46Z</time>
      </trkpt>
      <trkpt lat="45.22129" lon="4.69808">
        <ele>304.4</ele>
        <time>2020-05-23T08:29:50Z</time>
      </trkpt>
      <trkpt lat="45.22143" lon="4.69796">
        <ele>304.4</ele>
        <time>2020-05-23T08:29:54Z</time>
      </trkpt>
      <trkpt lat="45.22149" lon="4.69772">
        <ele>304.4</ele>
        <time>2020-05-23T08:29:58Z</time>
      </trkpt>
      <trkpt lat="45.2214" lon="4.69755">
        <ele>305.6</ele>
        <time>2020-05-23T08:30:02Z</time>
      </trkpt>
      <trkpt lat="45.22129" lon="4.69746">
        <ele>305</ele>
        <time>2020-05-23T08:30:06Z</time>
      </trkpt>
      <trkpt lat="45.22114" lon="4.69733">
        <ele>305.8</ele>
        <time>2020-05-23T08:30:10Z</time>
      </trkpt>
      <trkpt lat="45.22101" lon="4.6972">
        <ele>305</ele>
        <time>2020-05-23T08:30:14Z</time>
      </trkpt>
      <trkpt lat="45.2209" lon="4.69705">
        <ele>305.6</ele>
        <time>2020-05-23T08:30:18Z</time>
      </trkpt>
      <trkpt lat="45.2208" lon="4.69688">
        <ele>305.8</ele>
        <time>2020-05-23T08:30:22Z</time>
      </trkpt>
      <trkpt lat="45.22072" lon="4.6967">
        <ele>306</ele>
        <time>2020-05-23T08:30:26Z</time>
      </trkpt>
      <trkpt lat="45.22068" lon="4.69649">
        <ele>305.6</ele>
        <time>2020-05-23T08:30:30Z</time>
      </trkpt>
      <trkpt lat="45.22067" lon="4.69626">
        <ele>306</ele>
        <time>2020-05-23T08:30:34Z</time>
      </trkpt>
      <trkpt lat="45.2207" lon="4.69604">
        <ele>306</ele>
        <time>2020-05-23T08:30:38Z</time>
      </trkpt>
      <trkpt lat="45.22075" lon="4.69582">
        <ele>306</ele>
        <time>2020-05-23T08:30:42Z</time>
      </trkpt>
      <trkpt lat="45.2208" lon="4.69561">
        <ele>306.4</ele>
        <time>2020-05-23T08:30:46Z</time>
      </trkpt>
      <trkpt lat="45.22086" lon="4.69541">
        <ele>306.4</ele>
        <time>2020-05-23T08:30:50Z</time>
      </trkpt>
      <trkpt lat="45.22089" lon="4.69521">
        <ele>306.8</ele>
        <time>2020-05-23T08:30:54Z</time>
      </trkpt>
      <trkpt lat="45.2209" lon="4.69498">
        <ele>306.8</ele>
        <time>2020-05-23T08:30:58Z</time>
      </trkpt>
      <trkpt lat="45.2209" lon="4.69473">
        <ele>306.8</ele>
        <time>2020-05-23T08:31:02Z</time>
      </trkpt>
      <trkpt lat="45.22095" lon="4.6945">
        <ele>306.6</ele>
        <time>2020-05-23T08:31:06Z</time>
      </trkpt>
      <trkpt lat="45.22102" lon="4.69429">
        <ele>306.6</ele>
        <time>2020-05-23T08:31:10Z</time>
      </trkpt>
      <trkpt lat="45.22106" lon="4.69409">
        <ele>307.2</ele>
        <time>2020-05-23T08:31:14Z</time>
      </trkpt>
      <trkpt lat="45.22107" lon="4.69388">
        <ele>307</ele>
        <time>2020-05-23T08:31:18Z</time>
      </trkpt>
      <trkpt lat="45.22109" lon="4.69366">
        <ele>307.4</ele>
        <time>2020-05-23T08:31:22Z</time>
      </trkpt>
      <trkpt lat="45.22106" lon="4.69341">
        <ele>307</ele>
        <time>2020-05-23T08:31:26Z</time>
      </trkpt>
      <trkpt lat="45.22106" lon="4.6932">
        <ele>307.8</ele>
        <time>2020-05-23T08:31:30Z</time>
      </trkpt>
      <trkpt lat="45.22102" lon="4.69299">
        <ele>307.6</ele>
        <time>2020-05-23T08:31:34Z</time>
      </trkpt>
      <trkpt lat="45.22095" lon="4.69278">
        <ele>308.4</ele>
        <time>2020-05-23T08:31:38Z</time>
      </trkpt>
      <trkpt lat="45.22089" lon="4.69255">
        <ele>308.2</ele>
        <time>2020-05-23T08:31:42Z</time>
      </trkpt>
      <trkpt lat="45.2209" lon="4.69233">
        <ele>308.2</ele>
        <time>2020-05-23T08:31:46Z</time>
      </trkpt>
      <trkpt lat="45.22102" lon="4.6922">
        <ele>308.6</ele>
        <time>2020-05-23T08:31:50Z</time>
      </trkpt>
      <trkpt lat="45.22113" lon="4.69206">
        <ele>308.6</ele>
        <time>2020-05-23T08:31:54Z</time>
      </trkpt>
      <trkpt lat="45.22125" lon="4.69191">
        <ele>308.2</ele>
        <time>2020-05-23T08:31:58Z</time>
      </trkpt>
      <trkpt lat="45.22138" lon="4.69178">
        <ele>308.6</ele>
        <time>2020-05-23T08:32:02Z</time>
      </trkpt>
      <trkpt lat="45.22151" lon="4.69171">
        <ele>309.6</ele>
        <time>2020-05-23T08:32:06Z</time>
      </trkpt>
      <trkpt lat="45.22164" lon="4.69165">
        <ele>309.2</ele>
        <time>2020-05-23T08:32:10Z</time>
      </trkpt>
      <trkpt lat="45.22175" lon="4.69161">
        <ele>310</ele>
        <time>2020-05-23T08:32:14Z</time>
      </trkpt>
      <trkpt lat="45.22186" lon="4.69157">
        <ele>310.2</ele>
        <time>2020-05-23T08:32:18Z</time>
      </trkpt>
      <trkpt lat="45.22197" lon="4.69156">
        <ele>310.4</ele>
        <time>2020-05-23T08:32:22Z</time>
      </trkpt>
      <trkpt lat="45.22208" lon="4.69151">
        <ele>310.8</ele>
        <time>2020-05-23T08:32:26Z</time>
      </trkpt>
      <trkpt lat="45.22218" lon="4.69144">
        <ele>310.8</ele>
        <time>2020-05-23T08:32:30Z</time>
      </trkpt>
      <trkpt lat="45.2223" lon="4.69143">
        <ele>310.8</ele>
        <time>2020-05-23T08:32:34Z</time>
      </trkpt>
      <trkpt lat="45.22242" lon="4.69147">
        <ele>311.2</ele>
        <time>2020-05-23T08:32:38Z</time>
      </trkpt>
      <trkpt lat="45.22255" lon="4.69155">
        <ele>311.4</ele>
        <time>2020-05-23T08:32:42Z</time>
      </trkpt>
      <trkpt lat="45.22267" lon="4.69165">
        <ele>311.6</ele>
        <time>2020-05-23T08:32:46Z</time>
      </trkpt>
      <trkpt lat="45.22282" lon="4.69176">
        <ele>311.8</ele>
        <time>2020-05-23T08:32:50Z</time>
      </trkpt>
      <trkpt lat="45.22293" lon="4.6919">
        <ele>312.2</ele>
        <time>2020-05-23T08:32:54Z</time>
      </trkpt>
      <trkpt lat="45.22305" lon="4.69198">
        <ele>312.4</ele>
        <time>2020-05-23T08:32:58Z</time>
      </trkpt>
      <trkpt lat="45.22323" lon="4.69187">
        <ele>312.4</ele>
        <time>2020-05-23T08:33:02Z</time>
      </trkpt>
      <trkpt lat="45.2234" lon="4.69161">
        <ele>312.6</ele>
        <time>2020-05-23T08:33:06Z</time>
      </trkpt>
      <trkpt lat="45.22341" lon="4.69137">
        <ele>313.4</ele>
        <time>2020-05-23T08:33:10Z</time>
      </trkpt>
      <trkpt lat="45.22338" lon="4.69119">
        <ele>314.4</ele>
        <time>2020-05-23T08:33:14Z</time>
      </trkpt>
      <trkpt lat="45.2233" lon="4.69101">
        <ele>313.8</ele>
        <time>2020-05-23T08:33:18Z</time>
      </trkpt>
      <trkpt lat="45.22322" lon="4.69083">
        <ele>314</ele>
        <time>2020-05-23T08:33:22Z</time>
      </trkpt>
      <trkpt lat="45.22313" lon="4.69066">
        <ele>314.2</ele>
        <time>2020-05-23T08:33:26Z</time>
      </trkpt>
      <trkpt lat="45.22303" lon="4.6905">
        <ele>314</ele>
        <time>2020-05-23T08:33:30Z</time>
      </trkpt>
      <trkpt lat="45.22291" lon="4.69034">
        <ele>314.4</ele>
        <time>2020-05-23T08:33:34Z</time>
      </trkpt>
      <trkpt lat="45.22285" lon="4.69014">
        <ele>314.4</ele>
        <time>2020-05-23T08:33:38Z</time>
      </trkpt>
      <trkpt lat="45.22283" lon="4.68993">
        <ele>314.8</ele>
        <time>2020-05-23T08:33:42Z</time>
      </trkpt>
      <trkpt lat="45.22282" lon="4.68972">
        <ele>315.6</ele>
        <time>2020-05-23T08:33:46Z</time>
      </trkpt>
      <trkpt lat="45.22279" lon="4.68952">
        <ele>315.8</ele>
        <time>2020-05-23T08:33:50Z</time>
      </trkpt>
      <trkpt lat="45.22276" lon="4.68934">
        <ele>316</ele>
        <time>2020-05-23T08:33:54Z</time>
      </trkpt>
      <trkpt lat="45.22271" lon="4.68916">
        <ele>316.6</ele>
        <time>2020-05-23T08:33:58Z</time>
      </trkpt>
      <trkpt lat="45.22263" lon="4.68896">
        <ele>316.4</ele>
        <time>2020-05-23T08:34:02Z</time>
      </trkpt>
      <trkpt lat="45.22253" lon="4.68879">
        <ele>316.6</ele>
        <time>2020-05-23T08:34:06Z</time>
      </trkpt>
      <trkpt lat="45.2224" lon="4.68866">
        <ele>316.8</ele>
        <time>2020-05-23T08:34:10Z</time>
      </trkpt>
      <trkpt lat="45.22227" lon="4.68857">
        <ele>317.8</ele>
        <time>2020-05-23T08:34:14Z</time>
      </trkpt>
      <trkpt lat="45.22212" lon="4.68848">
        <ele>318.2</ele>
        <time>2020-05-23T08:34:18Z</time>
      </trkpt>
      <trkpt lat="45.22199" lon="4.68837">
        <ele>317.8</ele>
        <time>2020-05-23T08:34:22Z</time>
      </trkpt>
      <trkpt lat="45.22191" lon="4.6882">
        <ele>317.8</ele>
        <time>2020-05-23T08:34:26Z</time>
      </trkpt>
      <trkpt lat="45.22192" lon="4.68802">
        <ele>318</ele>
        <time>2020-05-23T08:34:30Z</time>
      </trkpt>
      <trkpt lat="45.22192" lon="4.68782">
        <ele>318.6</ele>
        <time>2020-05-23T08:34:34Z</time>
      </trkpt>
      <trkpt lat="45.22193" lon="4.68761">
        <ele>319</ele>
        <time>2020-05-23T08:34:38Z</time>
      </trkpt>
      <trkpt lat="45.22197" lon="4.68743">
        <ele>319.6</ele>
        <time>2020-05-23T08:34:42Z</time>
      </trkpt>
      <trkpt lat="45.22206" lon="4.68729">
        <ele>318.8</ele>
        <time>2020-05-23T08:34:46Z</time>
      </trkpt>
      <trkpt lat="45.22217" lon="4.68714">
        <ele>319.4</ele>
        <time>2020-05-23T08:34:50Z</time>
      </trkpt>
      <trkpt lat="45.22229" lon="4.68703">
        <ele>320</ele>
        <time>2020-05-23T08:34:54Z</time>
      </trkpt>
      <trkpt lat="45.22244" lon="4.68697">
        <ele>320</ele>
        <time>2020-05-23T08:34:58Z</time>
      </trkpt>
      <trkpt lat="45.22258" lon="4.68694">
        <ele>320</ele>
        <time>2020-05-23T08:35:02Z</time>
      </trkpt>
      <trkpt lat="45.22273" lon="4.6869">
        <ele>319.8</ele>
        <time>2020-05-23T08:35:06Z</time>
      </trkpt>
      <trkpt lat="45.22288" lon="4.68683">
        <ele>320.4</ele>
        <time>2020-05-23T08:35:10Z</time>
      </trkpt>
      <trkpt lat="45.22303" lon="4.68674">
        <ele>319.8</ele>
        <time>2020-05-23T08:35:14Z</time>
      </trkpt>
      <trkpt lat="45.22319" lon="4.68667">
        <ele>320.4</ele>
        <time>2020-05-23T08:35:18Z</time>
      </trkpt>
      <trkpt lat="45.22335" lon="4.68666">
        <ele>320.8</ele>
        <time>2020-05-23T08:35:22Z</time>
      </trkpt>
      <trkpt lat="45.22351" lon="4.68655">
        <ele>320.2</ele>
        <time>2020-05-23T08:35:26Z</time>
      </trkpt>
      <trkpt lat="45.22359" lon="4.68634">
        <ele>320.6</ele>
        <time>2020-05-23T08:35:30Z</time>
      </trkpt>
      <trkpt lat="45.22364" lon="4.68613">
        <ele>321.2</ele>
        <time>2020-05-23T08:35:34Z</time>
      </trkpt>
      <trkpt lat="45.22376" lon="4.68597">
        <ele>320.6</ele>
        <time>2020-05-23T08:35:38Z</time>
      </trkpt>
      <trkpt lat="45.2239" lon="4.68586">
        <ele>320.8</ele>
        <time>2020-05-23T08:35:42Z</time>
      </trkpt>
      <trkpt lat="45.22401" lon="4.68576">
        <ele>321</ele>
        <time>2020-05-23T08:35:46Z</time>
      </trkpt>
      <trkpt lat="45.22417" lon="4.68563">
        <ele>320.8</ele>
        <time>2020-05-23T08:35:50Z</time>
      </trkpt>
      <trkpt lat="45.22432" lon="4.68549">
        <ele>321</ele>
        <time>2020-05-23T08:35:54Z</time>
      </trkpt>
      <trkpt lat="45.22446" lon="4.68537">
        <ele>321.6</ele>
        <time>2020-05-23T08:35:58Z</time>
      </trkpt>
      <trkpt lat="45.22462" lon="4.68527">
        <ele>320.8</ele>
        <time>2020-05-23T08:36:02Z</time>
      </trkpt>
      <trkpt lat="45.22478" lon="4.68528">
        <ele>321.4</ele>
        <time>2020-05-23T08:36:06Z</time>
      </trkpt>
      <trkpt lat="45.22493" lon="4.68535">
        <ele>321.4</ele>
        <time>2020-05-23T08:36:10Z</time>
      </trkpt>
      <trkpt lat="45.22505" lon="4.68546">
        <ele>320.8</ele>
        <time>2020-05-23T08:36:14Z</time>
      </trkpt>
      <trkpt lat="45.22516" lon="4.68556">
        <ele>321.4</ele>
        <time>2020-05-23T08:36:18Z</time>
      </trkpt>
      <trkpt lat="45.22528" lon="4.68556">
        <ele>321.4</ele>
        <time>2020-05-23T08:36:22Z</time>
      </trkpt>
      <trkpt lat="45.22542" lon="4.68543">
        <ele>322</ele>
        <time>2020-05-23T08:36:26Z</time>
      </trkpt>
      <trkpt lat="45.22557" lon="4.68527">
        <ele>321.8</ele>
        <time>2020-05-23T08:36:30Z</time>
      </trkpt>
      <trkpt lat="45.22572" lon="4.68517">
        <ele>321.8</ele>
        <time>2020-05-23T08:36:34Z</time>
      </trkpt>
      <trkpt lat="45.22584" lon="4.68508">
        <ele>322.2</ele>
        <time>2020-05-23T08:36:38Z</time>
      </trkpt>
      <trkpt lat="45.22598" lon="4.68513">
        <ele>322.4</ele>
        <time>2020-05-23T08:36:42Z</time>
      </trkpt>
      <trkpt lat="45.22609" lon="4.68523">
        <ele>322.2</ele>
        <time>2020-05-23T08:36:46Z</time>
      </trkpt>
      <trkpt lat="45.22622" lon="4.68514">
        <ele>322.4</ele>
        <time>2020-05-23T08:36:50Z</time>
      </trkpt>
      <trkpt lat="45.22638" lon="4.68495">
        <ele>322</ele>
        <time>2020-05-23T08:36:54Z</time>
      </trkpt>
      <trkpt lat="45.22651" lon="4.68483">
        <ele>322.2</ele>
        <time>2020-05-23T08:36:58Z</time>
      </trkpt>
      <trkpt lat="45.22663" lon="4.68468">
        <ele>322.4</ele>
        <time>2020-05-23T08:37:02Z</time>
      </trkpt>
      <trkpt lat="45.22676" lon="4.68462">
        <ele>322.6</ele>
        <time>2020-05-23T08:37:06Z</time>
      </trkpt>
      <trkpt lat="45.22691" lon="4.68461">
        <ele>322.6</ele>
        <time>2020-05-23T08:37:10Z</time>
      </trkpt>
      <trkpt lat="45.22708" lon="4.68454">
        <ele>322.8</ele>
        <time>2020-05-23T08:37:14Z</time>
      </trkpt>
      <trkpt lat="45.22716" lon="4.68429">
        <ele>322.6</ele>
        <time>2020-05-23T08:37:18Z</time>
      </trkpt>
      <trkpt lat="45.22709" lon="4.68404">
        <ele>323.8</ele>
        <time>2020-05-23T08:37:22Z</time>
      </trkpt>
      <trkpt lat="45.227" lon="4.68387">
        <ele>323.2</ele>
        <time>2020-05-23T08:37:26Z</time>
      </trkpt>
      <trkpt lat="45.22689" lon="4.68371">
        <ele>323.4</ele>
        <time>2020-05-23T08:37:30Z</time>
      </trkpt>
      <trkpt lat="45.2268" lon="4.68355">
        <ele>323.2</ele>
        <time>2020-05-23T08:37:34Z</time>
      </trkpt>
      <trkpt lat="45.22674" lon="4.68337">
        <ele>323.8</ele>
        <time>2020-05-23T08:37:38Z</time>
      </trkpt>
      <trkpt lat="45.22671" lon="4.68316">
        <ele>323.8</ele>
        <time>2020-05-23T08:37:42Z</time>
      </trkpt>
      <trkpt lat="45.22665" lon="4.68296">
        <ele>324</ele>
        <time>2020-05-23T08:37:46Z</time>
      </trkpt>
      <trkpt lat="45.2266" lon="4.6828">
        <ele>324.2</ele>
        <time>2020-05-23T08:37:50Z</time>
      </trkpt>
      <trkpt lat="45.22653" lon="4.68259">
        <ele>324.2</ele>
        <time>2020-05-23T08:37:54Z</time>
      </trkpt>
      <trkpt lat="45.22649" lon="4.68242">
        <ele>325.4</ele>
        <time>2020-05-23T08:37:58Z</time>
      </trkpt>
      <trkpt lat="45.2265" lon="4.68227">
        <ele>324.4</ele>
        <time>2020-05-23T08:38:02Z</time>
      </trkpt>
      <trkpt lat="45.22648" lon="4.68201">
        <ele>323.6</ele>
        <time>2020-05-23T08:38:06Z</time>
      </trkpt>
      <trkpt lat="45.22639" lon="4.68176">
        <ele>323.8</ele>
        <time>2020-05-23T08:38:10Z</time>
      </trkpt>
      <trkpt lat="45.22629" lon="4.68151">
        <ele>323.4</ele>
        <time>2020-05-23T08:38:14Z</time>
      </trkpt>
      <trkpt lat="45.22622" lon="4.68126">
        <ele>324.6</ele>
        <time>2020-05-23T08:38:18Z</time>
      </trkpt>
      <trkpt lat="45.22619" lon="4.68101">
        <ele>324</ele>
        <time>2020-05-23T08:38:22Z</time>
      </trkpt>
      <trkpt lat="45.22617" lon="4.68076">
        <ele>324.4</ele>
        <time>2020-05-23T08:38:26Z</time>
      </trkpt>
      <trkpt lat="45.22617" lon="4.68052">
        <ele>324.8</ele>
        <time>2020-05-23T08:38:30Z</time>
      </trkpt>
      <trkpt lat="45.22618" lon="4.68028">
        <ele>325</ele>
        <time>2020-05-23T08:38:34Z</time>
      </trkpt>
      <trkpt lat="45.22619" lon="4.68004">
        <ele>325.2</ele>
        <time>2020-05-23T08:38:38Z</time>
      </trkpt>
      <trkpt lat="45.22618" lon="4.6798">
        <ele>325.6</ele>
        <time>2020-05-23T08:38:42Z</time>
      </trkpt>
      <trkpt lat="45.22614" lon="4.67956">
        <ele>325.2</ele>
        <time>2020-05-23T08:38:46Z</time>
      </trkpt>
      <trkpt lat="45.22607" lon="4.67932">
        <ele>325.4</ele>
        <time>2020-05-23T08:38:50Z</time>
      </trkpt>
      <trkpt lat="45.226" lon="4.67907">
        <ele>325.2</ele>
        <time>2020-05-23T08:38:54Z</time>
      </trkpt>
      <trkpt lat="45.22593" lon="4.67883">
        <ele>325.2</ele>
        <time>2020-05-23T08:38:58Z</time>
      </trkpt>
      <trkpt lat="45.22589" lon="4.67858">
        <ele>325.4</ele>
        <time>2020-05-23T08:39:02Z</time>
      </trkpt>
      <trkpt lat="45.22586" lon="4.67834">
        <ele>325.4</ele>
        <time>2020-05-23T08:39:06Z</time>
      </trkpt>
      <trkpt lat="45.22585" lon="4.6781">
        <ele>325.8</ele>
        <time>2020-05-23T08:39:10Z</time>
      </trkpt>
      <trkpt lat="45.22583" lon="4.67786">
        <ele>325.6</ele>
        <time>2020-05-23T08:39:14Z</time>
      </trkpt>
      <trkpt lat="45.22581" lon="4.67762">
        <ele>326</ele>
        <time>2020-05-23T08:39:18Z</time>
      </trkpt>
      <trkpt lat="45.22577" lon="4.67738">
        <ele>326</ele>
        <time>2020-05-23T08:39:22Z</time>
      </trkpt>
      <trkpt lat="45.22574" lon="4.67714">
        <ele>326</ele>
        <time>2020-05-23T08:39:26Z</time>
      </trkpt>
      <trkpt lat="45.22572" lon="4.67689">
        <ele>325.8</ele>
        <time>2020-05-23T08:39:30Z</time>
      </trkpt>
      <trkpt lat="45.22574" lon="4.67666">
        <ele>325.8</ele>
        <time>2020-05-23T08:39:34Z</time>
      </trkpt>
      <trkpt lat="45.22578" lon="4.67642">
        <ele>326</ele>
        <time>2020-05-23T08:39:38Z</time>
      </trkpt>
      <trkpt lat="45.22583" lon="4.67619">
        <ele>326</ele>
        <time>2020-05-23T08:39:42Z</time>
      </trkpt>
      <trkpt lat="45.22589" lon="4.67596">
        <ele>326.4</ele>
        <time>2020-05-23T08:39:46Z</time>
      </trkpt>
      <trkpt lat="45.22599" lon="4.67575">
        <ele>326</ele>
        <time>2020-05-23T08:39:50Z</time>
      </trkpt>
      <trkpt lat="45.22613" lon="4.67559">
        <ele>326.4</ele>
        <time>2020-05-23T08:39:54Z</time>
      </trkpt>
      <trkpt lat="45.2263" lon="4.67553">
        <ele>326.4</ele>
        <time>2020-05-23T08:39:58Z</time>
      </trkpt>
      <trkpt lat="45.22647" lon="4.67554">
        <ele>326.6</ele>
        <time>2020-05-23T08:40:02Z</time>
      </trkpt>
      <trkpt lat="45.22662" lon="4.6756">
        <ele>326.6</ele>
        <time>2020-05-23T08:40:06Z</time>
      </trkpt>
      <trkpt lat="45.22676" lon="4.67567">
        <ele>326.8</ele>
        <time>2020-05-23T08:40:10Z</time>
      </trkpt>
      <trkpt lat="45.22691" lon="4.67571">
        <ele>327</ele>
        <time>2020-05-23T08:40:14Z</time>
      </trkpt>
      <trkpt lat="45.22709" lon="4.67572">
        <ele>326.8</ele>
        <time>2020-05-23T08:40:18Z</time>
      </trkpt>
      <trkpt lat="45.22728" lon="4.67568">
        <ele>327.2</ele>
        <time>2020-05-23T08:40:22Z</time>
      </trkpt>
      <trkpt lat="45.22745" lon="4.67561">
        <ele>327</ele>
        <time>2020-05-23T08:40:26Z</time>
      </trkpt>
      <trkpt lat="45.22762" lon="4.67551">
        <ele>327</ele>
        <time>2020-05-23T08:40:30Z</time>
      </trkpt>
      <trkpt lat="45.2278" lon="4.67543">
        <ele>327.4</ele>
        <time>2020-05-23T08:40:34Z</time>
      </trkpt>
      <trkpt lat="45.22797" lon="4.67542">
        <ele>327</ele>
        <time>2020-05-23T08:40:38Z</time>
      </trkpt>
      <trkpt lat="45.22812" lon="4.67552">
        <ele>327</ele>
        <time>2020-05-23T08:40:42Z</time>
      </trkpt>
      <trkpt lat="45.22826" lon="4.67564">
        <ele>327.6</ele>
        <time>2020-05-23T08:40:46Z</time>
      </trkpt>
      <trkpt lat="45.22838" lon="4.67579">
        <ele>327.6</ele>
        <time>2020-05-23T08:40:50Z</time>
      </trkpt>
      <trkpt lat="45.22849" lon="4.67595">
        <ele>328.2</ele>
        <time>2020-05-23T08:40:54Z</time>
      </trkpt>
      <trkpt lat="45.2286" lon="4.67611">
        <ele>327.4</ele>
        <time>2020-05-23T08:40:58Z</time>
      </trkpt>
      <trkpt lat="45.22873" lon="4.67629">
        <ele>328</ele>
        <time>2020-05-23T08:41:02Z</time>
      </trkpt>
      <trkpt lat="45.22884" lon="4.67647">
        <ele>327.8</ele>
        <time>2020-05-23T08:41:06Z</time>
      </trkpt>
      <trkpt lat="45.22897" lon="4.67664">
        <ele>327.6</ele>
        <time>2020-05-23T08:41:10Z</time>
      </trkpt>
      <trkpt lat="45.22905" lon="4.67682">
        <ele>328.4</ele>
        <time>2020-05-23T08:41:14Z</time>
      </trkpt>
      <trkpt lat="45.22914" lon="4.677">
        <ele>327.8</ele>
        <time>2020-05-23T08:41:18Z</time>
      </trkpt>
      <trkpt lat="45.22923" lon="4.67719">
        <ele>328</ele>
        <time>2020-05-23T08:41:22Z</time>
      </trkpt>
      <trkpt lat="45.22931" lon="4.67739">
        <ele>328.2</ele>
        <time>2020-05-23T08:41:26Z</time>
      </trkpt>
      <trkpt lat="45.22942" lon="4.67759">
        <ele>328.8</ele>
        <time>2020-05-23T08:41:30Z</time>
      </trkpt>
      <trkpt lat="45.22953" lon="4.67777">
        <ele>329.2</ele>
        <time>2020-05-23T08:41:34Z</time>
      </trkpt>
      <trkpt lat="45.22965" lon="4.67791">
        <ele>329.6</ele>
        <time>2020-05-23T08:41:38Z</time>
      </trkpt>
      <trkpt lat="45.22981" lon="4.678">
        <ele>329.2</ele>
        <time>2020-05-23T08:41:42Z</time>
      </trkpt>
      <trkpt lat="45.22998" lon="4.67804">
        <ele>329.2</ele>
        <time>2020-05-23T08:41:46Z</time>
      </trkpt>
      <trkpt lat="45.23013" lon="4.67804">
        <ele>329.2</ele>
        <time>2020-05-23T08:41:50Z</time>
      </trkpt>
      <trkpt lat="45.2303" lon="4.678">
        <ele>329.6</ele>
        <time>2020-05-23T08:41:54Z</time>
      </trkpt>
      <trkpt lat="45.23048" lon="4.67792">
        <ele>330</ele>
        <time>2020-05-23T08:41:58Z</time>
      </trkpt>
      <trkpt lat="45.23065" lon="4.67785">
        <ele>329.2</ele>
        <time>2020-05-23T08:42:02Z</time>
      </trkpt>
      <trkpt lat="45.23081" lon="4.67778">
        <ele>330.6</ele>
        <time>2020-05-23T08:42:06Z</time>
      </trkpt>
      <trkpt lat="45.23098" lon="4.6777">
        <ele>330</ele>
        <time>2020-05-23T08:42:10Z</time>
      </trkpt>
      <trkpt lat="45.23114" lon="4.67762">
        <ele>330.8</ele>
        <time>2020-05-23T08:42:14Z</time>
      </trkpt>
      <trkpt lat="45.2313" lon="4.67752">
        <ele>330.4</ele>
        <time>2020-05-23T08:42:18Z</time>
      </trkpt>
      <trkpt lat="45.23145" lon="4.67738">
        <ele>330.4</ele>
        <time>2020-05-23T08:42:22Z</time>
      </trkpt>
      <trkpt lat="45.23158" lon="4.67722">
        <ele>330.4</ele>
        <time>2020-05-23T08:42:26Z</time>
      </trkpt>
      <trkpt lat="45.2317" lon="4.67704">
        <ele>330.4</ele>
        <time>2020-05-23T08:42:30Z</time>
      </trkpt>
      <trkpt lat="45.23181" lon="4.67686">
        <ele>330.4</ele>
        <time>2020-05-23T08:42:34Z</time>
      </trkpt>
      <trkpt lat="45.23191" lon="4.6767">
        <ele>330.8</ele>
        <time>2020-05-23T08:42:38Z</time>
      </trkpt>
      <trkpt lat="45.23202" lon="4.67653">
        <ele>331.6</ele>
        <time>2020-05-23T08:42:42Z</time>
      </trkpt>
      <trkpt lat="45.23213" lon="4.67637">
        <ele>331.2</ele>
        <time>2020-05-23T08:42:46Z</time>
      </trkpt>
      <trkpt lat="45.23226" lon="4.67618">
        <ele>330.8</ele>
        <time>2020-05-23T08:42:50Z</time>
      </trkpt>
      <trkpt lat="45.23241" lon="4.67607">
        <ele>330</ele>
        <time>2020-05-23T08:42:54Z</time>
      </trkpt>
      <trkpt lat="45.23258" lon="4.676">
        <ele>329.4</ele>
        <time>2020-05-23T08:42:58Z</time>
      </trkpt>
      <trkpt lat="45.23277" lon="4.67591">
        <ele>329.2</ele>
        <time>2020-05-23T08:43:02Z</time>
      </trkpt>
      <trkpt lat="45.23298" lon="4.67587">
        <ele>327.8</ele>
        <time>2020-05-23T08:43:06Z</time>
      </trkpt>
      <trkpt lat="45.23319" lon="4.67591">
        <ele>326</ele>
        <time>2020-05-23T08:43:10Z</time>
      </trkpt>
      <trkpt lat="45.23344" lon="4.67591">
        <ele>326</ele>
        <time>2020-05-23T08:43:14Z</time>
      </trkpt>
      <trkpt lat="45.23368" lon="4.67584">
        <ele>325.8</ele>
        <time>2020-05-23T08:43:18Z</time>
      </trkpt>
      <trkpt lat="45.23392" lon="4.67564">
        <ele>324.2</ele>
        <time>2020-05-23T08:43:22Z</time>
      </trkpt>
      <trkpt lat="45.23414" lon="4.6754">
        <ele>323.8</ele>
        <time>2020-05-23T08:43:26Z</time>
      </trkpt>
      <trkpt lat="45.23438" lon="4.67517">
        <ele>321.8</ele>
        <time>2020-05-23T08:43:30Z</time>
      </trkpt>
      <trkpt lat="45.23465" lon="4.67518">
        <ele>320.6</ele>
        <time>2020-05-23T08:43:34Z</time>
      </trkpt>
      <trkpt lat="45.23487" lon="4.67507">
        <ele>320.6</ele>
        <time>2020-05-23T08:43:38Z</time>
      </trkpt>
      <trkpt lat="45.23496" lon="4.67472">
        <ele>320.4</ele>
        <time>2020-05-23T08:43:42Z</time>
      </trkpt>
      <trkpt lat="45.23507" lon="4.6744">
        <ele>321</ele>
        <time>2020-05-23T08:43:46Z</time>
      </trkpt>
      <trkpt lat="45.23517" lon="4.6741">
        <ele>321</ele>
        <time>2020-05-23T08:43:50Z</time>
      </trkpt>
      <trkpt lat="45.23525" lon="4.67385">
        <ele>321.8</ele>
        <time>2020-05-23T08:43:54Z</time>
      </trkpt>
      <trkpt lat="45.2353" lon="4.67366">
        <ele>323.2</ele>
        <time>2020-05-23T08:43:58Z</time>
      </trkpt>
      <trkpt lat="45.23533" lon="4.67347">
        <ele>323.8</ele>
        <time>2020-05-23T08:44:02Z</time>
      </trkpt>
      <trkpt lat="45.23535" lon="4.6733">
        <ele>324.6</ele>
        <time>2020-05-23T08:44:06Z</time>
      </trkpt>
      <trkpt lat="45.23539" lon="4.67314">
        <ele>325</ele>
        <time>2020-05-23T08:44:10Z</time>
      </trkpt>
      <trkpt lat="45.23545" lon="4.67299">
        <ele>326</ele>
        <time>2020-05-23T08:44:14Z</time>
      </trkpt>
      <trkpt lat="45.23553" lon="4.67287">
        <ele>327</ele>
        <time>2020-05-23T08:44:18Z</time>
      </trkpt>
      <trkpt lat="45.23561" lon="4.67276">
        <ele>327.6</ele>
        <time>2020-05-23T08:44:22Z</time>
      </trkpt>
      <trkpt lat="45.2357" lon="4.67267">
        <ele>328.4</ele>
        <time>2020-05-23T08:44:26Z</time>
      </trkpt>
      <trkpt lat="45.23581" lon="4.6726">
        <ele>328.8</ele>
        <time>2020-05-23T08:44:30Z</time>
      </trkpt>
      <trkpt lat="45.23591" lon="4.67253">
        <ele>330</ele>
        <time>2020-05-23T08:44:34Z</time>
      </trkpt>
      <trkpt lat="45.236" lon="4.67244">
        <ele>330.6</ele>
        <time>2020-05-23T08:44:38Z</time>
      </trkpt>
      <trkpt lat="45.23607" lon="4.67235">
        <ele>331.6</ele>
        <time>2020-05-23T08:44:42Z</time>
      </trkpt>
      <trkpt lat="45.23611" lon="4.67219">
        <ele>330.4</ele>
        <time>2020-05-23T08:44:46Z</time>
      </trkpt>
      <trkpt lat="45.23606" lon="4.67195">
        <ele>329.6</ele>
        <time>2020-05-23T08:44:50Z</time>
      </trkpt>
      <trkpt lat="45.23601" lon="4.67171">
        <ele>329.8</ele>
        <time>2020-05-23T08:44:54Z</time>
      </trkpt>
      <trkpt lat="45.23593" lon="4.6715">
        <ele>329.4</ele>
        <time>2020-05-23T08:44:58Z</time>
      </trkpt>
      <trkpt lat="45.23581" lon="4.67146">
        <ele>331.2</ele>
        <time>2020-05-23T08:45:02Z</time>
      </trkpt>
      <trkpt lat="45.23569" lon="4.67148">
        <ele>332.4</ele>
        <time>2020-05-23T08:45:06Z</time>
      </trkpt>
      <trkpt lat="45.23558" lon="4.67151">
        <ele>332.8</ele>
        <time>2020-05-23T08:45:10Z</time>
      </trkpt>
      <trkpt lat="45.23548" lon="4.67153">
        <ele>333.6</ele>
        <time>2020-05-23T08:45:14Z</time>
      </trkpt>
      <trkpt lat="45.23538" lon="4.67157">
        <ele>334.2</ele>
        <time>2020-05-23T08:45:18Z</time>
      </trkpt>
      <trkpt lat="45.2353" lon="4.67164">
        <ele>335.2</ele>
        <time>2020-05-23T08:45:22Z</time>
      </trkpt>
      <trkpt lat="45.23523" lon="4.67175">
        <ele>335.4</ele>
        <time>2020-05-23T08:45:26Z</time>
      </trkpt>
      <trkpt lat="45.23517" lon="4.67187">
        <ele>336.2</ele>
        <time>2020-05-23T08:45:30Z</time>
      </trkpt>
      <trkpt lat="45.2351" lon="4.67197">
        <ele>337</ele>
        <time>2020-05-23T08:45:34Z</time>
      </trkpt>
      <trkpt lat="45.23504" lon="4.67206">
        <ele>337.2</ele>
        <time>2020-05-23T08:45:38Z</time>
      </trkpt>
      <trkpt lat="45.23497" lon="4.67214">
        <ele>338</ele>
        <time>2020-05-23T08:45:42Z</time>
      </trkpt>
      <trkpt lat="45.23488" lon="4.6722">
        <ele>338.6</ele>
        <time>2020-05-23T08:45:46Z</time>
      </trkpt>
      <trkpt lat="45.2348" lon="4.67227">
        <ele>339.6</ele>
        <time>2020-05-23T08:45:50Z</time>
      </trkpt>
      <trkpt lat="45.23473" lon="4.67234">
        <ele>340</ele>
        <time>2020-05-23T08:45:54Z</time>
      </trkpt>
      <trkpt lat="45.23464" lon="4.67239">
        <ele>340.6</ele>
        <time>2020-05-23T08:45:58Z</time>
      </trkpt>
      <trkpt lat="45.23456" lon="4.67244">
        <ele>341.6</ele>
        <time>2020-05-23T08:46:02Z</time>
      </trkpt>
      <trkpt lat="45.23448" lon="4.67246">
        <ele>342.4</ele>
        <time>2020-05-23T08:46:06Z</time>
      </trkpt>
      <trkpt lat="45.23439" lon="4.67248">
        <ele>342.6</ele>
        <time>2020-05-23T08:46:10Z</time>
      </trkpt>
      <trkpt lat="45.2343" lon="4.67247">
        <ele>343.6</ele>
        <time>2020-05-23T08:46:14Z</time>
      </trkpt>
      <trkpt lat="45.23422" lon="4.67242">
        <ele>343.2</ele>
        <time>2020-05-23T08:46:18Z</time>
      </trkpt>
      <trkpt lat="45.23407" lon="4.67257">
        <ele>343.8</ele>
        <time>2020-05-23T08:48:08Z</time>
      </trkpt>
      <trkpt lat="45.23392" lon="4.67263">
        <ele>342.6</ele>
        <time>2020-05-23T08:48:12Z</time>
      </trkpt>
      <trkpt lat="45.23377" lon="4.67257">
        <ele>343</ele>
        <time>2020-05-23T08:48:16Z</time>
      </trkpt>
      <trkpt lat="45.23361" lon="4.67259">
        <ele>343.4</ele>
        <time>2020-05-23T08:48:20Z</time>
      </trkpt>
      <trkpt lat="45.23347" lon="4.6727">
        <ele>342.2</ele>
        <time>2020-05-23T08:48:24Z</time>
      </trkpt>
      <trkpt lat="45.23337" lon="4.6728">
        <ele>343.4</ele>
        <time>2020-05-23T08:48:28Z</time>
      </trkpt>
      <trkpt lat="45.23327" lon="4.67288">
        <ele>344.4</ele>
        <time>2020-05-23T08:48:32Z</time>
      </trkpt>
      <trkpt lat="45.23319" lon="4.67294">
        <ele>344.6</ele>
        <time>2020-05-23T08:48:36Z</time>
      </trkpt>
      <trkpt lat="45.23309" lon="4.67301">
        <ele>344.6</ele>
        <time>2020-05-23T08:48:40Z</time>
      </trkpt>
      <trkpt lat="45.23298" lon="4.67309">
        <ele>345.8</ele>
        <time>2020-05-23T08:48:44Z</time>
      </trkpt>
      <trkpt lat="45.23289" lon="4.67318">
        <ele>346</ele>
        <time>2020-05-23T08:48:48Z</time>
      </trkpt>
      <trkpt lat="45.2328" lon="4.67328">
        <ele>347</ele>
        <time>2020-05-23T08:48:52Z</time>
      </trkpt>
      <trkpt lat="45.23272" lon="4.67337">
        <ele>347.4</ele>
        <time>2020-05-23T08:48:56Z</time>
      </trkpt>
      <trkpt lat="45.23264" lon="4.67348">
        <ele>347.6</ele>
        <time>2020-05-23T08:49:00Z</time>
      </trkpt>
      <trkpt lat="45.23255" lon="4.6736">
        <ele>348</ele>
        <time>2020-05-23T08:49:04Z</time>
      </trkpt>
      <trkpt lat="45.23246" lon="4.67371">
        <ele>349</ele>
        <time>2020-05-23T08:49:08Z</time>
      </trkpt>
      <trkpt lat="45.23237" lon="4.67382">
        <ele>349.4</ele>
        <time>2020-05-23T08:49:12Z</time>
      </trkpt>
      <trkpt lat="45.23228" lon="4.67392">
        <ele>349.6</ele>
        <time>2020-05-23T08:49:16Z</time>
      </trkpt>
      <trkpt lat="45.23218" lon="4.674">
        <ele>350.8</ele>
        <time>2020-05-23T08:49:20Z</time>
      </trkpt>
      <trkpt lat="45.23207" lon="4.67408">
        <ele>350.8</ele>
        <time>2020-05-23T08:49:24Z</time>
      </trkpt>
      <trkpt lat="45.23197" lon="4.67419">
        <ele>351.6</ele>
        <time>2020-05-23T08:49:28Z</time>
      </trkpt>
      <trkpt lat="45.23187" lon="4.67429">
        <ele>352.4</ele>
        <time>2020-05-23T08:49:32Z</time>
      </trkpt>
      <trkpt lat="45.23176" lon="4.67439">
        <ele>353.2</ele>
        <time>2020-05-23T08:49:36Z</time>
      </trkpt>
      <trkpt lat="45.23166" lon="4.67451">
        <ele>353.8</ele>
        <time>2020-05-23T08:49:40Z</time>
      </trkpt>
      <trkpt lat="45.23156" lon="4.67462">
        <ele>353.8</ele>
        <time>2020-05-23T08:49:44Z</time>
      </trkpt>
      <trkpt lat="45.23145" lon="4.6747">
        <ele>354.4</ele>
        <time>2020-05-23T08:49:48Z</time>
      </trkpt>
      <trkpt lat="45.23132" lon="4.67475">
        <ele>354.6</ele>
        <time>2020-05-23T08:49:52Z</time>
      </trkpt>
      <trkpt lat="45.2312" lon="4.67472">
        <ele>356</ele>
        <time>2020-05-23T08:49:56Z</time>
      </trkpt>
      <trkpt lat="45.2311" lon="4.67462">
        <ele>357.2</ele>
        <time>2020-05-23T08:50:00Z</time>
      </trkpt>
      <trkpt lat="45.23102" lon="4.67452">
        <ele>357.4</ele>
        <time>2020-05-23T08:50:04Z</time>
      </trkpt>
      <trkpt lat="45.23094" lon="4.6744">
        <ele>357.8</ele>
        <time>2020-05-23T08:50:08Z</time>
      </trkpt>
      <trkpt lat="45.23087" lon="4.67429">
        <ele>359</ele>
        <time>2020-05-23T08:50:12Z</time>
      </trkpt>
      <trkpt lat="45.23079" lon="4.67419">
        <ele>358.8</ele>
        <time>2020-05-23T08:50:16Z</time>
      </trkpt>
      <trkpt lat="45.23068" lon="4.67411">
        <ele>359.8</ele>
        <time>2020-05-23T08:50:20Z</time>
      </trkpt>
      <trkpt lat="45.23056" lon="4.67408">
        <ele>360</ele>
        <time>2020-05-23T08:50:24Z</time>
      </trkpt>
      <trkpt lat="45.23043" lon="4.6741">
        <ele>360.4</ele>
        <time>2020-05-23T08:50:28Z</time>
      </trkpt>
      <trkpt lat="45.2303" lon="4.67413">
        <ele>361</ele>
        <time>2020-05-23T08:50:32Z</time>
      </trkpt>
      <trkpt lat="45.23017" lon="4.67417">
        <ele>360.8</ele>
        <time>2020-05-23T08:50:36Z</time>
      </trkpt>
      <trkpt lat="45.23004" lon="4.67417">
        <ele>361.2</ele>
        <time>2020-05-23T08:50:40Z</time>
      </trkpt>
      <trkpt lat="45.22992" lon="4.67412">
        <ele>361.6</ele>
        <time>2020-05-23T08:50:44Z</time>
      </trkpt>
      <trkpt lat="45.22981" lon="4.67403">
        <ele>361.6</ele>
        <time>2020-05-23T08:50:48Z</time>
      </trkpt>
      <trkpt lat="45.22972" lon="4.67391">
        <ele>362.4</ele>
        <time>2020-05-23T08:50:52Z</time>
      </trkpt>
      <trkpt lat="45.22965" lon="4.67377">
        <ele>363</ele>
        <time>2020-05-23T08:50:56Z</time>
      </trkpt>
      <trkpt lat="45.22958" lon="4.67362">
        <ele>363</ele>
        <time>2020-05-23T08:51:00Z</time>
      </trkpt>
      <trkpt lat="45.22952" lon="4.67346">
        <ele>364</ele>
        <time>2020-05-23T08:51:04Z</time>
      </trkpt>
      <trkpt lat="45.22946" lon="4.6733">
        <ele>364</ele>
        <time>2020-05-23T08:51:08Z</time>
      </trkpt>
      <trkpt lat="45.22939" lon="4.67315">
        <ele>364.6</ele>
        <time>2020-05-23T08:51:12Z</time>
      </trkpt>
      <trkpt lat="45.22933" lon="4.673">
        <ele>364.6</ele>
        <time>2020-05-23T08:51:16Z</time>
      </trkpt>
      <trkpt lat="45.22927" lon="4.67284">
        <ele>365.4</ele>
        <time>2020-05-23T08:51:20Z</time>
      </trkpt>
      <trkpt lat="45.2292" lon="4.6727">
        <ele>366.4</ele>
        <time>2020-05-23T08:51:24Z</time>
      </trkpt>
      <trkpt lat="45.22912" lon="4.67257">
        <ele>366.4</ele>
        <time>2020-05-23T08:51:28Z</time>
      </trkpt>
      <trkpt lat="45.22901" lon="4.67248">
        <ele>366.2</ele>
        <time>2020-05-23T08:51:32Z</time>
      </trkpt>
      <trkpt lat="45.22888" lon="4.67244">
        <ele>366.8</ele>
        <time>2020-05-23T08:51:36Z</time>
      </trkpt>
      <trkpt lat="45.22875" lon="4.67245">
        <ele>367.6</ele>
        <time>2020-05-23T08:51:40Z</time>
      </trkpt>
      <trkpt lat="45.22861" lon="4.67248">
        <ele>368</ele>
        <time>2020-05-23T08:51:44Z</time>
      </trkpt>
      <trkpt lat="45.22848" lon="4.67252">
        <ele>368.8</ele>
        <time>2020-05-23T08:51:48Z</time>
      </trkpt>
      <trkpt lat="45.22834" lon="4.67255">
        <ele>369.2</ele>
        <time>2020-05-23T08:51:52Z</time>
      </trkpt>
      <trkpt lat="45.22822" lon="4.67258">
        <ele>369.8</ele>
        <time>2020-05-23T08:51:56Z</time>
      </trkpt>
      <trkpt lat="45.22811" lon="4.6726">
        <ele>369.8</ele>
        <time>2020-05-23T08:52:00Z</time>
      </trkpt>
      <trkpt lat="45.22799" lon="4.67263">
        <ele>370.8</ele>
        <time>2020-05-23T08:52:04Z</time>
      </trkpt>
      <trkpt lat="45.22787" lon="4.67266">
        <ele>371.2</ele>
        <time>2020-05-23T08:52:08Z</time>
      </trkpt>
      <trkpt lat="45.22775" lon="4.67267">
        <ele>371.4</ele>
        <time>2020-05-23T08:52:12Z</time>
      </trkpt>
      <trkpt lat="45.22763" lon="4.67265">
        <ele>372.2</ele>
        <time>2020-05-23T08:52:16Z</time>
      </trkpt>
      <trkpt lat="45.22752" lon="4.6726">
        <ele>372.6</ele>
        <time>2020-05-23T08:52:20Z</time>
      </trkpt>
      <trkpt lat="45.22742" lon="4.67254">
        <ele>373.2</ele>
        <time>2020-05-23T08:52:24Z</time>
      </trkpt>
      <trkpt lat="45.22731" lon="4.6725">
        <ele>373.4</ele>
        <time>2020-05-23T08:52:28Z</time>
      </trkpt>
      <trkpt lat="45.22719" lon="4.67249">
        <ele>373.4</ele>
        <time>2020-05-23T08:52:32Z</time>
      </trkpt>
      <trkpt lat="45.22708" lon="4.67253">
        <ele>373.2</ele>
        <time>2020-05-23T08:52:36Z</time>
      </trkpt>
      <trkpt lat="45.22696" lon="4.67262">
        <ele>374.2</ele>
        <time>2020-05-23T08:52:40Z</time>
      </trkpt>
      <trkpt lat="45.22686" lon="4.67271">
        <ele>374.2</ele>
        <time>2020-05-23T08:52:44Z</time>
      </trkpt>
      <trkpt lat="45.22673" lon="4.6728">
        <ele>374.4</ele>
        <time>2020-05-23T08:52:48Z</time>
      </trkpt>
      <trkpt lat="45.22661" lon="4.67286">
        <ele>374.6</ele>
        <time>2020-05-23T08:52:52Z</time>
      </trkpt>
      <trkpt lat="45.22648" lon="4.6729">
        <ele>375.6</ele>
        <time>2020-05-23T08:52:56Z</time>
      </trkpt>
      <trkpt lat="45.22636" lon="4.67291">
        <ele>376.2</ele>
        <time>2020-05-23T08:53:00Z</time>
      </trkpt>
      <trkpt lat="45.22624" lon="4.67293">
        <ele>376.4</ele>
        <time>2020-05-23T08:53:04Z</time>
      </trkpt>
      <trkpt lat="45.22612" lon="4.67293">
        <ele>377.6</ele>
        <time>2020-05-23T08:53:08Z</time>
      </trkpt>
      <trkpt lat="45.22599" lon="4.67294">
        <ele>377.2</ele>
        <time>2020-05-23T08:53:12Z</time>
      </trkpt>
      <trkpt lat="45.22586" lon="4.67295">
        <ele>378</ele>
        <time>2020-05-23T08:53:16Z</time>
      </trkpt>
      <trkpt lat="45.22573" lon="4.67296">
        <ele>378.2</ele>
        <time>2020-05-23T08:53:20Z</time>
      </trkpt>
      <trkpt lat="45.2256" lon="4.67297">
        <ele>378.6</ele>
        <time>2020-05-23T08:53:24Z</time>
      </trkpt>
      <trkpt lat="45.22547" lon="4.67299">
        <ele>378.6</ele>
        <time>2020-05-23T08:53:28Z</time>
      </trkpt>
      <trkpt lat="45.22533" lon="4.673">
        <ele>379.2</ele>
        <time>2020-05-23T08:53:32Z</time>
      </trkpt>
      <trkpt lat="45.2252" lon="4.67302">
        <ele>379.6</ele>
        <time>2020-05-23T08:53:36Z</time>
      </trkpt>
      <trkpt lat="45.22508" lon="4.67302">
        <ele>380.2</ele>
        <time>2020-05-23T08:53:40Z</time>
      </trkpt>
      <trkpt lat="45.22495" lon="4.67301">
        <ele>380.6</ele>
        <time>2020-05-23T08:53:44Z</time>
      </trkpt>
      <trkpt lat="45.22483" lon="4.67298">
        <ele>381.2</ele>
        <time>2020-05-23T08:53:48Z</time>
      </trkpt>
      <trkpt lat="45.22471" lon="4.67293">
        <ele>381.2</ele>
        <time>2020-05-23T08:53:52Z</time>
      </trkpt>
      <trkpt lat="45.22459" lon="4.67286">
        <ele>381.8</ele>
        <time>2020-05-23T08:53:56Z</time>
      </trkpt>
      <trkpt lat="45.22447" lon="4.67278">
        <ele>381.8</ele>
        <time>2020-05-23T08:54:00Z</time>
      </trkpt>
      <trkpt lat="45.22437" lon="4.67268">
        <ele>382.6</ele>
        <time>2020-05-23T08:54:04Z</time>
      </trkpt>
      <trkpt lat="45.22428" lon="4.67257">
        <ele>383.2</ele>
        <time>2020-05-23T08:54:08Z</time>
      </trkpt>
      <trkpt lat="45.22419" lon="4.67246">
        <ele>384</ele>
        <time>2020-05-23T08:54:12Z</time>
      </trkpt>
      <trkpt lat="45.22409" lon="4.67235">
        <ele>384.6</ele>
        <time>2020-05-23T08:54:16Z</time>
      </trkpt>
      <trkpt lat="45.22399" lon="4.67225">
        <ele>385.2</ele>
        <time>2020-05-23T08:54:20Z</time>
      </trkpt>
      <trkpt lat="45.22389" lon="4.67216">
        <ele>385.4</ele>
        <time>2020-05-23T08:54:24Z</time>
      </trkpt>
      <trkpt lat="45.22377" lon="4.6721">
        <ele>385.8</ele>
        <time>2020-05-23T08:54:28Z</time>
      </trkpt>
      <trkpt lat="45.22365" lon="4.67207">
        <ele>386</ele>
        <time>2020-05-23T08:54:32Z</time>
      </trkpt>
      <trkpt lat="45.22352" lon="4.67206">
        <ele>386</ele>
        <time>2020-05-23T08:54:36Z</time>
      </trkpt>
      <trkpt lat="45.22338" lon="4.67206">
        <ele>386.2</ele>
        <time>2020-05-23T08:54:40Z</time>
      </trkpt>
      <trkpt lat="45.22325" lon="4.67205">
        <ele>386.4</ele>
        <time>2020-05-23T08:54:44Z</time>
      </trkpt>
      <trkpt lat="45.22311" lon="4.67205">
        <ele>386.2</ele>
        <time>2020-05-23T08:54:48Z</time>
      </trkpt>
      <trkpt lat="45.22297" lon="4.67205">
        <ele>386</ele>
        <time>2020-05-23T08:54:52Z</time>
      </trkpt>
      <trkpt lat="45.22282" lon="4.67202">
        <ele>386.6</ele>
        <time>2020-05-23T08:54:56Z</time>
      </trkpt>
      <trkpt lat="45.22267" lon="4.67197">
        <ele>386</ele>
        <time>2020-05-23T08:55:00Z</time>
      </trkpt>
      <trkpt lat="45.22254" lon="4.67189">
        <ele>386.4</ele>
        <time>2020-05-23T08:55:04Z</time>
      </trkpt>
      <trkpt lat="45.22241" lon="4.67177">
        <ele>387.2</ele>
        <time>2020-05-23T08:55:08Z</time>
      </trkpt>
      <trkpt lat="45.22228" lon="4.67162">
        <ele>387</ele>
        <time>2020-05-23T08:55:12Z</time>
      </trkpt>
      <trkpt lat="45.22218" lon="4.67145">
        <ele>386.6</ele>
        <time>2020-05-23T08:55:16Z</time>
      </trkpt>
      <trkpt lat="45.22208" lon="4.67128">
        <ele>387</ele>
        <time>2020-05-23T08:55:20Z</time>
      </trkpt>
      <trkpt lat="45.222" lon="4.6711">
        <ele>387.4</ele>
        <time>2020-05-23T08:55:24Z</time>
      </trkpt>
      <trkpt lat="45.22193" lon="4.6709">
        <ele>387.8</ele>
        <time>2020-05-23T08:55:28Z</time>
      </trkpt>
      <trkpt lat="45.22187" lon="4.67069">
        <ele>388.2</ele>
        <time>2020-05-23T08:55:32Z</time>
      </trkpt>
      <trkpt lat="45.22182" lon="4.6705">
        <ele>388.2</ele>
        <time>2020-05-23T08:55:36Z</time>
      </trkpt>
      <trkpt lat="45.22178" lon="4.67029">
        <ele>388.2</ele>
        <time>2020-05-23T08:55:40Z</time>
      </trkpt>
      <trkpt lat="45.22176" lon="4.67007">
        <ele>388.2</ele>
        <time>2020-05-23T08:55:44Z</time>
      </trkpt>
      <trkpt lat="45.22174" lon="4.66984">
        <ele>388</ele>
        <time>2020-05-23T08:55:48Z</time>
      </trkpt>
      <trkpt lat="45.22172" lon="4.66963">
        <ele>388.4</ele>
        <time>2020-05-23T08:55:52Z</time>
      </trkpt>
      <trkpt lat="45.22167" lon="4.66943">
        <ele>388.6</ele>
        <time>2020-05-23T08:55:56Z</time>
      </trkpt>
      <trkpt lat="45.22158" lon="4.66924">
        <ele>388.8</ele>
        <time>2020-05-23T08:56:00Z</time>
      </trkpt>
      <trkpt lat="45.22146" lon="4.6691">
        <ele>388.8</ele>
        <time>2020-05-23T08:56:04Z</time>
      </trkpt>
      <trkpt lat="45.2213" lon="4.66902">
        <ele>388.8</ele>
        <time>2020-05-23T08:56:08Z</time>
      </trkpt>
      <trkpt lat="45.22115" lon="4.66898">
        <ele>389</ele>
        <time>2020-05-23T08:56:12Z</time>
      </trkpt>
      <trkpt lat="45.22101" lon="4.66893">
        <ele>388.8</ele>
        <time>2020-05-23T08:56:16Z</time>
      </trkpt>
      <trkpt lat="45.22085" lon="4.66889">
        <ele>388.2</ele>
        <time>2020-05-23T08:56:20Z</time>
      </trkpt>
      <trkpt lat="45.22069" lon="4.66885">
        <ele>388.8</ele>
        <time>2020-05-23T08:56:24Z</time>
      </trkpt>
      <trkpt lat="45.22054" lon="4.66875">
        <ele>388.8</ele>
        <time>2020-05-23T08:56:28Z</time>
      </trkpt>
      <trkpt lat="45.22042" lon="4.66863">
        <ele>389.4</ele>
        <time>2020-05-23T08:56:32Z</time>
      </trkpt>
      <trkpt lat="45.22032" lon="4.6685">
        <ele>390.6</ele>
        <time>2020-05-23T08:56:36Z</time>
      </trkpt>
      <trkpt lat="45.22022" lon="4.66839">
        <ele>391.2</ele>
        <time>2020-05-23T08:56:40Z</time>
      </trkpt>
      <trkpt lat="45.22012" lon="4.66824">
        <ele>391.4</ele>
        <time>2020-05-23T08:56:44Z</time>
      </trkpt>
      <trkpt lat="45.22003" lon="4.66809">
        <ele>391.6</ele>
        <time>2020-05-23T08:56:48Z</time>
      </trkpt>
      <trkpt lat="45.21996" lon="4.66794">
        <ele>392.4</ele>
        <time>2020-05-23T08:56:52Z</time>
      </trkpt>
      <trkpt lat="45.21989" lon="4.66777">
        <ele>392.8</ele>
        <time>2020-05-23T08:56:56Z</time>
      </trkpt>
      <trkpt lat="45.21983" lon="4.66762">
        <ele>393.8</ele>
        <time>2020-05-23T08:57:00Z</time>
      </trkpt>
      <trkpt lat="45.21977" lon="4.66745">
        <ele>393.8</ele>
        <time>2020-05-23T08:57:04Z</time>
      </trkpt>
      <trkpt lat="45.21971" lon="4.66728">
        <ele>394.4</ele>
        <time>2020-05-23T08:57:08Z</time>
      </trkpt>
      <trkpt lat="45.21965" lon="4.6671">
        <ele>394.6</ele>
        <time>2020-05-23T08:57:12Z</time>
      </trkpt>
      <trkpt lat="45.21961" lon="4.66694">
        <ele>395.6</ele>
        <time>2020-05-23T08:57:16Z</time>
      </trkpt>
      <trkpt lat="45.21954" lon="4.66677">
        <ele>396</ele>
        <time>2020-05-23T08:57:20Z</time>
      </trkpt>
      <trkpt lat="45.21949" lon="4.66661">
        <ele>396.2</ele>
        <time>2020-05-23T08:57:24Z</time>
      </trkpt>
      <trkpt lat="45.21943" lon="4.66646">
        <ele>397</ele>
        <time>2020-05-23T08:57:28Z</time>
      </trkpt>
      <trkpt lat="45.21936" lon="4.66632">
        <ele>396.8</ele>
        <time>2020-05-23T08:57:32Z</time>
      </trkpt>
      <trkpt lat="45.21929" lon="4.66621">
        <ele>397.8</ele>
        <time>2020-05-23T08:57:36Z</time>
      </trkpt>
      <trkpt lat="45.21921" lon="4.6661">
        <ele>397.6</ele>
        <time>2020-05-23T08:57:40Z</time>
      </trkpt>
      <trkpt lat="45.21912" lon="4.66598">
        <ele>398.4</ele>
        <time>2020-05-23T08:57:44Z</time>
      </trkpt>
      <trkpt lat="45.21903" lon="4.66588">
        <ele>398.6</ele>
        <time>2020-05-23T08:57:48Z</time>
      </trkpt>
      <trkpt lat="45.21895" lon="4.66576">
        <ele>399.2</ele>
        <time>2020-05-23T08:57:52Z</time>
      </trkpt>
      <trkpt lat="45.21886" lon="4.66564">
        <ele>400</ele>
        <time>2020-05-23T08:57:56Z</time>
      </trkpt>
      <trkpt lat="45.21876" lon="4.66551">
        <ele>400</ele>
        <time>2020-05-23T08:58:00Z</time>
      </trkpt>
      <trkpt lat="45.21868" lon="4.66537">
        <ele>400.8</ele>
        <time>2020-05-23T08:58:04Z</time>
      </trkpt>
      <trkpt lat="45.2186" lon="4.66522">
        <ele>400.8</ele>
        <time>2020-05-23T08:58:08Z</time>
      </trkpt>
      <trkpt lat="45.21852" lon="4.66507">
        <ele>401</ele>
        <time>2020-05-23T08:58:12Z</time>
      </trkpt>
      <trkpt lat="45.21846" lon="4.66491">
        <ele>401.4</ele>
        <time>2020-05-23T08:58:16Z</time>
      </trkpt>
      <trkpt lat="45.21839" lon="4.66475">
        <ele>401.8</ele>
        <time>2020-05-23T08:58:20Z</time>
      </trkpt>
      <trkpt lat="45.21833" lon="4.66458">
        <ele>402.4</ele>
        <time>2020-05-23T08:58:24Z</time>
      </trkpt>
      <trkpt lat="45.21827" lon="4.66442">
        <ele>402</ele>
        <time>2020-05-23T08:58:28Z</time>
      </trkpt>
      <trkpt lat="45.2182" lon="4.66424">
        <ele>403</ele>
        <time>2020-05-23T08:58:32Z</time>
      </trkpt>
      <trkpt lat="45.21815" lon="4.66406">
        <ele>403</ele>
        <time>2020-05-23T08:58:36Z</time>
      </trkpt>
      <trkpt lat="45.21812" lon="4.66388">
        <ele>403.6</ele>
        <time>2020-05-23T08:58:40Z</time>
      </trkpt>
      <trkpt lat="45.2181" lon="4.6637">
        <ele>404</ele>
        <time>2020-05-23T08:58:44Z</time>
      </trkpt>
      <trkpt lat="45.21809" lon="4.66353">
        <ele>404.2</ele>
        <time>2020-05-23T08:58:48Z</time>
      </trkpt>
      <trkpt lat="45.21808" lon="4.66335">
        <ele>404.4</ele>
        <time>2020-05-23T08:58:52Z</time>
      </trkpt>
      <trkpt lat="45.21805" lon="4.66317">
        <ele>404.2</ele>
        <time>2020-05-23T08:58:56Z</time>
      </trkpt>
      <trkpt lat="45.218" lon="4.66298">
        <ele>404.6</ele>
        <time>2020-05-23T08:59:00Z</time>
      </trkpt>
      <trkpt lat="45.21791" lon="4.66279">
        <ele>405.8</ele>
        <time>2020-05-23T08:59:04Z</time>
      </trkpt>
      <trkpt lat="45.21781" lon="4.66263">
        <ele>405.8</ele>
        <time>2020-05-23T08:59:08Z</time>
      </trkpt>
      <trkpt lat="45.21769" lon="4.66248">
        <ele>406.6</ele>
        <time>2020-05-23T08:59:12Z</time>
      </trkpt>
      <trkpt lat="45.21757" lon="4.66234">
        <ele>407.6</ele>
        <time>2020-05-23T08:59:16Z</time>
      </trkpt>
      <trkpt lat="45.21746" lon="4.66224">
        <ele>408</ele>
        <time>2020-05-23T08:59:20Z</time>
      </trkpt>
      <trkpt lat="45.21734" lon="4.66213">
        <ele>408.4</ele>
        <time>2020-05-23T08:59:24Z</time>
      </trkpt>
      <trkpt lat="45.21723" lon="4.66202">
        <ele>409.2</ele>
        <time>2020-05-23T08:59:28Z</time>
      </trkpt>
      <trkpt lat="45.21712" lon="4.66191">
        <ele>409.4</ele>
        <time>2020-05-23T08:59:32Z</time>
      </trkpt>
      <trkpt lat="45.21701" lon="4.66181">
        <ele>409.8</ele>
        <time>2020-05-23T08:59:36Z</time>
      </trkpt>
      <trkpt lat="45.21691" lon="4.66171">
        <ele>410</ele>
        <time>2020-05-23T08:59:40Z</time>
      </trkpt>
      <trkpt lat="45.21682" lon="4.66162">
        <ele>411.2</ele>
        <time>2020-05-23T08:59:44Z</time>
      </trkpt>
      <trkpt lat="45.21672" lon="4.66153">
        <ele>411</ele>
        <time>2020-05-23T08:59:48Z</time>
      </trkpt>
      <trkpt lat="45.21663" lon="4.66144">
        <ele>411.2</ele>
        <time>2020-05-23T08:59:52Z</time>
      </trkpt>
      <trkpt lat="45.21654" lon="4.66134">
        <ele>411.8</ele>
        <time>2020-05-23T08:59:56Z</time>
      </trkpt>
      <trkpt lat="45.21645" lon="4.66125">
        <ele>412.8</ele>
        <time>2020-05-23T09:00:00Z</time>
      </trkpt>
      <trkpt lat="45.21635" lon="4.66116">
        <ele>412.8</ele>
        <time>2020-05-23T09:00:04Z</time>
      </trkpt>
      <trkpt lat="45.21624" lon="4.66108">
        <ele>413.4</ele>
        <time>2020-05-23T09:00:08Z</time>
      </trkpt>
      <trkpt lat="45.21613" lon="4.66099">
        <ele>414</ele>
        <time>2020-05-23T09:00:12Z</time>
      </trkpt>
      <trkpt lat="45.21601" lon="4.6609">
        <ele>414.6</ele>
        <time>2020-05-23T09:00:16Z</time>
      </trkpt>
      <trkpt lat="45.2159" lon="4.66082">
        <ele>414.6</ele>
        <time>2020-05-23T09:00:20Z</time>
      </trkpt>
      <trkpt lat="45.21579" lon="4.66075">
        <ele>415.2</ele>
        <time>2020-05-23T09:00:24Z</time>
      </trkpt>
      <trkpt lat="45.21568" lon="4.66069">
        <ele>416.2</ele>
        <time>2020-05-23T09:00:28Z</time>
      </trkpt>
      <trkpt lat="45.21557" lon="4.66063">
        <ele>416.8</ele>
        <time>2020-05-23T09:00:32Z</time>
      </trkpt>
      <trkpt lat="45.21545" lon="4.66058">
        <ele>417</ele>
        <time>2020-05-23T09:00:36Z</time>
      </trkpt>
      <trkpt lat="45.21534" lon="4.66052">
        <ele>418.2</ele>
        <time>2020-05-23T09:00:40Z</time>
      </trkpt>
      <trkpt lat="45.21523" lon="4.66048">
        <ele>418.2</ele>
        <time>2020-05-23T09:00:44Z</time>
      </trkpt>
      <trkpt lat="45.21511" lon="4.66044">
        <ele>418.4</ele>
        <time>2020-05-23T09:00:48Z</time>
      </trkpt>
      <trkpt lat="45.215" lon="4.66041">
        <ele>419</ele>
        <time>2020-05-23T09:00:52Z</time>
      </trkpt>
      <trkpt lat="45.21488" lon="4.66038">
        <ele>419.8</ele>
        <time>2020-05-23T09:00:56Z</time>
      </trkpt>
      <trkpt lat="45.21477" lon="4.66035">
        <ele>420.2</ele>
        <time>2020-05-23T09:01:00Z</time>
      </trkpt>
      <trkpt lat="45.21465" lon="4.66034">
        <ele>421</ele>
        <time>2020-05-23T09:01:04Z</time>
      </trkpt>
      <trkpt lat="45.21455" lon="4.66032">
        <ele>421</ele>
        <time>2020-05-23T09:01:08Z</time>
      </trkpt>
      <trkpt lat="45.21444" lon="4.6603">
        <ele>421.8</ele>
        <time>2020-05-23T09:01:12Z</time>
      </trkpt>
      <trkpt lat="45.21433" lon="4.66029">
        <ele>422.2</ele>
        <time>2020-05-23T09:01:16Z</time>
      </trkpt>
      <trkpt lat="45.21422" lon="4.66028">
        <ele>422.6</ele>
        <time>2020-05-23T09:01:20Z</time>
      </trkpt>
      <trkpt lat="45.2141" lon="4.66027">
        <ele>423.4</ele>
        <time>2020-05-23T09:01:24Z</time>
      </trkpt>
      <trkpt lat="45.21399" lon="4.66026">
        <ele>424.2</ele>
        <time>2020-05-23T09:01:28Z</time>
      </trkpt>
      <trkpt lat="45.21388" lon="4.66025">
        <ele>424.4</ele>
        <time>2020-05-23T09:01:32Z</time>
      </trkpt>
      <trkpt lat="45.21375" lon="4.66024">
        <ele>425</ele>
        <time>2020-05-23T09:01:36Z</time>
      </trkpt>
      <trkpt lat="45.21364" lon="4.66023">
        <ele>425</ele>
        <time>2020-05-23T09:01:40Z</time>
      </trkpt>
      <trkpt lat="45.21352" lon="4.66022">
        <ele>426.2</ele>
        <time>2020-05-23T09:01:44Z</time>
      </trkpt>
      <trkpt lat="45.2134" lon="4.66023">
        <ele>426.2</ele>
        <time>2020-05-23T09:01:48Z</time>
      </trkpt>
      <trkpt lat="45.21327" lon="4.66022">
        <ele>427.2</ele>
        <time>2020-05-23T09:01:52Z</time>
      </trkpt>
      <trkpt lat="45.21315" lon="4.66022">
        <ele>427.4</ele>
        <time>2020-05-23T09:01:56Z</time>
      </trkpt>
      <trkpt lat="45.21302" lon="4.66021">
        <ele>427.6</ele>
        <time>2020-05-23T09:02:00Z</time>
      </trkpt>
      <trkpt lat="45.21288" lon="4.6602">
        <ele>428</ele>
        <time>2020-05-23T09:02:04Z</time>
      </trkpt>
      <trkpt lat="45.21274" lon="4.66017">
        <ele>428.2</ele>
        <time>2020-05-23T09:02:08Z</time>
      </trkpt>
      <trkpt lat="45.21259" lon="4.66014">
        <ele>428.6</ele>
        <time>2020-05-23T09:02:12Z</time>
      </trkpt>
      <trkpt lat="45.21245" lon="4.6601">
        <ele>428.6</ele>
        <time>2020-05-23T09:02:16Z</time>
      </trkpt>
      <trkpt lat="45.21231" lon="4.66006">
        <ele>428.4</ele>
        <time>2020-05-23T09:02:20Z</time>
      </trkpt>
      <trkpt lat="45.21216" lon="4.66003">
        <ele>428</ele>
        <time>2020-05-23T09:02:24Z</time>
      </trkpt>
      <trkpt lat="45.21201" lon="4.65998">
        <ele>428</ele>
        <time>2020-05-23T09:02:28Z</time>
      </trkpt>
      <trkpt lat="45.21185" lon="4.65993">
        <ele>428.4</ele>
        <time>2020-05-23T09:02:32Z</time>
      </trkpt>
      <trkpt lat="45.2117" lon="4.65988">
        <ele>428.4</ele>
        <time>2020-05-23T09:02:36Z</time>
      </trkpt>
      <trkpt lat="45.21153" lon="4.65982">
        <ele>428.6</ele>
        <time>2020-05-23T09:02:40Z</time>
      </trkpt>
      <trkpt lat="45.21138" lon="4.65977">
        <ele>428.6</ele>
        <time>2020-05-23T09:02:44Z</time>
      </trkpt>
      <trkpt lat="45.21122" lon="4.65972">
        <ele>429.2</ele>
        <time>2020-05-23T09:02:48Z</time>
      </trkpt>
      <trkpt lat="45.21107" lon="4.65967">
        <ele>428.8</ele>
        <time>2020-05-23T09:02:52Z</time>
      </trkpt>
      <trkpt lat="45.21091" lon="4.65961">
        <ele>429.2</ele>
        <time>2020-05-23T09:02:56Z</time>
      </trkpt>
      <trkpt lat="45.21074" lon="4.65956">
        <ele>429.6</ele>
        <time>2020-05-23T09:03:00Z</time>
      </trkpt>
      <trkpt lat="45.21058" lon="4.65951">
        <ele>429.6</ele>
        <time>2020-05-23T09:03:04Z</time>
      </trkpt>
      <trkpt lat="45.21041" lon="4.65945">
        <ele>429.6</ele>
        <time>2020-05-23T09:03:08Z</time>
      </trkpt>
      <trkpt lat="45.21026" lon="4.65939">
        <ele>429.6</ele>
        <time>2020-05-23T09:03:12Z</time>
      </trkpt>
      <trkpt lat="45.2101" lon="4.65933">
        <ele>430.2</ele>
        <time>2020-05-23T09:03:16Z</time>
      </trkpt>
      <trkpt lat="45.20994" lon="4.65926">
        <ele>430.8</ele>
        <time>2020-05-23T09:03:20Z</time>
      </trkpt>
      <trkpt lat="45.20979" lon="4.6592">
        <ele>430.8</ele>
        <time>2020-05-23T09:03:24Z</time>
      </trkpt>
      <trkpt lat="45.20964" lon="4.65913">
        <ele>430.8</ele>
        <time>2020-05-23T09:03:28Z</time>
      </trkpt>
      <trkpt lat="45.20949" lon="4.65907">
        <ele>431.8</ele>
        <time>2020-05-23T09:03:32Z</time>
      </trkpt>
      <trkpt lat="45.20933" lon="4.65901">
        <ele>431.6</ele>
        <time>2020-05-23T09:03:36Z</time>
      </trkpt>
      <trkpt lat="45.20917" lon="4.65894">
        <ele>432.2</ele>
        <time>2020-05-23T09:03:40Z</time>
      </trkpt>
      <trkpt lat="45.20901" lon="4.65889">
        <ele>432.6</ele>
        <time>2020-05-23T09:03:44Z</time>
      </trkpt>
      <trkpt lat="45.20884" lon="4.65884">
        <ele>433</ele>
        <time>2020-05-23T09:03:48Z</time>
      </trkpt>
      <trkpt lat="45.20868" lon="4.65878">
        <ele>432.8</ele>
        <time>2020-05-23T09:03:52Z</time>
      </trkpt>
      <trkpt lat="45.20851" lon="4.65874">
        <ele>433</ele>
        <time>2020-05-23T09:03:56Z</time>
      </trkpt>
      <trkpt lat="45.20834" lon="4.65867">
        <ele>433</ele>
        <time>2020-05-23T09:04:00Z</time>
      </trkpt>
      <trkpt lat="45.20817" lon="4.6586">
        <ele>433</ele>
        <time>2020-05-23T09:04:04Z</time>
      </trkpt>
      <trkpt lat="45.20801" lon="4.65853">
        <ele>433.6</ele>
        <time>2020-05-23T09:04:08Z</time>
      </trkpt>
      <trkpt lat="45.20785" lon="4.65844">
        <ele>433.4</ele>
        <time>2020-05-23T09:04:12Z</time>
      </trkpt>
      <trkpt lat="45.20768" lon="4.65834">
        <ele>433.4</ele>
        <time>2020-05-23T09:04:16Z</time>
      </trkpt>
      <trkpt lat="45.20752" lon="4.65824">
        <ele>433.4</ele>
        <time>2020-05-23T09:04:20Z</time>
      </trkpt>
      <trkpt lat="45.20735" lon="4.65815">
        <ele>433.6</ele>
        <time>2020-05-23T09:04:24Z</time>
      </trkpt>
      <trkpt lat="45.20719" lon="4.65807">
        <ele>433.8</ele>
        <time>2020-05-23T09:04:28Z</time>
      </trkpt>
      <trkpt lat="45.20719" lon="4.65807">
        <ele>433.8</ele>
        <time>2020-05-23T09:04:32Z</time>
      </trkpt>
      <trkpt lat="45.20698" lon="4.65801">
        <ele>434.6</ele>
        <time>2020-05-23T09:04:36Z</time>
      </trkpt>
      <trkpt lat="45.20681" lon="4.65799">
        <ele>434.6</ele>
        <time>2020-05-23T09:04:40Z</time>
      </trkpt>
      <trkpt lat="45.20665" lon="4.65796">
        <ele>434.8</ele>
        <time>2020-05-23T09:04:44Z</time>
      </trkpt>
      <trkpt lat="45.20649" lon="4.65793">
        <ele>435</ele>
        <time>2020-05-23T09:04:48Z</time>
      </trkpt>
      <trkpt lat="45.20633" lon="4.6579">
        <ele>435.8</ele>
        <time>2020-05-23T09:04:52Z</time>
      </trkpt>
      <trkpt lat="45.20617" lon="4.65785">
        <ele>435.6</ele>
        <time>2020-05-23T09:04:56Z</time>
      </trkpt>
      <trkpt lat="45.20603" lon="4.6578">
        <ele>436.2</ele>
        <time>2020-05-23T09:05:00Z</time>
      </trkpt>
      <trkpt lat="45.20587" lon="4.65773">
        <ele>436</ele>
        <time>2020-05-23T09:05:04Z</time>
      </trkpt>
      <trkpt lat="45.20571" lon="4.65766">
        <ele>436</ele>
        <time>2020-05-23T09:05:08Z</time>
      </trkpt>
      <trkpt lat="45.20555" lon="4.6576">
        <ele>436.6</ele>
        <time>2020-05-23T09:05:12Z</time>
      </trkpt>
      <trkpt lat="45.20539" lon="4.65754">
        <ele>436.8</ele>
        <time>2020-05-23T09:05:16Z</time>
      </trkpt>
      <trkpt lat="45.20524" lon="4.65748">
        <ele>437.2</ele>
        <time>2020-05-23T09:05:20Z</time>
      </trkpt>
      <trkpt lat="45.2051" lon="4.65743">
        <ele>437.8</ele>
        <time>2020-05-23T09:05:24Z</time>
      </trkpt>
      <trkpt lat="45.20496" lon="4.65739">
        <ele>438.6</ele>
        <time>2020-05-23T09:05:28Z</time>
      </trkpt>
      <trkpt lat="45.20482" lon="4.65734">
        <ele>439.2</ele>
        <time>2020-05-23T09:05:32Z</time>
      </trkpt>
      <trkpt lat="45.20468" lon="4.65729">
        <ele>439.2</ele>
        <time>2020-05-23T09:05:36Z</time>
      </trkpt>
      <trkpt lat="45.20453" lon="4.65725">
        <ele>439</ele>
        <time>2020-05-23T09:05:40Z</time>
      </trkpt>
      <trkpt lat="45.20439" lon="4.65718">
        <ele>439.6</ele>
        <time>2020-05-23T09:05:44Z</time>
      </trkpt>
      <trkpt lat="45.20424" lon="4.65711">
        <ele>439.4</ele>
        <time>2020-05-23T09:05:48Z</time>
      </trkpt>
      <trkpt lat="45.20408" lon="4.65703">
        <ele>438.6</ele>
        <time>2020-05-23T09:05:52Z</time>
      </trkpt>
      <trkpt lat="45.20392" lon="4.65694">
        <ele>439</ele>
        <time>2020-05-23T09:05:56Z</time>
      </trkpt>
      <trkpt lat="45.20376" lon="4.65684">
        <ele>439</ele>
        <time>2020-05-23T09:06:00Z</time>
      </trkpt>
      <trkpt lat="45.2036" lon="4.65676">
        <ele>438.6</ele>
        <time>2020-05-23T09:06:04Z</time>
      </trkpt>
      <trkpt lat="45.20344" lon="4.65666">
        <ele>438.6</ele>
        <time>2020-05-23T09:06:08Z</time>
      </trkpt>
      <trkpt lat="45.20327" lon="4.65657">
        <ele>438.6</ele>
        <time>2020-05-23T09:06:12Z</time>
      </trkpt>
      <trkpt lat="45.2031" lon="4.65646">
        <ele>438.6</ele>
        <time>2020-05-23T09:06:16Z</time>
      </trkpt>
      <trkpt lat="45.20294" lon="4.65637">
        <ele>438.8</ele>
        <time>2020-05-23T09:06:20Z</time>
      </trkpt>
      <trkpt lat="45.20277" lon="4.65628">
        <ele>439</ele>
        <time>2020-05-23T09:06:24Z</time>
      </trkpt>
      <trkpt lat="45.20261" lon="4.65618">
        <ele>439</ele>
        <time>2020-05-23T09:06:28Z</time>
      </trkpt>
      <trkpt lat="45.20245" lon="4.65609">
        <ele>439.4</ele>
        <time>2020-05-23T09:06:32Z</time>
      </trkpt>
      <trkpt lat="45.2023" lon="4.656">
        <ele>440</ele>
        <time>2020-05-23T09:06:36Z</time>
      </trkpt>
      <trkpt lat="45.20215" lon="4.65591">
        <ele>440.8</ele>
        <time>2020-05-23T09:06:40Z</time>
      </trkpt>
      <trkpt lat="45.20201" lon="4.65583">
        <ele>441.2</ele>
        <time>2020-05-23T09:06:44Z</time>
      </trkpt>
      <trkpt lat="45.20187" lon="4.65574">
        <ele>441</ele>
        <time>2020-05-23T09:06:48Z</time>
      </trkpt>
      <trkpt lat="45.20171" lon="4.65565">
        <ele>441.6</ele>
        <time>2020-05-23T09:06:52Z</time>
      </trkpt>
      <trkpt lat="45.20156" lon="4.65556">
        <ele>441.4</ele>
        <time>2020-05-23T09:06:56Z</time>
      </trkpt>
      <trkpt lat="45.2014" lon="4.65546">
        <ele>442</ele>
        <time>2020-05-23T09:07:00Z</time>
      </trkpt>
      <trkpt lat="45.20125" lon="4.65536">
        <ele>442</ele>
        <time>2020-05-23T09:07:04Z</time>
      </trkpt>
      <trkpt lat="45.20111" lon="4.65527">
        <ele>442.4</ele>
        <time>2020-05-23T09:07:08Z</time>
      </trkpt>
      <trkpt lat="45.20097" lon="4.65519">
        <ele>443.2</ele>
        <time>2020-05-23T09:07:12Z</time>
      </trkpt>
      <trkpt lat="45.20084" lon="4.65511">
        <ele>443.2</ele>
        <time>2020-05-23T09:07:16Z</time>
      </trkpt>
      <trkpt lat="45.20071" lon="4.65502">
        <ele>443.8</ele>
        <time>2020-05-23T09:07:20Z</time>
      </trkpt>
      <trkpt lat="45.20058" lon="4.65494">
        <ele>444.8</ele>
        <time>2020-05-23T09:07:24Z</time>
      </trkpt>
      <trkpt lat="45.20045" lon="4.65486">
        <ele>445</ele>
        <time>2020-05-23T09:07:28Z</time>
      </trkpt>
      <trkpt lat="45.20031" lon="4.65478">
        <ele>444.8</ele>
        <time>2020-05-23T09:07:32Z</time>
      </trkpt>
      <trkpt lat="45.20018" lon="4.65469">
        <ele>445.2</ele>
        <time>2020-05-23T09:07:36Z</time>
      </trkpt>
      <trkpt lat="45.20004" lon="4.65461">
        <ele>445.4</ele>
        <time>2020-05-23T09:07:40Z</time>
      </trkpt>
      <trkpt lat="45.19991" lon="4.65453">
        <ele>445.8</ele>
        <time>2020-05-23T09:07:44Z</time>
      </trkpt>
      <trkpt lat="45.19978" lon="4.65444">
        <ele>446.2</ele>
        <time>2020-05-23T09:07:48Z</time>
      </trkpt>
      <trkpt lat="45.19964" lon="4.65436">
        <ele>446.4</ele>
        <time>2020-05-23T09:07:52Z</time>
      </trkpt>
      <trkpt lat="45.19951" lon="4.65426">
        <ele>447.2</ele>
        <time>2020-05-23T09:07:56Z</time>
      </trkpt>
      <trkpt lat="45.19939" lon="4.65415">
        <ele>447</ele>
        <time>2020-05-23T09:08:00Z</time>
      </trkpt>
      <trkpt lat="45.19928" lon="4.65401">
        <ele>447.2</ele>
        <time>2020-05-23T09:08:04Z</time>
      </trkpt>
      <trkpt lat="45.19919" lon="4.65384">
        <ele>448.2</ele>
        <time>2020-05-23T09:08:08Z</time>
      </trkpt>
      <trkpt lat="45.19911" lon="4.65367">
        <ele>448.6</ele>
        <time>2020-05-23T09:08:12Z</time>
      </trkpt>
      <trkpt lat="45.19905" lon="4.65349">
        <ele>449.4</ele>
        <time>2020-05-23T09:08:16Z</time>
      </trkpt>
      <trkpt lat="45.19899" lon="4.65331">
        <ele>449.4</ele>
        <time>2020-05-23T09:08:20Z</time>
      </trkpt>
      <trkpt lat="45.19894" lon="4.65312">
        <ele>450.8</ele>
        <time>2020-05-23T09:08:24Z</time>
      </trkpt>
      <trkpt lat="45.19888" lon="4.65296">
        <ele>451.2</ele>
        <time>2020-05-23T09:08:28Z</time>
      </trkpt>
      <trkpt lat="45.19882" lon="4.65282">
        <ele>451.6</ele>
        <time>2020-05-23T09:08:32Z</time>
      </trkpt>
      <trkpt lat="45.19875" lon="4.65267">
        <ele>452</ele>
        <time>2020-05-23T09:08:36Z</time>
      </trkpt>
      <trkpt lat="45.19867" lon="4.65254">
        <ele>452.4</ele>
        <time>2020-05-23T09:08:40Z</time>
      </trkpt>
      <trkpt lat="45.19858" lon="4.65242">
        <ele>452.6</ele>
        <time>2020-05-23T09:08:44Z</time>
      </trkpt>
      <trkpt lat="45.19849" lon="4.6523">
        <ele>453.6</ele>
        <time>2020-05-23T09:08:48Z</time>
      </trkpt>
      <trkpt lat="45.19838" lon="4.65219">
        <ele>454.2</ele>
        <time>2020-05-23T09:08:52Z</time>
      </trkpt>
      <trkpt lat="45.19828" lon="4.65208">
        <ele>454.6</ele>
        <time>2020-05-23T09:08:56Z</time>
      </trkpt>
      <trkpt lat="45.19818" lon="4.65198">
        <ele>455.2</ele>
        <time>2020-05-23T09:09:00Z</time>
      </trkpt>
      <trkpt lat="45.19807" lon="4.65187">
        <ele>455.2</ele>
        <time>2020-05-23T09:09:04Z</time>
      </trkpt>
      <trkpt lat="45.19795" lon="4.65177">
        <ele>456.2</ele>
        <time>2020-05-23T09:09:08Z</time>
      </trkpt>
      <trkpt lat="45.19784" lon="4.65168">
        <ele>456.8</ele>
        <time>2020-05-23T09:09:12Z</time>
      </trkpt>
      <trkpt lat="45.19774" lon="4.6516">
        <ele>457.8</ele>
        <time>2020-05-23T09:09:16Z</time>
      </trkpt>
      <trkpt lat="45.19763" lon="4.65151">
        <ele>458.2</ele>
        <time>2020-05-23T09:09:20Z</time>
      </trkpt>
      <trkpt lat="45.19751" lon="4.65142">
        <ele>458.8</ele>
        <time>2020-05-23T09:09:24Z</time>
      </trkpt>
      <trkpt lat="45.1974" lon="4.65133">
        <ele>459.4</ele>
        <time>2020-05-23T09:09:28Z</time>
      </trkpt>
      <trkpt lat="45.1973" lon="4.65124">
        <ele>460</ele>
        <time>2020-05-23T09:09:32Z</time>
      </trkpt>
      <trkpt lat="45.19719" lon="4.65116">
        <ele>460.2</ele>
        <time>2020-05-23T09:09:36Z</time>
      </trkpt>
      <trkpt lat="45.19708" lon="4.65108">
        <ele>460.6</ele>
        <time>2020-05-23T09:09:40Z</time>
      </trkpt>
      <trkpt lat="45.19696" lon="4.651">
        <ele>461</ele>
        <time>2020-05-23T09:09:44Z</time>
      </trkpt>
      <trkpt lat="45.19684" lon="4.65091">
        <ele>461</ele>
        <time>2020-05-23T09:09:48Z</time>
      </trkpt>
      <trkpt lat="45.19673" lon="4.65083">
        <ele>461.4</ele>
        <time>2020-05-23T09:09:52Z</time>
      </trkpt>
      <trkpt lat="45.19661" lon="4.65074">
        <ele>461.6</ele>
        <time>2020-05-23T09:09:56Z</time>
      </trkpt>
      <trkpt lat="45.1965" lon="4.65066">
        <ele>462.4</ele>
        <time>2020-05-23T09:10:00Z</time>
      </trkpt>
      <trkpt lat="45.19637" lon="4.65057">
        <ele>462.2</ele>
        <time>2020-05-23T09:10:04Z</time>
      </trkpt>
      <trkpt lat="45.19624" lon="4.65047">
        <ele>462.4</ele>
        <time>2020-05-23T09:10:08Z</time>
      </trkpt>
      <trkpt lat="45.19612" lon="4.65038">
        <ele>463</ele>
        <time>2020-05-23T09:10:12Z</time>
      </trkpt>
      <trkpt lat="45.196" lon="4.65028">
        <ele>463.4</ele>
        <time>2020-05-23T09:10:16Z</time>
      </trkpt>
      <trkpt lat="45.19588" lon="4.65018">
        <ele>463.4</ele>
        <time>2020-05-23T09:10:20Z</time>
      </trkpt>
      <trkpt lat="45.19576" lon="4.65006">
        <ele>463.4</ele>
        <time>2020-05-23T09:10:24Z</time>
      </trkpt>
      <trkpt lat="45.19564" lon="4.64995">
        <ele>463.8</ele>
        <time>2020-05-23T09:10:28Z</time>
      </trkpt>
      <trkpt lat="45.19552" lon="4.64983">
        <ele>464</ele>
        <time>2020-05-23T09:10:32Z</time>
      </trkpt>
      <trkpt lat="45.1954" lon="4.6497">
        <ele>464.4</ele>
        <time>2020-05-23T09:10:36Z</time>
      </trkpt>
      <trkpt lat="45.19529" lon="4.64958">
        <ele>464.6</ele>
        <time>2020-05-23T09:10:40Z</time>
      </trkpt>
      <trkpt lat="45.19518" lon="4.64946">
        <ele>465</ele>
        <time>2020-05-23T09:10:44Z</time>
      </trkpt>
      <trkpt lat="45.19507" lon="4.64933">
        <ele>465.6</ele>
        <time>2020-05-23T09:10:48Z</time>
      </trkpt>
      <trkpt lat="45.19495" lon="4.64921">
        <ele>466.2</ele>
        <time>2020-05-23T09:10:52Z</time>
      </trkpt>
      <trkpt lat="45.19482" lon="4.64908">
        <ele>466</ele>
        <time>2020-05-23T09:10:56Z</time>
      </trkpt>
      <trkpt lat="45.1947" lon="4.64894">
        <ele>466.2</ele>
        <time>2020-05-23T09:11:00Z</time>
      </trkpt>
      <trkpt lat="45.19459" lon="4.6488">
        <ele>466.4</ele>
        <time>2020-05-23T09:11:04Z</time>
      </trkpt>
      <trkpt lat="45.19447" lon="4.64867">
        <ele>466.6</ele>
        <time>2020-05-23T09:11:08Z</time>
      </trkpt>
      <trkpt lat="45.19437" lon="4.64854">
        <ele>466.8</ele>
        <time>2020-05-23T09:11:12Z</time>
      </trkpt>
      <trkpt lat="45.19426" lon="4.6484">
        <ele>467.6</ele>
        <time>2020-05-23T09:11:16Z</time>
      </trkpt>
      <trkpt lat="45.19416" lon="4.64827">
        <ele>467.8</ele>
        <time>2020-05-23T09:11:20Z</time>
      </trkpt>
      <trkpt lat="45.19405" lon="4.64814">
        <ele>468</ele>
        <time>2020-05-23T09:11:24Z</time>
      </trkpt>
      <trkpt lat="45.19395" lon="4.64802">
        <ele>468.8</ele>
        <time>2020-05-23T09:11:28Z</time>
      </trkpt>
      <trkpt lat="45.19385" lon="4.64789">
        <ele>468.4</ele>
        <time>2020-05-23T09:11:32Z</time>
      </trkpt>
      <trkpt lat="45.19375" lon="4.64777">
        <ele>469.4</ele>
        <time>2020-05-23T09:11:36Z</time>
      </trkpt>
      <trkpt lat="45.19365" lon="4.64765">
        <ele>470</ele>
        <time>2020-05-23T09:11:40Z</time>
      </trkpt>
      <trkpt lat="45.19356" lon="4.64753">
        <ele>470.2</ele>
        <time>2020-05-23T09:11:44Z</time>
      </trkpt>
      <trkpt lat="45.19347" lon="4.64742">
        <ele>471.2</ele>
        <time>2020-05-23T09:11:48Z</time>
      </trkpt>
      <trkpt lat="45.19336" lon="4.64729">
        <ele>471.4</ele>
        <time>2020-05-23T09:11:52Z</time>
      </trkpt>
      <trkpt lat="45.19326" lon="4.64717">
        <ele>472</ele>
        <time>2020-05-23T09:11:56Z</time>
      </trkpt>
      <trkpt lat="45.19316" lon="4.64705">
        <ele>472</ele>
        <time>2020-05-23T09:12:00Z</time>
      </trkpt>
      <trkpt lat="45.19307" lon="4.64692">
        <ele>473.2</ele>
        <time>2020-05-23T09:12:04Z</time>
      </trkpt>
      <trkpt lat="45.19296" lon="4.64679">
        <ele>472.6</ele>
        <time>2020-05-23T09:12:08Z</time>
      </trkpt>
      <trkpt lat="45.19286" lon="4.64666">
        <ele>473.4</ele>
        <time>2020-05-23T09:12:12Z</time>
      </trkpt>
      <trkpt lat="45.19277" lon="4.64652">
        <ele>473.6</ele>
        <time>2020-05-23T09:12:16Z</time>
      </trkpt>
      <trkpt lat="45.1927" lon="4.64636">
        <ele>474.2</ele>
        <time>2020-05-23T09:12:20Z</time>
      </trkpt>
      <trkpt lat="45.19263" lon="4.6462">
        <ele>474.6</ele>
        <time>2020-05-23T09:12:24Z</time>
      </trkpt>
      <trkpt lat="45.19258" lon="4.64604">
        <ele>474.8</ele>
        <time>2020-05-23T09:12:28Z</time>
      </trkpt>
      <trkpt lat="45.19252" lon="4.64589">
        <ele>475</ele>
        <time>2020-05-23T09:12:32Z</time>
      </trkpt>
      <trkpt lat="45.19247" lon="4.64573">
        <ele>476</ele>
        <time>2020-05-23T09:12:36Z</time>
      </trkpt>
      <trkpt lat="45.19241" lon="4.64558">
        <ele>475.8</ele>
        <time>2020-05-23T09:12:40Z</time>
      </trkpt>
      <trkpt lat="45.19236" lon="4.64542">
        <ele>476.2</ele>
        <time>2020-05-23T09:12:44Z</time>
      </trkpt>
      <trkpt lat="45.1923" lon="4.64527">
        <ele>477</ele>
        <time>2020-05-23T09:12:48Z</time>
      </trkpt>
      <trkpt lat="45.19225" lon="4.64511">
        <ele>477.6</ele>
        <time>2020-05-23T09:12:52Z</time>
      </trkpt>
      <trkpt lat="45.1922" lon="4.64496">
        <ele>477.4</ele>
        <time>2020-05-23T09:12:56Z</time>
      </trkpt>
      <trkpt lat="45.19215" lon="4.64481">
        <ele>478.2</ele>
        <time>2020-05-23T09:13:00Z</time>
      </trkpt>
      <trkpt lat="45.1921" lon="4.64465">
        <ele>478.6</ele>
        <time>2020-05-23T09:13:04Z</time>
      </trkpt>
      <trkpt lat="45.19204" lon="4.64449">
        <ele>479.2</ele>
        <time>2020-05-23T09:13:08Z</time>
      </trkpt>
      <trkpt lat="45.19199" lon="4.64433">
        <ele>479.4</ele>
        <time>2020-05-23T09:13:12Z</time>
      </trkpt>
      <trkpt lat="45.19192" lon="4.64417">
        <ele>479.8</ele>
        <time>2020-05-23T09:13:16Z</time>
      </trkpt>
      <trkpt lat="45.19187" lon="4.644">
        <ele>480</ele>
        <time>2020-05-23T09:13:20Z</time>
      </trkpt>
      <trkpt lat="45.1918" lon="4.64383">
        <ele>480</ele>
        <time>2020-05-23T09:13:24Z</time>
      </trkpt>
      <trkpt lat="45.19174" lon="4.64365">
        <ele>480.4</ele>
        <time>2020-05-23T09:13:28Z</time>
      </trkpt>
      <trkpt lat="45.19168" lon="4.64348">
        <ele>480.8</ele>
        <time>2020-05-23T09:13:32Z</time>
      </trkpt>
      <trkpt lat="45.19162" lon="4.64331">
        <ele>480.6</ele>
        <time>2020-05-23T09:13:36Z</time>
      </trkpt>
      <trkpt lat="45.19156" lon="4.64313">
        <ele>480.6</ele>
        <time>2020-05-23T09:13:40Z</time>
      </trkpt>
      <trkpt lat="45.1915" lon="4.64294">
        <ele>481</ele>
        <time>2020-05-23T09:13:44Z</time>
      </trkpt>
      <trkpt lat="45.19143" lon="4.64275">
        <ele>481.2</ele>
        <time>2020-05-23T09:13:48Z</time>
      </trkpt>
      <trkpt lat="45.19136" lon="4.64256">
        <ele>481</ele>
        <time>2020-05-23T09:13:52Z</time>
      </trkpt>
      <trkpt lat="45.19129" lon="4.64236">
        <ele>480.6</ele>
        <time>2020-05-23T09:13:56Z</time>
      </trkpt>
      <trkpt lat="45.19122" lon="4.64216">
        <ele>480.8</ele>
        <time>2020-05-23T09:14:00Z</time>
      </trkpt>
      <trkpt lat="45.19115" lon="4.64198">
        <ele>481.4</ele>
        <time>2020-05-23T09:14:04Z</time>
      </trkpt>
      <trkpt lat="45.19106" lon="4.64181">
        <ele>481.8</ele>
        <time>2020-05-23T09:14:08Z</time>
      </trkpt>
      <trkpt lat="45.19096" lon="4.64164">
        <ele>482.2</ele>
        <time>2020-05-23T09:14:12Z</time>
      </trkpt>
      <trkpt lat="45.19087" lon="4.64149">
        <ele>482.6</ele>
        <time>2020-05-23T09:14:16Z</time>
      </trkpt>
      <trkpt lat="45.19076" lon="4.64134">
        <ele>483.2</ele>
        <time>2020-05-23T09:14:20Z</time>
      </trkpt>
      <trkpt lat="45.19067" lon="4.64119">
        <ele>483.6</ele>
        <time>2020-05-23T09:14:24Z</time>
      </trkpt>
      <trkpt lat="45.19057" lon="4.64104">
        <ele>483.8</ele>
        <time>2020-05-23T09:14:28Z</time>
      </trkpt>
      <trkpt lat="45.19048" lon="4.64089">
        <ele>484.6</ele>
        <time>2020-05-23T09:14:32Z</time>
      </trkpt>
      <trkpt lat="45.19039" lon="4.64074">
        <ele>485</ele>
        <time>2020-05-23T09:14:36Z</time>
      </trkpt>
      <trkpt lat="45.19031" lon="4.6406">
        <ele>485.6</ele>
        <time>2020-05-23T09:14:40Z</time>
      </trkpt>
      <trkpt lat="45.19023" lon="4.64046">
        <ele>485.4</ele>
        <time>2020-05-23T09:14:44Z</time>
      </trkpt>
      <trkpt lat="45.19014" lon="4.64032">
        <ele>485.8</ele>
        <time>2020-05-23T09:14:48Z</time>
      </trkpt>
      <trkpt lat="45.19006" lon="4.64018">
        <ele>486.4</ele>
        <time>2020-05-23T09:14:52Z</time>
      </trkpt>
      <trkpt lat="45.18997" lon="4.64003">
        <ele>486.2</ele>
        <time>2020-05-23T09:14:56Z</time>
      </trkpt>
      <trkpt lat="45.18987" lon="4.63988">
        <ele>486.6</ele>
        <time>2020-05-23T09:15:00Z</time>
      </trkpt>
      <trkpt lat="45.18976" lon="4.63976">
        <ele>487.2</ele>
        <time>2020-05-23T09:15:04Z</time>
      </trkpt>
      <trkpt lat="45.18965" lon="4.63966">
        <ele>488.4</ele>
        <time>2020-05-23T09:15:08Z</time>
      </trkpt>
      <trkpt lat="45.18954" lon="4.63956">
        <ele>489.2</ele>
        <time>2020-05-23T09:15:12Z</time>
      </trkpt>
      <trkpt lat="45.18943" lon="4.63945">
        <ele>489.4</ele>
        <time>2020-05-23T09:15:16Z</time>
      </trkpt>
      <trkpt lat="45.18934" lon="4.63931">
        <ele>490</ele>
        <time>2020-05-23T09:15:20Z</time>
      </trkpt>
      <trkpt lat="45.18927" lon="4.63915">
        <ele>489.6</ele>
        <time>2020-05-23T09:15:24Z</time>
      </trkpt>
      <trkpt lat="45.18923" lon="4.63897">
        <ele>490.4</ele>
        <time>2020-05-23T09:15:28Z</time>
      </trkpt>
      <trkpt lat="45.1892" lon="4.63879">
        <ele>491.8</ele>
        <time>2020-05-23T09:15:32Z</time>
      </trkpt>
      <trkpt lat="45.18918" lon="4.63861">
        <ele>491.6</ele>
        <time>2020-05-23T09:15:36Z</time>
      </trkpt>
      <trkpt lat="45.18914" lon="4.63844">
        <ele>491.8</ele>
        <time>2020-05-23T09:15:40Z</time>
      </trkpt>
      <trkpt lat="45.18909" lon="4.63828">
        <ele>492.6</ele>
        <time>2020-05-23T09:15:44Z</time>
      </trkpt>
      <trkpt lat="45.18901" lon="4.63816">
        <ele>492.8</ele>
        <time>2020-05-23T09:15:48Z</time>
      </trkpt>
      <trkpt lat="45.18892" lon="4.63803">
        <ele>493.4</ele>
        <time>2020-05-23T09:15:52Z</time>
      </trkpt>
      <trkpt lat="45.18882" lon="4.63793">
        <ele>493.6</ele>
        <time>2020-05-23T09:15:56Z</time>
      </trkpt>
      <trkpt lat="45.18872" lon="4.63783">
        <ele>493.6</ele>
        <time>2020-05-23T09:16:00Z</time>
      </trkpt>
      <trkpt lat="45.18861" lon="4.63774">
        <ele>494</ele>
        <time>2020-05-23T09:16:04Z</time>
      </trkpt>
      <trkpt lat="45.1885" lon="4.63766">
        <ele>494.8</ele>
        <time>2020-05-23T09:16:08Z</time>
      </trkpt>
      <trkpt lat="45.18837" lon="4.63762">
        <ele>494.6</ele>
        <time>2020-05-23T09:16:12Z</time>
      </trkpt>
      <trkpt lat="45.18825" lon="4.63759">
        <ele>495.8</ele>
        <time>2020-05-23T09:16:16Z</time>
      </trkpt>
      <trkpt lat="45.18812" lon="4.63757">
        <ele>496.4</ele>
        <time>2020-05-23T09:16:20Z</time>
      </trkpt>
      <trkpt lat="45.188" lon="4.63758">
        <ele>495.8</ele>
        <time>2020-05-23T09:16:24Z</time>
      </trkpt>
      <trkpt lat="45.18786" lon="4.63762">
        <ele>495.8</ele>
        <time>2020-05-23T09:16:28Z</time>
      </trkpt>
      <trkpt lat="45.18773" lon="4.63765">
        <ele>496</ele>
        <time>2020-05-23T09:16:32Z</time>
      </trkpt>
      <trkpt lat="45.18758" lon="4.63766">
        <ele>495.6</ele>
        <time>2020-05-23T09:16:36Z</time>
      </trkpt>
      <trkpt lat="45.18743" lon="4.63763">
        <ele>496.6</ele>
        <time>2020-05-23T09:16:40Z</time>
      </trkpt>
      <trkpt lat="45.18733" lon="4.63755">
        <ele>496.8</ele>
        <time>2020-05-23T09:16:44Z</time>
      </trkpt>
      <trkpt lat="45.18736" lon="4.63751">
        <ele>497</ele>
        <time>2020-05-23T09:16:48Z</time>
      </trkpt>
      <trkpt lat="45.18724" lon="4.63747">
        <ele>496.8</ele>
        <time>2020-05-23T09:17:48Z</time>
      </trkpt>
      <trkpt lat="45.1872" lon="4.63738">
        <ele>498.2</ele>
        <time>2020-05-23T09:17:52Z</time>
      </trkpt>
      <trkpt lat="45.18714" lon="4.63732">
        <ele>499</ele>
        <time>2020-05-23T09:17:56Z</time>
      </trkpt>
      <trkpt lat="45.18708" lon="4.63728">
        <ele>499.4</ele>
        <time>2020-05-23T09:18:00Z</time>
      </trkpt>
      <trkpt lat="45.187" lon="4.63724">
        <ele>499.6</ele>
        <time>2020-05-23T09:18:04Z</time>
      </trkpt>
      <trkpt lat="45.18692" lon="4.6372">
        <ele>500.8</ele>
        <time>2020-05-23T09:18:08Z</time>
      </trkpt>
      <trkpt lat="45.18684" lon="4.63718">
        <ele>501.6</ele>
        <time>2020-05-23T09:18:12Z</time>
      </trkpt>
      <trkpt lat="45.18676" lon="4.63715">
        <ele>501.6</ele>
        <time>2020-05-23T09:18:16Z</time>
      </trkpt>
      <trkpt lat="45.18668" lon="4.6371">
        <ele>502</ele>
        <time>2020-05-23T09:18:20Z</time>
      </trkpt>
      <trkpt lat="45.18662" lon="4.63709">
        <ele>502.2</ele>
        <time>2020-05-23T09:18:24Z</time>
      </trkpt>
      <trkpt lat="45.18657" lon="4.63712">
        <ele>502</ele>
        <time>2020-05-23T09:18:28Z</time>
      </trkpt>
      <trkpt lat="45.18657" lon="4.63712">
        <ele>502</ele>
        <time>2020-05-23T09:18:32Z</time>
      </trkpt>
      <trkpt lat="45.18649" lon="4.6372">
        <ele>501.4</ele>
        <time>2020-05-23T09:25:01Z</time>
      </trkpt>
      <trkpt lat="45.1864" lon="4.6373">
        <ele>500.2</ele>
        <time>2020-05-23T09:25:09Z</time>
      </trkpt>
      <trkpt lat="45.18628" lon="4.63733">
        <ele>500.4</ele>
        <time>2020-05-23T09:25:13Z</time>
      </trkpt>
      <trkpt lat="45.18615" lon="4.63735">
        <ele>500.6</ele>
        <time>2020-05-23T09:25:17Z</time>
      </trkpt>
      <trkpt lat="45.18604" lon="4.63737">
        <ele>500.2</ele>
        <time>2020-05-23T09:25:21Z</time>
      </trkpt>
      <trkpt lat="45.18591" lon="4.6374">
        <ele>500.2</ele>
        <time>2020-05-23T09:25:25Z</time>
      </trkpt>
      <trkpt lat="45.18576" lon="4.63741">
        <ele>499.6</ele>
        <time>2020-05-23T09:25:29Z</time>
      </trkpt>
      <trkpt lat="45.18559" lon="4.63743">
        <ele>499.2</ele>
        <time>2020-05-23T09:25:33Z</time>
      </trkpt>
      <trkpt lat="45.18542" lon="4.63746">
        <ele>499.2</ele>
        <time>2020-05-23T09:25:37Z</time>
      </trkpt>
      <trkpt lat="45.18523" lon="4.63747">
        <ele>498.2</ele>
        <time>2020-05-23T09:25:41Z</time>
      </trkpt>
      <trkpt lat="45.18503" lon="4.63749">
        <ele>498</ele>
        <time>2020-05-23T09:25:45Z</time>
      </trkpt>
      <trkpt lat="45.18483" lon="4.6375">
        <ele>496.4</ele>
        <time>2020-05-23T09:25:49Z</time>
      </trkpt>
      <trkpt lat="45.18461" lon="4.63751">
        <ele>497</ele>
        <time>2020-05-23T09:25:53Z</time>
      </trkpt>
      <trkpt lat="45.1844" lon="4.63752">
        <ele>497</ele>
        <time>2020-05-23T09:25:57Z</time>
      </trkpt>
      <trkpt lat="45.1842" lon="4.63747">
        <ele>498</ele>
        <time>2020-05-23T09:26:01Z</time>
      </trkpt>
      <trkpt lat="45.18404" lon="4.6374">
        <ele>499</ele>
        <time>2020-05-23T09:26:05Z</time>
      </trkpt>
      <trkpt lat="45.1839" lon="4.63732">
        <ele>499.6</ele>
        <time>2020-05-23T09:26:09Z</time>
      </trkpt>
      <trkpt lat="45.18377" lon="4.63726">
        <ele>500</ele>
        <time>2020-05-23T09:26:13Z</time>
      </trkpt>
      <trkpt lat="45.18364" lon="4.63719">
        <ele>500.2</ele>
        <time>2020-05-23T09:26:17Z</time>
      </trkpt>
      <trkpt lat="45.18352" lon="4.63712">
        <ele>500.8</ele>
        <time>2020-05-23T09:26:21Z</time>
      </trkpt>
      <trkpt lat="45.1834" lon="4.63706">
        <ele>501.4</ele>
        <time>2020-05-23T09:26:25Z</time>
      </trkpt>
      <trkpt lat="45.18328" lon="4.637">
        <ele>502</ele>
        <time>2020-05-23T09:26:29Z</time>
      </trkpt>
      <trkpt lat="45.18317" lon="4.63696">
        <ele>502.2</ele>
        <time>2020-05-23T09:26:33Z</time>
      </trkpt>
      <trkpt lat="45.18306" lon="4.63695">
        <ele>502.4</ele>
        <time>2020-05-23T09:26:37Z</time>
      </trkpt>
      <trkpt lat="45.18293" lon="4.63699">
        <ele>503</ele>
        <time>2020-05-23T09:26:41Z</time>
      </trkpt>
      <trkpt lat="45.18282" lon="4.63709">
        <ele>502.6</ele>
        <time>2020-05-23T09:26:45Z</time>
      </trkpt>
      <trkpt lat="45.18272" lon="4.63723">
        <ele>502</ele>
        <time>2020-05-23T09:26:49Z</time>
      </trkpt>
      <trkpt lat="45.18265" lon="4.63738">
        <ele>502.8</ele>
        <time>2020-05-23T09:26:53Z</time>
      </trkpt>
      <trkpt lat="45.18263" lon="4.63755">
        <ele>503.2</ele>
        <time>2020-05-23T09:26:57Z</time>
      </trkpt>
      <trkpt lat="45.18262" lon="4.63772">
        <ele>503.4</ele>
        <time>2020-05-23T09:27:01Z</time>
      </trkpt>
      <trkpt lat="45.18263" lon="4.63789">
        <ele>503.2</ele>
        <time>2020-05-23T09:27:05Z</time>
      </trkpt>
      <trkpt lat="45.18263" lon="4.63807">
        <ele>503.8</ele>
        <time>2020-05-23T09:27:09Z</time>
      </trkpt>
      <trkpt lat="45.18262" lon="4.63824">
        <ele>503.8</ele>
        <time>2020-05-23T09:27:13Z</time>
      </trkpt>
      <trkpt lat="45.1826" lon="4.63841">
        <ele>504.6</ele>
        <time>2020-05-23T09:27:17Z</time>
      </trkpt>
      <trkpt lat="45.18256" lon="4.63858">
        <ele>505.2</ele>
        <time>2020-05-23T09:27:21Z</time>
      </trkpt>
      <trkpt lat="45.18253" lon="4.63874">
        <ele>505</ele>
        <time>2020-05-23T09:27:25Z</time>
      </trkpt>
      <trkpt lat="45.1825" lon="4.6389">
        <ele>505.6</ele>
        <time>2020-05-23T09:27:29Z</time>
      </trkpt>
      <trkpt lat="45.18249" lon="4.63906">
        <ele>505.2</ele>
        <time>2020-05-23T09:27:33Z</time>
      </trkpt>
      <trkpt lat="45.1825" lon="4.63923">
        <ele>505.4</ele>
        <time>2020-05-23T09:27:37Z</time>
      </trkpt>
      <trkpt lat="45.1825" lon="4.63941">
        <ele>506.2</ele>
        <time>2020-05-23T09:27:41Z</time>
      </trkpt>
      <trkpt lat="45.1825" lon="4.63958">
        <ele>506.6</ele>
        <time>2020-05-23T09:27:45Z</time>
      </trkpt>
      <trkpt lat="45.1825" lon="4.63975">
        <ele>506.4</ele>
        <time>2020-05-23T09:27:49Z</time>
      </trkpt>
      <trkpt lat="45.18249" lon="4.63992">
        <ele>506</ele>
        <time>2020-05-23T09:27:53Z</time>
      </trkpt>
      <trkpt lat="45.18247" lon="4.64009">
        <ele>507.8</ele>
        <time>2020-05-23T09:27:57Z</time>
      </trkpt>
      <trkpt lat="45.18243" lon="4.64025">
        <ele>508</ele>
        <time>2020-05-23T09:28:01Z</time>
      </trkpt>
      <trkpt lat="45.18236" lon="4.6404">
        <ele>508.4</ele>
        <time>2020-05-23T09:28:05Z</time>
      </trkpt>
      <trkpt lat="45.18226" lon="4.64052">
        <ele>508.4</ele>
        <time>2020-05-23T09:28:09Z</time>
      </trkpt>
      <trkpt lat="45.18213" lon="4.64059">
        <ele>509</ele>
        <time>2020-05-23T09:28:13Z</time>
      </trkpt>
      <trkpt lat="45.182" lon="4.64062">
        <ele>510</ele>
        <time>2020-05-23T09:28:17Z</time>
      </trkpt>
      <trkpt lat="45.18188" lon="4.64066">
        <ele>509.6</ele>
        <time>2020-05-23T09:28:21Z</time>
      </trkpt>
      <trkpt lat="45.18175" lon="4.64078">
        <ele>508.8</ele>
        <time>2020-05-23T09:28:25Z</time>
      </trkpt>
      <trkpt lat="45.18169" lon="4.64097">
        <ele>510</ele>
        <time>2020-05-23T09:28:29Z</time>
      </trkpt>
      <trkpt lat="45.18169" lon="4.64114">
        <ele>509.8</ele>
        <time>2020-05-23T09:28:33Z</time>
      </trkpt>
      <trkpt lat="45.1817" lon="4.6413">
        <ele>509.6</ele>
        <time>2020-05-23T09:28:37Z</time>
      </trkpt>
      <trkpt lat="45.18171" lon="4.64148">
        <ele>511</ele>
        <time>2020-05-23T09:28:41Z</time>
      </trkpt>
      <trkpt lat="45.18179" lon="4.64166">
        <ele>510.8</ele>
        <time>2020-05-23T09:28:45Z</time>
      </trkpt>
      <trkpt lat="45.18184" lon="4.64184">
        <ele>511</ele>
        <time>2020-05-23T09:28:49Z</time>
      </trkpt>
      <trkpt lat="45.18186" lon="4.64203">
        <ele>510.6</ele>
        <time>2020-05-23T09:28:53Z</time>
      </trkpt>
      <trkpt lat="45.18184" lon="4.64221">
        <ele>511.8</ele>
        <time>2020-05-23T09:28:57Z</time>
      </trkpt>
      <trkpt lat="45.18176" lon="4.64231">
        <ele>512.2</ele>
        <time>2020-05-23T09:29:01Z</time>
      </trkpt>
      <trkpt lat="45.18165" lon="4.64236">
        <ele>512.4</ele>
        <time>2020-05-23T09:29:05Z</time>
      </trkpt>
      <trkpt lat="45.18153" lon="4.64235">
        <ele>513.4</ele>
        <time>2020-05-23T09:29:09Z</time>
      </trkpt>
      <trkpt lat="45.18143" lon="4.64234">
        <ele>513.6</ele>
        <time>2020-05-23T09:29:13Z</time>
      </trkpt>
      <trkpt lat="45.18131" lon="4.64236">
        <ele>513.6</ele>
        <time>2020-05-23T09:29:17Z</time>
      </trkpt>
      <trkpt lat="45.18118" lon="4.64246">
        <ele>514.2</ele>
        <time>2020-05-23T09:29:21Z</time>
      </trkpt>
      <trkpt lat="45.1811" lon="4.64257">
        <ele>515.2</ele>
        <time>2020-05-23T09:29:25Z</time>
      </trkpt>
      <trkpt lat="45.18103" lon="4.64268">
        <ele>516.2</ele>
        <time>2020-05-23T09:29:29Z</time>
      </trkpt>
      <trkpt lat="45.18098" lon="4.64284">
        <ele>516</ele>
        <time>2020-05-23T09:29:33Z</time>
      </trkpt>
      <trkpt lat="45.18094" lon="4.64301">
        <ele>516.6</ele>
        <time>2020-05-23T09:29:37Z</time>
      </trkpt>
      <trkpt lat="45.18089" lon="4.64318">
        <ele>516.6</ele>
        <time>2020-05-23T09:29:41Z</time>
      </trkpt>
      <trkpt lat="45.18083" lon="4.64334">
        <ele>517.2</ele>
        <time>2020-05-23T09:29:45Z</time>
      </trkpt>
      <trkpt lat="45.18073" lon="4.64345">
        <ele>518</ele>
        <time>2020-05-23T09:29:49Z</time>
      </trkpt>
      <trkpt lat="45.18061" lon="4.64351">
        <ele>518.6</ele>
        <time>2020-05-23T09:29:53Z</time>
      </trkpt>
      <trkpt lat="45.1805" lon="4.64354">
        <ele>519.2</ele>
        <time>2020-05-23T09:29:57Z</time>
      </trkpt>
      <trkpt lat="45.18038" lon="4.64356">
        <ele>520</ele>
        <time>2020-05-23T09:30:01Z</time>
      </trkpt>
      <trkpt lat="45.18026" lon="4.64362">
        <ele>520.4</ele>
        <time>2020-05-23T09:30:05Z</time>
      </trkpt>
      <trkpt lat="45.18015" lon="4.64369">
        <ele>520.8</ele>
        <time>2020-05-23T09:30:09Z</time>
      </trkpt>
      <trkpt lat="45.18003" lon="4.64377">
        <ele>521.8</ele>
        <time>2020-05-23T09:30:13Z</time>
      </trkpt>
      <trkpt lat="45.17991" lon="4.6438">
        <ele>522.6</ele>
        <time>2020-05-23T09:30:17Z</time>
      </trkpt>
      <trkpt lat="45.17979" lon="4.64383">
        <ele>523</ele>
        <time>2020-05-23T09:30:21Z</time>
      </trkpt>
      <trkpt lat="45.17967" lon="4.64388">
        <ele>523</ele>
        <time>2020-05-23T09:30:25Z</time>
      </trkpt>
      <trkpt lat="45.17956" lon="4.64398">
        <ele>523.2</ele>
        <time>2020-05-23T09:30:29Z</time>
      </trkpt>
      <trkpt lat="45.17948" lon="4.64412">
        <ele>523.8</ele>
        <time>2020-05-23T09:30:33Z</time>
      </trkpt>
      <trkpt lat="45.17938" lon="4.64426">
        <ele>524.2</ele>
        <time>2020-05-23T09:30:37Z</time>
      </trkpt>
      <trkpt lat="45.17926" lon="4.64437">
        <ele>523.8</ele>
        <time>2020-05-23T09:30:41Z</time>
      </trkpt>
      <trkpt lat="45.17915" lon="4.64445">
        <ele>524.8</ele>
        <time>2020-05-23T09:30:45Z</time>
      </trkpt>
      <trkpt lat="45.17902" lon="4.6445">
        <ele>524.6</ele>
        <time>2020-05-23T09:30:49Z</time>
      </trkpt>
      <trkpt lat="45.17889" lon="4.64453">
        <ele>525</ele>
        <time>2020-05-23T09:30:53Z</time>
      </trkpt>
      <trkpt lat="45.17876" lon="4.64454">
        <ele>525</ele>
        <time>2020-05-23T09:30:57Z</time>
      </trkpt>
      <trkpt lat="45.17864" lon="4.64456">
        <ele>525.2</ele>
        <time>2020-05-23T09:31:01Z</time>
      </trkpt>
      <trkpt lat="45.17853" lon="4.64457">
        <ele>524.4</ele>
        <time>2020-05-23T09:31:05Z</time>
      </trkpt>
      <trkpt lat="45.1784" lon="4.64458">
        <ele>524</ele>
        <time>2020-05-23T09:31:09Z</time>
      </trkpt>
      <trkpt lat="45.17827" lon="4.64456">
        <ele>524.2</ele>
        <time>2020-05-23T09:31:13Z</time>
      </trkpt>
      <trkpt lat="45.17812" lon="4.64454">
        <ele>523.8</ele>
        <time>2020-05-23T09:31:17Z</time>
      </trkpt>
      <trkpt lat="45.17796" lon="4.6445">
        <ele>523.2</ele>
        <time>2020-05-23T09:31:21Z</time>
      </trkpt>
      <trkpt lat="45.17778" lon="4.64443">
        <ele>522.6</ele>
        <time>2020-05-23T09:31:25Z</time>
      </trkpt>
      <trkpt lat="45.17759" lon="4.64431">
        <ele>521</ele>
        <time>2020-05-23T09:31:29Z</time>
      </trkpt>
      <trkpt lat="45.17742" lon="4.64419">
        <ele>520.8</ele>
        <time>2020-05-23T09:31:33Z</time>
      </trkpt>
      <trkpt lat="45.1773" lon="4.64409">
        <ele>520.4</ele>
        <time>2020-05-23T09:31:37Z</time>
      </trkpt>
      <trkpt lat="45.17723" lon="4.64406">
        <ele>520.4</ele>
        <time>2020-05-23T09:31:41Z</time>
      </trkpt>
      <trkpt lat="45.17712" lon="4.64399">
        <ele>519.8</ele>
        <time>2020-05-23T09:32:32Z</time>
      </trkpt>
      <trkpt lat="45.177" lon="4.6439">
        <ele>519.6</ele>
        <time>2020-05-23T09:32:36Z</time>
      </trkpt>
      <trkpt lat="45.17685" lon="4.64381">
        <ele>518.4</ele>
        <time>2020-05-23T09:32:40Z</time>
      </trkpt>
      <trkpt lat="45.17667" lon="4.64369">
        <ele>517.2</ele>
        <time>2020-05-23T09:32:44Z</time>
      </trkpt>
      <trkpt lat="45.17644" lon="4.64356">
        <ele>516.2</ele>
        <time>2020-05-23T09:32:48Z</time>
      </trkpt>
      <trkpt lat="45.17618" lon="4.64344">
        <ele>514.8</ele>
        <time>2020-05-23T09:32:52Z</time>
      </trkpt>
      <trkpt lat="45.17589" lon="4.64331">
        <ele>513.8</ele>
        <time>2020-05-23T09:32:56Z</time>
      </trkpt>
      <trkpt lat="45.17556" lon="4.64319">
        <ele>512.4</ele>
        <time>2020-05-23T09:33:00Z</time>
      </trkpt>
      <trkpt lat="45.17521" lon="4.64305">
        <ele>510.4</ele>
        <time>2020-05-23T09:33:04Z</time>
      </trkpt>
      <trkpt lat="45.17488" lon="4.64289">
        <ele>509.6</ele>
        <time>2020-05-23T09:33:08Z</time>
      </trkpt>
      <trkpt lat="45.17455" lon="4.6427">
        <ele>508.2</ele>
        <time>2020-05-23T09:33:12Z</time>
      </trkpt>
      <trkpt lat="45.17422" lon="4.64251">
        <ele>506.6</ele>
        <time>2020-05-23T09:33:16Z</time>
      </trkpt>
      <trkpt lat="45.17389" lon="4.64231">
        <ele>505.6</ele>
        <time>2020-05-23T09:33:20Z</time>
      </trkpt>
      <trkpt lat="45.17356" lon="4.64211">
        <ele>506</ele>
        <time>2020-05-23T09:33:24Z</time>
      </trkpt>
      <trkpt lat="45.17322" lon="4.6419">
        <ele>504.6</ele>
        <time>2020-05-23T09:33:28Z</time>
      </trkpt>
      <trkpt lat="45.17287" lon="4.64166">
        <ele>502.4</ele>
        <time>2020-05-23T09:33:32Z</time>
      </trkpt>
      <trkpt lat="45.1725" lon="4.64141">
        <ele>501</ele>
        <time>2020-05-23T09:33:36Z</time>
      </trkpt>
      <trkpt lat="45.17211" lon="4.64115">
        <ele>498.8</ele>
        <time>2020-05-23T09:33:40Z</time>
      </trkpt>
      <trkpt lat="45.1717" lon="4.64084">
        <ele>495.8</ele>
        <time>2020-05-23T09:33:44Z</time>
      </trkpt>
      <trkpt lat="45.17131" lon="4.64047">
        <ele>492.4</ele>
        <time>2020-05-23T09:33:48Z</time>
      </trkpt>
      <trkpt lat="45.17094" lon="4.64004">
        <ele>490.2</ele>
        <time>2020-05-23T09:33:52Z</time>
      </trkpt>
      <trkpt lat="45.17061" lon="4.63966">
        <ele>489.2</ele>
        <time>2020-05-23T09:33:56Z</time>
      </trkpt>
      <trkpt lat="45.17032" lon="4.63932">
        <ele>491</ele>
        <time>2020-05-23T09:34:00Z</time>
      </trkpt>
      <trkpt lat="45.17008" lon="4.63904">
        <ele>493.2</ele>
        <time>2020-05-23T09:34:04Z</time>
      </trkpt>
      <trkpt lat="45.16987" lon="4.63879">
        <ele>494.8</ele>
        <time>2020-05-23T09:34:08Z</time>
      </trkpt>
      <trkpt lat="45.16968" lon="4.63857">
        <ele>495</ele>
        <time>2020-05-23T09:34:12Z</time>
      </trkpt>
      <trkpt lat="45.16949" lon="4.63834">
        <ele>494.6</ele>
        <time>2020-05-23T09:34:16Z</time>
      </trkpt>
      <trkpt lat="45.16928" lon="4.63809">
        <ele>493.6</ele>
        <time>2020-05-23T09:34:20Z</time>
      </trkpt>
      <trkpt lat="45.16908" lon="4.63781">
        <ele>491.8</ele>
        <time>2020-05-23T09:34:24Z</time>
      </trkpt>
      <trkpt lat="45.16889" lon="4.6375">
        <ele>490.8</ele>
        <time>2020-05-23T09:34:28Z</time>
      </trkpt>
      <trkpt lat="45.16869" lon="4.63718">
        <ele>489.4</ele>
        <time>2020-05-23T09:34:32Z</time>
      </trkpt>
      <trkpt lat="45.16848" lon="4.63684">
        <ele>487.4</ele>
        <time>2020-05-23T09:34:36Z</time>
      </trkpt>
      <trkpt lat="45.16829" lon="4.63651">
        <ele>486</ele>
        <time>2020-05-23T09:34:40Z</time>
      </trkpt>
      <trkpt lat="45.16808" lon="4.63617">
        <ele>485</ele>
        <time>2020-05-23T09:34:44Z</time>
      </trkpt>
      <trkpt lat="45.16789" lon="4.63582">
        <ele>484.8</ele>
        <time>2020-05-23T09:34:48Z</time>
      </trkpt>
      <trkpt lat="45.1677" lon="4.63545">
        <ele>483.6</ele>
        <time>2020-05-23T09:34:52Z</time>
      </trkpt>
      <trkpt lat="45.16743" lon="4.63527">
        <ele>482</ele>
        <time>2020-05-23T09:34:56Z</time>
      </trkpt>
      <trkpt lat="45.16716" lon="4.63531">
        <ele>482.2</ele>
        <time>2020-05-23T09:35:00Z</time>
      </trkpt>
      <trkpt lat="45.16696" lon="4.6355">
        <ele>482.8</ele>
        <time>2020-05-23T09:35:04Z</time>
      </trkpt>
      <trkpt lat="45.16685" lon="4.6357">
        <ele>484.2</ele>
        <time>2020-05-23T09:35:08Z</time>
      </trkpt>
      <trkpt lat="45.16676" lon="4.63586">
        <ele>485.8</ele>
        <time>2020-05-23T09:35:12Z</time>
      </trkpt>
      <trkpt lat="45.16667" lon="4.63602">
        <ele>487</ele>
        <time>2020-05-23T09:35:16Z</time>
      </trkpt>
      <trkpt lat="45.16658" lon="4.63615">
        <ele>487.4</ele>
        <time>2020-05-23T09:35:20Z</time>
      </trkpt>
      <trkpt lat="45.16648" lon="4.63626">
        <ele>488</ele>
        <time>2020-05-23T09:35:24Z</time>
      </trkpt>
      <trkpt lat="45.16638" lon="4.63635">
        <ele>488.2</ele>
        <time>2020-05-23T09:35:28Z</time>
      </trkpt>
      <trkpt lat="45.16627" lon="4.63642">
        <ele>488.8</ele>
        <time>2020-05-23T09:35:32Z</time>
      </trkpt>
      <trkpt lat="45.16616" lon="4.63647">
        <ele>489.2</ele>
        <time>2020-05-23T09:35:36Z</time>
      </trkpt>
      <trkpt lat="45.16606" lon="4.6365">
        <ele>489.4</ele>
        <time>2020-05-23T09:35:40Z</time>
      </trkpt>
      <trkpt lat="45.16595" lon="4.63653">
        <ele>489.8</ele>
        <time>2020-05-23T09:35:44Z</time>
      </trkpt>
      <trkpt lat="45.16584" lon="4.63657">
        <ele>491.6</ele>
        <time>2020-05-23T09:35:48Z</time>
      </trkpt>
      <trkpt lat="45.16574" lon="4.6366">
        <ele>492</ele>
        <time>2020-05-23T09:35:52Z</time>
      </trkpt>
      <trkpt lat="45.16563" lon="4.63664">
        <ele>492.6</ele>
        <time>2020-05-23T09:35:56Z</time>
      </trkpt>
      <trkpt lat="45.16553" lon="4.63667">
        <ele>492.8</ele>
        <time>2020-05-23T09:36:00Z</time>
      </trkpt>
      <trkpt lat="45.16542" lon="4.63671">
        <ele>493.4</ele>
        <time>2020-05-23T09:36:04Z</time>
      </trkpt>
      <trkpt lat="45.16531" lon="4.63675">
        <ele>494.4</ele>
        <time>2020-05-23T09:36:08Z</time>
      </trkpt>
      <trkpt lat="45.1652" lon="4.63678">
        <ele>494.6</ele>
        <time>2020-05-23T09:36:12Z</time>
      </trkpt>
      <trkpt lat="45.1651" lon="4.63682">
        <ele>495.8</ele>
        <time>2020-05-23T09:36:16Z</time>
      </trkpt>
      <trkpt lat="45.16502" lon="4.63683">
        <ele>495.6</ele>
        <time>2020-05-23T09:36:20Z</time>
      </trkpt>
      <trkpt lat="45.16486" lon="4.63689">
        <ele>496.6</ele>
        <time>2020-05-23T09:40:19Z</time>
      </trkpt>
      <trkpt lat="45.16476" lon="4.63692">
        <ele>497.2</ele>
        <time>2020-05-23T09:40:23Z</time>
      </trkpt>
      <trkpt lat="45.16464" lon="4.63695">
        <ele>498.6</ele>
        <time>2020-05-23T09:40:27Z</time>
      </trkpt>
      <trkpt lat="45.16452" lon="4.63697">
        <ele>498.4</ele>
        <time>2020-05-23T09:40:31Z</time>
      </trkpt>
      <trkpt lat="45.1644" lon="4.637">
        <ele>499.2</ele>
        <time>2020-05-23T09:40:35Z</time>
      </trkpt>
      <trkpt lat="45.16426" lon="4.63702">
        <ele>499</ele>
        <time>2020-05-23T09:40:39Z</time>
      </trkpt>
      <trkpt lat="45.16412" lon="4.63701">
        <ele>499</ele>
        <time>2020-05-23T09:40:43Z</time>
      </trkpt>
      <trkpt lat="45.16397" lon="4.63699">
        <ele>499.4</ele>
        <time>2020-05-23T09:40:47Z</time>
      </trkpt>
      <trkpt lat="45.1638" lon="4.63694">
        <ele>498.4</ele>
        <time>2020-05-23T09:40:51Z</time>
      </trkpt>
      <trkpt lat="45.1636" lon="4.63686">
        <ele>498</ele>
        <time>2020-05-23T09:40:55Z</time>
      </trkpt>
      <trkpt lat="45.16339" lon="4.63673">
        <ele>497.4</ele>
        <time>2020-05-23T09:40:59Z</time>
      </trkpt>
      <trkpt lat="45.16317" lon="4.63653">
        <ele>496.4</ele>
        <time>2020-05-23T09:41:03Z</time>
      </trkpt>
      <trkpt lat="45.16294" lon="4.6363">
        <ele>495.2</ele>
        <time>2020-05-23T09:41:07Z</time>
      </trkpt>
      <trkpt lat="45.1627" lon="4.63602">
        <ele>493.6</ele>
        <time>2020-05-23T09:41:11Z</time>
      </trkpt>
      <trkpt lat="45.16245" lon="4.63571">
        <ele>491.2</ele>
        <time>2020-05-23T09:41:15Z</time>
      </trkpt>
      <trkpt lat="45.1622" lon="4.63538">
        <ele>490</ele>
        <time>2020-05-23T09:41:19Z</time>
      </trkpt>
      <trkpt lat="45.16191" lon="4.6351">
        <ele>487.4</ele>
        <time>2020-05-23T09:41:23Z</time>
      </trkpt>
      <trkpt lat="45.16163" lon="4.63478">
        <ele>485.8</ele>
        <time>2020-05-23T09:41:27Z</time>
      </trkpt>
      <trkpt lat="45.16138" lon="4.63437">
        <ele>483.2</ele>
        <time>2020-05-23T09:41:31Z</time>
      </trkpt>
      <trkpt lat="45.16113" lon="4.63394">
        <ele>482.2</ele>
        <time>2020-05-23T09:41:35Z</time>
      </trkpt>
      <trkpt lat="45.16081" lon="4.63359">
        <ele>483</ele>
        <time>2020-05-23T09:41:39Z</time>
      </trkpt>
      <trkpt lat="45.1605" lon="4.63321">
        <ele>480.6</ele>
        <time>2020-05-23T09:41:43Z</time>
      </trkpt>
      <trkpt lat="45.16023" lon="4.63278">
        <ele>480</ele>
        <time>2020-05-23T09:41:47Z</time>
      </trkpt>
      <trkpt lat="45.15997" lon="4.63235">
        <ele>477.4</ele>
        <time>2020-05-23T09:41:51Z</time>
      </trkpt>
      <trkpt lat="45.15971" lon="4.63201">
        <ele>477.4</ele>
        <time>2020-05-23T09:41:55Z</time>
      </trkpt>
      <trkpt lat="45.15937" lon="4.63183">
        <ele>474.6</ele>
        <time>2020-05-23T09:41:59Z</time>
      </trkpt>
      <trkpt lat="45.15899" lon="4.63176">
        <ele>474.8</ele>
        <time>2020-05-23T09:42:03Z</time>
      </trkpt>
      <trkpt lat="45.15863" lon="4.63165">
        <ele>472.4</ele>
        <time>2020-05-23T09:42:07Z</time>
      </trkpt>
      <trkpt lat="45.15827" lon="4.63146">
        <ele>471.4</ele>
        <time>2020-05-23T09:42:11Z</time>
      </trkpt>
      <trkpt lat="45.15798" lon="4.63121">
        <ele>470.2</ele>
        <time>2020-05-23T09:42:15Z</time>
      </trkpt>
      <trkpt lat="45.1577" lon="4.63097">
        <ele>470.8</ele>
        <time>2020-05-23T09:42:19Z</time>
      </trkpt>
      <trkpt lat="45.15752" lon="4.63062">
        <ele>469.6</ele>
        <time>2020-05-23T09:42:23Z</time>
      </trkpt>
      <trkpt lat="45.15747" lon="4.63025">
        <ele>470.2</ele>
        <time>2020-05-23T09:42:27Z</time>
      </trkpt>
      <trkpt lat="45.15748" lon="4.62988">
        <ele>469.8</ele>
        <time>2020-05-23T09:42:31Z</time>
      </trkpt>
      <trkpt lat="45.15755" lon="4.62953">
        <ele>470</ele>
        <time>2020-05-23T09:42:35Z</time>
      </trkpt>
      <trkpt lat="45.15762" lon="4.62919">
        <ele>470.2</ele>
        <time>2020-05-23T09:42:39Z</time>
      </trkpt>
      <trkpt lat="45.15762" lon="4.62884">
        <ele>466.8</ele>
        <time>2020-05-23T09:42:43Z</time>
      </trkpt>
      <trkpt lat="45.15752" lon="4.62851">
        <ele>466.8</ele>
        <time>2020-05-23T09:42:47Z</time>
      </trkpt>
      <trkpt lat="45.1574" lon="4.62824">
        <ele>465.8</ele>
        <time>2020-05-23T09:42:51Z</time>
      </trkpt>
      <trkpt lat="45.15731" lon="4.62804">
        <ele>469.2</ele>
        <time>2020-05-23T09:42:55Z</time>
      </trkpt>
      <trkpt lat="45.1572" lon="4.62784">
        <ele>469.8</ele>
        <time>2020-05-23T09:42:59Z</time>
      </trkpt>
      <trkpt lat="45.1571" lon="4.62765">
        <ele>470.6</ele>
        <time>2020-05-23T09:43:03Z</time>
      </trkpt>
      <trkpt lat="45.15701" lon="4.62747">
        <ele>470.4</ele>
        <time>2020-05-23T09:43:07Z</time>
      </trkpt>
      <trkpt lat="45.15693" lon="4.6273">
        <ele>471.6</ele>
        <time>2020-05-23T09:43:11Z</time>
      </trkpt>
      <trkpt lat="45.15683" lon="4.62712">
        <ele>472.8</ele>
        <time>2020-05-23T09:43:15Z</time>
      </trkpt>
      <trkpt lat="45.15675" lon="4.62693">
        <ele>472.6</ele>
        <time>2020-05-23T09:43:19Z</time>
      </trkpt>
      <trkpt lat="45.15666" lon="4.62675">
        <ele>473.4</ele>
        <time>2020-05-23T09:43:23Z</time>
      </trkpt>
      <trkpt lat="45.15656" lon="4.62658">
        <ele>473.4</ele>
        <time>2020-05-23T09:43:27Z</time>
      </trkpt>
      <trkpt lat="45.15646" lon="4.62638">
        <ele>474</ele>
        <time>2020-05-23T09:43:31Z</time>
      </trkpt>
      <trkpt lat="45.15635" lon="4.62618">
        <ele>473.4</ele>
        <time>2020-05-23T09:43:35Z</time>
      </trkpt>
      <trkpt lat="45.15624" lon="4.62598">
        <ele>474.4</ele>
        <time>2020-05-23T09:43:39Z</time>
      </trkpt>
      <trkpt lat="45.15614" lon="4.62577">
        <ele>474.2</ele>
        <time>2020-05-23T09:43:43Z</time>
      </trkpt>
      <trkpt lat="45.15605" lon="4.62555">
        <ele>474</ele>
        <time>2020-05-23T09:43:47Z</time>
      </trkpt>
      <trkpt lat="45.15598" lon="4.62532">
        <ele>475.2</ele>
        <time>2020-05-23T09:43:51Z</time>
      </trkpt>
      <trkpt lat="45.15593" lon="4.62511">
        <ele>475.6</ele>
        <time>2020-05-23T09:43:55Z</time>
      </trkpt>
      <trkpt lat="45.15587" lon="4.6249">
        <ele>476</ele>
        <time>2020-05-23T09:43:59Z</time>
      </trkpt>
      <trkpt lat="45.15579" lon="4.62472">
        <ele>476.4</ele>
        <time>2020-05-23T09:44:03Z</time>
      </trkpt>
      <trkpt lat="45.1557" lon="4.62457">
        <ele>477</ele>
        <time>2020-05-23T09:44:07Z</time>
      </trkpt>
      <trkpt lat="45.15561" lon="4.62443">
        <ele>477.6</ele>
        <time>2020-05-23T09:44:11Z</time>
      </trkpt>
      <trkpt lat="45.15551" lon="4.62426">
        <ele>477.6</ele>
        <time>2020-05-23T09:44:15Z</time>
      </trkpt>
      <trkpt lat="45.15541" lon="4.62407">
        <ele>478.2</ele>
        <time>2020-05-23T09:44:19Z</time>
      </trkpt>
      <trkpt lat="45.15531" lon="4.62389">
        <ele>477.6</ele>
        <time>2020-05-23T09:44:23Z</time>
      </trkpt>
      <trkpt lat="45.1552" lon="4.62371">
        <ele>478.2</ele>
        <time>2020-05-23T09:44:27Z</time>
      </trkpt>
      <trkpt lat="45.1551" lon="4.62354">
        <ele>478.6</ele>
        <time>2020-05-23T09:44:31Z</time>
      </trkpt>
      <trkpt lat="45.155" lon="4.62338">
        <ele>478.8</ele>
        <time>2020-05-23T09:44:35Z</time>
      </trkpt>
      <trkpt lat="45.1549" lon="4.62318">
        <ele>479.4</ele>
        <time>2020-05-23T09:44:39Z</time>
      </trkpt>
      <trkpt lat="45.15479" lon="4.62301">
        <ele>479.2</ele>
        <time>2020-05-23T09:44:43Z</time>
      </trkpt>
      <trkpt lat="45.15468" lon="4.62282">
        <ele>479.6</ele>
        <time>2020-05-23T09:44:47Z</time>
      </trkpt>
      <trkpt lat="45.15456" lon="4.62264">
        <ele>479.8</ele>
        <time>2020-05-23T09:44:51Z</time>
      </trkpt>
      <trkpt lat="45.15445" lon="4.62244">
        <ele>479</ele>
        <time>2020-05-23T09:44:55Z</time>
      </trkpt>
      <trkpt lat="45.15433" lon="4.62225">
        <ele>479.2</ele>
        <time>2020-05-23T09:44:59Z</time>
      </trkpt>
      <trkpt lat="45.15421" lon="4.62205">
        <ele>480</ele>
        <time>2020-05-23T09:45:03Z</time>
      </trkpt>
      <trkpt lat="45.15409" lon="4.62185">
        <ele>479.8</ele>
        <time>2020-05-23T09:45:07Z</time>
      </trkpt>
      <trkpt lat="45.15398" lon="4.62166">
        <ele>479.6</ele>
        <time>2020-05-23T09:45:11Z</time>
      </trkpt>
      <trkpt lat="45.15387" lon="4.62149">
        <ele>480.2</ele>
        <time>2020-05-23T09:45:15Z</time>
      </trkpt>
      <trkpt lat="45.15376" lon="4.62131">
        <ele>481.2</ele>
        <time>2020-05-23T09:45:19Z</time>
      </trkpt>
      <trkpt lat="45.15365" lon="4.62114">
        <ele>481.6</ele>
        <time>2020-05-23T09:45:23Z</time>
      </trkpt>
      <trkpt lat="45.15354" lon="4.62096">
        <ele>482</ele>
        <time>2020-05-23T09:45:27Z</time>
      </trkpt>
      <trkpt lat="45.15342" lon="4.62078">
        <ele>482</ele>
        <time>2020-05-23T09:45:31Z</time>
      </trkpt>
      <trkpt lat="45.15331" lon="4.62063">
        <ele>483</ele>
        <time>2020-05-23T09:45:35Z</time>
      </trkpt>
      <trkpt lat="45.1532" lon="4.62046">
        <ele>483.2</ele>
        <time>2020-05-23T09:45:39Z</time>
      </trkpt>
      <trkpt lat="45.15308" lon="4.62029">
        <ele>483.2</ele>
        <time>2020-05-23T09:45:43Z</time>
      </trkpt>
      <trkpt lat="45.15297" lon="4.62009">
        <ele>483.4</ele>
        <time>2020-05-23T09:45:47Z</time>
      </trkpt>
      <trkpt lat="45.15288" lon="4.61989">
        <ele>483.8</ele>
        <time>2020-05-23T09:45:51Z</time>
      </trkpt>
      <trkpt lat="45.15278" lon="4.6197">
        <ele>484</ele>
        <time>2020-05-23T09:45:55Z</time>
      </trkpt>
      <trkpt lat="45.15267" lon="4.61954">
        <ele>483.8</ele>
        <time>2020-05-23T09:45:59Z</time>
      </trkpt>
      <trkpt lat="45.15256" lon="4.61935">
        <ele>485</ele>
        <time>2020-05-23T09:46:03Z</time>
      </trkpt>
      <trkpt lat="45.15243" lon="4.6192">
        <ele>485</ele>
        <time>2020-05-23T09:46:07Z</time>
      </trkpt>
      <trkpt lat="45.15229" lon="4.61906">
        <ele>484.6</ele>
        <time>2020-05-23T09:46:11Z</time>
      </trkpt>
      <trkpt lat="45.15217" lon="4.61885">
        <ele>484.6</ele>
        <time>2020-05-23T09:46:15Z</time>
      </trkpt>
      <trkpt lat="45.15205" lon="4.61864">
        <ele>484.6</ele>
        <time>2020-05-23T09:46:19Z</time>
      </trkpt>
      <trkpt lat="45.15194" lon="4.61845">
        <ele>485.6</ele>
        <time>2020-05-23T09:46:23Z</time>
      </trkpt>
      <trkpt lat="45.15183" lon="4.61827">
        <ele>486.4</ele>
        <time>2020-05-23T09:46:27Z</time>
      </trkpt>
      <trkpt lat="45.15167" lon="4.61815">
        <ele>486.2</ele>
        <time>2020-05-23T09:46:31Z</time>
      </trkpt>
      <trkpt lat="45.15156" lon="4.61795">
        <ele>486.6</ele>
        <time>2020-05-23T09:46:35Z</time>
      </trkpt>
      <trkpt lat="45.15146" lon="4.6178">
        <ele>486.8</ele>
        <time>2020-05-23T09:46:39Z</time>
      </trkpt>
      <trkpt lat="45.15138" lon="4.61763">
        <ele>486.6</ele>
        <time>2020-05-23T09:46:43Z</time>
      </trkpt>
      <trkpt lat="45.15137" lon="4.61737">
        <ele>487.4</ele>
        <time>2020-05-23T09:46:47Z</time>
      </trkpt>
      <trkpt lat="45.15136" lon="4.61709">
        <ele>487</ele>
        <time>2020-05-23T09:46:51Z</time>
      </trkpt>
      <trkpt lat="45.15127" lon="4.61688">
        <ele>486.2</ele>
        <time>2020-05-23T09:46:55Z</time>
      </trkpt>
      <trkpt lat="45.15116" lon="4.61671">
        <ele>486.8</ele>
        <time>2020-05-23T09:46:59Z</time>
      </trkpt>
      <trkpt lat="45.15107" lon="4.61654">
        <ele>487.2</ele>
        <time>2020-05-23T09:47:03Z</time>
      </trkpt>
      <trkpt lat="45.15101" lon="4.61635">
        <ele>486.4</ele>
        <time>2020-05-23T09:47:07Z</time>
      </trkpt>
      <trkpt lat="45.15106" lon="4.61611">
        <ele>487</ele>
        <time>2020-05-23T09:47:11Z</time>
      </trkpt>
      <trkpt lat="45.15103" lon="4.61589">
        <ele>487.8</ele>
        <time>2020-05-23T09:47:15Z</time>
      </trkpt>
      <trkpt lat="45.15099" lon="4.61535">
        <ele>487.4</ele>
        <time>2020-05-23T09:48:38Z</time>
      </trkpt>
      <trkpt lat="45.15085" lon="4.61534">
        <ele>487.6</ele>
        <time>2020-05-23T09:48:58Z</time>
      </trkpt>
      <trkpt lat="45.15075" lon="4.61524">
        <ele>487.6</ele>
        <time>2020-05-23T09:49:02Z</time>
      </trkpt>
      <trkpt lat="45.15063" lon="4.61514">
        <ele>489.4</ele>
        <time>2020-05-23T09:49:06Z</time>
      </trkpt>
      <trkpt lat="45.15056" lon="4.61511">
        <ele>489.8</ele>
        <time>2020-05-23T09:49:10Z</time>
      </trkpt>
      <trkpt lat="45.15047" lon="4.61515">
        <ele>489.4</ele>
        <time>2020-05-23T09:49:14Z</time>
      </trkpt>
      <trkpt lat="45.15033" lon="4.61524">
        <ele>489</ele>
        <time>2020-05-23T09:49:18Z</time>
      </trkpt>
      <trkpt lat="45.15016" lon="4.61534">
        <ele>488</ele>
        <time>2020-05-23T09:49:22Z</time>
      </trkpt>
      <trkpt lat="45.15002" lon="4.61548">
        <ele>488.6</ele>
        <time>2020-05-23T09:49:26Z</time>
      </trkpt>
      <trkpt lat="45.14991" lon="4.61564">
        <ele>487.2</ele>
        <time>2020-05-23T09:49:30Z</time>
      </trkpt>
      <trkpt lat="45.14989" lon="4.6158">
        <ele>486.6</ele>
        <time>2020-05-23T09:49:34Z</time>
      </trkpt>
      <trkpt lat="45.1499" lon="4.61598">
        <ele>486.8</ele>
        <time>2020-05-23T09:49:38Z</time>
      </trkpt>
      <trkpt lat="45.14992" lon="4.61618">
        <ele>487.2</ele>
        <time>2020-05-23T09:49:42Z</time>
      </trkpt>
      <trkpt lat="45.14994" lon="4.61636">
        <ele>487.4</ele>
        <time>2020-05-23T09:49:46Z</time>
      </trkpt>
      <trkpt lat="45.15007" lon="4.61654">
        <ele>485.8</ele>
        <time>2020-05-23T09:53:45Z</time>
      </trkpt>
      <trkpt lat="45.1501" lon="4.61671">
        <ele>485.6</ele>
        <time>2020-05-23T09:53:49Z</time>
      </trkpt>
      <trkpt lat="45.15013" lon="4.61689">
        <ele>486</ele>
        <time>2020-05-23T09:53:53Z</time>
      </trkpt>
      <trkpt lat="45.15016" lon="4.61707">
        <ele>485.6</ele>
        <time>2020-05-23T09:53:57Z</time>
      </trkpt>
      <trkpt lat="45.15022" lon="4.61726">
        <ele>485</ele>
        <time>2020-05-23T09:54:01Z</time>
      </trkpt>
      <trkpt lat="45.15027" lon="4.61745">
        <ele>485.6</ele>
        <time>2020-05-23T09:54:05Z</time>
      </trkpt>
      <trkpt lat="45.15032" lon="4.61763">
        <ele>485.6</ele>
        <time>2020-05-23T09:54:09Z</time>
      </trkpt>
      <trkpt lat="45.15036" lon="4.61781">
        <ele>484.8</ele>
        <time>2020-05-23T09:54:13Z</time>
      </trkpt>
      <trkpt lat="45.1504" lon="4.61799">
        <ele>485.4</ele>
        <time>2020-05-23T09:54:17Z</time>
      </trkpt>
      <trkpt lat="45.15046" lon="4.61816">
        <ele>484.6</ele>
        <time>2020-05-23T09:54:21Z</time>
      </trkpt>
      <trkpt lat="45.15051" lon="4.61831">
        <ele>486</ele>
        <time>2020-05-23T09:54:25Z</time>
      </trkpt>
      <trkpt lat="45.15057" lon="4.6185">
        <ele>484.4</ele>
        <time>2020-05-23T09:54:29Z</time>
      </trkpt>
      <trkpt lat="45.1506" lon="4.61869">
        <ele>485.2</ele>
        <time>2020-05-23T09:54:33Z</time>
      </trkpt>
      <trkpt lat="45.15065" lon="4.61888">
        <ele>486.2</ele>
        <time>2020-05-23T09:54:37Z</time>
      </trkpt>
      <trkpt lat="45.1507" lon="4.61907">
        <ele>486.4</ele>
        <time>2020-05-23T09:54:41Z</time>
      </trkpt>
      <trkpt lat="45.15075" lon="4.61926">
        <ele>486.4</ele>
        <time>2020-05-23T09:54:45Z</time>
      </trkpt>
      <trkpt lat="45.1508" lon="4.61945">
        <ele>487.2</ele>
        <time>2020-05-23T09:54:49Z</time>
      </trkpt>
      <trkpt lat="45.15085" lon="4.61965">
        <ele>487</ele>
        <time>2020-05-23T09:54:53Z</time>
      </trkpt>
      <trkpt lat="45.1509" lon="4.61985">
        <ele>487</ele>
        <time>2020-05-23T09:54:57Z</time>
      </trkpt>
      <trkpt lat="45.15096" lon="4.62004">
        <ele>487.4</ele>
        <time>2020-05-23T09:55:01Z</time>
      </trkpt>
      <trkpt lat="45.15101" lon="4.62024">
        <ele>487.4</ele>
        <time>2020-05-23T09:55:05Z</time>
      </trkpt>
      <trkpt lat="45.15107" lon="4.62044">
        <ele>487.8</ele>
        <time>2020-05-23T09:55:09Z</time>
      </trkpt>
      <trkpt lat="45.15112" lon="4.62063">
        <ele>488.6</ele>
        <time>2020-05-23T09:55:13Z</time>
      </trkpt>
      <trkpt lat="45.15117" lon="4.62082">
        <ele>487.6</ele>
        <time>2020-05-23T09:55:17Z</time>
      </trkpt>
      <trkpt lat="45.15122" lon="4.62102">
        <ele>488.6</ele>
        <time>2020-05-23T09:55:21Z</time>
      </trkpt>
      <trkpt lat="45.15127" lon="4.62123">
        <ele>488.4</ele>
        <time>2020-05-23T09:55:25Z</time>
      </trkpt>
      <trkpt lat="45.15133" lon="4.62143">
        <ele>488.4</ele>
        <time>2020-05-23T09:55:29Z</time>
      </trkpt>
      <trkpt lat="45.15139" lon="4.62162">
        <ele>488</ele>
        <time>2020-05-23T09:55:33Z</time>
      </trkpt>
      <trkpt lat="45.15145" lon="4.62182">
        <ele>488.6</ele>
        <time>2020-05-23T09:55:37Z</time>
      </trkpt>
      <trkpt lat="45.1515" lon="4.62201">
        <ele>488.6</ele>
        <time>2020-05-23T09:55:41Z</time>
      </trkpt>
      <trkpt lat="45.15155" lon="4.6222">
        <ele>489.2</ele>
        <time>2020-05-23T09:55:45Z</time>
      </trkpt>
      <trkpt lat="45.1516" lon="4.6224">
        <ele>489.6</ele>
        <time>2020-05-23T09:55:49Z</time>
      </trkpt>
      <trkpt lat="45.15165" lon="4.62259">
        <ele>490</ele>
        <time>2020-05-23T09:55:53Z</time>
      </trkpt>
      <trkpt lat="45.1517" lon="4.62279">
        <ele>489.4</ele>
        <time>2020-05-23T09:55:57Z</time>
      </trkpt>
      <trkpt lat="45.15175" lon="4.62298">
        <ele>490</ele>
        <time>2020-05-23T09:56:01Z</time>
      </trkpt>
      <trkpt lat="45.15179" lon="4.62315">
        <ele>490.4</ele>
        <time>2020-05-23T09:56:05Z</time>
      </trkpt>
      <trkpt lat="45.15184" lon="4.62333">
        <ele>490.8</ele>
        <time>2020-05-23T09:56:09Z</time>
      </trkpt>
      <trkpt lat="45.15189" lon="4.62352">
        <ele>490.6</ele>
        <time>2020-05-23T09:56:13Z</time>
      </trkpt>
      <trkpt lat="45.15195" lon="4.62369">
        <ele>491.4</ele>
        <time>2020-05-23T09:56:17Z</time>
      </trkpt>
      <trkpt lat="45.15199" lon="4.62387">
        <ele>491.8</ele>
        <time>2020-05-23T09:56:21Z</time>
      </trkpt>
      <trkpt lat="45.15204" lon="4.62404">
        <ele>492.2</ele>
        <time>2020-05-23T09:56:25Z</time>
      </trkpt>
      <trkpt lat="45.15208" lon="4.62421">
        <ele>492.6</ele>
        <time>2020-05-23T09:56:29Z</time>
      </trkpt>
      <trkpt lat="45.15213" lon="4.62438">
        <ele>492.8</ele>
        <time>2020-05-23T09:56:33Z</time>
      </trkpt>
      <trkpt lat="45.15217" lon="4.62455">
        <ele>493.4</ele>
        <time>2020-05-23T09:56:37Z</time>
      </trkpt>
      <trkpt lat="45.15223" lon="4.62472">
        <ele>493.8</ele>
        <time>2020-05-23T09:56:41Z</time>
      </trkpt>
      <trkpt lat="45.15227" lon="4.62489">
        <ele>493.6</ele>
        <time>2020-05-23T09:56:45Z</time>
      </trkpt>
      <trkpt lat="45.15229" lon="4.62505">
        <ele>494</ele>
        <time>2020-05-23T09:56:49Z</time>
      </trkpt>
      <trkpt lat="45.15233" lon="4.62521">
        <ele>494.2</ele>
        <time>2020-05-23T09:56:53Z</time>
      </trkpt>
      <trkpt lat="45.15237" lon="4.62537">
        <ele>494.2</ele>
        <time>2020-05-23T09:56:57Z</time>
      </trkpt>
      <trkpt lat="45.15243" lon="4.62554">
        <ele>494.4</ele>
        <time>2020-05-23T09:57:01Z</time>
      </trkpt>
      <trkpt lat="45.15247" lon="4.6257">
        <ele>495.6</ele>
        <time>2020-05-23T09:57:05Z</time>
      </trkpt>
      <trkpt lat="45.15252" lon="4.62587">
        <ele>495.4</ele>
        <time>2020-05-23T09:57:09Z</time>
      </trkpt>
      <trkpt lat="45.15257" lon="4.62604">
        <ele>495.8</ele>
        <time>2020-05-23T09:57:13Z</time>
      </trkpt>
      <trkpt lat="45.15261" lon="4.6262">
        <ele>496.4</ele>
        <time>2020-05-23T09:57:17Z</time>
      </trkpt>
      <trkpt lat="45.15265" lon="4.62636">
        <ele>497.2</ele>
        <time>2020-05-23T09:57:21Z</time>
      </trkpt>
      <trkpt lat="45.1527" lon="4.62651">
        <ele>497.8</ele>
        <time>2020-05-23T09:57:25Z</time>
      </trkpt>
      <trkpt lat="45.15275" lon="4.62666">
        <ele>498.8</ele>
        <time>2020-05-23T09:57:29Z</time>
      </trkpt>
      <trkpt lat="45.15279" lon="4.62681">
        <ele>499.2</ele>
        <time>2020-05-23T09:57:33Z</time>
      </trkpt>
      <trkpt lat="45.15284" lon="4.62696">
        <ele>500</ele>
        <time>2020-05-23T09:57:37Z</time>
      </trkpt>
      <trkpt lat="45.15288" lon="4.62712">
        <ele>500.4</ele>
        <time>2020-05-23T09:57:41Z</time>
      </trkpt>
      <trkpt lat="45.15293" lon="4.62729">
        <ele>501.6</ele>
        <time>2020-05-23T09:57:45Z</time>
      </trkpt>
      <trkpt lat="45.15297" lon="4.62745">
        <ele>502</ele>
        <time>2020-05-23T09:57:49Z</time>
      </trkpt>
      <trkpt lat="45.15301" lon="4.62761">
        <ele>502.6</ele>
        <time>2020-05-23T09:57:53Z</time>
      </trkpt>
      <trkpt lat="45.15306" lon="4.62778">
        <ele>503.8</ele>
        <time>2020-05-23T09:57:57Z</time>
      </trkpt>
      <trkpt lat="45.1531" lon="4.62793">
        <ele>504.6</ele>
        <time>2020-05-23T09:58:01Z</time>
      </trkpt>
      <trkpt lat="45.15314" lon="4.62809">
        <ele>505</ele>
        <time>2020-05-23T09:58:05Z</time>
      </trkpt>
      <trkpt lat="45.15319" lon="4.62825">
        <ele>505.6</ele>
        <time>2020-05-23T09:58:09Z</time>
      </trkpt>
      <trkpt lat="45.15323" lon="4.62841">
        <ele>506.2</ele>
        <time>2020-05-23T09:58:13Z</time>
      </trkpt>
      <trkpt lat="45.15327" lon="4.62856">
        <ele>506.8</ele>
        <time>2020-05-23T09:58:17Z</time>
      </trkpt>
      <trkpt lat="45.15332" lon="4.62871">
        <ele>507.6</ele>
        <time>2020-05-23T09:58:21Z</time>
      </trkpt>
      <trkpt lat="45.15337" lon="4.62885">
        <ele>508.4</ele>
        <time>2020-05-23T09:58:25Z</time>
      </trkpt>
      <trkpt lat="45.15342" lon="4.62898">
        <ele>508.8</ele>
        <time>2020-05-23T09:58:29Z</time>
      </trkpt>
      <trkpt lat="45.1535" lon="4.62911">
        <ele>509.4</ele>
        <time>2020-05-23T09:58:33Z</time>
      </trkpt>
      <trkpt lat="45.15356" lon="4.62924">
        <ele>510.2</ele>
        <time>2020-05-23T09:58:37Z</time>
      </trkpt>
      <trkpt lat="45.15359" lon="4.62937">
        <ele>510.6</ele>
        <time>2020-05-23T09:58:41Z</time>
      </trkpt>
      <trkpt lat="45.15361" lon="4.6295">
        <ele>511.6</ele>
        <time>2020-05-23T09:58:45Z</time>
      </trkpt>
      <trkpt lat="45.15363" lon="4.62964">
        <ele>512.2</ele>
        <time>2020-05-23T09:58:49Z</time>
      </trkpt>
      <trkpt lat="45.15364" lon="4.62978">
        <ele>513</ele>
        <time>2020-05-23T09:58:53Z</time>
      </trkpt>
      <trkpt lat="45.15365" lon="4.62992">
        <ele>513.4</ele>
        <time>2020-05-23T09:58:57Z</time>
      </trkpt>
      <trkpt lat="45.15369" lon="4.63005">
        <ele>514.6</ele>
        <time>2020-05-23T09:59:01Z</time>
      </trkpt>
      <trkpt lat="45.15373" lon="4.63018">
        <ele>514.6</ele>
        <time>2020-05-23T09:59:05Z</time>
      </trkpt>
      <trkpt lat="45.15379" lon="4.63031">
        <ele>515.6</ele>
        <time>2020-05-23T09:59:09Z</time>
      </trkpt>
      <trkpt lat="45.15387" lon="4.63041">
        <ele>515.8</ele>
        <time>2020-05-23T09:59:13Z</time>
      </trkpt>
      <trkpt lat="45.15394" lon="4.63051">
        <ele>517</ele>
        <time>2020-05-23T09:59:17Z</time>
      </trkpt>
      <trkpt lat="45.15402" lon="4.63062">
        <ele>517.8</ele>
        <time>2020-05-23T09:59:21Z</time>
      </trkpt>
      <trkpt lat="45.1541" lon="4.63072">
        <ele>518.4</ele>
        <time>2020-05-23T09:59:25Z</time>
      </trkpt>
      <trkpt lat="45.15417" lon="4.63084">
        <ele>519.2</ele>
        <time>2020-05-23T09:59:29Z</time>
      </trkpt>
      <trkpt lat="45.15425" lon="4.63095">
        <ele>519.8</ele>
        <time>2020-05-23T09:59:33Z</time>
      </trkpt>
      <trkpt lat="45.1543" lon="4.63107">
        <ele>520.8</ele>
        <time>2020-05-23T09:59:37Z</time>
      </trkpt>
      <trkpt lat="45.15433" lon="4.6312">
        <ele>521.2</ele>
        <time>2020-05-23T09:59:41Z</time>
      </trkpt>
      <trkpt lat="45.15436" lon="4.63134">
        <ele>521.8</ele>
        <time>2020-05-23T09:59:45Z</time>
      </trkpt>
      <trkpt lat="45.15439" lon="4.63148">
        <ele>522.6</ele>
        <time>2020-05-23T09:59:49Z</time>
      </trkpt>
      <trkpt lat="45.15441" lon="4.63162">
        <ele>523.2</ele>
        <time>2020-05-23T09:59:53Z</time>
      </trkpt>
      <trkpt lat="45.15444" lon="4.63176">
        <ele>523.8</ele>
        <time>2020-05-23T09:59:57Z</time>
      </trkpt>
      <trkpt lat="45.15445" lon="4.6319">
        <ele>524.4</ele>
        <time>2020-05-23T10:00:01Z</time>
      </trkpt>
      <trkpt lat="45.15449" lon="4.63205">
        <ele>525.4</ele>
        <time>2020-05-23T10:00:05Z</time>
      </trkpt>
      <trkpt lat="45.15452" lon="4.63218">
        <ele>525.6</ele>
        <time>2020-05-23T10:00:09Z</time>
      </trkpt>
      <trkpt lat="45.15456" lon="4.63231">
        <ele>526.4</ele>
        <time>2020-05-23T10:00:13Z</time>
      </trkpt>
      <trkpt lat="45.15463" lon="4.63243">
        <ele>526</ele>
        <time>2020-05-23T10:00:17Z</time>
      </trkpt>
      <trkpt lat="45.1547" lon="4.63255">
        <ele>527.6</ele>
        <time>2020-05-23T10:00:21Z</time>
      </trkpt>
      <trkpt lat="45.15477" lon="4.63267">
        <ele>528</ele>
        <time>2020-05-23T10:00:25Z</time>
      </trkpt>
      <trkpt lat="45.15482" lon="4.63281">
        <ele>528.8</ele>
        <time>2020-05-23T10:00:29Z</time>
      </trkpt>
      <trkpt lat="45.15486" lon="4.63295">
        <ele>529</ele>
        <time>2020-05-23T10:00:33Z</time>
      </trkpt>
      <trkpt lat="45.15489" lon="4.63309">
        <ele>529.6</ele>
        <time>2020-05-23T10:00:37Z</time>
      </trkpt>
      <trkpt lat="45.15492" lon="4.63324">
        <ele>529.4</ele>
        <time>2020-05-23T10:00:41Z</time>
      </trkpt>
      <trkpt lat="45.15493" lon="4.63338">
        <ele>530</ele>
        <time>2020-05-23T10:00:45Z</time>
      </trkpt>
      <trkpt lat="45.15494" lon="4.63352">
        <ele>530.6</ele>
        <time>2020-05-23T10:00:49Z</time>
      </trkpt>
      <trkpt lat="45.15495" lon="4.63368">
        <ele>531</ele>
        <time>2020-05-23T10:00:53Z</time>
      </trkpt>
      <trkpt lat="45.15494" lon="4.63383">
        <ele>531.6</ele>
        <time>2020-05-23T10:00:57Z</time>
      </trkpt>
      <trkpt lat="45.1549" lon="4.63396">
        <ele>531.8</ele>
        <time>2020-05-23T10:01:01Z</time>
      </trkpt>
      <trkpt lat="45.15483" lon="4.63406">
        <ele>532.2</ele>
        <time>2020-05-23T10:01:05Z</time>
      </trkpt>
      <trkpt lat="45.15475" lon="4.63414">
        <ele>533</ele>
        <time>2020-05-23T10:01:09Z</time>
      </trkpt>
      <trkpt lat="45.15466" lon="4.63418">
        <ele>533.6</ele>
        <time>2020-05-23T10:01:13Z</time>
      </trkpt>
      <trkpt lat="45.15457" lon="4.63419">
        <ele>534</ele>
        <time>2020-05-23T10:01:17Z</time>
      </trkpt>
      <trkpt lat="45.15448" lon="4.63417">
        <ele>534.6</ele>
        <time>2020-05-23T10:01:21Z</time>
      </trkpt>
      <trkpt lat="45.15438" lon="4.63414">
        <ele>534.4</ele>
        <time>2020-05-23T10:01:25Z</time>
      </trkpt>
      <trkpt lat="45.15429" lon="4.63412">
        <ele>534.8</ele>
        <time>2020-05-23T10:01:29Z</time>
      </trkpt>
      <trkpt lat="45.15419" lon="4.63409">
        <ele>535.6</ele>
        <time>2020-05-23T10:01:33Z</time>
      </trkpt>
      <trkpt lat="45.1541" lon="4.63406">
        <ele>535.8</ele>
        <time>2020-05-23T10:01:37Z</time>
      </trkpt>
      <trkpt lat="45.15399" lon="4.63403">
        <ele>536.2</ele>
        <time>2020-05-23T10:01:41Z</time>
      </trkpt>
      <trkpt lat="45.15389" lon="4.63401">
        <ele>536.4</ele>
        <time>2020-05-23T10:01:45Z</time>
      </trkpt>
      <trkpt lat="45.1538" lon="4.63398">
        <ele>536.4</ele>
        <time>2020-05-23T10:01:49Z</time>
      </trkpt>
      <trkpt lat="45.15371" lon="4.63395">
        <ele>536.8</ele>
        <time>2020-05-23T10:01:53Z</time>
      </trkpt>
      <trkpt lat="45.15362" lon="4.63391">
        <ele>537.2</ele>
        <time>2020-05-23T10:01:57Z</time>
      </trkpt>
      <trkpt lat="45.15353" lon="4.63386">
        <ele>537.8</ele>
        <time>2020-05-23T10:02:01Z</time>
      </trkpt>
      <trkpt lat="45.15345" lon="4.63379">
        <ele>538</ele>
        <time>2020-05-23T10:02:05Z</time>
      </trkpt>
      <trkpt lat="45.15336" lon="4.63372">
        <ele>538.6</ele>
        <time>2020-05-23T10:02:09Z</time>
      </trkpt>
      <trkpt lat="45.15328" lon="4.63365">
        <ele>539</ele>
        <time>2020-05-23T10:02:13Z</time>
      </trkpt>
      <trkpt lat="45.1532" lon="4.63357">
        <ele>539</ele>
        <time>2020-05-23T10:02:17Z</time>
      </trkpt>
      <trkpt lat="45.15312" lon="4.6335">
        <ele>539.8</ele>
        <time>2020-05-23T10:02:21Z</time>
      </trkpt>
      <trkpt lat="45.15304" lon="4.63343">
        <ele>540</ele>
        <time>2020-05-23T10:02:25Z</time>
      </trkpt>
      <trkpt lat="45.15296" lon="4.63337">
        <ele>540</ele>
        <time>2020-05-23T10:02:29Z</time>
      </trkpt>
      <trkpt lat="45.15288" lon="4.6333">
        <ele>540.4</ele>
        <time>2020-05-23T10:02:33Z</time>
      </trkpt>
      <trkpt lat="45.1528" lon="4.63323">
        <ele>541</ele>
        <time>2020-05-23T10:02:37Z</time>
      </trkpt>
      <trkpt lat="45.15272" lon="4.63316">
        <ele>541.8</ele>
        <time>2020-05-23T10:02:41Z</time>
      </trkpt>
      <trkpt lat="45.15264" lon="4.63309">
        <ele>539</ele>
        <time>2020-05-23T10:02:45Z</time>
      </trkpt>
      <trkpt lat="45.15256" lon="4.63302">
        <ele>541.4</ele>
        <time>2020-05-23T10:02:49Z</time>
      </trkpt>
      <trkpt lat="45.15248" lon="4.63296">
        <ele>541.6</ele>
        <time>2020-05-23T10:02:53Z</time>
      </trkpt>
      <trkpt lat="45.15239" lon="4.6329">
        <ele>541.8</ele>
        <time>2020-05-23T10:02:57Z</time>
      </trkpt>
      <trkpt lat="45.1523" lon="4.63284">
        <ele>542.4</ele>
        <time>2020-05-23T10:03:01Z</time>
      </trkpt>
      <trkpt lat="45.15221" lon="4.63279">
        <ele>543</ele>
        <time>2020-05-23T10:03:05Z</time>
      </trkpt>
      <trkpt lat="45.15212" lon="4.63273">
        <ele>543.2</ele>
        <time>2020-05-23T10:03:09Z</time>
      </trkpt>
      <trkpt lat="45.15203" lon="4.63269">
        <ele>543.8</ele>
        <time>2020-05-23T10:03:13Z</time>
      </trkpt>
      <trkpt lat="45.15194" lon="4.63265">
        <ele>544.2</ele>
        <time>2020-05-23T10:03:17Z</time>
      </trkpt>
      <trkpt lat="45.15185" lon="4.63261">
        <ele>544.4</ele>
        <time>2020-05-23T10:03:21Z</time>
      </trkpt>
      <trkpt lat="45.15176" lon="4.63258">
        <ele>544.8</ele>
        <time>2020-05-23T10:03:25Z</time>
      </trkpt>
      <trkpt lat="45.15166" lon="4.63254">
        <ele>545.4</ele>
        <time>2020-05-23T10:03:29Z</time>
      </trkpt>
      <trkpt lat="45.15157" lon="4.6325">
        <ele>545.4</ele>
        <time>2020-05-23T10:03:33Z</time>
      </trkpt>
      <trkpt lat="45.15148" lon="4.63247">
        <ele>545.6</ele>
        <time>2020-05-23T10:03:37Z</time>
      </trkpt>
      <trkpt lat="45.15138" lon="4.63246">
        <ele>545.8</ele>
        <time>2020-05-23T10:03:41Z</time>
      </trkpt>
      <trkpt lat="45.15128" lon="4.63246">
        <ele>546</ele>
        <time>2020-05-23T10:03:45Z</time>
      </trkpt>
      <trkpt lat="45.15119" lon="4.63251">
        <ele>546.4</ele>
        <time>2020-05-23T10:03:49Z</time>
      </trkpt>
      <trkpt lat="45.15111" lon="4.63261">
        <ele>546.4</ele>
        <time>2020-05-23T10:03:53Z</time>
      </trkpt>
      <trkpt lat="45.15107" lon="4.63276">
        <ele>546.8</ele>
        <time>2020-05-23T10:03:57Z</time>
      </trkpt>
      <trkpt lat="45.15108" lon="4.63292">
        <ele>547</ele>
        <time>2020-05-23T10:04:01Z</time>
      </trkpt>
      <trkpt lat="45.15112" lon="4.63305">
        <ele>547.6</ele>
        <time>2020-05-23T10:04:05Z</time>
      </trkpt>
      <trkpt lat="45.15118" lon="4.63317">
        <ele>547.6</ele>
        <time>2020-05-23T10:04:09Z</time>
      </trkpt>
      <trkpt lat="45.15124" lon="4.6333">
        <ele>548</ele>
        <time>2020-05-23T10:04:13Z</time>
      </trkpt>
      <trkpt lat="45.1513" lon="4.63341">
        <ele>548.4</ele>
        <time>2020-05-23T10:04:17Z</time>
      </trkpt>
      <trkpt lat="45.15134" lon="4.63354">
        <ele>549</ele>
        <time>2020-05-23T10:04:21Z</time>
      </trkpt>
      <trkpt lat="45.15137" lon="4.63368">
        <ele>549</ele>
        <time>2020-05-23T10:04:25Z</time>
      </trkpt>
      <trkpt lat="45.15139" lon="4.63382">
        <ele>549.2</ele>
        <time>2020-05-23T10:04:29Z</time>
      </trkpt>
      <trkpt lat="45.15141" lon="4.63396">
        <ele>549.4</ele>
        <time>2020-05-23T10:04:33Z</time>
      </trkpt>
      <trkpt lat="45.15141" lon="4.6341">
        <ele>549.8</ele>
        <time>2020-05-23T10:04:37Z</time>
      </trkpt>
      <trkpt lat="45.1514" lon="4.63424">
        <ele>550</ele>
        <time>2020-05-23T10:04:41Z</time>
      </trkpt>
      <trkpt lat="45.15138" lon="4.63438">
        <ele>550</ele>
        <time>2020-05-23T10:04:45Z</time>
      </trkpt>
      <trkpt lat="45.15136" lon="4.6345">
        <ele>550.4</ele>
        <time>2020-05-23T10:04:49Z</time>
      </trkpt>
      <trkpt lat="45.15133" lon="4.63463">
        <ele>551.4</ele>
        <time>2020-05-23T10:04:53Z</time>
      </trkpt>
      <trkpt lat="45.15131" lon="4.63474">
        <ele>551.2</ele>
        <time>2020-05-23T10:04:57Z</time>
      </trkpt>
      <trkpt lat="45.15129" lon="4.63485">
        <ele>551.6</ele>
        <time>2020-05-23T10:05:01Z</time>
      </trkpt>
      <trkpt lat="45.15128" lon="4.63498">
        <ele>551.4</ele>
        <time>2020-05-23T10:05:05Z</time>
      </trkpt>
      <trkpt lat="45.15126" lon="4.63512">
        <ele>551.8</ele>
        <time>2020-05-23T10:05:09Z</time>
      </trkpt>
      <trkpt lat="45.15125" lon="4.63524">
        <ele>552.4</ele>
        <time>2020-05-23T10:05:13Z</time>
      </trkpt>
      <trkpt lat="45.15127" lon="4.63535">
        <ele>552.8</ele>
        <time>2020-05-23T10:05:17Z</time>
      </trkpt>
      <trkpt lat="45.15131" lon="4.63549">
        <ele>553</ele>
        <time>2020-05-23T10:05:21Z</time>
      </trkpt>
      <trkpt lat="45.15139" lon="4.6356">
        <ele>553.2</ele>
        <time>2020-05-23T10:05:25Z</time>
      </trkpt>
      <trkpt lat="45.15147" lon="4.6357">
        <ele>553.8</ele>
        <time>2020-05-23T10:05:29Z</time>
      </trkpt>
      <trkpt lat="45.15155" lon="4.63578">
        <ele>554.2</ele>
        <time>2020-05-23T10:05:33Z</time>
      </trkpt>
      <trkpt lat="45.15159" lon="4.63587">
        <ele>554</ele>
        <time>2020-05-23T10:05:37Z</time>
      </trkpt>
      <trkpt lat="45.15168" lon="4.63596">
        <ele>554.4</ele>
        <time>2020-05-23T10:05:41Z</time>
      </trkpt>
      <trkpt lat="45.15176" lon="4.63605">
        <ele>554.8</ele>
        <time>2020-05-23T10:05:45Z</time>
      </trkpt>
      <trkpt lat="45.15184" lon="4.63615">
        <ele>554.8</ele>
        <time>2020-05-23T10:05:49Z</time>
      </trkpt>
      <trkpt lat="45.15192" lon="4.63624">
        <ele>555.2</ele>
        <time>2020-05-23T10:05:53Z</time>
      </trkpt>
      <trkpt lat="45.15199" lon="4.63635">
        <ele>555.8</ele>
        <time>2020-05-23T10:05:57Z</time>
      </trkpt>
      <trkpt lat="45.15205" lon="4.63647">
        <ele>556</ele>
        <time>2020-05-23T10:06:01Z</time>
      </trkpt>
      <trkpt lat="45.1521" lon="4.63659">
        <ele>556</ele>
        <time>2020-05-23T10:06:05Z</time>
      </trkpt>
      <trkpt lat="45.15215" lon="4.63671">
        <ele>555.8</ele>
        <time>2020-05-23T10:06:09Z</time>
      </trkpt>
      <trkpt lat="45.15219" lon="4.63683">
        <ele>556.4</ele>
        <time>2020-05-23T10:06:13Z</time>
      </trkpt>
      <trkpt lat="45.15224" lon="4.63695">
        <ele>556.6</ele>
        <time>2020-05-23T10:06:17Z</time>
      </trkpt>
      <trkpt lat="45.15229" lon="4.63706">
        <ele>556.8</ele>
        <time>2020-05-23T10:06:21Z</time>
      </trkpt>
      <trkpt lat="45.15234" lon="4.63718">
        <ele>557.4</ele>
        <time>2020-05-23T10:06:25Z</time>
      </trkpt>
      <trkpt lat="45.15238" lon="4.63732">
        <ele>557.4</ele>
        <time>2020-05-23T10:06:29Z</time>
      </trkpt>
      <trkpt lat="45.15242" lon="4.63743">
        <ele>557.6</ele>
        <time>2020-05-23T10:06:33Z</time>
      </trkpt>
      <trkpt lat="45.15247" lon="4.63757">
        <ele>558.2</ele>
        <time>2020-05-23T10:06:37Z</time>
      </trkpt>
      <trkpt lat="45.15253" lon="4.63771">
        <ele>558.8</ele>
        <time>2020-05-23T10:06:41Z</time>
      </trkpt>
      <trkpt lat="45.15258" lon="4.63782">
        <ele>559.2</ele>
        <time>2020-05-23T10:06:45Z</time>
      </trkpt>
      <trkpt lat="45.15263" lon="4.63796">
        <ele>559</ele>
        <time>2020-05-23T10:06:49Z</time>
      </trkpt>
      <trkpt lat="45.15269" lon="4.6381">
        <ele>560</ele>
        <time>2020-05-23T10:06:53Z</time>
      </trkpt>
      <trkpt lat="45.15274" lon="4.63824">
        <ele>560.8</ele>
        <time>2020-05-23T10:06:57Z</time>
      </trkpt>
      <trkpt lat="45.15278" lon="4.63838">
        <ele>560.8</ele>
        <time>2020-05-23T10:07:01Z</time>
      </trkpt>
      <trkpt lat="45.15281" lon="4.63851">
        <ele>561.2</ele>
        <time>2020-05-23T10:07:05Z</time>
      </trkpt>
      <trkpt lat="45.15282" lon="4.63866">
        <ele>561.4</ele>
        <time>2020-05-23T10:07:09Z</time>
      </trkpt>
      <trkpt lat="45.15283" lon="4.6388">
        <ele>562.2</ele>
        <time>2020-05-23T10:07:13Z</time>
      </trkpt>
      <trkpt lat="45.15284" lon="4.63894">
        <ele>562</ele>
        <time>2020-05-23T10:07:17Z</time>
      </trkpt>
      <trkpt lat="45.15284" lon="4.63908">
        <ele>562.8</ele>
        <time>2020-05-23T10:07:21Z</time>
      </trkpt>
      <trkpt lat="45.15284" lon="4.63922">
        <ele>562.8</ele>
        <time>2020-05-23T10:07:25Z</time>
      </trkpt>
      <trkpt lat="45.15282" lon="4.63936">
        <ele>563.4</ele>
        <time>2020-05-23T10:07:29Z</time>
      </trkpt>
      <trkpt lat="45.15282" lon="4.63949">
        <ele>564.4</ele>
        <time>2020-05-23T10:07:33Z</time>
      </trkpt>
      <trkpt lat="45.1528" lon="4.63963">
        <ele>564.2</ele>
        <time>2020-05-23T10:07:37Z</time>
      </trkpt>
      <trkpt lat="45.15277" lon="4.63975">
        <ele>564.6</ele>
        <time>2020-05-23T10:07:41Z</time>
      </trkpt>
      <trkpt lat="45.15273" lon="4.63989">
        <ele>564.8</ele>
        <time>2020-05-23T10:07:45Z</time>
      </trkpt>
      <trkpt lat="45.15269" lon="4.64002">
        <ele>565</ele>
        <time>2020-05-23T10:07:49Z</time>
      </trkpt>
      <trkpt lat="45.15264" lon="4.64014">
        <ele>565.8</ele>
        <time>2020-05-23T10:07:53Z</time>
      </trkpt>
      <trkpt lat="45.15258" lon="4.64027">
        <ele>565.8</ele>
        <time>2020-05-23T10:07:57Z</time>
      </trkpt>
      <trkpt lat="45.15252" lon="4.6404">
        <ele>566.2</ele>
        <time>2020-05-23T10:08:01Z</time>
      </trkpt>
      <trkpt lat="45.15247" lon="4.64053">
        <ele>567</ele>
        <time>2020-05-23T10:08:05Z</time>
      </trkpt>
      <trkpt lat="45.15243" lon="4.64064">
        <ele>567</ele>
        <time>2020-05-23T10:08:09Z</time>
      </trkpt>
      <trkpt lat="45.15238" lon="4.64076">
        <ele>568</ele>
        <time>2020-05-23T10:08:13Z</time>
      </trkpt>
      <trkpt lat="45.15234" lon="4.64088">
        <ele>567.6</ele>
        <time>2020-05-23T10:08:17Z</time>
      </trkpt>
      <trkpt lat="45.15228" lon="4.64099">
        <ele>567.8</ele>
        <time>2020-05-23T10:08:21Z</time>
      </trkpt>
      <trkpt lat="45.15223" lon="4.64111">
        <ele>568.4</ele>
        <time>2020-05-23T10:08:25Z</time>
      </trkpt>
      <trkpt lat="45.15217" lon="4.64122">
        <ele>568.8</ele>
        <time>2020-05-23T10:08:29Z</time>
      </trkpt>
      <trkpt lat="45.1521" lon="4.64133">
        <ele>569.2</ele>
        <time>2020-05-23T10:08:33Z</time>
      </trkpt>
      <trkpt lat="45.15203" lon="4.64145">
        <ele>569.8</ele>
        <time>2020-05-23T10:08:37Z</time>
      </trkpt>
      <trkpt lat="45.15197" lon="4.64156">
        <ele>570.2</ele>
        <time>2020-05-23T10:08:41Z</time>
      </trkpt>
      <trkpt lat="45.15191" lon="4.64167">
        <ele>570.6</ele>
        <time>2020-05-23T10:08:45Z</time>
      </trkpt>
      <trkpt lat="45.15185" lon="4.64177">
        <ele>571.2</ele>
        <time>2020-05-23T10:08:49Z</time>
      </trkpt>
      <trkpt lat="45.15177" lon="4.64187">
        <ele>571.4</ele>
        <time>2020-05-23T10:08:53Z</time>
      </trkpt>
      <trkpt lat="45.1517" lon="4.64196">
        <ele>571.8</ele>
        <time>2020-05-23T10:08:57Z</time>
      </trkpt>
      <trkpt lat="45.15162" lon="4.64206">
        <ele>572</ele>
        <time>2020-05-23T10:09:01Z</time>
      </trkpt>
      <trkpt lat="45.15154" lon="4.64214">
        <ele>571.8</ele>
        <time>2020-05-23T10:09:05Z</time>
      </trkpt>
      <trkpt lat="45.15144" lon="4.64221">
        <ele>572.2</ele>
        <time>2020-05-23T10:09:09Z</time>
      </trkpt>
      <trkpt lat="45.15135" lon="4.64225">
        <ele>572.6</ele>
        <time>2020-05-23T10:09:13Z</time>
      </trkpt>
      <trkpt lat="45.15125" lon="4.64227">
        <ele>573</ele>
        <time>2020-05-23T10:09:17Z</time>
      </trkpt>
      <trkpt lat="45.15114" lon="4.64227">
        <ele>573.2</ele>
        <time>2020-05-23T10:09:21Z</time>
      </trkpt>
      <trkpt lat="45.15103" lon="4.64226">
        <ele>573.4</ele>
        <time>2020-05-23T10:09:25Z</time>
      </trkpt>
      <trkpt lat="45.15092" lon="4.64223">
        <ele>573.2</ele>
        <time>2020-05-23T10:09:29Z</time>
      </trkpt>
      <trkpt lat="45.15081" lon="4.64218">
        <ele>573.4</ele>
        <time>2020-05-23T10:09:33Z</time>
      </trkpt>
      <trkpt lat="45.15072" lon="4.64211">
        <ele>573.6</ele>
        <time>2020-05-23T10:09:37Z</time>
      </trkpt>
      <trkpt lat="45.15062" lon="4.642">
        <ele>574.2</ele>
        <time>2020-05-23T10:09:41Z</time>
      </trkpt>
      <trkpt lat="45.15053" lon="4.64187">
        <ele>574.2</ele>
        <time>2020-05-23T10:09:45Z</time>
      </trkpt>
      <trkpt lat="45.15046" lon="4.64171">
        <ele>574.6</ele>
        <time>2020-05-23T10:09:49Z</time>
      </trkpt>
      <trkpt lat="45.1504" lon="4.64155">
        <ele>574.6</ele>
        <time>2020-05-23T10:09:53Z</time>
      </trkpt>
      <trkpt lat="45.15034" lon="4.64141">
        <ele>574.4</ele>
        <time>2020-05-23T10:09:57Z</time>
      </trkpt>
      <trkpt lat="45.15028" lon="4.64123">
        <ele>574.4</ele>
        <time>2020-05-23T10:10:01Z</time>
      </trkpt>
      <trkpt lat="45.15022" lon="4.64105">
        <ele>574.4</ele>
        <time>2020-05-23T10:10:05Z</time>
      </trkpt>
      <trkpt lat="45.15018" lon="4.64086">
        <ele>575.2</ele>
        <time>2020-05-23T10:10:09Z</time>
      </trkpt>
      <trkpt lat="45.15013" lon="4.64062">
        <ele>574.4</ele>
        <time>2020-05-23T10:10:13Z</time>
      </trkpt>
      <trkpt lat="45.15007" lon="4.64046">
        <ele>594.8</ele>
        <time>2020-05-23T10:10:17Z</time>
      </trkpt>
      <trkpt lat="45.14996" lon="4.64026">
        <ele>593.6</ele>
        <time>2020-05-23T10:10:21Z</time>
      </trkpt>
      <trkpt lat="45.14984" lon="4.64007">
        <ele>593.8</ele>
        <time>2020-05-23T10:10:25Z</time>
      </trkpt>
      <trkpt lat="45.14975" lon="4.63996">
        <ele>593.6</ele>
        <time>2020-05-23T10:10:29Z</time>
      </trkpt>
      <trkpt lat="45.14975" lon="4.63996">
        <ele>594</ele>
        <time>2020-05-23T10:10:33Z</time>
      </trkpt>
      <trkpt lat="45.14961" lon="4.63979">
        <ele>594.8</ele>
        <time>2020-05-23T10:35:56Z</time>
      </trkpt>
      <trkpt lat="45.14955" lon="4.63969">
        <ele>595</ele>
        <time>2020-05-23T10:36:00Z</time>
      </trkpt>
      <trkpt lat="45.14949" lon="4.63959">
        <ele>594.6</ele>
        <time>2020-05-23T10:36:04Z</time>
      </trkpt>
      <trkpt lat="45.14942" lon="4.63945">
        <ele>595</ele>
        <time>2020-05-23T10:36:08Z</time>
      </trkpt>
      <trkpt lat="45.14936" lon="4.6393">
        <ele>593.8</ele>
        <time>2020-05-23T10:36:12Z</time>
      </trkpt>
      <trkpt lat="45.14927" lon="4.63914">
        <ele>594</ele>
        <time>2020-05-23T10:36:16Z</time>
      </trkpt>
      <trkpt lat="45.14919" lon="4.63897">
        <ele>593.6</ele>
        <time>2020-05-23T10:36:20Z</time>
      </trkpt>
      <trkpt lat="45.1491" lon="4.63879">
        <ele>593.4</ele>
        <time>2020-05-23T10:36:24Z</time>
      </trkpt>
      <trkpt lat="45.14902" lon="4.63861">
        <ele>592.8</ele>
        <time>2020-05-23T10:36:28Z</time>
      </trkpt>
      <trkpt lat="45.14892" lon="4.63842">
        <ele>593</ele>
        <time>2020-05-23T10:36:32Z</time>
      </trkpt>
      <trkpt lat="45.14882" lon="4.63823">
        <ele>593</ele>
        <time>2020-05-23T10:36:36Z</time>
      </trkpt>
      <trkpt lat="45.14873" lon="4.63804">
        <ele>592.4</ele>
        <time>2020-05-23T10:36:40Z</time>
      </trkpt>
      <trkpt lat="45.14862" lon="4.63784">
        <ele>591.8</ele>
        <time>2020-05-23T10:36:44Z</time>
      </trkpt>
      <trkpt lat="45.1485" lon="4.63765">
        <ele>591.8</ele>
        <time>2020-05-23T10:36:48Z</time>
      </trkpt>
      <trkpt lat="45.14838" lon="4.63748">
        <ele>591.2</ele>
        <time>2020-05-23T10:36:52Z</time>
      </trkpt>
      <trkpt lat="45.14825" lon="4.63734">
        <ele>591</ele>
        <time>2020-05-23T10:36:56Z</time>
      </trkpt>
      <trkpt lat="45.1481" lon="4.6372">
        <ele>591</ele>
        <time>2020-05-23T10:37:00Z</time>
      </trkpt>
      <trkpt lat="45.14794" lon="4.6371">
        <ele>590.4</ele>
        <time>2020-05-23T10:37:04Z</time>
      </trkpt>
      <trkpt lat="45.14777" lon="4.63702">
        <ele>590.2</ele>
        <time>2020-05-23T10:37:08Z</time>
      </trkpt>
      <trkpt lat="45.14758" lon="4.63698">
        <ele>589.6</ele>
        <time>2020-05-23T10:37:12Z</time>
      </trkpt>
      <trkpt lat="45.14738" lon="4.63699">
        <ele>588.8</ele>
        <time>2020-05-23T10:37:16Z</time>
      </trkpt>
      <trkpt lat="45.14717" lon="4.63702">
        <ele>588</ele>
        <time>2020-05-23T10:37:20Z</time>
      </trkpt>
      <trkpt lat="45.14697" lon="4.6371">
        <ele>586.6</ele>
        <time>2020-05-23T10:37:24Z</time>
      </trkpt>
      <trkpt lat="45.14677" lon="4.63723">
        <ele>586.2</ele>
        <time>2020-05-23T10:37:28Z</time>
      </trkpt>
      <trkpt lat="45.14658" lon="4.6374">
        <ele>585</ele>
        <time>2020-05-23T10:37:32Z</time>
      </trkpt>
      <trkpt lat="45.1464" lon="4.6376">
        <ele>584.2</ele>
        <time>2020-05-23T10:37:36Z</time>
      </trkpt>
      <trkpt lat="45.14623" lon="4.6378">
        <ele>582.4</ele>
        <time>2020-05-23T10:37:40Z</time>
      </trkpt>
      <trkpt lat="45.14607" lon="4.63801">
        <ele>582.6</ele>
        <time>2020-05-23T10:37:44Z</time>
      </trkpt>
      <trkpt lat="45.14592" lon="4.63822">
        <ele>582.2</ele>
        <time>2020-05-23T10:37:48Z</time>
      </trkpt>
      <trkpt lat="45.14577" lon="4.63842">
        <ele>581.4</ele>
        <time>2020-05-23T10:37:52Z</time>
      </trkpt>
      <trkpt lat="45.14562" lon="4.63861">
        <ele>581.8</ele>
        <time>2020-05-23T10:37:56Z</time>
      </trkpt>
      <trkpt lat="45.14548" lon="4.6388">
        <ele>580.8</ele>
        <time>2020-05-23T10:38:00Z</time>
      </trkpt>
      <trkpt lat="45.14533" lon="4.63899">
        <ele>580.8</ele>
        <time>2020-05-23T10:38:04Z</time>
      </trkpt>
      <trkpt lat="45.14517" lon="4.63919">
        <ele>579.8</ele>
        <time>2020-05-23T10:38:08Z</time>
      </trkpt>
      <trkpt lat="45.14502" lon="4.63939">
        <ele>580</ele>
        <time>2020-05-23T10:38:12Z</time>
      </trkpt>
      <trkpt lat="45.14486" lon="4.63959">
        <ele>580</ele>
        <time>2020-05-23T10:38:16Z</time>
      </trkpt>
      <trkpt lat="45.14471" lon="4.63979">
        <ele>579.4</ele>
        <time>2020-05-23T10:38:20Z</time>
      </trkpt>
      <trkpt lat="45.14456" lon="4.63999">
        <ele>578.6</ele>
        <time>2020-05-23T10:38:24Z</time>
      </trkpt>
      <trkpt lat="45.1444" lon="4.64019">
        <ele>577.6</ele>
        <time>2020-05-23T10:38:28Z</time>
      </trkpt>
      <trkpt lat="45.14424" lon="4.6404">
        <ele>577.4</ele>
        <time>2020-05-23T10:38:32Z</time>
      </trkpt>
      <trkpt lat="45.14407" lon="4.64061">
        <ele>576.6</ele>
        <time>2020-05-23T10:38:36Z</time>
      </trkpt>
      <trkpt lat="45.14391" lon="4.64083">
        <ele>575</ele>
        <time>2020-05-23T10:38:40Z</time>
      </trkpt>
      <trkpt lat="45.14374" lon="4.64102">
        <ele>574.2</ele>
        <time>2020-05-23T10:38:44Z</time>
      </trkpt>
      <trkpt lat="45.14356" lon="4.64124">
        <ele>573.6</ele>
        <time>2020-05-23T10:38:48Z</time>
      </trkpt>
      <trkpt lat="45.14337" lon="4.64145">
        <ele>572.4</ele>
        <time>2020-05-23T10:38:52Z</time>
      </trkpt>
      <trkpt lat="45.14316" lon="4.64159">
        <ele>571.4</ele>
        <time>2020-05-23T10:38:56Z</time>
      </trkpt>
      <trkpt lat="45.14293" lon="4.64167">
        <ele>572</ele>
        <time>2020-05-23T10:39:00Z</time>
      </trkpt>
      <trkpt lat="45.14275" lon="4.64166">
        <ele>572.2</ele>
        <time>2020-05-23T10:39:04Z</time>
      </trkpt>
      <trkpt lat="45.14256" lon="4.64163">
        <ele>571.8</ele>
        <time>2020-05-23T10:39:08Z</time>
      </trkpt>
      <trkpt lat="45.14237" lon="4.64156">
        <ele>571.4</ele>
        <time>2020-05-23T10:39:12Z</time>
      </trkpt>
      <trkpt lat="45.14217" lon="4.64151">
        <ele>570.6</ele>
        <time>2020-05-23T10:39:16Z</time>
      </trkpt>
      <trkpt lat="45.14195" lon="4.64158">
        <ele>570.2</ele>
        <time>2020-05-23T10:39:20Z</time>
      </trkpt>
      <trkpt lat="45.1418" lon="4.64184">
        <ele>569.4</ele>
        <time>2020-05-23T10:39:24Z</time>
      </trkpt>
      <trkpt lat="45.1418" lon="4.64218">
        <ele>570.2</ele>
        <time>2020-05-23T10:39:28Z</time>
      </trkpt>
      <trkpt lat="45.14188" lon="4.64248">
        <ele>570.2</ele>
        <time>2020-05-23T10:39:32Z</time>
      </trkpt>
      <trkpt lat="45.142" lon="4.64274">
        <ele>569.6</ele>
        <time>2020-05-23T10:39:36Z</time>
      </trkpt>
      <trkpt lat="45.14211" lon="4.64299">
        <ele>569.6</ele>
        <time>2020-05-23T10:39:40Z</time>
      </trkpt>
      <trkpt lat="45.14221" lon="4.64323">
        <ele>569.2</ele>
        <time>2020-05-23T10:39:44Z</time>
      </trkpt>
      <trkpt lat="45.14226" lon="4.64349">
        <ele>568.4</ele>
        <time>2020-05-23T10:39:48Z</time>
      </trkpt>
      <trkpt lat="45.14225" lon="4.64373">
        <ele>567.8</ele>
        <time>2020-05-23T10:39:52Z</time>
      </trkpt>
      <trkpt lat="45.14222" lon="4.64397">
        <ele>567.2</ele>
        <time>2020-05-23T10:39:56Z</time>
      </trkpt>
      <trkpt lat="45.14219" lon="4.64422">
        <ele>566.8</ele>
        <time>2020-05-23T10:40:00Z</time>
      </trkpt>
      <trkpt lat="45.14221" lon="4.64454">
        <ele>566.2</ele>
        <time>2020-05-23T10:40:04Z</time>
      </trkpt>
      <trkpt lat="45.1422" lon="4.64487">
        <ele>565.8</ele>
        <time>2020-05-23T10:40:08Z</time>
      </trkpt>
      <trkpt lat="45.14214" lon="4.64516">
        <ele>565</ele>
        <time>2020-05-23T10:40:12Z</time>
      </trkpt>
      <trkpt lat="45.142" lon="4.64539">
        <ele>564.6</ele>
        <time>2020-05-23T10:40:16Z</time>
      </trkpt>
      <trkpt lat="45.14183" lon="4.64554">
        <ele>564.2</ele>
        <time>2020-05-23T10:40:20Z</time>
      </trkpt>
      <trkpt lat="45.14164" lon="4.64563">
        <ele>562.6</ele>
        <time>2020-05-23T10:40:24Z</time>
      </trkpt>
      <trkpt lat="45.14145" lon="4.64569">
        <ele>564</ele>
        <time>2020-05-23T10:40:28Z</time>
      </trkpt>
      <trkpt lat="45.14126" lon="4.64577">
        <ele>564</ele>
        <time>2020-05-23T10:40:32Z</time>
      </trkpt>
      <trkpt lat="45.14107" lon="4.64581">
        <ele>564.4</ele>
        <time>2020-05-23T10:40:36Z</time>
      </trkpt>
      <trkpt lat="45.14087" lon="4.64587">
        <ele>564.2</ele>
        <time>2020-05-23T10:40:40Z</time>
      </trkpt>
      <trkpt lat="45.14066" lon="4.64589">
        <ele>563.6</ele>
        <time>2020-05-23T10:40:44Z</time>
      </trkpt>
      <trkpt lat="45.14046" lon="4.64589">
        <ele>563.4</ele>
        <time>2020-05-23T10:40:48Z</time>
      </trkpt>
      <trkpt lat="45.14028" lon="4.64588">
        <ele>563.2</ele>
        <time>2020-05-23T10:40:52Z</time>
      </trkpt>
      <trkpt lat="45.1401" lon="4.64585">
        <ele>563</ele>
        <time>2020-05-23T10:40:56Z</time>
      </trkpt>
      <trkpt lat="45.1399" lon="4.64586">
        <ele>562.2</ele>
        <time>2020-05-23T10:41:00Z</time>
      </trkpt>
      <trkpt lat="45.13972" lon="4.64587">
        <ele>562.6</ele>
        <time>2020-05-23T10:41:04Z</time>
      </trkpt>
      <trkpt lat="45.13952" lon="4.64583">
        <ele>562.4</ele>
        <time>2020-05-23T10:41:08Z</time>
      </trkpt>
      <trkpt lat="45.13941" lon="4.64578">
        <ele>563.2</ele>
        <time>2020-05-23T10:41:12Z</time>
      </trkpt>
      <trkpt lat="45.13937" lon="4.64587">
        <ele>563.2</ele>
        <time>2020-05-23T10:41:16Z</time>
      </trkpt>
      <trkpt lat="45.13939" lon="4.64594">
        <ele>562.8</ele>
        <time>2020-05-23T10:41:20Z</time>
      </trkpt>
      <trkpt lat="45.1395" lon="4.64613">
        <ele>559.4</ele>
        <time>2020-05-23T10:42:32Z</time>
      </trkpt>
      <trkpt lat="45.13966" lon="4.64626">
        <ele>555.6</ele>
        <time>2020-05-23T10:42:36Z</time>
      </trkpt>
      <trkpt lat="45.13986" lon="4.64642">
        <ele>551</ele>
        <time>2020-05-23T10:42:40Z</time>
      </trkpt>
      <trkpt lat="45.14001" lon="4.64658">
        <ele>546.6</ele>
        <time>2020-05-23T10:42:44Z</time>
      </trkpt>
      <trkpt lat="45.14029" lon="4.64677">
        <ele>542</ele>
        <time>2020-05-23T10:42:48Z</time>
      </trkpt>
      <trkpt lat="45.14069" lon="4.64699">
        <ele>536.2</ele>
        <time>2020-05-23T10:42:52Z</time>
      </trkpt>
      <trkpt lat="45.14112" lon="4.64713">
        <ele>535.2</ele>
        <time>2020-05-23T10:42:56Z</time>
      </trkpt>
      <trkpt lat="45.14152" lon="4.64728">
        <ele>531.2</ele>
        <time>2020-05-23T10:43:00Z</time>
      </trkpt>
      <trkpt lat="45.14183" lon="4.64747">
        <ele>530</ele>
        <time>2020-05-23T10:43:04Z</time>
      </trkpt>
      <trkpt lat="45.14198" lon="4.6476">
        <ele>530.2</ele>
        <time>2020-05-23T10:43:08Z</time>
      </trkpt>
      <trkpt lat="45.14194" lon="4.64766">
        <ele>529.6</ele>
        <time>2020-05-23T10:44:25Z</time>
      </trkpt>
      <trkpt lat="45.14184" lon="4.64764">
        <ele>529</ele>
        <time>2020-05-23T10:44:29Z</time>
      </trkpt>
      <trkpt lat="45.14172" lon="4.64763">
        <ele>528.4</ele>
        <time>2020-05-23T10:44:33Z</time>
      </trkpt>
      <trkpt lat="45.14159" lon="4.64765">
        <ele>527.4</ele>
        <time>2020-05-23T10:44:37Z</time>
      </trkpt>
      <trkpt lat="45.14142" lon="4.64775">
        <ele>526.6</ele>
        <time>2020-05-23T10:44:41Z</time>
      </trkpt>
      <trkpt lat="45.14126" lon="4.64791">
        <ele>525.8</ele>
        <time>2020-05-23T10:44:45Z</time>
      </trkpt>
      <trkpt lat="45.14127" lon="4.64817">
        <ele>523</ele>
        <time>2020-05-23T10:44:49Z</time>
      </trkpt>
      <trkpt lat="45.14155" lon="4.64833">
        <ele>518.6</ele>
        <time>2020-05-23T10:44:53Z</time>
      </trkpt>
      <trkpt lat="45.14183" lon="4.64852">
        <ele>513.6</ele>
        <time>2020-05-23T10:44:57Z</time>
      </trkpt>
      <trkpt lat="45.14204" lon="4.64888">
        <ele>511.4</ele>
        <time>2020-05-23T10:45:01Z</time>
      </trkpt>
      <trkpt lat="45.14221" lon="4.64929">
        <ele>508.6</ele>
        <time>2020-05-23T10:45:05Z</time>
      </trkpt>
      <trkpt lat="45.14243" lon="4.64974">
        <ele>503.6</ele>
        <time>2020-05-23T10:45:09Z</time>
      </trkpt>
      <trkpt lat="45.14261" lon="4.65025">
        <ele>497.4</ele>
        <time>2020-05-23T10:45:13Z</time>
      </trkpt>
      <trkpt lat="45.14273" lon="4.65083">
        <ele>491</ele>
        <time>2020-05-23T10:45:17Z</time>
      </trkpt>
      <trkpt lat="45.14284" lon="4.65142">
        <ele>487.8</ele>
        <time>2020-05-23T10:45:21Z</time>
      </trkpt>
      <trkpt lat="45.143" lon="4.65196">
        <ele>483.4</ele>
        <time>2020-05-23T10:45:25Z</time>
      </trkpt>
      <trkpt lat="45.14305" lon="4.65243">
        <ele>479.4</ele>
        <time>2020-05-23T10:45:29Z</time>
      </trkpt>
      <trkpt lat="45.14307" lon="4.65286">
        <ele>477.2</ele>
        <time>2020-05-23T10:45:33Z</time>
      </trkpt>
      <trkpt lat="45.14309" lon="4.6531">
        <ele>480.2</ele>
        <time>2020-05-23T10:45:37Z</time>
      </trkpt>
      <trkpt lat="45.14314" lon="4.65331">
        <ele>483.8</ele>
        <time>2020-05-23T10:45:41Z</time>
      </trkpt>
      <trkpt lat="45.14316" lon="4.65355">
        <ele>484.4</ele>
        <time>2020-05-23T10:45:45Z</time>
      </trkpt>
      <trkpt lat="45.14316" lon="4.65379">
        <ele>485.6</ele>
        <time>2020-05-23T10:45:49Z</time>
      </trkpt>
      <trkpt lat="45.14316" lon="4.65399">
        <ele>486.6</ele>
        <time>2020-05-23T10:45:53Z</time>
      </trkpt>
      <trkpt lat="45.14316" lon="4.65419">
        <ele>487.4</ele>
        <time>2020-05-23T10:45:57Z</time>
      </trkpt>
      <trkpt lat="45.14322" lon="4.6544">
        <ele>488.4</ele>
        <time>2020-05-23T10:46:01Z</time>
      </trkpt>
      <trkpt lat="45.14323" lon="4.6546">
        <ele>488.6</ele>
        <time>2020-05-23T10:46:05Z</time>
      </trkpt>
      <trkpt lat="45.14329" lon="4.65479">
        <ele>489.4</ele>
        <time>2020-05-23T10:46:09Z</time>
      </trkpt>
      <trkpt lat="45.14333" lon="4.655">
        <ele>489.6</ele>
        <time>2020-05-23T10:46:13Z</time>
      </trkpt>
      <trkpt lat="45.14337" lon="4.65525">
        <ele>488.6</ele>
        <time>2020-05-23T10:46:17Z</time>
      </trkpt>
      <trkpt lat="45.14339" lon="4.6555">
        <ele>488.8</ele>
        <time>2020-05-23T10:46:21Z</time>
      </trkpt>
      <trkpt lat="45.1434" lon="4.65578">
        <ele>488</ele>
        <time>2020-05-23T10:46:25Z</time>
      </trkpt>
      <trkpt lat="45.14339" lon="4.65606">
        <ele>487.8</ele>
        <time>2020-05-23T10:46:29Z</time>
      </trkpt>
      <trkpt lat="45.14335" lon="4.65634">
        <ele>488</ele>
        <time>2020-05-23T10:46:33Z</time>
      </trkpt>
      <trkpt lat="45.1433" lon="4.6566">
        <ele>487.6</ele>
        <time>2020-05-23T10:46:37Z</time>
      </trkpt>
      <trkpt lat="45.14325" lon="4.65685">
        <ele>487.2</ele>
        <time>2020-05-23T10:46:41Z</time>
      </trkpt>
      <trkpt lat="45.14321" lon="4.65711">
        <ele>487</ele>
        <time>2020-05-23T10:46:45Z</time>
      </trkpt>
      <trkpt lat="45.14318" lon="4.65732">
        <ele>487.6</ele>
        <time>2020-05-23T10:46:49Z</time>
      </trkpt>
      <trkpt lat="45.14314" lon="4.65751">
        <ele>488</ele>
        <time>2020-05-23T10:46:53Z</time>
      </trkpt>
      <trkpt lat="45.1431" lon="4.65771">
        <ele>488.8</ele>
        <time>2020-05-23T10:46:57Z</time>
      </trkpt>
      <trkpt lat="45.14307" lon="4.6579">
        <ele>490.8</ele>
        <time>2020-05-23T10:47:01Z</time>
      </trkpt>
      <trkpt lat="45.14304" lon="4.65809">
        <ele>491.4</ele>
        <time>2020-05-23T10:47:05Z</time>
      </trkpt>
      <trkpt lat="45.14301" lon="4.65825">
        <ele>492.2</ele>
        <time>2020-05-23T10:47:09Z</time>
      </trkpt>
      <trkpt lat="45.14299" lon="4.6584">
        <ele>493.4</ele>
        <time>2020-05-23T10:47:13Z</time>
      </trkpt>
      <trkpt lat="45.14295" lon="4.65855">
        <ele>493.4</ele>
        <time>2020-05-23T10:47:17Z</time>
      </trkpt>
      <trkpt lat="45.14293" lon="4.65869">
        <ele>494.8</ele>
        <time>2020-05-23T10:47:21Z</time>
      </trkpt>
      <trkpt lat="45.1429" lon="4.65882">
        <ele>495.2</ele>
        <time>2020-05-23T10:47:25Z</time>
      </trkpt>
      <trkpt lat="45.14287" lon="4.65894">
        <ele>496.2</ele>
        <time>2020-05-23T10:47:29Z</time>
      </trkpt>
      <trkpt lat="45.14284" lon="4.65906">
        <ele>496.6</ele>
        <time>2020-05-23T10:47:33Z</time>
      </trkpt>
      <trkpt lat="45.14282" lon="4.65922">
        <ele>496.4</ele>
        <time>2020-05-23T10:47:37Z</time>
      </trkpt>
      <trkpt lat="45.14281" lon="4.65938">
        <ele>497.2</ele>
        <time>2020-05-23T10:47:41Z</time>
      </trkpt>
      <trkpt lat="45.14283" lon="4.65956">
        <ele>497.2</ele>
        <time>2020-05-23T10:47:45Z</time>
      </trkpt>
      <trkpt lat="45.14286" lon="4.65973">
        <ele>497.6</ele>
        <time>2020-05-23T10:47:49Z</time>
      </trkpt>
      <trkpt lat="45.14288" lon="4.6599">
        <ele>498</ele>
        <time>2020-05-23T10:47:53Z</time>
      </trkpt>
      <trkpt lat="45.14289" lon="4.66006">
        <ele>498.4</ele>
        <time>2020-05-23T10:47:57Z</time>
      </trkpt>
      <trkpt lat="45.14289" lon="4.66021">
        <ele>499.8</ele>
        <time>2020-05-23T10:48:01Z</time>
      </trkpt>
      <trkpt lat="45.14289" lon="4.66036">
        <ele>499.6</ele>
        <time>2020-05-23T10:48:05Z</time>
      </trkpt>
      <trkpt lat="45.14289" lon="4.6605">
        <ele>500.6</ele>
        <time>2020-05-23T10:48:09Z</time>
      </trkpt>
      <trkpt lat="45.14288" lon="4.66066">
        <ele>501.4</ele>
        <time>2020-05-23T10:48:13Z</time>
      </trkpt>
      <trkpt lat="45.14287" lon="4.66081">
        <ele>502.2</ele>
        <time>2020-05-23T10:48:17Z</time>
      </trkpt>
      <trkpt lat="45.14285" lon="4.66093">
        <ele>503.2</ele>
        <time>2020-05-23T10:48:21Z</time>
      </trkpt>
      <trkpt lat="45.14283" lon="4.66107">
        <ele>503.6</ele>
        <time>2020-05-23T10:48:25Z</time>
      </trkpt>
      <trkpt lat="45.14281" lon="4.66121">
        <ele>504</ele>
        <time>2020-05-23T10:48:29Z</time>
      </trkpt>
      <trkpt lat="45.14279" lon="4.66136">
        <ele>505.2</ele>
        <time>2020-05-23T10:48:33Z</time>
      </trkpt>
      <trkpt lat="45.14276" lon="4.66148">
        <ele>506</ele>
        <time>2020-05-23T10:48:37Z</time>
      </trkpt>
      <trkpt lat="45.14271" lon="4.66159">
        <ele>506.8</ele>
        <time>2020-05-23T10:48:41Z</time>
      </trkpt>
      <trkpt lat="45.14267" lon="4.6617">
        <ele>507.2</ele>
        <time>2020-05-23T10:48:45Z</time>
      </trkpt>
      <trkpt lat="45.14262" lon="4.66182">
        <ele>507.4</ele>
        <time>2020-05-23T10:48:49Z</time>
      </trkpt>
      <trkpt lat="45.14262" lon="4.66193">
        <ele>507.4</ele>
        <time>2020-05-23T10:48:53Z</time>
      </trkpt>
      <trkpt lat="45.14265" lon="4.66207">
        <ele>508</ele>
        <time>2020-05-23T10:48:57Z</time>
      </trkpt>
      <trkpt lat="45.14269" lon="4.66222">
        <ele>508</ele>
        <time>2020-05-23T10:49:01Z</time>
      </trkpt>
      <trkpt lat="45.14274" lon="4.66237">
        <ele>508.2</ele>
        <time>2020-05-23T10:49:05Z</time>
      </trkpt>
      <trkpt lat="45.1428" lon="4.66251">
        <ele>509.2</ele>
        <time>2020-05-23T10:49:09Z</time>
      </trkpt>
      <trkpt lat="45.14284" lon="4.66264">
        <ele>509.6</ele>
        <time>2020-05-23T10:49:13Z</time>
      </trkpt>
      <trkpt lat="45.14287" lon="4.66275">
        <ele>510.6</ele>
        <time>2020-05-23T10:49:17Z</time>
      </trkpt>
      <trkpt lat="45.1429" lon="4.66285">
        <ele>511</ele>
        <time>2020-05-23T10:49:21Z</time>
      </trkpt>
      <trkpt lat="45.14294" lon="4.66294">
        <ele>512.4</ele>
        <time>2020-05-23T10:49:25Z</time>
      </trkpt>
      <trkpt lat="45.14295" lon="4.66302">
        <ele>512</ele>
        <time>2020-05-23T10:49:29Z</time>
      </trkpt>
      <trkpt lat="45.14295" lon="4.66312">
        <ele>513.6</ele>
        <time>2020-05-23T10:49:33Z</time>
      </trkpt>
      <trkpt lat="45.14295" lon="4.66321">
        <ele>515.2</ele>
        <time>2020-05-23T10:49:37Z</time>
      </trkpt>
      <trkpt lat="45.143" lon="4.66333">
        <ele>515.2</ele>
        <time>2020-05-23T10:49:41Z</time>
      </trkpt>
      <trkpt lat="45.14303" lon="4.66346">
        <ele>514.8</ele>
        <time>2020-05-23T10:49:45Z</time>
      </trkpt>
      <trkpt lat="45.14305" lon="4.6636">
        <ele>516.2</ele>
        <time>2020-05-23T10:49:49Z</time>
      </trkpt>
      <trkpt lat="45.14305" lon="4.6637">
        <ele>516.4</ele>
        <time>2020-05-23T10:49:53Z</time>
      </trkpt>
      <trkpt lat="45.14305" lon="4.66377">
        <ele>516.8</ele>
        <time>2020-05-23T10:49:57Z</time>
      </trkpt>
      <trkpt lat="45.14308" lon="4.66388">
        <ele>516.2</ele>
        <time>2020-05-23T10:50:01Z</time>
      </trkpt>
      <trkpt lat="45.14307" lon="4.664">
        <ele>515.4</ele>
        <time>2020-05-23T10:50:05Z</time>
      </trkpt>
      <trkpt lat="45.14304" lon="4.66409">
        <ele>514.6</ele>
        <time>2020-05-23T10:50:09Z</time>
      </trkpt>
      <trkpt lat="45.14298" lon="4.66412">
        <ele>514.2</ele>
        <time>2020-05-23T10:50:13Z</time>
      </trkpt>
      <trkpt lat="45.1429" lon="4.66413">
        <ele>514.8</ele>
        <time>2020-05-23T10:50:17Z</time>
      </trkpt>
      <trkpt lat="45.14282" lon="4.66413">
        <ele>514.2</ele>
        <time>2020-05-23T10:50:21Z</time>
      </trkpt>
      <trkpt lat="45.14272" lon="4.6641">
        <ele>513.6</ele>
        <time>2020-05-23T10:50:25Z</time>
      </trkpt>
      <trkpt lat="45.14263" lon="4.66402">
        <ele>514.2</ele>
        <time>2020-05-23T10:50:29Z</time>
      </trkpt>
      <trkpt lat="45.14254" lon="4.66391">
        <ele>514</ele>
        <time>2020-05-23T10:50:33Z</time>
      </trkpt>
      <trkpt lat="45.14243" lon="4.66381">
        <ele>514.2</ele>
        <time>2020-05-23T10:50:37Z</time>
      </trkpt>
      <trkpt lat="45.14231" lon="4.66371">
        <ele>514.2</ele>
        <time>2020-05-23T10:50:41Z</time>
      </trkpt>
      <trkpt lat="45.14219" lon="4.6636">
        <ele>514.2</ele>
        <time>2020-05-23T10:50:45Z</time>
      </trkpt>
      <trkpt lat="45.14207" lon="4.66349">
        <ele>514.4</ele>
        <time>2020-05-23T10:50:49Z</time>
      </trkpt>
      <trkpt lat="45.14197" lon="4.66336">
        <ele>514.4</ele>
        <time>2020-05-23T10:50:53Z</time>
      </trkpt>
      <trkpt lat="45.14188" lon="4.66325">
        <ele>514.8</ele>
        <time>2020-05-23T10:50:57Z</time>
      </trkpt>
      <trkpt lat="45.14176" lon="4.66316">
        <ele>515</ele>
        <time>2020-05-23T10:51:01Z</time>
      </trkpt>
      <trkpt lat="45.14167" lon="4.66305">
        <ele>515.6</ele>
        <time>2020-05-23T10:51:05Z</time>
      </trkpt>
      <trkpt lat="45.14161" lon="4.6629">
        <ele>516.4</ele>
        <time>2020-05-23T10:51:09Z</time>
      </trkpt>
      <trkpt lat="45.14155" lon="4.66275">
        <ele>517.4</ele>
        <time>2020-05-23T10:51:13Z</time>
      </trkpt>
      <trkpt lat="45.14152" lon="4.66259">
        <ele>517.6</ele>
        <time>2020-05-23T10:51:17Z</time>
      </trkpt>
      <trkpt lat="45.14147" lon="4.66243">
        <ele>518.2</ele>
        <time>2020-05-23T10:51:21Z</time>
      </trkpt>
      <trkpt lat="45.14143" lon="4.66226">
        <ele>519</ele>
        <time>2020-05-23T10:51:25Z</time>
      </trkpt>
      <trkpt lat="45.14137" lon="4.6621">
        <ele>519.2</ele>
        <time>2020-05-23T10:51:29Z</time>
      </trkpt>
      <trkpt lat="45.14129" lon="4.66197">
        <ele>519.2</ele>
        <time>2020-05-23T10:51:33Z</time>
      </trkpt>
      <trkpt lat="45.1412" lon="4.66185">
        <ele>519.4</ele>
        <time>2020-05-23T10:51:37Z</time>
      </trkpt>
      <trkpt lat="45.1411" lon="4.66173">
        <ele>520</ele>
        <time>2020-05-23T10:51:41Z</time>
      </trkpt>
      <trkpt lat="45.141" lon="4.66161">
        <ele>519.8</ele>
        <time>2020-05-23T10:51:45Z</time>
      </trkpt>
      <trkpt lat="45.1409" lon="4.66148">
        <ele>520.8</ele>
        <time>2020-05-23T10:51:49Z</time>
      </trkpt>
      <trkpt lat="45.1408" lon="4.66133">
        <ele>520.6</ele>
        <time>2020-05-23T10:51:53Z</time>
      </trkpt>
      <trkpt lat="45.14071" lon="4.66119">
        <ele>521</ele>
        <time>2020-05-23T10:51:57Z</time>
      </trkpt>
      <trkpt lat="45.14063" lon="4.66104">
        <ele>521.6</ele>
        <time>2020-05-23T10:52:01Z</time>
      </trkpt>
      <trkpt lat="45.14056" lon="4.66089">
        <ele>521.8</ele>
        <time>2020-05-23T10:52:05Z</time>
      </trkpt>
      <trkpt lat="45.14048" lon="4.66074">
        <ele>522.4</ele>
        <time>2020-05-23T10:52:09Z</time>
      </trkpt>
      <trkpt lat="45.14042" lon="4.66057">
        <ele>522.8</ele>
        <time>2020-05-23T10:52:13Z</time>
      </trkpt>
      <trkpt lat="45.14036" lon="4.6604">
        <ele>522.8</ele>
        <time>2020-05-23T10:52:17Z</time>
      </trkpt>
      <trkpt lat="45.14031" lon="4.66024">
        <ele>523.2</ele>
        <time>2020-05-23T10:52:21Z</time>
      </trkpt>
      <trkpt lat="45.14026" lon="4.66006">
        <ele>523.6</ele>
        <time>2020-05-23T10:52:25Z</time>
      </trkpt>
      <trkpt lat="45.1402" lon="4.65988">
        <ele>524.6</ele>
        <time>2020-05-23T10:52:29Z</time>
      </trkpt>
      <trkpt lat="45.14016" lon="4.65969">
        <ele>523.8</ele>
        <time>2020-05-23T10:52:33Z</time>
      </trkpt>
      <trkpt lat="45.14013" lon="4.6595">
        <ele>524.8</ele>
        <time>2020-05-23T10:52:37Z</time>
      </trkpt>
      <trkpt lat="45.1401" lon="4.65931">
        <ele>524.8</ele>
        <time>2020-05-23T10:52:41Z</time>
      </trkpt>
      <trkpt lat="45.14008" lon="4.65913">
        <ele>525</ele>
        <time>2020-05-23T10:52:45Z</time>
      </trkpt>
      <trkpt lat="45.14005" lon="4.65896">
        <ele>525.8</ele>
        <time>2020-05-23T10:52:49Z</time>
      </trkpt>
      <trkpt lat="45.14003" lon="4.65879">
        <ele>526.4</ele>
        <time>2020-05-23T10:52:53Z</time>
      </trkpt>
      <trkpt lat="45.14001" lon="4.65861">
        <ele>527.4</ele>
        <time>2020-05-23T10:52:57Z</time>
      </trkpt>
      <trkpt lat="45.13999" lon="4.65845">
        <ele>527.8</ele>
        <time>2020-05-23T10:53:01Z</time>
      </trkpt>
      <trkpt lat="45.13997" lon="4.6583">
        <ele>527.8</ele>
        <time>2020-05-23T10:53:05Z</time>
      </trkpt>
      <trkpt lat="45.13995" lon="4.65815">
        <ele>528.4</ele>
        <time>2020-05-23T10:53:09Z</time>
      </trkpt>
      <trkpt lat="45.13994" lon="4.658">
        <ele>529</ele>
        <time>2020-05-23T10:53:13Z</time>
      </trkpt>
      <trkpt lat="45.13992" lon="4.65785">
        <ele>529.8</ele>
        <time>2020-05-23T10:53:17Z</time>
      </trkpt>
      <trkpt lat="45.1399" lon="4.65771">
        <ele>530</ele>
        <time>2020-05-23T10:53:21Z</time>
      </trkpt>
      <trkpt lat="45.13987" lon="4.65756">
        <ele>530.8</ele>
        <time>2020-05-23T10:53:25Z</time>
      </trkpt>
      <trkpt lat="45.13984" lon="4.65743">
        <ele>531.6</ele>
        <time>2020-05-23T10:53:29Z</time>
      </trkpt>
      <trkpt lat="45.13981" lon="4.65728">
        <ele>531.6</ele>
        <time>2020-05-23T10:53:33Z</time>
      </trkpt>
      <trkpt lat="45.13977" lon="4.65713">
        <ele>532.4</ele>
        <time>2020-05-23T10:53:37Z</time>
      </trkpt>
      <trkpt lat="45.13972" lon="4.65697">
        <ele>532.6</ele>
        <time>2020-05-23T10:53:41Z</time>
      </trkpt>
      <trkpt lat="45.13967" lon="4.65682">
        <ele>533</ele>
        <time>2020-05-23T10:53:45Z</time>
      </trkpt>
      <trkpt lat="45.13961" lon="4.65668">
        <ele>533.6</ele>
        <time>2020-05-23T10:53:49Z</time>
      </trkpt>
      <trkpt lat="45.13954" lon="4.65655">
        <ele>534.2</ele>
        <time>2020-05-23T10:53:53Z</time>
      </trkpt>
      <trkpt lat="45.13945" lon="4.65642">
        <ele>534.2</ele>
        <time>2020-05-23T10:53:57Z</time>
      </trkpt>
      <trkpt lat="45.13936" lon="4.6563">
        <ele>535</ele>
        <time>2020-05-23T10:54:01Z</time>
      </trkpt>
      <trkpt lat="45.13927" lon="4.65618">
        <ele>535.2</ele>
        <time>2020-05-23T10:54:05Z</time>
      </trkpt>
      <trkpt lat="45.13918" lon="4.65606">
        <ele>536</ele>
        <time>2020-05-23T10:54:09Z</time>
      </trkpt>
      <trkpt lat="45.13909" lon="4.65594">
        <ele>536</ele>
        <time>2020-05-23T10:54:13Z</time>
      </trkpt>
      <trkpt lat="45.139" lon="4.65582">
        <ele>535.8</ele>
        <time>2020-05-23T10:54:17Z</time>
      </trkpt>
      <trkpt lat="45.13892" lon="4.6557">
        <ele>536.2</ele>
        <time>2020-05-23T10:54:21Z</time>
      </trkpt>
      <trkpt lat="45.13883" lon="4.65559">
        <ele>536.8</ele>
        <time>2020-05-23T10:54:25Z</time>
      </trkpt>
      <trkpt lat="45.13874" lon="4.65547">
        <ele>537</ele>
        <time>2020-05-23T10:54:29Z</time>
      </trkpt>
      <trkpt lat="45.13865" lon="4.65535">
        <ele>538</ele>
        <time>2020-05-23T10:54:33Z</time>
      </trkpt>
      <trkpt lat="45.13857" lon="4.65524">
        <ele>538.4</ele>
        <time>2020-05-23T10:54:37Z</time>
      </trkpt>
      <trkpt lat="45.13848" lon="4.65512">
        <ele>538.6</ele>
        <time>2020-05-23T10:54:41Z</time>
      </trkpt>
      <trkpt lat="45.13839" lon="4.655">
        <ele>539.2</ele>
        <time>2020-05-23T10:54:45Z</time>
      </trkpt>
      <trkpt lat="45.1383" lon="4.65489">
        <ele>539.2</ele>
        <time>2020-05-23T10:54:49Z</time>
      </trkpt>
      <trkpt lat="45.13821" lon="4.65476">
        <ele>539.4</ele>
        <time>2020-05-23T10:54:53Z</time>
      </trkpt>
      <trkpt lat="45.13811" lon="4.65464">
        <ele>539.8</ele>
        <time>2020-05-23T10:54:57Z</time>
      </trkpt>
      <trkpt lat="45.13801" lon="4.65451">
        <ele>539.6</ele>
        <time>2020-05-23T10:55:01Z</time>
      </trkpt>
      <trkpt lat="45.1379" lon="4.65437">
        <ele>539.6</ele>
        <time>2020-05-23T10:55:05Z</time>
      </trkpt>
      <trkpt lat="45.13779" lon="4.65423">
        <ele>539.6</ele>
        <time>2020-05-23T10:55:09Z</time>
      </trkpt>
      <trkpt lat="45.13769" lon="4.6541">
        <ele>539.8</ele>
        <time>2020-05-23T10:55:13Z</time>
      </trkpt>
      <trkpt lat="45.13759" lon="4.65397">
        <ele>540.2</ele>
        <time>2020-05-23T10:55:17Z</time>
      </trkpt>
      <trkpt lat="45.13749" lon="4.65384">
        <ele>540.4</ele>
        <time>2020-05-23T10:55:21Z</time>
      </trkpt>
      <trkpt lat="45.13739" lon="4.65371">
        <ele>540.8</ele>
        <time>2020-05-23T10:55:25Z</time>
      </trkpt>
      <trkpt lat="45.1373" lon="4.65359">
        <ele>541</ele>
        <time>2020-05-23T10:55:29Z</time>
      </trkpt>
      <trkpt lat="45.13721" lon="4.65347">
        <ele>541.4</ele>
        <time>2020-05-23T10:55:33Z</time>
      </trkpt>
      <trkpt lat="45.13712" lon="4.65335">
        <ele>541.6</ele>
        <time>2020-05-23T10:55:37Z</time>
      </trkpt>
      <trkpt lat="45.13702" lon="4.65323">
        <ele>542.4</ele>
        <time>2020-05-23T10:55:41Z</time>
      </trkpt>
      <trkpt lat="45.13693" lon="4.65311">
        <ele>542.8</ele>
        <time>2020-05-23T10:55:45Z</time>
      </trkpt>
      <trkpt lat="45.13684" lon="4.653">
        <ele>543</ele>
        <time>2020-05-23T10:55:49Z</time>
      </trkpt>
      <trkpt lat="45.13676" lon="4.65288">
        <ele>543.6</ele>
        <time>2020-05-23T10:55:53Z</time>
      </trkpt>
      <trkpt lat="45.13666" lon="4.65277">
        <ele>543.8</ele>
        <time>2020-05-23T10:55:57Z</time>
      </trkpt>
      <trkpt lat="45.13657" lon="4.65266">
        <ele>544.4</ele>
        <time>2020-05-23T10:56:01Z</time>
      </trkpt>
      <trkpt lat="45.13648" lon="4.65254">
        <ele>545.2</ele>
        <time>2020-05-23T10:56:05Z</time>
      </trkpt>
      <trkpt lat="45.1364" lon="4.65243">
        <ele>545.6</ele>
        <time>2020-05-23T10:56:09Z</time>
      </trkpt>
      <trkpt lat="45.13631" lon="4.65233">
        <ele>546.4</ele>
        <time>2020-05-23T10:56:13Z</time>
      </trkpt>
      <trkpt lat="45.13622" lon="4.65221">
        <ele>545.8</ele>
        <time>2020-05-23T10:56:17Z</time>
      </trkpt>
      <trkpt lat="45.13613" lon="4.6521">
        <ele>546.6</ele>
        <time>2020-05-23T10:56:21Z</time>
      </trkpt>
      <trkpt lat="45.13605" lon="4.652">
        <ele>546.4</ele>
        <time>2020-05-23T10:56:25Z</time>
      </trkpt>
      <trkpt lat="45.13595" lon="4.6519">
        <ele>547</ele>
        <time>2020-05-23T10:56:29Z</time>
      </trkpt>
      <trkpt lat="45.13586" lon="4.65178">
        <ele>547.4</ele>
        <time>2020-05-23T10:56:33Z</time>
      </trkpt>
      <trkpt lat="45.13576" lon="4.65167">
        <ele>547.6</ele>
        <time>2020-05-23T10:56:37Z</time>
      </trkpt>
      <trkpt lat="45.13567" lon="4.65156">
        <ele>548</ele>
        <time>2020-05-23T10:56:41Z</time>
      </trkpt>
      <trkpt lat="45.13557" lon="4.65144">
        <ele>548.2</ele>
        <time>2020-05-23T10:56:45Z</time>
      </trkpt>
      <trkpt lat="45.13546" lon="4.65132">
        <ele>548.6</ele>
        <time>2020-05-23T10:56:49Z</time>
      </trkpt>
      <trkpt lat="45.13536" lon="4.6512">
        <ele>549</ele>
        <time>2020-05-23T10:56:53Z</time>
      </trkpt>
      <trkpt lat="45.13526" lon="4.65107">
        <ele>549.2</ele>
        <time>2020-05-23T10:56:57Z</time>
      </trkpt>
      <trkpt lat="45.13515" lon="4.65095">
        <ele>549</ele>
        <time>2020-05-23T10:57:01Z</time>
      </trkpt>
      <trkpt lat="45.13505" lon="4.65082">
        <ele>550</ele>
        <time>2020-05-23T10:57:05Z</time>
      </trkpt>
      <trkpt lat="45.13495" lon="4.6507">
        <ele>550.4</ele>
        <time>2020-05-23T10:57:09Z</time>
      </trkpt>
      <trkpt lat="45.13485" lon="4.65058">
        <ele>551</ele>
        <time>2020-05-23T10:57:13Z</time>
      </trkpt>
      <trkpt lat="45.13475" lon="4.65046">
        <ele>551</ele>
        <time>2020-05-23T10:57:17Z</time>
      </trkpt>
      <trkpt lat="45.13465" lon="4.65034">
        <ele>551.6</ele>
        <time>2020-05-23T10:57:21Z</time>
      </trkpt>
      <trkpt lat="45.13455" lon="4.65024">
        <ele>551.8</ele>
        <time>2020-05-23T10:57:25Z</time>
      </trkpt>
      <trkpt lat="45.13444" lon="4.65015">
        <ele>552.2</ele>
        <time>2020-05-23T10:57:29Z</time>
      </trkpt>
      <trkpt lat="45.13432" lon="4.65007">
        <ele>552.6</ele>
        <time>2020-05-23T10:57:33Z</time>
      </trkpt>
      <trkpt lat="45.13421" lon="4.65">
        <ele>553.2</ele>
        <time>2020-05-23T10:57:37Z</time>
      </trkpt>
      <trkpt lat="45.1341" lon="4.64993">
        <ele>553.6</ele>
        <time>2020-05-23T10:57:41Z</time>
      </trkpt>
      <trkpt lat="45.13399" lon="4.64987">
        <ele>554.8</ele>
        <time>2020-05-23T10:57:45Z</time>
      </trkpt>
      <trkpt lat="45.13389" lon="4.64981">
        <ele>555.6</ele>
        <time>2020-05-23T10:57:49Z</time>
      </trkpt>
      <trkpt lat="45.13379" lon="4.64976">
        <ele>555.6</ele>
        <time>2020-05-23T10:57:53Z</time>
      </trkpt>
      <trkpt lat="45.13368" lon="4.6497">
        <ele>556.6</ele>
        <time>2020-05-23T10:57:57Z</time>
      </trkpt>
      <trkpt lat="45.13358" lon="4.64966">
        <ele>557.4</ele>
        <time>2020-05-23T10:58:01Z</time>
      </trkpt>
      <trkpt lat="45.13348" lon="4.64962">
        <ele>557.6</ele>
        <time>2020-05-23T10:58:05Z</time>
      </trkpt>
      <trkpt lat="45.13337" lon="4.64958">
        <ele>558</ele>
        <time>2020-05-23T10:58:09Z</time>
      </trkpt>
      <trkpt lat="45.13326" lon="4.64954">
        <ele>558.4</ele>
        <time>2020-05-23T10:58:13Z</time>
      </trkpt>
      <trkpt lat="45.13315" lon="4.64949">
        <ele>558.8</ele>
        <time>2020-05-23T10:58:17Z</time>
      </trkpt>
      <trkpt lat="45.13304" lon="4.64945">
        <ele>559.2</ele>
        <time>2020-05-23T10:58:21Z</time>
      </trkpt>
      <trkpt lat="45.13293" lon="4.64942">
        <ele>560</ele>
        <time>2020-05-23T10:58:25Z</time>
      </trkpt>
      <trkpt lat="45.13282" lon="4.64939">
        <ele>560.2</ele>
        <time>2020-05-23T10:58:29Z</time>
      </trkpt>
      <trkpt lat="45.13271" lon="4.64936">
        <ele>560.8</ele>
        <time>2020-05-23T10:58:33Z</time>
      </trkpt>
      <trkpt lat="45.1326" lon="4.64933">
        <ele>561.8</ele>
        <time>2020-05-23T10:58:37Z</time>
      </trkpt>
      <trkpt lat="45.1325" lon="4.64929">
        <ele>562.4</ele>
        <time>2020-05-23T10:58:41Z</time>
      </trkpt>
      <trkpt lat="45.13239" lon="4.64924">
        <ele>562.6</ele>
        <time>2020-05-23T10:58:45Z</time>
      </trkpt>
      <trkpt lat="45.13229" lon="4.64915">
        <ele>562.6</ele>
        <time>2020-05-23T10:58:49Z</time>
      </trkpt>
      <trkpt lat="45.1322" lon="4.64905">
        <ele>563.8</ele>
        <time>2020-05-23T10:58:53Z</time>
      </trkpt>
      <trkpt lat="45.13213" lon="4.64895">
        <ele>564.2</ele>
        <time>2020-05-23T10:58:57Z</time>
      </trkpt>
      <trkpt lat="45.13207" lon="4.64885">
        <ele>565</ele>
        <time>2020-05-23T10:59:01Z</time>
      </trkpt>
      <trkpt lat="45.13201" lon="4.64873">
        <ele>565.2</ele>
        <time>2020-05-23T10:59:05Z</time>
      </trkpt>
      <trkpt lat="45.13195" lon="4.64862">
        <ele>565.6</ele>
        <time>2020-05-23T10:59:09Z</time>
      </trkpt>
      <trkpt lat="45.13187" lon="4.64852">
        <ele>566.6</ele>
        <time>2020-05-23T10:59:13Z</time>
      </trkpt>
      <trkpt lat="45.13179" lon="4.64843">
        <ele>567.2</ele>
        <time>2020-05-23T10:59:17Z</time>
      </trkpt>
      <trkpt lat="45.1317" lon="4.64836">
        <ele>567.4</ele>
        <time>2020-05-23T10:59:21Z</time>
      </trkpt>
      <trkpt lat="45.1316" lon="4.64831">
        <ele>568</ele>
        <time>2020-05-23T10:59:25Z</time>
      </trkpt>
      <trkpt lat="45.13151" lon="4.64826">
        <ele>568.6</ele>
        <time>2020-05-23T10:59:29Z</time>
      </trkpt>
      <trkpt lat="45.13141" lon="4.64822">
        <ele>569.6</ele>
        <time>2020-05-23T10:59:33Z</time>
      </trkpt>
      <trkpt lat="45.13131" lon="4.6482">
        <ele>569.8</ele>
        <time>2020-05-23T10:59:37Z</time>
      </trkpt>
      <trkpt lat="45.13121" lon="4.64817">
        <ele>570</ele>
        <time>2020-05-23T10:59:41Z</time>
      </trkpt>
      <trkpt lat="45.1311" lon="4.64813">
        <ele>570.6</ele>
        <time>2020-05-23T10:59:45Z</time>
      </trkpt>
      <trkpt lat="45.131" lon="4.64808">
        <ele>571.4</ele>
        <time>2020-05-23T10:59:49Z</time>
      </trkpt>
      <trkpt lat="45.1309" lon="4.64802">
        <ele>572</ele>
        <time>2020-05-23T10:59:53Z</time>
      </trkpt>
      <trkpt lat="45.13081" lon="4.64796">
        <ele>572.4</ele>
        <time>2020-05-23T10:59:57Z</time>
      </trkpt>
      <trkpt lat="45.13071" lon="4.64788">
        <ele>572.6</ele>
        <time>2020-05-23T11:00:01Z</time>
      </trkpt>
      <trkpt lat="45.13062" lon="4.64779">
        <ele>573.4</ele>
        <time>2020-05-23T11:00:05Z</time>
      </trkpt>
      <trkpt lat="45.13054" lon="4.6477">
        <ele>574</ele>
        <time>2020-05-23T11:00:09Z</time>
      </trkpt>
      <trkpt lat="45.13046" lon="4.64761">
        <ele>574.4</ele>
        <time>2020-05-23T11:00:13Z</time>
      </trkpt>
      <trkpt lat="45.13039" lon="4.64751">
        <ele>575.4</ele>
        <time>2020-05-23T11:00:17Z</time>
      </trkpt>
      <trkpt lat="45.13033" lon="4.6474">
        <ele>576</ele>
        <time>2020-05-23T11:00:21Z</time>
      </trkpt>
      <trkpt lat="45.13027" lon="4.6473">
        <ele>576.4</ele>
        <time>2020-05-23T11:00:25Z</time>
      </trkpt>
      <trkpt lat="45.13021" lon="4.64719">
        <ele>577.2</ele>
        <time>2020-05-23T11:00:29Z</time>
      </trkpt>
      <trkpt lat="45.13016" lon="4.64709">
        <ele>578</ele>
        <time>2020-05-23T11:00:33Z</time>
      </trkpt>
      <trkpt lat="45.13011" lon="4.64698">
        <ele>578.8</ele>
        <time>2020-05-23T11:00:37Z</time>
      </trkpt>
      <trkpt lat="45.13006" lon="4.64687">
        <ele>579</ele>
        <time>2020-05-23T11:00:41Z</time>
      </trkpt>
      <trkpt lat="45.13001" lon="4.64676">
        <ele>580</ele>
        <time>2020-05-23T11:00:45Z</time>
      </trkpt>
      <trkpt lat="45.12996" lon="4.64664">
        <ele>580.8</ele>
        <time>2020-05-23T11:00:49Z</time>
      </trkpt>
      <trkpt lat="45.1299" lon="4.6466">
        <ele>581.4</ele>
        <time>2020-05-23T11:00:53Z</time>
      </trkpt>
      <trkpt lat="45.1299" lon="4.6466">
        <ele>582</ele>
        <time>2020-05-23T11:00:57Z</time>
      </trkpt>
      <trkpt lat="45.12977" lon="4.64648">
        <ele>582.8</ele>
        <time>2020-05-23T11:03:34Z</time>
      </trkpt>
      <trkpt lat="45.12969" lon="4.64638">
        <ele>583.2</ele>
        <time>2020-05-23T11:03:38Z</time>
      </trkpt>
      <trkpt lat="45.12961" lon="4.64625">
        <ele>584</ele>
        <time>2020-05-23T11:03:42Z</time>
      </trkpt>
      <trkpt lat="45.12956" lon="4.64612">
        <ele>584.6</ele>
        <time>2020-05-23T11:03:46Z</time>
      </trkpt>
      <trkpt lat="45.12951" lon="4.646">
        <ele>585.4</ele>
        <time>2020-05-23T11:03:50Z</time>
      </trkpt>
      <trkpt lat="45.12946" lon="4.64588">
        <ele>587.8</ele>
        <time>2020-05-23T11:03:54Z</time>
      </trkpt>
      <trkpt lat="45.12942" lon="4.64576">
        <ele>586.4</ele>
        <time>2020-05-23T11:03:58Z</time>
      </trkpt>
      <trkpt lat="45.12937" lon="4.64565">
        <ele>587.2</ele>
        <time>2020-05-23T11:04:02Z</time>
      </trkpt>
      <trkpt lat="45.12932" lon="4.64553">
        <ele>588.2</ele>
        <time>2020-05-23T11:04:06Z</time>
      </trkpt>
      <trkpt lat="45.12928" lon="4.64542">
        <ele>588.4</ele>
        <time>2020-05-23T11:04:10Z</time>
      </trkpt>
      <trkpt lat="45.12922" lon="4.6453">
        <ele>589</ele>
        <time>2020-05-23T11:04:14Z</time>
      </trkpt>
      <trkpt lat="45.12916" lon="4.64519">
        <ele>589.2</ele>
        <time>2020-05-23T11:04:18Z</time>
      </trkpt>
      <trkpt lat="45.1291" lon="4.64509">
        <ele>589.8</ele>
        <time>2020-05-23T11:04:22Z</time>
      </trkpt>
      <trkpt lat="45.12904" lon="4.64499">
        <ele>590.8</ele>
        <time>2020-05-23T11:04:26Z</time>
      </trkpt>
      <trkpt lat="45.12897" lon="4.6449">
        <ele>591.4</ele>
        <time>2020-05-23T11:04:30Z</time>
      </trkpt>
      <trkpt lat="45.1289" lon="4.64481">
        <ele>592</ele>
        <time>2020-05-23T11:04:34Z</time>
      </trkpt>
      <trkpt lat="45.12882" lon="4.64473">
        <ele>591.8</ele>
        <time>2020-05-23T11:04:38Z</time>
      </trkpt>
      <trkpt lat="45.12873" lon="4.64467">
        <ele>592.8</ele>
        <time>2020-05-23T11:04:42Z</time>
      </trkpt>
      <trkpt lat="45.12864" lon="4.64461">
        <ele>592.8</ele>
        <time>2020-05-23T11:04:46Z</time>
      </trkpt>
      <trkpt lat="45.12855" lon="4.64456">
        <ele>593.4</ele>
        <time>2020-05-23T11:04:50Z</time>
      </trkpt>
      <trkpt lat="45.12847" lon="4.64452">
        <ele>593.8</ele>
        <time>2020-05-23T11:04:54Z</time>
      </trkpt>
      <trkpt lat="45.12838" lon="4.64448">
        <ele>594.4</ele>
        <time>2020-05-23T11:04:58Z</time>
      </trkpt>
      <trkpt lat="45.12829" lon="4.64443">
        <ele>595</ele>
        <time>2020-05-23T11:05:02Z</time>
      </trkpt>
      <trkpt lat="45.12819" lon="4.64438">
        <ele>595.6</ele>
        <time>2020-05-23T11:05:06Z</time>
      </trkpt>
      <trkpt lat="45.1281" lon="4.64432">
        <ele>595.8</ele>
        <time>2020-05-23T11:05:10Z</time>
      </trkpt>
      <trkpt lat="45.12802" lon="4.64424">
        <ele>596.6</ele>
        <time>2020-05-23T11:05:14Z</time>
      </trkpt>
      <trkpt lat="45.12793" lon="4.64416">
        <ele>597.6</ele>
        <time>2020-05-23T11:05:18Z</time>
      </trkpt>
      <trkpt lat="45.12786" lon="4.64405">
        <ele>597.8</ele>
        <time>2020-05-23T11:05:22Z</time>
      </trkpt>
      <trkpt lat="45.12779" lon="4.64394">
        <ele>598</ele>
        <time>2020-05-23T11:05:26Z</time>
      </trkpt>
      <trkpt lat="45.12771" lon="4.64383">
        <ele>599</ele>
        <time>2020-05-23T11:05:30Z</time>
      </trkpt>
      <trkpt lat="45.12763" lon="4.64374">
        <ele>599</ele>
        <time>2020-05-23T11:05:34Z</time>
      </trkpt>
      <trkpt lat="45.12754" lon="4.64366">
        <ele>599.8</ele>
        <time>2020-05-23T11:05:38Z</time>
      </trkpt>
      <trkpt lat="45.12745" lon="4.6436">
        <ele>600.8</ele>
        <time>2020-05-23T11:05:42Z</time>
      </trkpt>
      <trkpt lat="45.12736" lon="4.64355">
        <ele>600.8</ele>
        <time>2020-05-23T11:05:46Z</time>
      </trkpt>
      <trkpt lat="45.12727" lon="4.64351">
        <ele>601.4</ele>
        <time>2020-05-23T11:05:50Z</time>
      </trkpt>
      <trkpt lat="45.12719" lon="4.64347">
        <ele>601.6</ele>
        <time>2020-05-23T11:05:54Z</time>
      </trkpt>
      <trkpt lat="45.12712" lon="4.64344">
        <ele>602.8</ele>
        <time>2020-05-23T11:05:58Z</time>
      </trkpt>
      <trkpt lat="45.12704" lon="4.64343">
        <ele>603.4</ele>
        <time>2020-05-23T11:06:02Z</time>
      </trkpt>
      <trkpt lat="45.12696" lon="4.64345">
        <ele>603.6</ele>
        <time>2020-05-23T11:06:06Z</time>
      </trkpt>
      <trkpt lat="45.12689" lon="4.64349">
        <ele>604.4</ele>
        <time>2020-05-23T11:06:10Z</time>
      </trkpt>
      <trkpt lat="45.12682" lon="4.64352">
        <ele>604.8</ele>
        <time>2020-05-23T11:06:14Z</time>
      </trkpt>
      <trkpt lat="45.12675" lon="4.64358">
        <ele>605.2</ele>
        <time>2020-05-23T11:06:18Z</time>
      </trkpt>
      <trkpt lat="45.12668" lon="4.64365">
        <ele>605.4</ele>
        <time>2020-05-23T11:06:22Z</time>
      </trkpt>
      <trkpt lat="45.12661" lon="4.64373">
        <ele>605.4</ele>
        <time>2020-05-23T11:06:26Z</time>
      </trkpt>
      <trkpt lat="45.12654" lon="4.64382">
        <ele>606</ele>
        <time>2020-05-23T11:06:30Z</time>
      </trkpt>
      <trkpt lat="45.12647" lon="4.64394">
        <ele>606.2</ele>
        <time>2020-05-23T11:06:34Z</time>
      </trkpt>
      <trkpt lat="45.1264" lon="4.64406">
        <ele>606.4</ele>
        <time>2020-05-23T11:06:38Z</time>
      </trkpt>
      <trkpt lat="45.12633" lon="4.64417">
        <ele>607</ele>
        <time>2020-05-23T11:06:42Z</time>
      </trkpt>
      <trkpt lat="45.12625" lon="4.64427">
        <ele>606.8</ele>
        <time>2020-05-23T11:06:46Z</time>
      </trkpt>
      <trkpt lat="45.12617" lon="4.64437">
        <ele>607.6</ele>
        <time>2020-05-23T11:06:50Z</time>
      </trkpt>
      <trkpt lat="45.12609" lon="4.64447">
        <ele>608.2</ele>
        <time>2020-05-23T11:06:54Z</time>
      </trkpt>
      <trkpt lat="45.126" lon="4.64455">
        <ele>607.8</ele>
        <time>2020-05-23T11:06:58Z</time>
      </trkpt>
      <trkpt lat="45.12591" lon="4.64462">
        <ele>608</ele>
        <time>2020-05-23T11:07:02Z</time>
      </trkpt>
      <trkpt lat="45.12582" lon="4.64466">
        <ele>608.8</ele>
        <time>2020-05-23T11:07:06Z</time>
      </trkpt>
      <trkpt lat="45.12572" lon="4.64469">
        <ele>609</ele>
        <time>2020-05-23T11:07:10Z</time>
      </trkpt>
      <trkpt lat="45.12562" lon="4.64469">
        <ele>609.4</ele>
        <time>2020-05-23T11:07:14Z</time>
      </trkpt>
      <trkpt lat="45.12553" lon="4.64467">
        <ele>610.2</ele>
        <time>2020-05-23T11:07:18Z</time>
      </trkpt>
      <trkpt lat="45.12543" lon="4.64464">
        <ele>611.2</ele>
        <time>2020-05-23T11:07:22Z</time>
      </trkpt>
      <trkpt lat="45.12533" lon="4.64459">
        <ele>611.4</ele>
        <time>2020-05-23T11:07:26Z</time>
      </trkpt>
      <trkpt lat="45.12524" lon="4.64452">
        <ele>611.8</ele>
        <time>2020-05-23T11:07:30Z</time>
      </trkpt>
      <trkpt lat="45.12515" lon="4.64442">
        <ele>612.6</ele>
        <time>2020-05-23T11:07:34Z</time>
      </trkpt>
      <trkpt lat="45.12509" lon="4.6443">
        <ele>612.6</ele>
        <time>2020-05-23T11:07:38Z</time>
      </trkpt>
      <trkpt lat="45.12505" lon="4.64415">
        <ele>613.2</ele>
        <time>2020-05-23T11:07:42Z</time>
      </trkpt>
      <trkpt lat="45.12503" lon="4.64401">
        <ele>613.4</ele>
        <time>2020-05-23T11:07:46Z</time>
      </trkpt>
      <trkpt lat="45.12503" lon="4.64388">
        <ele>613.8</ele>
        <time>2020-05-23T11:07:50Z</time>
      </trkpt>
      <trkpt lat="45.12503" lon="4.64375">
        <ele>614.4</ele>
        <time>2020-05-23T11:07:54Z</time>
      </trkpt>
      <trkpt lat="45.12502" lon="4.64363">
        <ele>614.6</ele>
        <time>2020-05-23T11:07:58Z</time>
      </trkpt>
      <trkpt lat="45.125" lon="4.64349">
        <ele>615</ele>
        <time>2020-05-23T11:08:02Z</time>
      </trkpt>
      <trkpt lat="45.12495" lon="4.64336">
        <ele>615.2</ele>
        <time>2020-05-23T11:08:06Z</time>
      </trkpt>
      <trkpt lat="45.12489" lon="4.64325">
        <ele>615.8</ele>
        <time>2020-05-23T11:08:10Z</time>
      </trkpt>
      <trkpt lat="45.12481" lon="4.64312">
        <ele>616.2</ele>
        <time>2020-05-23T11:08:14Z</time>
      </trkpt>
      <trkpt lat="45.12474" lon="4.643">
        <ele>616.4</ele>
        <time>2020-05-23T11:08:18Z</time>
      </trkpt>
      <trkpt lat="45.12466" lon="4.64289">
        <ele>617.4</ele>
        <time>2020-05-23T11:08:22Z</time>
      </trkpt>
      <trkpt lat="45.12457" lon="4.6428">
        <ele>617.4</ele>
        <time>2020-05-23T11:08:26Z</time>
      </trkpt>
      <trkpt lat="45.12446" lon="4.64272">
        <ele>617.6</ele>
        <time>2020-05-23T11:08:30Z</time>
      </trkpt>
      <trkpt lat="45.12435" lon="4.64265">
        <ele>618.8</ele>
        <time>2020-05-23T11:08:34Z</time>
      </trkpt>
      <trkpt lat="45.12424" lon="4.6426">
        <ele>619</ele>
        <time>2020-05-23T11:08:38Z</time>
      </trkpt>
      <trkpt lat="45.12414" lon="4.64255">
        <ele>619.6</ele>
        <time>2020-05-23T11:08:42Z</time>
      </trkpt>
      <trkpt lat="45.12405" lon="4.64249">
        <ele>620</ele>
        <time>2020-05-23T11:08:46Z</time>
      </trkpt>
      <trkpt lat="45.12397" lon="4.64243">
        <ele>620.6</ele>
        <time>2020-05-23T11:08:50Z</time>
      </trkpt>
      <trkpt lat="45.12387" lon="4.64236">
        <ele>620.6</ele>
        <time>2020-05-23T11:08:54Z</time>
      </trkpt>
      <trkpt lat="45.12375" lon="4.64228">
        <ele>620.8</ele>
        <time>2020-05-23T11:08:58Z</time>
      </trkpt>
      <trkpt lat="45.12365" lon="4.64218">
        <ele>621.2</ele>
        <time>2020-05-23T11:09:02Z</time>
      </trkpt>
      <trkpt lat="45.12356" lon="4.64209">
        <ele>622</ele>
        <time>2020-05-23T11:09:06Z</time>
      </trkpt>
      <trkpt lat="45.1235" lon="4.64197">
        <ele>622.4</ele>
        <time>2020-05-23T11:09:10Z</time>
      </trkpt>
      <trkpt lat="45.12344" lon="4.64185">
        <ele>623.2</ele>
        <time>2020-05-23T11:09:14Z</time>
      </trkpt>
      <trkpt lat="45.12337" lon="4.64171">
        <ele>623.8</ele>
        <time>2020-05-23T11:09:18Z</time>
      </trkpt>
      <trkpt lat="45.1233" lon="4.6416">
        <ele>623.2</ele>
        <time>2020-05-23T11:09:22Z</time>
      </trkpt>
      <trkpt lat="45.12322" lon="4.64148">
        <ele>623.8</ele>
        <time>2020-05-23T11:09:26Z</time>
      </trkpt>
      <trkpt lat="45.12314" lon="4.64138">
        <ele>624.4</ele>
        <time>2020-05-23T11:09:30Z</time>
      </trkpt>
      <trkpt lat="45.12306" lon="4.64129">
        <ele>624.2</ele>
        <time>2020-05-23T11:09:34Z</time>
      </trkpt>
      <trkpt lat="45.12296" lon="4.64119">
        <ele>624.4</ele>
        <time>2020-05-23T11:09:38Z</time>
      </trkpt>
      <trkpt lat="45.12287" lon="4.64112">
        <ele>624.6</ele>
        <time>2020-05-23T11:09:42Z</time>
      </trkpt>
      <trkpt lat="45.12276" lon="4.64104">
        <ele>624.4</ele>
        <time>2020-05-23T11:09:46Z</time>
      </trkpt>
      <trkpt lat="45.12265" lon="4.64097">
        <ele>625.2</ele>
        <time>2020-05-23T11:09:50Z</time>
      </trkpt>
      <trkpt lat="45.12253" lon="4.6409">
        <ele>625.6</ele>
        <time>2020-05-23T11:09:54Z</time>
      </trkpt>
      <trkpt lat="45.12242" lon="4.64081">
        <ele>625.8</ele>
        <time>2020-05-23T11:09:58Z</time>
      </trkpt>
      <trkpt lat="45.12233" lon="4.64072">
        <ele>626.6</ele>
        <time>2020-05-23T11:10:02Z</time>
      </trkpt>
      <trkpt lat="45.12226" lon="4.64062">
        <ele>626.4</ele>
        <time>2020-05-23T11:10:06Z</time>
      </trkpt>
      <trkpt lat="45.12218" lon="4.6405">
        <ele>626.4</ele>
        <time>2020-05-23T11:10:10Z</time>
      </trkpt>
      <trkpt lat="45.1221" lon="4.64039">
        <ele>626.6</ele>
        <time>2020-05-23T11:10:14Z</time>
      </trkpt>
      <trkpt lat="45.12203" lon="4.64029">
        <ele>627.4</ele>
        <time>2020-05-23T11:10:18Z</time>
      </trkpt>
      <trkpt lat="45.12195" lon="4.64018">
        <ele>627.4</ele>
        <time>2020-05-23T11:10:22Z</time>
      </trkpt>
      <trkpt lat="45.12186" lon="4.64008">
        <ele>627.6</ele>
        <time>2020-05-23T11:10:26Z</time>
      </trkpt>
      <trkpt lat="45.12177" lon="4.63997">
        <ele>627.8</ele>
        <time>2020-05-23T11:10:30Z</time>
      </trkpt>
      <trkpt lat="45.12169" lon="4.63986">
        <ele>628.4</ele>
        <time>2020-05-23T11:10:34Z</time>
      </trkpt>
      <trkpt lat="45.12163" lon="4.63973">
        <ele>628</ele>
        <time>2020-05-23T11:10:38Z</time>
      </trkpt>
      <trkpt lat="45.12159" lon="4.63959">
        <ele>628.8</ele>
        <time>2020-05-23T11:10:42Z</time>
      </trkpt>
      <trkpt lat="45.12156" lon="4.63944">
        <ele>629.2</ele>
        <time>2020-05-23T11:10:46Z</time>
      </trkpt>
      <trkpt lat="45.12155" lon="4.6393">
        <ele>629.6</ele>
        <time>2020-05-23T11:10:50Z</time>
      </trkpt>
      <trkpt lat="45.12155" lon="4.63916">
        <ele>629.4</ele>
        <time>2020-05-23T11:10:54Z</time>
      </trkpt>
      <trkpt lat="45.12154" lon="4.63902">
        <ele>629.4</ele>
        <time>2020-05-23T11:10:58Z</time>
      </trkpt>
      <trkpt lat="45.12153" lon="4.63887">
        <ele>629.8</ele>
        <time>2020-05-23T11:11:02Z</time>
      </trkpt>
      <trkpt lat="45.12154" lon="4.63872">
        <ele>629.8</ele>
        <time>2020-05-23T11:11:06Z</time>
      </trkpt>
      <trkpt lat="45.12155" lon="4.63859">
        <ele>629.4</ele>
        <time>2020-05-23T11:11:10Z</time>
      </trkpt>
      <trkpt lat="45.12156" lon="4.63845">
        <ele>629.8</ele>
        <time>2020-05-23T11:11:14Z</time>
      </trkpt>
      <trkpt lat="45.12154" lon="4.6383">
        <ele>630.2</ele>
        <time>2020-05-23T11:11:18Z</time>
      </trkpt>
      <trkpt lat="45.12147" lon="4.63812">
        <ele>630.2</ele>
        <time>2020-05-23T11:11:22Z</time>
      </trkpt>
      <trkpt lat="45.12136" lon="4.638">
        <ele>630</ele>
        <time>2020-05-23T11:11:26Z</time>
      </trkpt>
      <trkpt lat="45.12125" lon="4.63794">
        <ele>630.6</ele>
        <time>2020-05-23T11:11:30Z</time>
      </trkpt>
      <trkpt lat="45.12114" lon="4.63791">
        <ele>631</ele>
        <time>2020-05-23T11:11:34Z</time>
      </trkpt>
      <trkpt lat="45.12103" lon="4.6379">
        <ele>631.2</ele>
        <time>2020-05-23T11:11:38Z</time>
      </trkpt>
      <trkpt lat="45.12091" lon="4.63788">
        <ele>631.2</ele>
        <time>2020-05-23T11:11:42Z</time>
      </trkpt>
      <trkpt lat="45.12079" lon="4.63784">
        <ele>631.8</ele>
        <time>2020-05-23T11:11:46Z</time>
      </trkpt>
      <trkpt lat="45.12068" lon="4.63779">
        <ele>632</ele>
        <time>2020-05-23T11:11:50Z</time>
      </trkpt>
      <trkpt lat="45.12057" lon="4.63774">
        <ele>631.8</ele>
        <time>2020-05-23T11:11:54Z</time>
      </trkpt>
      <trkpt lat="45.12047" lon="4.63767">
        <ele>632.6</ele>
        <time>2020-05-23T11:11:58Z</time>
      </trkpt>
      <trkpt lat="45.12037" lon="4.6376">
        <ele>632.8</ele>
        <time>2020-05-23T11:12:02Z</time>
      </trkpt>
      <trkpt lat="45.12026" lon="4.63753">
        <ele>633.4</ele>
        <time>2020-05-23T11:12:06Z</time>
      </trkpt>
      <trkpt lat="45.12016" lon="4.63746">
        <ele>633.4</ele>
        <time>2020-05-23T11:12:10Z</time>
      </trkpt>
      <trkpt lat="45.12005" lon="4.63737">
        <ele>634.2</ele>
        <time>2020-05-23T11:12:14Z</time>
      </trkpt>
      <trkpt lat="45.11996" lon="4.63726">
        <ele>634.6</ele>
        <time>2020-05-23T11:12:18Z</time>
      </trkpt>
      <trkpt lat="45.11989" lon="4.63714">
        <ele>635.4</ele>
        <time>2020-05-23T11:12:22Z</time>
      </trkpt>
      <trkpt lat="45.11982" lon="4.63701">
        <ele>634.4</ele>
        <time>2020-05-23T11:12:26Z</time>
      </trkpt>
      <trkpt lat="45.11976" lon="4.63687">
        <ele>635</ele>
        <time>2020-05-23T11:12:30Z</time>
      </trkpt>
      <trkpt lat="45.11971" lon="4.63673">
        <ele>635.2</ele>
        <time>2020-05-23T11:12:34Z</time>
      </trkpt>
      <trkpt lat="45.11964" lon="4.63659">
        <ele>635.6</ele>
        <time>2020-05-23T11:12:38Z</time>
      </trkpt>
      <trkpt lat="45.11958" lon="4.63646">
        <ele>635.8</ele>
        <time>2020-05-23T11:12:42Z</time>
      </trkpt>
      <trkpt lat="45.11951" lon="4.63635">
        <ele>635.6</ele>
        <time>2020-05-23T11:12:46Z</time>
      </trkpt>
      <trkpt lat="45.11943" lon="4.63622">
        <ele>652.8</ele>
        <time>2020-05-23T11:12:50Z</time>
      </trkpt>
      <trkpt lat="45.11934" lon="4.63611">
        <ele>654</ele>
        <time>2020-05-23T11:12:54Z</time>
      </trkpt>
      <trkpt lat="45.11923" lon="4.63608">
        <ele>654.6</ele>
        <time>2020-05-23T11:12:58Z</time>
      </trkpt>
      <trkpt lat="45.11912" lon="4.63613">
        <ele>654.8</ele>
        <time>2020-05-23T11:13:02Z</time>
      </trkpt>
      <trkpt lat="45.11902" lon="4.63621">
        <ele>655.2</ele>
        <time>2020-05-23T11:13:06Z</time>
      </trkpt>
      <trkpt lat="45.11893" lon="4.63632">
        <ele>656</ele>
        <time>2020-05-23T11:13:10Z</time>
      </trkpt>
      <trkpt lat="45.11885" lon="4.63645">
        <ele>656.2</ele>
        <time>2020-05-23T11:13:14Z</time>
      </trkpt>
      <trkpt lat="45.11876" lon="4.63658">
        <ele>656.4</ele>
        <time>2020-05-23T11:13:18Z</time>
      </trkpt>
      <trkpt lat="45.11865" lon="4.63664">
        <ele>657.2</ele>
        <time>2020-05-23T11:13:22Z</time>
      </trkpt>
      <trkpt lat="45.11855" lon="4.63663">
        <ele>658</ele>
        <time>2020-05-23T11:13:26Z</time>
      </trkpt>
      <trkpt lat="45.11845" lon="4.63659">
        <ele>658.6</ele>
        <time>2020-05-23T11:13:30Z</time>
      </trkpt>
      <trkpt lat="45.11834" lon="4.63652">
        <ele>658.4</ele>
        <time>2020-05-23T11:13:34Z</time>
      </trkpt>
      <trkpt lat="45.11824" lon="4.63646">
        <ele>658.4</ele>
        <time>2020-05-23T11:13:38Z</time>
      </trkpt>
      <trkpt lat="45.11814" lon="4.63638">
        <ele>658.6</ele>
        <time>2020-05-23T11:13:42Z</time>
      </trkpt>
      <trkpt lat="45.11805" lon="4.63629">
        <ele>659</ele>
        <time>2020-05-23T11:13:46Z</time>
      </trkpt>
      <trkpt lat="45.11797" lon="4.63619">
        <ele>659.6</ele>
        <time>2020-05-23T11:13:50Z</time>
      </trkpt>
      <trkpt lat="45.11791" lon="4.63606">
        <ele>659.8</ele>
        <time>2020-05-23T11:13:54Z</time>
      </trkpt>
      <trkpt lat="45.11783" lon="4.63595">
        <ele>659.2</ele>
        <time>2020-05-23T11:13:58Z</time>
      </trkpt>
      <trkpt lat="45.11774" lon="4.63587">
        <ele>660</ele>
        <time>2020-05-23T11:14:02Z</time>
      </trkpt>
      <trkpt lat="45.11763" lon="4.63583">
        <ele>659.6</ele>
        <time>2020-05-23T11:14:06Z</time>
      </trkpt>
      <trkpt lat="45.11752" lon="4.6358">
        <ele>660</ele>
        <time>2020-05-23T11:14:10Z</time>
      </trkpt>
      <trkpt lat="45.1174" lon="4.63577">
        <ele>659.8</ele>
        <time>2020-05-23T11:14:14Z</time>
      </trkpt>
      <trkpt lat="45.11729" lon="4.63571">
        <ele>659.4</ele>
        <time>2020-05-23T11:14:18Z</time>
      </trkpt>
      <trkpt lat="45.11718" lon="4.63562">
        <ele>660</ele>
        <time>2020-05-23T11:14:22Z</time>
      </trkpt>
      <trkpt lat="45.11709" lon="4.63552">
        <ele>660.6</ele>
        <time>2020-05-23T11:14:26Z</time>
      </trkpt>
      <trkpt lat="45.11699" lon="4.6354">
        <ele>660</ele>
        <time>2020-05-23T11:14:30Z</time>
      </trkpt>
      <trkpt lat="45.1169" lon="4.63527">
        <ele>660</ele>
        <time>2020-05-23T11:14:34Z</time>
      </trkpt>
      <trkpt lat="45.11681" lon="4.63513">
        <ele>660.6</ele>
        <time>2020-05-23T11:14:38Z</time>
      </trkpt>
      <trkpt lat="45.11673" lon="4.63497">
        <ele>660.6</ele>
        <time>2020-05-23T11:14:42Z</time>
      </trkpt>
      <trkpt lat="45.11667" lon="4.63479">
        <ele>660</ele>
        <time>2020-05-23T11:14:46Z</time>
      </trkpt>
      <trkpt lat="45.11665" lon="4.63461">
        <ele>661</ele>
        <time>2020-05-23T11:14:50Z</time>
      </trkpt>
      <trkpt lat="45.11663" lon="4.63444">
        <ele>660.4</ele>
        <time>2020-05-23T11:14:54Z</time>
      </trkpt>
      <trkpt lat="45.11655" lon="4.63427">
        <ele>660.4</ele>
        <time>2020-05-23T11:14:58Z</time>
      </trkpt>
      <trkpt lat="45.11644" lon="4.63417">
        <ele>660.4</ele>
        <time>2020-05-23T11:15:02Z</time>
      </trkpt>
      <trkpt lat="45.11632" lon="4.63415">
        <ele>661</ele>
        <time>2020-05-23T11:15:06Z</time>
      </trkpt>
      <trkpt lat="45.11618" lon="4.63418">
        <ele>661</ele>
        <time>2020-05-23T11:15:10Z</time>
      </trkpt>
      <trkpt lat="45.11604" lon="4.63421">
        <ele>660.8</ele>
        <time>2020-05-23T11:15:14Z</time>
      </trkpt>
      <trkpt lat="45.1159" lon="4.63423">
        <ele>661</ele>
        <time>2020-05-23T11:15:18Z</time>
      </trkpt>
      <trkpt lat="45.11575" lon="4.6342">
        <ele>660.2</ele>
        <time>2020-05-23T11:15:22Z</time>
      </trkpt>
      <trkpt lat="45.11561" lon="4.63414">
        <ele>660.8</ele>
        <time>2020-05-23T11:15:26Z</time>
      </trkpt>
      <trkpt lat="45.11549" lon="4.63405">
        <ele>661</ele>
        <time>2020-05-23T11:15:30Z</time>
      </trkpt>
      <trkpt lat="45.11541" lon="4.63394">
        <ele>661</ele>
        <time>2020-05-23T11:15:34Z</time>
      </trkpt>
      <trkpt lat="45.11536" lon="4.63385">
        <ele>660.4</ele>
        <time>2020-05-23T11:15:38Z</time>
      </trkpt>
      <trkpt lat="45.11532" lon="4.63377">
        <ele>660</ele>
        <time>2020-05-23T11:15:42Z</time>
      </trkpt>
      <trkpt lat="45.11529" lon="4.63364">
        <ele>659.8</ele>
        <time>2020-05-23T11:15:46Z</time>
      </trkpt>
      <trkpt lat="45.11525" lon="4.63348">
        <ele>659.2</ele>
        <time>2020-05-23T11:15:50Z</time>
      </trkpt>
      <trkpt lat="45.11521" lon="4.63328">
        <ele>659.6</ele>
        <time>2020-05-23T11:15:54Z</time>
      </trkpt>
      <trkpt lat="45.11515" lon="4.63302">
        <ele>658.8</ele>
        <time>2020-05-23T11:15:58Z</time>
      </trkpt>
      <trkpt lat="45.11507" lon="4.63269">
        <ele>658.6</ele>
        <time>2020-05-23T11:16:02Z</time>
      </trkpt>
      <trkpt lat="45.11495" lon="4.63232">
        <ele>658</ele>
        <time>2020-05-23T11:16:06Z</time>
      </trkpt>
      <trkpt lat="45.11478" lon="4.63193">
        <ele>658</ele>
        <time>2020-05-23T11:16:10Z</time>
      </trkpt>
      <trkpt lat="45.11461" lon="4.63149">
        <ele>658</ele>
        <time>2020-05-23T11:16:14Z</time>
      </trkpt>
      <trkpt lat="45.11442" lon="4.63103">
        <ele>656.8</ele>
        <time>2020-05-23T11:16:18Z</time>
      </trkpt>
      <trkpt lat="45.11427" lon="4.63051">
        <ele>656.6</ele>
        <time>2020-05-23T11:16:22Z</time>
      </trkpt>
      <trkpt lat="45.11415" lon="4.62998">
        <ele>656.4</ele>
        <time>2020-05-23T11:16:26Z</time>
      </trkpt>
      <trkpt lat="45.11414" lon="4.6295">
        <ele>655.6</ele>
        <time>2020-05-23T11:16:30Z</time>
      </trkpt>
      <trkpt lat="45.11423" lon="4.62905">
        <ele>655.4</ele>
        <time>2020-05-23T11:16:34Z</time>
      </trkpt>
      <trkpt lat="45.1141" lon="4.62874">
        <ele>654.6</ele>
        <time>2020-05-23T11:16:38Z</time>
      </trkpt>
      <trkpt lat="45.11384" lon="4.62868">
        <ele>654.4</ele>
        <time>2020-05-23T11:16:42Z</time>
      </trkpt>
      <trkpt lat="45.11353" lon="4.6285">
        <ele>654.6</ele>
        <time>2020-05-23T11:16:46Z</time>
      </trkpt>
      <trkpt lat="45.11326" lon="4.62814">
        <ele>653.8</ele>
        <time>2020-05-23T11:16:50Z</time>
      </trkpt>
      <trkpt lat="45.11303" lon="4.62769">
        <ele>654.2</ele>
        <time>2020-05-23T11:16:54Z</time>
      </trkpt>
      <trkpt lat="45.11286" lon="4.62715">
        <ele>653.2</ele>
        <time>2020-05-23T11:16:58Z</time>
      </trkpt>
      <trkpt lat="45.11271" lon="4.6266">
        <ele>650.8</ele>
        <time>2020-05-23T11:17:02Z</time>
      </trkpt>
      <trkpt lat="45.11256" lon="4.62607">
        <ele>651.6</ele>
        <time>2020-05-23T11:17:06Z</time>
      </trkpt>
      <trkpt lat="45.1126" lon="4.62557">
        <ele>651</ele>
        <time>2020-05-23T11:17:10Z</time>
      </trkpt>
      <trkpt lat="45.11273" lon="4.62511">
        <ele>649.6</ele>
        <time>2020-05-23T11:17:14Z</time>
      </trkpt>
      <trkpt lat="45.11267" lon="4.62469">
        <ele>648</ele>
        <time>2020-05-23T11:17:18Z</time>
      </trkpt>
      <trkpt lat="45.11239" lon="4.62451">
        <ele>648.6</ele>
        <time>2020-05-23T11:17:22Z</time>
      </trkpt>
      <trkpt lat="45.11206" lon="4.62439">
        <ele>648.6</ele>
        <time>2020-05-23T11:17:26Z</time>
      </trkpt>
      <trkpt lat="45.11172" lon="4.62413">
        <ele>647</ele>
        <time>2020-05-23T11:17:30Z</time>
      </trkpt>
      <trkpt lat="45.1115" lon="4.62367">
        <ele>646.6</ele>
        <time>2020-05-23T11:17:34Z</time>
      </trkpt>
      <trkpt lat="45.11142" lon="4.6231">
        <ele>645.8</ele>
        <time>2020-05-23T11:17:38Z</time>
      </trkpt>
      <trkpt lat="45.11119" lon="4.6226">
        <ele>645</ele>
        <time>2020-05-23T11:17:42Z</time>
      </trkpt>
      <trkpt lat="45.11088" lon="4.62216">
        <ele>645.2</ele>
        <time>2020-05-23T11:17:46Z</time>
      </trkpt>
      <trkpt lat="45.11057" lon="4.62169">
        <ele>643.8</ele>
        <time>2020-05-23T11:17:50Z</time>
      </trkpt>
      <trkpt lat="45.11034" lon="4.6212">
        <ele>642.6</ele>
        <time>2020-05-23T11:17:54Z</time>
      </trkpt>
      <trkpt lat="45.11017" lon="4.6207">
        <ele>641.4</ele>
        <time>2020-05-23T11:17:58Z</time>
      </trkpt>
      <trkpt lat="45.10984" lon="4.62053">
        <ele>640.2</ele>
        <time>2020-05-23T11:18:02Z</time>
      </trkpt>
      <trkpt lat="45.10947" lon="4.62032">
        <ele>639.4</ele>
        <time>2020-05-23T11:18:06Z</time>
      </trkpt>
      <trkpt lat="45.10911" lon="4.62001">
        <ele>639.4</ele>
        <time>2020-05-23T11:18:10Z</time>
      </trkpt>
      <trkpt lat="45.10873" lon="4.61973">
        <ele>637.2</ele>
        <time>2020-05-23T11:18:14Z</time>
      </trkpt>
      <trkpt lat="45.10835" lon="4.61941">
        <ele>636.2</ele>
        <time>2020-05-23T11:18:18Z</time>
      </trkpt>
      <trkpt lat="45.10797" lon="4.61908">
        <ele>635.6</ele>
        <time>2020-05-23T11:18:22Z</time>
      </trkpt>
      <trkpt lat="45.10759" lon="4.61877">
        <ele>634.2</ele>
        <time>2020-05-23T11:18:26Z</time>
      </trkpt>
      <trkpt lat="45.10715" lon="4.61855">
        <ele>633.4</ele>
        <time>2020-05-23T11:18:30Z</time>
      </trkpt>
      <trkpt lat="45.1067" lon="4.61834">
        <ele>632.2</ele>
        <time>2020-05-23T11:18:34Z</time>
      </trkpt>
      <trkpt lat="45.10625" lon="4.61812">
        <ele>631</ele>
        <time>2020-05-23T11:18:38Z</time>
      </trkpt>
      <trkpt lat="45.10586" lon="4.61778">
        <ele>628.8</ele>
        <time>2020-05-23T11:18:42Z</time>
      </trkpt>
      <trkpt lat="45.10562" lon="4.61726">
        <ele>628.2</ele>
        <time>2020-05-23T11:18:46Z</time>
      </trkpt>
      <trkpt lat="45.10549" lon="4.61668">
        <ele>626.8</ele>
        <time>2020-05-23T11:18:50Z</time>
      </trkpt>
      <trkpt lat="45.10541" lon="4.61612">
        <ele>625.2</ele>
        <time>2020-05-23T11:18:54Z</time>
      </trkpt>
      <trkpt lat="45.10553" lon="4.61564">
        <ele>624.2</ele>
        <time>2020-05-23T11:18:58Z</time>
      </trkpt>
      <trkpt lat="45.10557" lon="4.61522">
        <ele>623.6</ele>
        <time>2020-05-23T11:19:02Z</time>
      </trkpt>
      <trkpt lat="45.10534" lon="4.61504">
        <ele>621.6</ele>
        <time>2020-05-23T11:19:06Z</time>
      </trkpt>
      <trkpt lat="45.10516" lon="4.61515">
        <ele>621.2</ele>
        <time>2020-05-23T11:19:10Z</time>
      </trkpt>
      <trkpt lat="45.10502" lon="4.61527">
        <ele>613.4</ele>
        <time>2020-05-23T11:19:14Z</time>
      </trkpt>
      <trkpt lat="45.10489" lon="4.61537">
        <ele>619.8</ele>
        <time>2020-05-23T11:19:18Z</time>
      </trkpt>
      <trkpt lat="45.10477" lon="4.61544">
        <ele>619.2</ele>
        <time>2020-05-23T11:19:22Z</time>
      </trkpt>
      <trkpt lat="45.10463" lon="4.6155">
        <ele>618.8</ele>
        <time>2020-05-23T11:19:26Z</time>
      </trkpt>
      <trkpt lat="45.10447" lon="4.61548">
        <ele>617.8</ele>
        <time>2020-05-23T11:19:30Z</time>
      </trkpt>
      <trkpt lat="45.10433" lon="4.6154">
        <ele>617.4</ele>
        <time>2020-05-23T11:19:34Z</time>
      </trkpt>
      <trkpt lat="45.10419" lon="4.61531">
        <ele>616.6</ele>
        <time>2020-05-23T11:19:38Z</time>
      </trkpt>
      <trkpt lat="45.10404" lon="4.61527">
        <ele>615.2</ele>
        <time>2020-05-23T11:19:42Z</time>
      </trkpt>
      <trkpt lat="45.10391" lon="4.61536">
        <ele>614.8</ele>
        <time>2020-05-23T11:19:46Z</time>
      </trkpt>
      <trkpt lat="45.10385" lon="4.6155">
        <ele>614.8</ele>
        <time>2020-05-23T11:19:50Z</time>
      </trkpt>
      <trkpt lat="45.10385" lon="4.61566">
        <ele>613.8</ele>
        <time>2020-05-23T11:19:54Z</time>
      </trkpt>
      <trkpt lat="45.10387" lon="4.61582">
        <ele>613.2</ele>
        <time>2020-05-23T11:19:58Z</time>
      </trkpt>
      <trkpt lat="45.10389" lon="4.61598">
        <ele>612.2</ele>
        <time>2020-05-23T11:20:02Z</time>
      </trkpt>
      <trkpt lat="45.10393" lon="4.61613">
        <ele>611.4</ele>
        <time>2020-05-23T11:20:06Z</time>
      </trkpt>
      <trkpt lat="45.10396" lon="4.61628">
        <ele>610.6</ele>
        <time>2020-05-23T11:20:10Z</time>
      </trkpt>
      <trkpt lat="45.10398" lon="4.61643">
        <ele>610.4</ele>
        <time>2020-05-23T11:20:14Z</time>
      </trkpt>
      <trkpt lat="45.10398" lon="4.61658">
        <ele>610.2</ele>
        <time>2020-05-23T11:20:18Z</time>
      </trkpt>
      <trkpt lat="45.10396" lon="4.61675">
        <ele>609.6</ele>
        <time>2020-05-23T11:20:22Z</time>
      </trkpt>
      <trkpt lat="45.10394" lon="4.61691">
        <ele>609</ele>
        <time>2020-05-23T11:20:26Z</time>
      </trkpt>
      <trkpt lat="45.10392" lon="4.61707">
        <ele>608.4</ele>
        <time>2020-05-23T11:20:30Z</time>
      </trkpt>
      <trkpt lat="45.1039" lon="4.61723">
        <ele>607.4</ele>
        <time>2020-05-23T11:20:34Z</time>
      </trkpt>
      <trkpt lat="45.1039" lon="4.61739">
        <ele>607.2</ele>
        <time>2020-05-23T11:20:38Z</time>
      </trkpt>
      <trkpt lat="45.1039" lon="4.61754">
        <ele>606.8</ele>
        <time>2020-05-23T11:20:42Z</time>
      </trkpt>
      <trkpt lat="45.10391" lon="4.61769">
        <ele>606.2</ele>
        <time>2020-05-23T11:20:46Z</time>
      </trkpt>
      <trkpt lat="45.10393" lon="4.61783">
        <ele>606.4</ele>
        <time>2020-05-23T11:20:50Z</time>
      </trkpt>
      <trkpt lat="45.10394" lon="4.61798">
        <ele>605.6</ele>
        <time>2020-05-23T11:20:54Z</time>
      </trkpt>
      <trkpt lat="45.10396" lon="4.61812">
        <ele>604.8</ele>
        <time>2020-05-23T11:20:58Z</time>
      </trkpt>
      <trkpt lat="45.10397" lon="4.61826">
        <ele>604.6</ele>
        <time>2020-05-23T11:21:02Z</time>
      </trkpt>
      <trkpt lat="45.10397" lon="4.61838">
        <ele>604.2</ele>
        <time>2020-05-23T11:21:06Z</time>
      </trkpt>
      <trkpt lat="45.10397" lon="4.61849">
        <ele>604.4</ele>
        <time>2020-05-23T11:21:10Z</time>
      </trkpt>
      <trkpt lat="45.10396" lon="4.61861">
        <ele>603.8</ele>
        <time>2020-05-23T11:21:14Z</time>
      </trkpt>
      <trkpt lat="45.10393" lon="4.61873">
        <ele>604.2</ele>
        <time>2020-05-23T11:21:18Z</time>
      </trkpt>
      <trkpt lat="45.10391" lon="4.61884">
        <ele>604</ele>
        <time>2020-05-23T11:21:22Z</time>
      </trkpt>
      <trkpt lat="45.1039" lon="4.61898">
        <ele>604</ele>
        <time>2020-05-23T11:21:26Z</time>
      </trkpt>
      <trkpt lat="45.10385" lon="4.61909">
        <ele>603.6</ele>
        <time>2020-05-23T11:21:30Z</time>
      </trkpt>
      <trkpt lat="45.10378" lon="4.61922">
        <ele>603.8</ele>
        <time>2020-05-23T11:21:34Z</time>
      </trkpt>
      <trkpt lat="45.10365" lon="4.61931">
        <ele>603.2</ele>
        <time>2020-05-23T11:21:38Z</time>
      </trkpt>
      <trkpt lat="45.10349" lon="4.61933">
        <ele>602.8</ele>
        <time>2020-05-23T11:21:42Z</time>
      </trkpt>
      <trkpt lat="45.10332" lon="4.61932">
        <ele>602.6</ele>
        <time>2020-05-23T11:21:46Z</time>
      </trkpt>
      <trkpt lat="45.10312" lon="4.61932">
        <ele>602.2</ele>
        <time>2020-05-23T11:21:50Z</time>
      </trkpt>
      <trkpt lat="45.10287" lon="4.61932">
        <ele>602.2</ele>
        <time>2020-05-23T11:21:54Z</time>
      </trkpt>
      <trkpt lat="45.10261" lon="4.6194">
        <ele>602.2</ele>
        <time>2020-05-23T11:21:58Z</time>
      </trkpt>
      <trkpt lat="45.10236" lon="4.61962">
        <ele>601.6</ele>
        <time>2020-05-23T11:22:02Z</time>
      </trkpt>
      <trkpt lat="45.10212" lon="4.61985">
        <ele>601.6</ele>
        <time>2020-05-23T11:22:06Z</time>
      </trkpt>
      <trkpt lat="45.10189" lon="4.62006">
        <ele>601.8</ele>
        <time>2020-05-23T11:22:10Z</time>
      </trkpt>
      <trkpt lat="45.10166" lon="4.62028">
        <ele>601.4</ele>
        <time>2020-05-23T11:22:14Z</time>
      </trkpt>
      <trkpt lat="45.10144" lon="4.62051">
        <ele>601.6</ele>
        <time>2020-05-23T11:22:18Z</time>
      </trkpt>
      <trkpt lat="45.10124" lon="4.62078">
        <ele>601.6</ele>
        <time>2020-05-23T11:22:22Z</time>
      </trkpt>
      <trkpt lat="45.10108" lon="4.6211">
        <ele>602</ele>
        <time>2020-05-23T11:22:26Z</time>
      </trkpt>
      <trkpt lat="45.10093" lon="4.62145">
        <ele>601.8</ele>
        <time>2020-05-23T11:22:30Z</time>
      </trkpt>
      <trkpt lat="45.10071" lon="4.62177">
        <ele>602.2</ele>
        <time>2020-05-23T11:22:34Z</time>
      </trkpt>
      <trkpt lat="45.10051" lon="4.62205">
        <ele>602.6</ele>
        <time>2020-05-23T11:22:38Z</time>
      </trkpt>
      <trkpt lat="45.10025" lon="4.62219">
        <ele>602.6</ele>
        <time>2020-05-23T11:22:42Z</time>
      </trkpt>
      <trkpt lat="45.09999" lon="4.62217">
        <ele>602.8</ele>
        <time>2020-05-23T11:22:46Z</time>
      </trkpt>
      <trkpt lat="45.09975" lon="4.62228">
        <ele>602.6</ele>
        <time>2020-05-23T11:22:50Z</time>
      </trkpt>
      <trkpt lat="45.09961" lon="4.62256">
        <ele>603</ele>
        <time>2020-05-23T11:22:54Z</time>
      </trkpt>
      <trkpt lat="45.09946" lon="4.62287">
        <ele>602.8</ele>
        <time>2020-05-23T11:22:58Z</time>
      </trkpt>
      <trkpt lat="45.09927" lon="4.62309">
        <ele>602.8</ele>
        <time>2020-05-23T11:23:02Z</time>
      </trkpt>
      <trkpt lat="45.09903" lon="4.62322">
        <ele>603.8</ele>
        <time>2020-05-23T11:23:06Z</time>
      </trkpt>
      <trkpt lat="45.09877" lon="4.62329">
        <ele>603.8</ele>
        <time>2020-05-23T11:23:10Z</time>
      </trkpt>
      <trkpt lat="45.09852" lon="4.62345">
        <ele>603.8</ele>
        <time>2020-05-23T11:23:14Z</time>
      </trkpt>
      <trkpt lat="45.0983" lon="4.62373">
        <ele>602.8</ele>
        <time>2020-05-23T11:23:18Z</time>
      </trkpt>
      <trkpt lat="45.09813" lon="4.62401">
        <ele>603.2</ele>
        <time>2020-05-23T11:23:22Z</time>
      </trkpt>
      <trkpt lat="45.09792" lon="4.62431">
        <ele>603.2</ele>
        <time>2020-05-23T11:23:26Z</time>
      </trkpt>
      <trkpt lat="45.09766" lon="4.62439">
        <ele>603.6</ele>
        <time>2020-05-23T11:23:30Z</time>
      </trkpt>
      <trkpt lat="45.09737" lon="4.6244">
        <ele>603.2</ele>
        <time>2020-05-23T11:23:34Z</time>
      </trkpt>
      <trkpt lat="45.0972" lon="4.62472">
        <ele>602.6</ele>
        <time>2020-05-23T11:23:38Z</time>
      </trkpt>
      <trkpt lat="45.09718" lon="4.62511">
        <ele>602.6</ele>
        <time>2020-05-23T11:23:42Z</time>
      </trkpt>
      <trkpt lat="45.09719" lon="4.62544">
        <ele>602.4</ele>
        <time>2020-05-23T11:23:46Z</time>
      </trkpt>
      <trkpt lat="45.09721" lon="4.62576">
        <ele>602</ele>
        <time>2020-05-23T11:23:50Z</time>
      </trkpt>
      <trkpt lat="45.09715" lon="4.62603">
        <ele>602.2</ele>
        <time>2020-05-23T11:23:54Z</time>
      </trkpt>
      <trkpt lat="45.09706" lon="4.6263">
        <ele>602.6</ele>
        <time>2020-05-23T11:23:58Z</time>
      </trkpt>
      <trkpt lat="45.09693" lon="4.62652">
        <ele>602.8</ele>
        <time>2020-05-23T11:24:02Z</time>
      </trkpt>
      <trkpt lat="45.09678" lon="4.6268">
        <ele>603.2</ele>
        <time>2020-05-23T11:24:06Z</time>
      </trkpt>
      <trkpt lat="45.09666" lon="4.62712">
        <ele>602.8</ele>
        <time>2020-05-23T11:24:10Z</time>
      </trkpt>
      <trkpt lat="45.0966" lon="4.62748">
        <ele>603.8</ele>
        <time>2020-05-23T11:24:14Z</time>
      </trkpt>
      <trkpt lat="45.09658" lon="4.6279">
        <ele>604.2</ele>
        <time>2020-05-23T11:24:18Z</time>
      </trkpt>
      <trkpt lat="45.09656" lon="4.62839">
        <ele>603.8</ele>
        <time>2020-05-23T11:24:22Z</time>
      </trkpt>
      <trkpt lat="45.09648" lon="4.62882">
        <ele>603.8</ele>
        <time>2020-05-23T11:24:26Z</time>
      </trkpt>
      <trkpt lat="45.09631" lon="4.62917">
        <ele>603.6</ele>
        <time>2020-05-23T11:24:30Z</time>
      </trkpt>
      <trkpt lat="45.09606" lon="4.62937">
        <ele>603</ele>
        <time>2020-05-23T11:24:34Z</time>
      </trkpt>
      <trkpt lat="45.09578" lon="4.62952">
        <ele>603</ele>
        <time>2020-05-23T11:24:38Z</time>
      </trkpt>
      <trkpt lat="45.0955" lon="4.62965">
        <ele>602.8</ele>
        <time>2020-05-23T11:24:42Z</time>
      </trkpt>
      <trkpt lat="45.09525" lon="4.6297">
        <ele>601.6</ele>
        <time>2020-05-23T11:24:46Z</time>
      </trkpt>
      <trkpt lat="45.09503" lon="4.62958">
        <ele>602.2</ele>
        <time>2020-05-23T11:24:50Z</time>
      </trkpt>
      <trkpt lat="45.09485" lon="4.62934">
        <ele>601.4</ele>
        <time>2020-05-23T11:24:54Z</time>
      </trkpt>
      <trkpt lat="45.09469" lon="4.62908">
        <ele>601.4</ele>
        <time>2020-05-23T11:24:58Z</time>
      </trkpt>
      <trkpt lat="45.09453" lon="4.62884">
        <ele>601.2</ele>
        <time>2020-05-23T11:25:02Z</time>
      </trkpt>
      <trkpt lat="45.09438" lon="4.62863">
        <ele>601</ele>
        <time>2020-05-23T11:25:06Z</time>
      </trkpt>
      <trkpt lat="45.09424" lon="4.62845">
        <ele>600.4</ele>
        <time>2020-05-23T11:25:10Z</time>
      </trkpt>
      <trkpt lat="45.09407" lon="4.62835">
        <ele>600.4</ele>
        <time>2020-05-23T11:25:14Z</time>
      </trkpt>
      <trkpt lat="45.09391" lon="4.62848">
        <ele>599.8</ele>
        <time>2020-05-23T11:25:18Z</time>
      </trkpt>
      <trkpt lat="45.09383" lon="4.62872">
        <ele>599.6</ele>
        <time>2020-05-23T11:25:22Z</time>
      </trkpt>
      <trkpt lat="45.09378" lon="4.62898">
        <ele>599.4</ele>
        <time>2020-05-23T11:25:26Z</time>
      </trkpt>
      <trkpt lat="45.09375" lon="4.62927">
        <ele>599.2</ele>
        <time>2020-05-23T11:25:30Z</time>
      </trkpt>
      <trkpt lat="45.09376" lon="4.62954">
        <ele>599.2</ele>
        <time>2020-05-23T11:25:34Z</time>
      </trkpt>
      <trkpt lat="45.09377" lon="4.62982">
        <ele>598.8</ele>
        <time>2020-05-23T11:25:38Z</time>
      </trkpt>
      <trkpt lat="45.09378" lon="4.6301">
        <ele>598.8</ele>
        <time>2020-05-23T11:25:42Z</time>
      </trkpt>
      <trkpt lat="45.09377" lon="4.63036">
        <ele>598.6</ele>
        <time>2020-05-23T11:25:46Z</time>
      </trkpt>
      <trkpt lat="45.09372" lon="4.63063">
        <ele>598.2</ele>
        <time>2020-05-23T11:25:50Z</time>
      </trkpt>
      <trkpt lat="45.09361" lon="4.63089">
        <ele>597.6</ele>
        <time>2020-05-23T11:25:54Z</time>
      </trkpt>
      <trkpt lat="45.09349" lon="4.63112">
        <ele>598.2</ele>
        <time>2020-05-23T11:25:58Z</time>
      </trkpt>
      <trkpt lat="45.09335" lon="4.63135">
        <ele>598.6</ele>
        <time>2020-05-23T11:26:02Z</time>
      </trkpt>
      <trkpt lat="45.09321" lon="4.63154">
        <ele>598.2</ele>
        <time>2020-05-23T11:26:06Z</time>
      </trkpt>
      <trkpt lat="45.09304" lon="4.63174">
        <ele>598.8</ele>
        <time>2020-05-23T11:26:10Z</time>
      </trkpt>
      <trkpt lat="45.09284" lon="4.63187">
        <ele>597.8</ele>
        <time>2020-05-23T11:26:14Z</time>
      </trkpt>
      <trkpt lat="45.09264" lon="4.63188">
        <ele>597.6</ele>
        <time>2020-05-23T11:26:18Z</time>
      </trkpt>
      <trkpt lat="45.09244" lon="4.63182">
        <ele>597.2</ele>
        <time>2020-05-23T11:26:22Z</time>
      </trkpt>
      <trkpt lat="45.09224" lon="4.63174">
        <ele>597.2</ele>
        <time>2020-05-23T11:26:26Z</time>
      </trkpt>
      <trkpt lat="45.09207" lon="4.6316">
        <ele>596.8</ele>
        <time>2020-05-23T11:26:30Z</time>
      </trkpt>
      <trkpt lat="45.09194" lon="4.63137">
        <ele>596.6</ele>
        <time>2020-05-23T11:26:34Z</time>
      </trkpt>
      <trkpt lat="45.09186" lon="4.63109">
        <ele>596.8</ele>
        <time>2020-05-23T11:26:38Z</time>
      </trkpt>
      <trkpt lat="45.09177" lon="4.63082">
        <ele>596.6</ele>
        <time>2020-05-23T11:26:42Z</time>
      </trkpt>
      <trkpt lat="45.09163" lon="4.6306">
        <ele>595.8</ele>
        <time>2020-05-23T11:26:46Z</time>
      </trkpt>
      <trkpt lat="45.09147" lon="4.63044">
        <ele>595.8</ele>
        <time>2020-05-23T11:26:50Z</time>
      </trkpt>
      <trkpt lat="45.09131" lon="4.63033">
        <ele>595.2</ele>
        <time>2020-05-23T11:26:54Z</time>
      </trkpt>
      <trkpt lat="45.09117" lon="4.63023">
        <ele>594.8</ele>
        <time>2020-05-23T11:26:58Z</time>
      </trkpt>
      <trkpt lat="45.09104" lon="4.63011">
        <ele>594.8</ele>
        <time>2020-05-23T11:27:02Z</time>
      </trkpt>
      <trkpt lat="45.09089" lon="4.62997">
        <ele>595.2</ele>
        <time>2020-05-23T11:27:06Z</time>
      </trkpt>
      <trkpt lat="45.0907" lon="4.62986">
        <ele>595.6</ele>
        <time>2020-05-23T11:27:10Z</time>
      </trkpt>
      <trkpt lat="45.09053" lon="4.62973">
        <ele>595.6</ele>
        <time>2020-05-23T11:27:14Z</time>
      </trkpt>
      <trkpt lat="45.09036" lon="4.62962">
        <ele>595.6</ele>
        <time>2020-05-23T11:27:18Z</time>
      </trkpt>
      <trkpt lat="45.09018" lon="4.6295">
        <ele>595.8</ele>
        <time>2020-05-23T11:27:22Z</time>
      </trkpt>
      <trkpt lat="45.09001" lon="4.62936">
        <ele>596.4</ele>
        <time>2020-05-23T11:27:26Z</time>
      </trkpt>
      <trkpt lat="45.08983" lon="4.62925">
        <ele>596.2</ele>
        <time>2020-05-23T11:27:30Z</time>
      </trkpt>
      <trkpt lat="45.08966" lon="4.62912">
        <ele>596.8</ele>
        <time>2020-05-23T11:27:34Z</time>
      </trkpt>
      <trkpt lat="45.08947" lon="4.629">
        <ele>596.8</ele>
        <time>2020-05-23T11:27:38Z</time>
      </trkpt>
      <trkpt lat="45.0893" lon="4.6289">
        <ele>596.2</ele>
        <time>2020-05-23T11:27:42Z</time>
      </trkpt>
      <trkpt lat="45.08914" lon="4.62879">
        <ele>596.8</ele>
        <time>2020-05-23T11:27:46Z</time>
      </trkpt>
      <trkpt lat="45.08901" lon="4.62868">
        <ele>596.6</ele>
        <time>2020-05-23T11:27:50Z</time>
      </trkpt>
      <trkpt lat="45.08887" lon="4.62861">
        <ele>596.6</ele>
        <time>2020-05-23T11:27:54Z</time>
      </trkpt>
      <trkpt lat="45.08875" lon="4.62854">
        <ele>596.8</ele>
        <time>2020-05-23T11:27:58Z</time>
      </trkpt>
      <trkpt lat="45.08864" lon="4.62847">
        <ele>595.8</ele>
        <time>2020-05-23T11:28:02Z</time>
      </trkpt>
      <trkpt lat="45.08851" lon="4.62844">
        <ele>595.4</ele>
        <time>2020-05-23T11:28:06Z</time>
      </trkpt>
      <trkpt lat="45.08842" lon="4.62852">
        <ele>596</ele>
        <time>2020-05-23T11:28:10Z</time>
      </trkpt>
      <trkpt lat="45.08849" lon="4.62869">
        <ele>596.2</ele>
        <time>2020-05-23T11:28:14Z</time>
      </trkpt>
      <trkpt lat="45.08862" lon="4.62881">
        <ele>596.2</ele>
        <time>2020-05-23T11:28:18Z</time>
      </trkpt>
      <trkpt lat="45.08879" lon="4.6289">
        <ele>595.8</ele>
        <time>2020-05-23T11:28:22Z</time>
      </trkpt>
      <trkpt lat="45.08897" lon="4.62903">
        <ele>596.4</ele>
        <time>2020-05-23T11:28:26Z</time>
      </trkpt>
      <trkpt lat="45.08915" lon="4.62917">
        <ele>596.2</ele>
        <time>2020-05-23T11:28:30Z</time>
      </trkpt>
      <trkpt lat="45.08933" lon="4.62931">
        <ele>595.6</ele>
        <time>2020-05-23T11:28:34Z</time>
      </trkpt>
      <trkpt lat="45.0895" lon="4.62947">
        <ele>595.8</ele>
        <time>2020-05-23T11:28:38Z</time>
      </trkpt>
      <trkpt lat="45.08966" lon="4.62962">
        <ele>596.6</ele>
        <time>2020-05-23T11:28:42Z</time>
      </trkpt>
      <trkpt lat="45.08985" lon="4.62978">
        <ele>596.8</ele>
        <time>2020-05-23T11:28:46Z</time>
      </trkpt>
      <trkpt lat="45.09004" lon="4.62995">
        <ele>596.6</ele>
        <time>2020-05-23T11:28:50Z</time>
      </trkpt>
      <trkpt lat="45.09026" lon="4.63015">
        <ele>597</ele>
        <time>2020-05-23T11:28:54Z</time>
      </trkpt>
      <trkpt lat="45.09045" lon="4.63038">
        <ele>597</ele>
        <time>2020-05-23T11:28:58Z</time>
      </trkpt>
      <trkpt lat="45.09064" lon="4.63064">
        <ele>597</ele>
        <time>2020-05-23T11:29:02Z</time>
      </trkpt>
      <trkpt lat="45.09081" lon="4.63091">
        <ele>597.4</ele>
        <time>2020-05-23T11:29:06Z</time>
      </trkpt>
      <trkpt lat="45.09098" lon="4.63123">
        <ele>597.6</ele>
        <time>2020-05-23T11:29:10Z</time>
      </trkpt>
      <trkpt lat="45.09112" lon="4.63158">
        <ele>598</ele>
        <time>2020-05-23T11:29:14Z</time>
      </trkpt>
      <trkpt lat="45.09124" lon="4.63194">
        <ele>597.8</ele>
        <time>2020-05-23T11:29:18Z</time>
      </trkpt>
      <trkpt lat="45.09131" lon="4.63232">
        <ele>597.4</ele>
        <time>2020-05-23T11:29:22Z</time>
      </trkpt>
      <trkpt lat="45.09135" lon="4.63272">
        <ele>597.4</ele>
        <time>2020-05-23T11:29:26Z</time>
      </trkpt>
      <trkpt lat="45.09132" lon="4.63305">
        <ele>597.6</ele>
        <time>2020-05-23T11:29:30Z</time>
      </trkpt>
      <trkpt lat="45.09129" lon="4.63337">
        <ele>597.8</ele>
        <time>2020-05-23T11:29:34Z</time>
      </trkpt>
      <trkpt lat="45.09131" lon="4.63369">
        <ele>597.4</ele>
        <time>2020-05-23T11:29:38Z</time>
      </trkpt>
      <trkpt lat="45.09138" lon="4.63401">
        <ele>598</ele>
        <time>2020-05-23T11:29:42Z</time>
      </trkpt>
      <trkpt lat="45.09148" lon="4.63431">
        <ele>598.4</ele>
        <time>2020-05-23T11:29:46Z</time>
      </trkpt>
      <trkpt lat="45.09161" lon="4.63456">
        <ele>598.4</ele>
        <time>2020-05-23T11:29:50Z</time>
      </trkpt>
      <trkpt lat="45.0918" lon="4.63469">
        <ele>598.8</ele>
        <time>2020-05-23T11:29:54Z</time>
      </trkpt>
      <trkpt lat="45.09202" lon="4.63465">
        <ele>598.8</ele>
        <time>2020-05-23T11:29:58Z</time>
      </trkpt>
      <trkpt lat="45.09219" lon="4.63448">
        <ele>599</ele>
        <time>2020-05-23T11:30:02Z</time>
      </trkpt>
      <trkpt lat="45.09233" lon="4.63423">
        <ele>599</ele>
        <time>2020-05-23T11:30:06Z</time>
      </trkpt>
      <trkpt lat="45.09249" lon="4.63399">
        <ele>599.2</ele>
        <time>2020-05-23T11:30:10Z</time>
      </trkpt>
      <trkpt lat="45.09265" lon="4.6338">
        <ele>599.2</ele>
        <time>2020-05-23T11:30:14Z</time>
      </trkpt>
      <trkpt lat="45.0928" lon="4.63365">
        <ele>599.6</ele>
        <time>2020-05-23T11:30:18Z</time>
      </trkpt>
      <trkpt lat="45.09303" lon="4.63351">
        <ele>599.8</ele>
        <time>2020-05-23T11:30:22Z</time>
      </trkpt>
      <trkpt lat="45.09328" lon="4.63332">
        <ele>599.4</ele>
        <time>2020-05-23T11:30:26Z</time>
      </trkpt>
      <trkpt lat="45.09351" lon="4.6331">
        <ele>599.4</ele>
        <time>2020-05-23T11:30:30Z</time>
      </trkpt>
      <trkpt lat="45.09376" lon="4.63293">
        <ele>599.6</ele>
        <time>2020-05-23T11:30:34Z</time>
      </trkpt>
      <trkpt lat="45.09402" lon="4.63281">
        <ele>600.2</ele>
        <time>2020-05-23T11:30:38Z</time>
      </trkpt>
      <trkpt lat="45.0943" lon="4.63268">
        <ele>600.2</ele>
        <time>2020-05-23T11:30:42Z</time>
      </trkpt>
      <trkpt lat="45.0946" lon="4.63274">
        <ele>600.2</ele>
        <time>2020-05-23T11:30:46Z</time>
      </trkpt>
      <trkpt lat="45.09475" lon="4.63308">
        <ele>599.6</ele>
        <time>2020-05-23T11:30:50Z</time>
      </trkpt>
      <trkpt lat="45.09467" lon="4.63335">
        <ele>599.8</ele>
        <time>2020-05-23T11:30:54Z</time>
      </trkpt>
      <trkpt lat="45.09454" lon="4.63345">
        <ele>599.6</ele>
        <time>2020-05-23T11:30:58Z</time>
      </trkpt>
      <trkpt lat="45.09443" lon="4.63355">
        <ele>600</ele>
        <time>2020-05-23T11:31:02Z</time>
      </trkpt>
      <trkpt lat="45.09434" lon="4.63367">
        <ele>599.4</ele>
        <time>2020-05-23T11:31:06Z</time>
      </trkpt>
      <trkpt lat="45.09428" lon="4.63382">
        <ele>599.2</ele>
        <time>2020-05-23T11:31:10Z</time>
      </trkpt>
      <trkpt lat="45.09425" lon="4.63397">
        <ele>600</ele>
        <time>2020-05-23T11:31:14Z</time>
      </trkpt>
      <trkpt lat="45.09424" lon="4.63413">
        <ele>599.8</ele>
        <time>2020-05-23T11:31:18Z</time>
      </trkpt>
      <trkpt lat="45.09423" lon="4.63429">
        <ele>599.4</ele>
        <time>2020-05-23T11:31:22Z</time>
      </trkpt>
      <trkpt lat="45.09421" lon="4.63442">
        <ele>599.4</ele>
        <time>2020-05-23T11:31:26Z</time>
      </trkpt>
      <trkpt lat="45.09418" lon="4.63455">
        <ele>599.6</ele>
        <time>2020-05-23T11:31:30Z</time>
      </trkpt>
      <trkpt lat="45.09414" lon="4.63468">
        <ele>599.4</ele>
        <time>2020-05-23T11:31:34Z</time>
      </trkpt>
      <trkpt lat="45.0941" lon="4.63482">
        <ele>599.2</ele>
        <time>2020-05-23T11:31:38Z</time>
      </trkpt>
      <trkpt lat="45.09406" lon="4.63496">
        <ele>599.2</ele>
        <time>2020-05-23T11:31:42Z</time>
      </trkpt>
      <trkpt lat="45.09403" lon="4.6351">
        <ele>599</ele>
        <time>2020-05-23T11:31:46Z</time>
      </trkpt>
      <trkpt lat="45.09401" lon="4.63524">
        <ele>599.2</ele>
        <time>2020-05-23T11:31:50Z</time>
      </trkpt>
      <trkpt lat="45.094" lon="4.63537">
        <ele>599.2</ele>
        <time>2020-05-23T11:31:54Z</time>
      </trkpt>
      <trkpt lat="45.09399" lon="4.6355">
        <ele>599.6</ele>
        <time>2020-05-23T11:31:58Z</time>
      </trkpt>
      <trkpt lat="45.094" lon="4.63563">
        <ele>599.4</ele>
        <time>2020-05-23T11:32:02Z</time>
      </trkpt>
      <trkpt lat="45.09401" lon="4.63576">
        <ele>599.8</ele>
        <time>2020-05-23T11:32:06Z</time>
      </trkpt>
      <trkpt lat="45.09404" lon="4.63589">
        <ele>600.4</ele>
        <time>2020-05-23T11:32:10Z</time>
      </trkpt>
      <trkpt lat="45.09407" lon="4.63604">
        <ele>600.8</ele>
        <time>2020-05-23T11:32:14Z</time>
      </trkpt>
      <trkpt lat="45.09411" lon="4.63617">
        <ele>601.2</ele>
        <time>2020-05-23T11:32:18Z</time>
      </trkpt>
      <trkpt lat="45.09414" lon="4.63628">
        <ele>601.6</ele>
        <time>2020-05-23T11:32:22Z</time>
      </trkpt>
      <trkpt lat="45.09417" lon="4.63639">
        <ele>602.2</ele>
        <time>2020-05-23T11:32:26Z</time>
      </trkpt>
      <trkpt lat="45.0942" lon="4.6365">
        <ele>602.4</ele>
        <time>2020-05-23T11:32:30Z</time>
      </trkpt>
      <trkpt lat="45.09423" lon="4.63661">
        <ele>603.2</ele>
        <time>2020-05-23T11:32:34Z</time>
      </trkpt>
      <trkpt lat="45.09427" lon="4.63673">
        <ele>603.4</ele>
        <time>2020-05-23T11:32:38Z</time>
      </trkpt>
      <trkpt lat="45.09431" lon="4.63685">
        <ele>603.6</ele>
        <time>2020-05-23T11:32:42Z</time>
      </trkpt>
      <trkpt lat="45.09436" lon="4.63699">
        <ele>603.8</ele>
        <time>2020-05-23T11:32:46Z</time>
      </trkpt>
      <trkpt lat="45.09442" lon="4.63712">
        <ele>604.4</ele>
        <time>2020-05-23T11:32:50Z</time>
      </trkpt>
      <trkpt lat="45.09448" lon="4.63727">
        <ele>605</ele>
        <time>2020-05-23T11:32:54Z</time>
      </trkpt>
      <trkpt lat="45.09452" lon="4.63741">
        <ele>605</ele>
        <time>2020-05-23T11:32:58Z</time>
      </trkpt>
      <trkpt lat="45.09457" lon="4.63754">
        <ele>605.4</ele>
        <time>2020-05-23T11:33:02Z</time>
      </trkpt>
      <trkpt lat="45.09458" lon="4.63768">
        <ele>605.6</ele>
        <time>2020-05-23T11:33:06Z</time>
      </trkpt>
      <trkpt lat="45.09456" lon="4.63782">
        <ele>605.6</ele>
        <time>2020-05-23T11:33:10Z</time>
      </trkpt>
      <trkpt lat="45.09448" lon="4.63793">
        <ele>606</ele>
        <time>2020-05-23T11:33:14Z</time>
      </trkpt>
      <trkpt lat="45.09438" lon="4.63793">
        <ele>606.2</ele>
        <time>2020-05-23T11:33:18Z</time>
      </trkpt>
      <trkpt lat="45.09429" lon="4.63787">
        <ele>606.6</ele>
        <time>2020-05-23T11:33:22Z</time>
      </trkpt>
      <trkpt lat="45.09423" lon="4.63779">
        <ele>606.8</ele>
        <time>2020-05-23T11:33:26Z</time>
      </trkpt>
      <trkpt lat="45.09417" lon="4.63769">
        <ele>607.4</ele>
        <time>2020-05-23T11:33:30Z</time>
      </trkpt>
      <trkpt lat="45.09408" lon="4.63761">
        <ele>607.8</ele>
        <time>2020-05-23T11:33:34Z</time>
      </trkpt>
      <trkpt lat="45.09398" lon="4.63755">
        <ele>608.2</ele>
        <time>2020-05-23T11:33:38Z</time>
      </trkpt>
      <trkpt lat="45.09387" lon="4.63751">
        <ele>608.8</ele>
        <time>2020-05-23T11:33:42Z</time>
      </trkpt>
      <trkpt lat="45.09376" lon="4.63751">
        <ele>609.2</ele>
        <time>2020-05-23T11:33:46Z</time>
      </trkpt>
      <trkpt lat="45.09364" lon="4.63753">
        <ele>609.6</ele>
        <time>2020-05-23T11:33:50Z</time>
      </trkpt>
      <trkpt lat="45.09354" lon="4.63758">
        <ele>609.8</ele>
        <time>2020-05-23T11:33:54Z</time>
      </trkpt>
      <trkpt lat="45.09345" lon="4.63765">
        <ele>610</ele>
        <time>2020-05-23T11:33:58Z</time>
      </trkpt>
      <trkpt lat="45.09336" lon="4.63773">
        <ele>610.2</ele>
        <time>2020-05-23T11:34:02Z</time>
      </trkpt>
      <trkpt lat="45.09328" lon="4.63782">
        <ele>610.6</ele>
        <time>2020-05-23T11:34:06Z</time>
      </trkpt>
      <trkpt lat="45.09319" lon="4.63791">
        <ele>611.2</ele>
        <time>2020-05-23T11:34:10Z</time>
      </trkpt>
      <trkpt lat="45.09311" lon="4.638">
        <ele>611</ele>
        <time>2020-05-23T11:34:14Z</time>
      </trkpt>
      <trkpt lat="45.09301" lon="4.6381">
        <ele>611.6</ele>
        <time>2020-05-23T11:34:18Z</time>
      </trkpt>
      <trkpt lat="45.09292" lon="4.6382">
        <ele>612.2</ele>
        <time>2020-05-23T11:34:22Z</time>
      </trkpt>
      <trkpt lat="45.09284" lon="4.63829">
        <ele>612.6</ele>
        <time>2020-05-23T11:34:26Z</time>
      </trkpt>
      <trkpt lat="45.09275" lon="4.63838">
        <ele>613.2</ele>
        <time>2020-05-23T11:34:30Z</time>
      </trkpt>
      <trkpt lat="45.09266" lon="4.63846">
        <ele>612.8</ele>
        <time>2020-05-23T11:34:34Z</time>
      </trkpt>
      <trkpt lat="45.09257" lon="4.63853">
        <ele>613.8</ele>
        <time>2020-05-23T11:34:38Z</time>
      </trkpt>
      <trkpt lat="45.09248" lon="4.6386">
        <ele>614</ele>
        <time>2020-05-23T11:34:42Z</time>
      </trkpt>
      <trkpt lat="45.09238" lon="4.63867">
        <ele>614</ele>
        <time>2020-05-23T11:34:46Z</time>
      </trkpt>
      <trkpt lat="45.0923" lon="4.63874">
        <ele>614.6</ele>
        <time>2020-05-23T11:34:50Z</time>
      </trkpt>
      <trkpt lat="45.09223" lon="4.63881">
        <ele>614.8</ele>
        <time>2020-05-23T11:34:54Z</time>
      </trkpt>
      <trkpt lat="45.09217" lon="4.63891">
        <ele>615.2</ele>
        <time>2020-05-23T11:34:58Z</time>
      </trkpt>
      <trkpt lat="45.09212" lon="4.63903">
        <ele>615.4</ele>
        <time>2020-05-23T11:35:02Z</time>
      </trkpt>
      <trkpt lat="45.09208" lon="4.63916">
        <ele>616.4</ele>
        <time>2020-05-23T11:35:06Z</time>
      </trkpt>
      <trkpt lat="45.09208" lon="4.63929">
        <ele>616.2</ele>
        <time>2020-05-23T11:35:10Z</time>
      </trkpt>
      <trkpt lat="45.09207" lon="4.63945">
        <ele>616.8</ele>
        <time>2020-05-23T11:35:14Z</time>
      </trkpt>
      <trkpt lat="45.09205" lon="4.6396">
        <ele>617.2</ele>
        <time>2020-05-23T11:35:18Z</time>
      </trkpt>
      <trkpt lat="45.09201" lon="4.63975">
        <ele>617.4</ele>
        <time>2020-05-23T11:35:22Z</time>
      </trkpt>
      <trkpt lat="45.09195" lon="4.63989">
        <ele>617.8</ele>
        <time>2020-05-23T11:35:26Z</time>
      </trkpt>
      <trkpt lat="45.0919" lon="4.64">
        <ele>618</ele>
        <time>2020-05-23T11:35:30Z</time>
      </trkpt>
      <trkpt lat="45.09184" lon="4.64012">
        <ele>617.8</ele>
        <time>2020-05-23T11:35:34Z</time>
      </trkpt>
      <trkpt lat="45.09178" lon="4.64021">
        <ele>618.6</ele>
        <time>2020-05-23T11:35:38Z</time>
      </trkpt>
      <trkpt lat="45.09171" lon="4.64029">
        <ele>618.6</ele>
        <time>2020-05-23T11:35:42Z</time>
      </trkpt>
      <trkpt lat="45.09163" lon="4.64035">
        <ele>619.4</ele>
        <time>2020-05-23T11:35:46Z</time>
      </trkpt>
      <trkpt lat="45.09153" lon="4.64037">
        <ele>619</ele>
        <time>2020-05-23T11:35:50Z</time>
      </trkpt>
      <trkpt lat="45.09142" lon="4.64037">
        <ele>619.4</ele>
        <time>2020-05-23T11:35:54Z</time>
      </trkpt>
      <trkpt lat="45.09133" lon="4.64033">
        <ele>620</ele>
        <time>2020-05-23T11:35:58Z</time>
      </trkpt>
      <trkpt lat="45.09125" lon="4.64028">
        <ele>620.8</ele>
        <time>2020-05-23T11:36:02Z</time>
      </trkpt>
      <trkpt lat="45.09119" lon="4.64019">
        <ele>620.8</ele>
        <time>2020-05-23T11:36:06Z</time>
      </trkpt>
      <trkpt lat="45.09112" lon="4.64009">
        <ele>621.2</ele>
        <time>2020-05-23T11:36:10Z</time>
      </trkpt>
      <trkpt lat="45.09103" lon="4.64001">
        <ele>621.6</ele>
        <time>2020-05-23T11:36:14Z</time>
      </trkpt>
      <trkpt lat="45.09093" lon="4.63996">
        <ele>621.8</ele>
        <time>2020-05-23T11:36:18Z</time>
      </trkpt>
      <trkpt lat="45.09082" lon="4.63996">
        <ele>621.6</ele>
        <time>2020-05-23T11:36:22Z</time>
      </trkpt>
      <trkpt lat="45.09071" lon="4.63997">
        <ele>622</ele>
        <time>2020-05-23T11:36:26Z</time>
      </trkpt>
      <trkpt lat="45.0906" lon="4.63998">
        <ele>622</ele>
        <time>2020-05-23T11:36:30Z</time>
      </trkpt>
      <trkpt lat="45.0905" lon="4.63999">
        <ele>622.6</ele>
        <time>2020-05-23T11:36:34Z</time>
      </trkpt>
      <trkpt lat="45.0904" lon="4.63999">
        <ele>622.2</ele>
        <time>2020-05-23T11:36:38Z</time>
      </trkpt>
      <trkpt lat="45.09029" lon="4.63999">
        <ele>622.4</ele>
        <time>2020-05-23T11:36:42Z</time>
      </trkpt>
      <trkpt lat="45.0902" lon="4.63999">
        <ele>622.8</ele>
        <time>2020-05-23T11:36:46Z</time>
      </trkpt>
      <trkpt lat="45.0901" lon="4.63999">
        <ele>622.8</ele>
        <time>2020-05-23T11:36:50Z</time>
      </trkpt>
      <trkpt lat="45.09001" lon="4.63998">
        <ele>622.8</ele>
        <time>2020-05-23T11:36:54Z</time>
      </trkpt>
      <trkpt lat="45.08992" lon="4.64">
        <ele>623.2</ele>
        <time>2020-05-23T11:36:58Z</time>
      </trkpt>
      <trkpt lat="45.08984" lon="4.64009">
        <ele>623.6</ele>
        <time>2020-05-23T11:37:02Z</time>
      </trkpt>
      <trkpt lat="45.08979" lon="4.64021">
        <ele>623.8</ele>
        <time>2020-05-23T11:37:06Z</time>
      </trkpt>
      <trkpt lat="45.08977" lon="4.64033">
        <ele>623.8</ele>
        <time>2020-05-23T11:37:10Z</time>
      </trkpt>
      <trkpt lat="45.08981" lon="4.64047">
        <ele>624.8</ele>
        <time>2020-05-23T11:37:14Z</time>
      </trkpt>
      <trkpt lat="45.08986" lon="4.64058">
        <ele>624.8</ele>
        <time>2020-05-23T11:37:18Z</time>
      </trkpt>
      <trkpt lat="45.08994" lon="4.64064">
        <ele>624.2</ele>
        <time>2020-05-23T11:37:22Z</time>
      </trkpt>
      <trkpt lat="45.09001" lon="4.6407">
        <ele>624.8</ele>
        <time>2020-05-23T11:37:26Z</time>
      </trkpt>
      <trkpt lat="45.09007" lon="4.64073">
        <ele>625</ele>
        <time>2020-05-23T11:37:30Z</time>
      </trkpt>
      <trkpt lat="45.09013" lon="4.64078">
        <ele>625.2</ele>
        <time>2020-05-23T11:37:34Z</time>
      </trkpt>
      <trkpt lat="45.09018" lon="4.64083">
        <ele>625.2</ele>
        <time>2020-05-23T11:37:38Z</time>
      </trkpt>
      <trkpt lat="45.09026" lon="4.64088">
        <ele>625.6</ele>
        <time>2020-05-23T11:37:42Z</time>
      </trkpt>
      <trkpt lat="45.09036" lon="4.64093">
        <ele>626.2</ele>
        <time>2020-05-23T11:37:46Z</time>
      </trkpt>
      <trkpt lat="45.09044" lon="4.641">
        <ele>626</ele>
        <time>2020-05-23T11:37:50Z</time>
      </trkpt>
      <trkpt lat="45.09051" lon="4.64105">
        <ele>626.4</ele>
        <time>2020-05-23T11:37:54Z</time>
      </trkpt>
      <trkpt lat="45.09059" lon="4.64111">
        <ele>627.4</ele>
        <time>2020-05-23T11:37:58Z</time>
      </trkpt>
      <trkpt lat="45.09071" lon="4.64116">
        <ele>627</ele>
        <time>2020-05-23T11:38:02Z</time>
      </trkpt>
      <trkpt lat="45.09082" lon="4.64124">
        <ele>628.2</ele>
        <time>2020-05-23T11:38:06Z</time>
      </trkpt>
      <trkpt lat="45.09091" lon="4.64132">
        <ele>628</ele>
        <time>2020-05-23T11:38:10Z</time>
      </trkpt>
      <trkpt lat="45.09101" lon="4.64139">
        <ele>628.2</ele>
        <time>2020-05-23T11:38:14Z</time>
      </trkpt>
      <trkpt lat="45.09111" lon="4.64145">
        <ele>628.8</ele>
        <time>2020-05-23T11:38:18Z</time>
      </trkpt>
      <trkpt lat="45.09121" lon="4.64148">
        <ele>629.4</ele>
        <time>2020-05-23T11:38:22Z</time>
      </trkpt>
      <trkpt lat="45.09131" lon="4.64153">
        <ele>629.8</ele>
        <time>2020-05-23T11:38:26Z</time>
      </trkpt>
      <trkpt lat="45.0914" lon="4.64154">
        <ele>630</ele>
        <time>2020-05-23T11:38:30Z</time>
      </trkpt>
      <trkpt lat="45.0915" lon="4.64155">
        <ele>630.8</ele>
        <time>2020-05-23T11:38:34Z</time>
      </trkpt>
      <trkpt lat="45.0916" lon="4.64156">
        <ele>631</ele>
        <time>2020-05-23T11:38:38Z</time>
      </trkpt>
      <trkpt lat="45.0917" lon="4.64156">
        <ele>631.4</ele>
        <time>2020-05-23T11:38:42Z</time>
      </trkpt>
      <trkpt lat="45.0918" lon="4.64156">
        <ele>631.4</ele>
        <time>2020-05-23T11:38:46Z</time>
      </trkpt>
      <trkpt lat="45.0919" lon="4.64157">
        <ele>632.2</ele>
        <time>2020-05-23T11:38:50Z</time>
      </trkpt>
      <trkpt lat="45.092" lon="4.64157">
        <ele>633.2</ele>
        <time>2020-05-23T11:38:54Z</time>
      </trkpt>
      <trkpt lat="45.0921" lon="4.64156">
        <ele>633</ele>
        <time>2020-05-23T11:38:58Z</time>
      </trkpt>
      <trkpt lat="45.0922" lon="4.64155">
        <ele>634</ele>
        <time>2020-05-23T11:39:02Z</time>
      </trkpt>
      <trkpt lat="45.0923" lon="4.64156">
        <ele>634.4</ele>
        <time>2020-05-23T11:39:06Z</time>
      </trkpt>
      <trkpt lat="45.0924" lon="4.64156">
        <ele>635</ele>
        <time>2020-05-23T11:39:10Z</time>
      </trkpt>
      <trkpt lat="45.0925" lon="4.64157">
        <ele>635</ele>
        <time>2020-05-23T11:39:14Z</time>
      </trkpt>
      <trkpt lat="45.0926" lon="4.64159">
        <ele>635.6</ele>
        <time>2020-05-23T11:39:18Z</time>
      </trkpt>
      <trkpt lat="45.0927" lon="4.64161">
        <ele>636.4</ele>
        <time>2020-05-23T11:39:22Z</time>
      </trkpt>
      <trkpt lat="45.0928" lon="4.64164">
        <ele>636.6</ele>
        <time>2020-05-23T11:39:26Z</time>
      </trkpt>
      <trkpt lat="45.0929" lon="4.6417">
        <ele>637.4</ele>
        <time>2020-05-23T11:39:30Z</time>
      </trkpt>
      <trkpt lat="45.09298" lon="4.64174">
        <ele>637.2</ele>
        <time>2020-05-23T11:39:34Z</time>
      </trkpt>
      <trkpt lat="45.09306" lon="4.64181">
        <ele>638.2</ele>
        <time>2020-05-23T11:39:38Z</time>
      </trkpt>
      <trkpt lat="45.09313" lon="4.64188">
        <ele>639.2</ele>
        <time>2020-05-23T11:39:42Z</time>
      </trkpt>
      <trkpt lat="45.09321" lon="4.64197">
        <ele>639.2</ele>
        <time>2020-05-23T11:39:46Z</time>
      </trkpt>
      <trkpt lat="45.09326" lon="4.64205">
        <ele>639.8</ele>
        <time>2020-05-23T11:39:50Z</time>
      </trkpt>
      <trkpt lat="45.09331" lon="4.64215">
        <ele>640</ele>
        <time>2020-05-23T11:39:54Z</time>
      </trkpt>
      <trkpt lat="45.09337" lon="4.64224">
        <ele>641</ele>
        <time>2020-05-23T11:39:58Z</time>
      </trkpt>
      <trkpt lat="45.09344" lon="4.64234">
        <ele>641.2</ele>
        <time>2020-05-23T11:40:02Z</time>
      </trkpt>
      <trkpt lat="45.0935" lon="4.64244">
        <ele>641.8</ele>
        <time>2020-05-23T11:40:06Z</time>
      </trkpt>
      <trkpt lat="45.09356" lon="4.64255">
        <ele>642</ele>
        <time>2020-05-23T11:40:10Z</time>
      </trkpt>
      <trkpt lat="45.09361" lon="4.64266">
        <ele>642.8</ele>
        <time>2020-05-23T11:40:14Z</time>
      </trkpt>
      <trkpt lat="45.09366" lon="4.64278">
        <ele>643.2</ele>
        <time>2020-05-23T11:40:18Z</time>
      </trkpt>
      <trkpt lat="45.09371" lon="4.6429">
        <ele>644.4</ele>
        <time>2020-05-23T11:40:22Z</time>
      </trkpt>
      <trkpt lat="45.09375" lon="4.64303">
        <ele>644.8</ele>
        <time>2020-05-23T11:40:26Z</time>
      </trkpt>
      <trkpt lat="45.0938" lon="4.64315">
        <ele>644.8</ele>
        <time>2020-05-23T11:40:30Z</time>
      </trkpt>
      <trkpt lat="45.09385" lon="4.64328">
        <ele>645.4</ele>
        <time>2020-05-23T11:40:34Z</time>
      </trkpt>
      <trkpt lat="45.09391" lon="4.6434">
        <ele>645.8</ele>
        <time>2020-05-23T11:40:38Z</time>
      </trkpt>
      <trkpt lat="45.09397" lon="4.64351">
        <ele>646.4</ele>
        <time>2020-05-23T11:40:42Z</time>
      </trkpt>
      <trkpt lat="45.09404" lon="4.64361">
        <ele>646.6</ele>
        <time>2020-05-23T11:40:46Z</time>
      </trkpt>
      <trkpt lat="45.09411" lon="4.6437">
        <ele>646.6</ele>
        <time>2020-05-23T11:40:50Z</time>
      </trkpt>
      <trkpt lat="45.0942" lon="4.64378">
        <ele>647.4</ele>
        <time>2020-05-23T11:40:54Z</time>
      </trkpt>
      <trkpt lat="45.09428" lon="4.64385">
        <ele>647.2</ele>
        <time>2020-05-23T11:40:58Z</time>
      </trkpt>
      <trkpt lat="45.09437" lon="4.64393">
        <ele>647.8</ele>
        <time>2020-05-23T11:41:02Z</time>
      </trkpt>
      <trkpt lat="45.09445" lon="4.644">
        <ele>647.8</ele>
        <time>2020-05-23T11:41:06Z</time>
      </trkpt>
      <trkpt lat="45.09453" lon="4.64408">
        <ele>648.2</ele>
        <time>2020-05-23T11:41:10Z</time>
      </trkpt>
      <trkpt lat="45.09461" lon="4.64415">
        <ele>648.2</ele>
        <time>2020-05-23T11:41:14Z</time>
      </trkpt>
      <trkpt lat="45.09469" lon="4.64423">
        <ele>648.6</ele>
        <time>2020-05-23T11:41:18Z</time>
      </trkpt>
      <trkpt lat="45.09477" lon="4.6443">
        <ele>648.6</ele>
        <time>2020-05-23T11:41:22Z</time>
      </trkpt>
      <trkpt lat="45.09484" lon="4.64436">
        <ele>649.4</ele>
        <time>2020-05-23T11:41:26Z</time>
      </trkpt>
      <trkpt lat="45.09491" lon="4.64446">
        <ele>649.6</ele>
        <time>2020-05-23T11:41:30Z</time>
      </trkpt>
      <trkpt lat="45.09499" lon="4.64454">
        <ele>650</ele>
        <time>2020-05-23T11:41:34Z</time>
      </trkpt>
      <trkpt lat="45.09507" lon="4.64464">
        <ele>650.4</ele>
        <time>2020-05-23T11:41:38Z</time>
      </trkpt>
      <trkpt lat="45.09514" lon="4.64473">
        <ele>650</ele>
        <time>2020-05-23T11:41:42Z</time>
      </trkpt>
      <trkpt lat="45.09521" lon="4.64482">
        <ele>650.8</ele>
        <time>2020-05-23T11:41:46Z</time>
      </trkpt>
      <trkpt lat="45.0953" lon="4.6449">
        <ele>651.4</ele>
        <time>2020-05-23T11:41:50Z</time>
      </trkpt>
      <trkpt lat="45.09539" lon="4.64496">
        <ele>650.8</ele>
        <time>2020-05-23T11:41:54Z</time>
      </trkpt>
      <trkpt lat="45.09548" lon="4.64502">
        <ele>651.4</ele>
        <time>2020-05-23T11:41:58Z</time>
      </trkpt>
      <trkpt lat="45.09557" lon="4.64508">
        <ele>651.6</ele>
        <time>2020-05-23T11:42:02Z</time>
      </trkpt>
      <trkpt lat="45.09567" lon="4.64514">
        <ele>652.4</ele>
        <time>2020-05-23T11:42:06Z</time>
      </trkpt>
      <trkpt lat="45.09576" lon="4.64519">
        <ele>652.4</ele>
        <time>2020-05-23T11:42:10Z</time>
      </trkpt>
      <trkpt lat="45.09586" lon="4.64525">
        <ele>652.8</ele>
        <time>2020-05-23T11:42:14Z</time>
      </trkpt>
      <trkpt lat="45.09594" lon="4.64534">
        <ele>653</ele>
        <time>2020-05-23T11:42:18Z</time>
      </trkpt>
      <trkpt lat="45.09602" lon="4.64543">
        <ele>653.2</ele>
        <time>2020-05-23T11:42:22Z</time>
      </trkpt>
      <trkpt lat="45.0961" lon="4.64551">
        <ele>653.6</ele>
        <time>2020-05-23T11:42:26Z</time>
      </trkpt>
      <trkpt lat="45.09618" lon="4.6456">
        <ele>653.4</ele>
        <time>2020-05-23T11:42:30Z</time>
      </trkpt>
      <trkpt lat="45.09626" lon="4.6457">
        <ele>653.8</ele>
        <time>2020-05-23T11:42:34Z</time>
      </trkpt>
      <trkpt lat="45.09634" lon="4.6458">
        <ele>654.2</ele>
        <time>2020-05-23T11:42:38Z</time>
      </trkpt>
      <trkpt lat="45.09642" lon="4.64593">
        <ele>654.2</ele>
        <time>2020-05-23T11:42:42Z</time>
      </trkpt>
      <trkpt lat="45.09649" lon="4.64609">
        <ele>654.6</ele>
        <time>2020-05-23T11:42:46Z</time>
      </trkpt>
      <trkpt lat="45.09654" lon="4.64628">
        <ele>655</ele>
        <time>2020-05-23T11:42:50Z</time>
      </trkpt>
      <trkpt lat="45.09659" lon="4.64652">
        <ele>654.8</ele>
        <time>2020-05-23T11:42:54Z</time>
      </trkpt>
      <trkpt lat="45.09666" lon="4.64679">
        <ele>655.4</ele>
        <time>2020-05-23T11:42:58Z</time>
      </trkpt>
      <trkpt lat="45.09671" lon="4.64707">
        <ele>655.2</ele>
        <time>2020-05-23T11:43:02Z</time>
      </trkpt>
      <trkpt lat="45.09676" lon="4.64732">
        <ele>655.6</ele>
        <time>2020-05-23T11:43:06Z</time>
      </trkpt>
      <trkpt lat="45.09678" lon="4.64759">
        <ele>655.8</ele>
        <time>2020-05-23T11:43:10Z</time>
      </trkpt>
      <trkpt lat="45.09679" lon="4.64792">
        <ele>655.8</ele>
        <time>2020-05-23T11:43:14Z</time>
      </trkpt>
      <trkpt lat="45.0968" lon="4.6483">
        <ele>655.8</ele>
        <time>2020-05-23T11:43:18Z</time>
      </trkpt>
      <trkpt lat="45.09681" lon="4.64871">
        <ele>656</ele>
        <time>2020-05-23T11:43:22Z</time>
      </trkpt>
      <trkpt lat="45.09683" lon="4.64915">
        <ele>656.4</ele>
        <time>2020-05-23T11:43:26Z</time>
      </trkpt>
      <trkpt lat="45.09685" lon="4.64964">
        <ele>656.4</ele>
        <time>2020-05-23T11:43:30Z</time>
      </trkpt>
      <trkpt lat="45.09688" lon="4.65012">
        <ele>656.8</ele>
        <time>2020-05-23T11:43:34Z</time>
      </trkpt>
      <trkpt lat="45.0969" lon="4.6506">
        <ele>656.8</ele>
        <time>2020-05-23T11:43:38Z</time>
      </trkpt>
      <trkpt lat="45.09693" lon="4.65109">
        <ele>657.4</ele>
        <time>2020-05-23T11:43:42Z</time>
      </trkpt>
      <trkpt lat="45.09693" lon="4.65158">
        <ele>657.8</ele>
        <time>2020-05-23T11:43:46Z</time>
      </trkpt>
      <trkpt lat="45.09691" lon="4.65208">
        <ele>657.4</ele>
        <time>2020-05-23T11:43:50Z</time>
      </trkpt>
      <trkpt lat="45.09688" lon="4.65255">
        <ele>658.4</ele>
        <time>2020-05-23T11:43:54Z</time>
      </trkpt>
      <trkpt lat="45.09685" lon="4.65302">
        <ele>658.4</ele>
        <time>2020-05-23T11:43:58Z</time>
      </trkpt>
      <trkpt lat="45.09686" lon="4.65347">
        <ele>658.4</ele>
        <time>2020-05-23T11:44:02Z</time>
      </trkpt>
      <trkpt lat="45.09694" lon="4.65391">
        <ele>658.8</ele>
        <time>2020-05-23T11:44:06Z</time>
      </trkpt>
      <trkpt lat="45.09709" lon="4.65431">
        <ele>658.8</ele>
        <time>2020-05-23T11:44:10Z</time>
      </trkpt>
      <trkpt lat="45.09728" lon="4.65466">
        <ele>659</ele>
        <time>2020-05-23T11:44:14Z</time>
      </trkpt>
      <trkpt lat="45.09752" lon="4.65494">
        <ele>659.2</ele>
        <time>2020-05-23T11:44:18Z</time>
      </trkpt>
      <trkpt lat="45.09783" lon="4.65504">
        <ele>659.4</ele>
        <time>2020-05-23T11:44:22Z</time>
      </trkpt>
      <trkpt lat="45.09815" lon="4.65511">
        <ele>660</ele>
        <time>2020-05-23T11:44:26Z</time>
      </trkpt>
      <trkpt lat="45.09845" lon="4.65531">
        <ele>660</ele>
        <time>2020-05-23T11:44:30Z</time>
      </trkpt>
      <trkpt lat="45.09875" lon="4.65547">
        <ele>659.8</ele>
        <time>2020-05-23T11:44:34Z</time>
      </trkpt>
      <trkpt lat="45.09903" lon="4.65571">
        <ele>660.4</ele>
        <time>2020-05-23T11:44:38Z</time>
      </trkpt>
      <trkpt lat="45.0993" lon="4.65596">
        <ele>660.2</ele>
        <time>2020-05-23T11:44:42Z</time>
      </trkpt>
      <trkpt lat="45.0996" lon="4.65606">
        <ele>660</ele>
        <time>2020-05-23T11:44:46Z</time>
      </trkpt>
      <trkpt lat="45.09989" lon="4.65602">
        <ele>661.4</ele>
        <time>2020-05-23T11:44:50Z</time>
      </trkpt>
      <trkpt lat="45.10012" lon="4.65578">
        <ele>661.4</ele>
        <time>2020-05-23T11:44:54Z</time>
      </trkpt>
      <trkpt lat="45.10038" lon="4.65558">
        <ele>661.2</ele>
        <time>2020-05-23T11:44:58Z</time>
      </trkpt>
      <trkpt lat="45.10066" lon="4.65551">
        <ele>662</ele>
        <time>2020-05-23T11:45:02Z</time>
      </trkpt>
      <trkpt lat="45.10095" lon="4.65555">
        <ele>661.8</ele>
        <time>2020-05-23T11:45:06Z</time>
      </trkpt>
      <trkpt lat="45.10113" lon="4.65587">
        <ele>662.6</ele>
        <time>2020-05-23T11:45:10Z</time>
      </trkpt>
      <trkpt lat="45.10108" lon="4.65621">
        <ele>662.6</ele>
        <time>2020-05-23T11:45:14Z</time>
      </trkpt>
      <trkpt lat="45.10095" lon="4.65641">
        <ele>662.8</ele>
        <time>2020-05-23T11:45:18Z</time>
      </trkpt>
      <trkpt lat="45.10082" lon="4.6566">
        <ele>664.2</ele>
        <time>2020-05-23T11:45:22Z</time>
      </trkpt>
      <trkpt lat="45.10071" lon="4.65682">
        <ele>663.8</ele>
        <time>2020-05-23T11:45:26Z</time>
      </trkpt>
      <trkpt lat="45.10062" lon="4.65707">
        <ele>664.6</ele>
        <time>2020-05-23T11:45:30Z</time>
      </trkpt>
      <trkpt lat="45.10059" lon="4.65731">
        <ele>664.2</ele>
        <time>2020-05-23T11:45:34Z</time>
      </trkpt>
      <trkpt lat="45.10056" lon="4.65751">
        <ele>664.2</ele>
        <time>2020-05-23T11:45:38Z</time>
      </trkpt>
      <trkpt lat="45.10053" lon="4.65774">
        <ele>664.6</ele>
        <time>2020-05-23T11:45:42Z</time>
      </trkpt>
      <trkpt lat="45.10048" lon="4.65799">
        <ele>664.2</ele>
        <time>2020-05-23T11:45:46Z</time>
      </trkpt>
      <trkpt lat="45.10039" lon="4.65825">
        <ele>663.8</ele>
        <time>2020-05-23T11:45:50Z</time>
      </trkpt>
      <trkpt lat="45.10027" lon="4.65851">
        <ele>663.8</ele>
        <time>2020-05-23T11:45:54Z</time>
      </trkpt>
      <trkpt lat="45.10014" lon="4.65874">
        <ele>664.2</ele>
        <time>2020-05-23T11:45:58Z</time>
      </trkpt>
      <trkpt lat="45.10003" lon="4.65898">
        <ele>664.2</ele>
        <time>2020-05-23T11:46:02Z</time>
      </trkpt>
      <trkpt lat="45.09998" lon="4.65926">
        <ele>664.2</ele>
        <time>2020-05-23T11:46:06Z</time>
      </trkpt>
      <trkpt lat="45.09998" lon="4.65953">
        <ele>664.6</ele>
        <time>2020-05-23T11:46:10Z</time>
      </trkpt>
      <trkpt lat="45.1" lon="4.65979">
        <ele>664.6</ele>
        <time>2020-05-23T11:46:14Z</time>
      </trkpt>
      <trkpt lat="45.09995" lon="4.66003">
        <ele>664.8</ele>
        <time>2020-05-23T11:46:18Z</time>
      </trkpt>
      <trkpt lat="45.09981" lon="4.66021">
        <ele>665.6</ele>
        <time>2020-05-23T11:46:22Z</time>
      </trkpt>
      <trkpt lat="45.09966" lon="4.66031">
        <ele>665.6</ele>
        <time>2020-05-23T11:46:26Z</time>
      </trkpt>
      <trkpt lat="45.0995" lon="4.66038">
        <ele>666</ele>
        <time>2020-05-23T11:46:30Z</time>
      </trkpt>
      <trkpt lat="45.09933" lon="4.66046">
        <ele>666.2</ele>
        <time>2020-05-23T11:46:34Z</time>
      </trkpt>
      <trkpt lat="45.09917" lon="4.66058">
        <ele>666.2</ele>
        <time>2020-05-23T11:46:38Z</time>
      </trkpt>
      <trkpt lat="45.09903" lon="4.66074">
        <ele>667.2</ele>
        <time>2020-05-23T11:46:42Z</time>
      </trkpt>
      <trkpt lat="45.0989" lon="4.66091">
        <ele>666.8</ele>
        <time>2020-05-23T11:46:46Z</time>
      </trkpt>
      <trkpt lat="45.09877" lon="4.66108">
        <ele>667</ele>
        <time>2020-05-23T11:46:50Z</time>
      </trkpt>
      <trkpt lat="45.09864" lon="4.66125">
        <ele>667.6</ele>
        <time>2020-05-23T11:46:54Z</time>
      </trkpt>
      <trkpt lat="45.0985" lon="4.66142">
        <ele>667.6</ele>
        <time>2020-05-23T11:46:58Z</time>
      </trkpt>
      <trkpt lat="45.09837" lon="4.6616">
        <ele>667.4</ele>
        <time>2020-05-23T11:47:02Z</time>
      </trkpt>
      <trkpt lat="45.09823" lon="4.66177">
        <ele>668.2</ele>
        <time>2020-05-23T11:47:06Z</time>
      </trkpt>
      <trkpt lat="45.0981" lon="4.66195">
        <ele>668.8</ele>
        <time>2020-05-23T11:47:10Z</time>
      </trkpt>
      <trkpt lat="45.09798" lon="4.66213">
        <ele>668.6</ele>
        <time>2020-05-23T11:47:14Z</time>
      </trkpt>
      <trkpt lat="45.09791" lon="4.66235">
        <ele>668.4</ele>
        <time>2020-05-23T11:47:18Z</time>
      </trkpt>
      <trkpt lat="45.0979" lon="4.66258">
        <ele>669.2</ele>
        <time>2020-05-23T11:47:22Z</time>
      </trkpt>
      <trkpt lat="45.09794" lon="4.66282">
        <ele>669.6</ele>
        <time>2020-05-23T11:47:26Z</time>
      </trkpt>
      <trkpt lat="45.09799" lon="4.66304">
        <ele>669.6</ele>
        <time>2020-05-23T11:47:30Z</time>
      </trkpt>
      <trkpt lat="45.09806" lon="4.66324">
        <ele>670.2</ele>
        <time>2020-05-23T11:47:34Z</time>
      </trkpt>
      <trkpt lat="45.09813" lon="4.66343">
        <ele>669.8</ele>
        <time>2020-05-23T11:47:38Z</time>
      </trkpt>
      <trkpt lat="45.09822" lon="4.66358">
        <ele>670.4</ele>
        <time>2020-05-23T11:47:42Z</time>
      </trkpt>
      <trkpt lat="45.09833" lon="4.66373">
        <ele>671</ele>
        <time>2020-05-23T11:47:46Z</time>
      </trkpt>
      <trkpt lat="45.09844" lon="4.66386">
        <ele>671</ele>
        <time>2020-05-23T11:47:50Z</time>
      </trkpt>
      <trkpt lat="45.09855" lon="4.66399">
        <ele>671</ele>
        <time>2020-05-23T11:47:54Z</time>
      </trkpt>
      <trkpt lat="45.09866" lon="4.66413">
        <ele>671.4</ele>
        <time>2020-05-23T11:47:58Z</time>
      </trkpt>
      <trkpt lat="45.09879" lon="4.66426">
        <ele>671.4</ele>
        <time>2020-05-23T11:48:02Z</time>
      </trkpt>
      <trkpt lat="45.09891" lon="4.6644">
        <ele>671.8</ele>
        <time>2020-05-23T11:48:06Z</time>
      </trkpt>
      <trkpt lat="45.09904" lon="4.66452">
        <ele>672.2</ele>
        <time>2020-05-23T11:48:10Z</time>
      </trkpt>
      <trkpt lat="45.09915" lon="4.66467">
        <ele>672</ele>
        <time>2020-05-23T11:48:14Z</time>
      </trkpt>
      <trkpt lat="45.09925" lon="4.66483">
        <ele>672.4</ele>
        <time>2020-05-23T11:48:18Z</time>
      </trkpt>
      <trkpt lat="45.09933" lon="4.66501">
        <ele>672.6</ele>
        <time>2020-05-23T11:48:22Z</time>
      </trkpt>
      <trkpt lat="45.0994" lon="4.66519">
        <ele>672.8</ele>
        <time>2020-05-23T11:48:26Z</time>
      </trkpt>
      <trkpt lat="45.09945" lon="4.66538">
        <ele>673.8</ele>
        <time>2020-05-23T11:48:30Z</time>
      </trkpt>
      <trkpt lat="45.09951" lon="4.66557">
        <ele>673.4</ele>
        <time>2020-05-23T11:48:34Z</time>
      </trkpt>
      <trkpt lat="45.09959" lon="4.66575">
        <ele>673.6</ele>
        <time>2020-05-23T11:48:38Z</time>
      </trkpt>
      <trkpt lat="45.09969" lon="4.66588">
        <ele>674.2</ele>
        <time>2020-05-23T11:48:42Z</time>
      </trkpt>
      <trkpt lat="45.09979" lon="4.666">
        <ele>674</ele>
        <time>2020-05-23T11:48:46Z</time>
      </trkpt>
      <trkpt lat="45.09989" lon="4.66615">
        <ele>674.6</ele>
        <time>2020-05-23T11:48:50Z</time>
      </trkpt>
      <trkpt lat="45.09997" lon="4.66632">
        <ele>675</ele>
        <time>2020-05-23T11:48:54Z</time>
      </trkpt>
      <trkpt lat="45.10002" lon="4.66652">
        <ele>675.4</ele>
        <time>2020-05-23T11:48:58Z</time>
      </trkpt>
      <trkpt lat="45.10006" lon="4.66671">
        <ele>675.6</ele>
        <time>2020-05-23T11:49:02Z</time>
      </trkpt>
      <trkpt lat="45.1001" lon="4.66691">
        <ele>675.4</ele>
        <time>2020-05-23T11:49:06Z</time>
      </trkpt>
      <trkpt lat="45.10016" lon="4.6671">
        <ele>676.2</ele>
        <time>2020-05-23T11:49:10Z</time>
      </trkpt>
      <trkpt lat="45.10024" lon="4.6673">
        <ele>676.8</ele>
        <time>2020-05-23T11:49:14Z</time>
      </trkpt>
      <trkpt lat="45.10029" lon="4.66749">
        <ele>676.8</ele>
        <time>2020-05-23T11:49:18Z</time>
      </trkpt>
      <trkpt lat="45.10032" lon="4.6677">
        <ele>677.2</ele>
        <time>2020-05-23T11:49:22Z</time>
      </trkpt>
      <trkpt lat="45.1003" lon="4.66792">
        <ele>676.8</ele>
        <time>2020-05-23T11:49:26Z</time>
      </trkpt>
      <trkpt lat="45.10026" lon="4.66813">
        <ele>677</ele>
        <time>2020-05-23T11:49:30Z</time>
      </trkpt>
      <trkpt lat="45.10019" lon="4.66832">
        <ele>677.2</ele>
        <time>2020-05-23T11:49:34Z</time>
      </trkpt>
      <trkpt lat="45.10014" lon="4.66852">
        <ele>677.8</ele>
        <time>2020-05-23T11:49:38Z</time>
      </trkpt>
      <trkpt lat="45.10013" lon="4.66874">
        <ele>678</ele>
        <time>2020-05-23T11:49:42Z</time>
      </trkpt>
      <trkpt lat="45.10016" lon="4.66896">
        <ele>678.4</ele>
        <time>2020-05-23T11:49:46Z</time>
      </trkpt>
      <trkpt lat="45.10021" lon="4.66918">
        <ele>678.6</ele>
        <time>2020-05-23T11:49:50Z</time>
      </trkpt>
      <trkpt lat="45.10027" lon="4.66938">
        <ele>678.8</ele>
        <time>2020-05-23T11:49:54Z</time>
      </trkpt>
      <trkpt lat="45.10034" lon="4.66956">
        <ele>679</ele>
        <time>2020-05-23T11:49:58Z</time>
      </trkpt>
      <trkpt lat="45.10044" lon="4.66973">
        <ele>679.4</ele>
        <time>2020-05-23T11:50:02Z</time>
      </trkpt>
      <trkpt lat="45.10055" lon="4.66986">
        <ele>679</ele>
        <time>2020-05-23T11:50:06Z</time>
      </trkpt>
      <trkpt lat="45.10066" lon="4.66999">
        <ele>680</ele>
        <time>2020-05-23T11:50:10Z</time>
      </trkpt>
      <trkpt lat="45.10078" lon="4.6701">
        <ele>680.2</ele>
        <time>2020-05-23T11:50:14Z</time>
      </trkpt>
      <trkpt lat="45.1009" lon="4.67022">
        <ele>681</ele>
        <time>2020-05-23T11:50:18Z</time>
      </trkpt>
      <trkpt lat="45.10101" lon="4.67034">
        <ele>680.8</ele>
        <time>2020-05-23T11:50:22Z</time>
      </trkpt>
      <trkpt lat="45.10111" lon="4.6705">
        <ele>680.4</ele>
        <time>2020-05-23T11:50:26Z</time>
      </trkpt>
      <trkpt lat="45.10116" lon="4.67071">
        <ele>681.4</ele>
        <time>2020-05-23T11:50:30Z</time>
      </trkpt>
      <trkpt lat="45.10116" lon="4.6709">
        <ele>680.8</ele>
        <time>2020-05-23T11:50:34Z</time>
      </trkpt>
      <trkpt lat="45.10115" lon="4.67109">
        <ele>681</ele>
        <time>2020-05-23T11:50:38Z</time>
      </trkpt>
      <trkpt lat="45.10112" lon="4.67127">
        <ele>681</ele>
        <time>2020-05-23T11:50:42Z</time>
      </trkpt>
      <trkpt lat="45.10108" lon="4.67145">
        <ele>681.2</ele>
        <time>2020-05-23T11:50:46Z</time>
      </trkpt>
      <trkpt lat="45.10103" lon="4.67163">
        <ele>682.4</ele>
        <time>2020-05-23T11:50:50Z</time>
      </trkpt>
      <trkpt lat="45.10096" lon="4.67179">
        <ele>682.6</ele>
        <time>2020-05-23T11:50:54Z</time>
      </trkpt>
      <trkpt lat="45.10089" lon="4.67193">
        <ele>682.8</ele>
        <time>2020-05-23T11:50:58Z</time>
      </trkpt>
      <trkpt lat="45.10081" lon="4.67209">
        <ele>683</ele>
        <time>2020-05-23T11:51:02Z</time>
      </trkpt>
      <trkpt lat="45.10073" lon="4.67227">
        <ele>683</ele>
        <time>2020-05-23T11:51:06Z</time>
      </trkpt>
      <trkpt lat="45.10065" lon="4.67244">
        <ele>683</ele>
        <time>2020-05-23T11:51:10Z</time>
      </trkpt>
      <trkpt lat="45.10058" lon="4.67261">
        <ele>683.6</ele>
        <time>2020-05-23T11:51:14Z</time>
      </trkpt>
      <trkpt lat="45.10053" lon="4.6728">
        <ele>683.6</ele>
        <time>2020-05-23T11:51:18Z</time>
      </trkpt>
      <trkpt lat="45.10051" lon="4.673">
        <ele>683.2</ele>
        <time>2020-05-23T11:51:22Z</time>
      </trkpt>
      <trkpt lat="45.10049" lon="4.67318">
        <ele>684</ele>
        <time>2020-05-23T11:51:26Z</time>
      </trkpt>
      <trkpt lat="45.1005" lon="4.67336">
        <ele>684</ele>
        <time>2020-05-23T11:51:30Z</time>
      </trkpt>
      <trkpt lat="45.1005" lon="4.67353">
        <ele>684.8</ele>
        <time>2020-05-23T11:51:34Z</time>
      </trkpt>
      <trkpt lat="45.10052" lon="4.67365">
        <ele>684.2</ele>
        <time>2020-05-23T11:51:38Z</time>
      </trkpt>
      <trkpt lat="45.10058" lon="4.67374">
        <ele>684.2</ele>
        <time>2020-05-23T11:51:42Z</time>
      </trkpt>
      <trkpt lat="45.10069" lon="4.67381">
        <ele>684.8</ele>
        <time>2020-05-23T11:51:46Z</time>
      </trkpt>
      <trkpt lat="45.10079" lon="4.67386">
        <ele>684.8</ele>
        <time>2020-05-23T11:51:50Z</time>
      </trkpt>
      <trkpt lat="45.10087" lon="4.67388">
        <ele>685.4</ele>
        <time>2020-05-23T11:51:54Z</time>
      </trkpt>
      <trkpt lat="45.10097" lon="4.67392">
        <ele>685.2</ele>
        <time>2020-05-23T11:51:58Z</time>
      </trkpt>
      <trkpt lat="45.10104" lon="4.67399">
        <ele>686</ele>
        <time>2020-05-23T11:52:02Z</time>
      </trkpt>
      <trkpt lat="45.10113" lon="4.67403">
        <ele>685.6</ele>
        <time>2020-05-23T11:52:06Z</time>
      </trkpt>
      <trkpt lat="45.10125" lon="4.67408">
        <ele>685.8</ele>
        <time>2020-05-23T11:52:10Z</time>
      </trkpt>
      <trkpt lat="45.1014" lon="4.67409">
        <ele>686</ele>
        <time>2020-05-23T11:52:14Z</time>
      </trkpt>
      <trkpt lat="45.10159" lon="4.67406">
        <ele>685.8</ele>
        <time>2020-05-23T11:52:18Z</time>
      </trkpt>
      <trkpt lat="45.10182" lon="4.67402">
        <ele>686.2</ele>
        <time>2020-05-23T11:52:22Z</time>
      </trkpt>
      <trkpt lat="45.10209" lon="4.67399">
        <ele>686</ele>
        <time>2020-05-23T11:52:26Z</time>
      </trkpt>
      <trkpt lat="45.10237" lon="4.67396">
        <ele>686</ele>
        <time>2020-05-23T11:52:30Z</time>
      </trkpt>
      <trkpt lat="45.10265" lon="4.67401">
        <ele>685.8</ele>
        <time>2020-05-23T11:52:34Z</time>
      </trkpt>
      <trkpt lat="45.10294" lon="4.67408">
        <ele>685.6</ele>
        <time>2020-05-23T11:52:38Z</time>
      </trkpt>
      <trkpt lat="45.10321" lon="4.67415">
        <ele>685.8</ele>
        <time>2020-05-23T11:52:42Z</time>
      </trkpt>
      <trkpt lat="45.1035" lon="4.67422">
        <ele>685.6</ele>
        <time>2020-05-23T11:52:46Z</time>
      </trkpt>
      <trkpt lat="45.10377" lon="4.6743">
        <ele>685.6</ele>
        <time>2020-05-23T11:52:50Z</time>
      </trkpt>
      <trkpt lat="45.10404" lon="4.67432">
        <ele>685.2</ele>
        <time>2020-05-23T11:52:54Z</time>
      </trkpt>
      <trkpt lat="45.10439" lon="4.67428">
        <ele>685.4</ele>
        <time>2020-05-23T11:52:58Z</time>
      </trkpt>
      <trkpt lat="45.10472" lon="4.67423">
        <ele>685.2</ele>
        <time>2020-05-23T11:53:02Z</time>
      </trkpt>
      <trkpt lat="45.10505" lon="4.67422">
        <ele>685.2</ele>
        <time>2020-05-23T11:53:06Z</time>
      </trkpt>
      <trkpt lat="45.10536" lon="4.67436">
        <ele>685.4</ele>
        <time>2020-05-23T11:53:10Z</time>
      </trkpt>
      <trkpt lat="45.10561" lon="4.67457">
        <ele>685</ele>
        <time>2020-05-23T11:53:14Z</time>
      </trkpt>
      <trkpt lat="45.10591" lon="4.67466">
        <ele>685.4</ele>
        <time>2020-05-23T11:53:18Z</time>
      </trkpt>
      <trkpt lat="45.10622" lon="4.67467">
        <ele>685.2</ele>
        <time>2020-05-23T11:53:22Z</time>
      </trkpt>
      <trkpt lat="45.10653" lon="4.67464">
        <ele>684.2</ele>
        <time>2020-05-23T11:53:26Z</time>
      </trkpt>
      <trkpt lat="45.10682" lon="4.6745">
        <ele>684.6</ele>
        <time>2020-05-23T11:53:30Z</time>
      </trkpt>
      <trkpt lat="45.10717" lon="4.67445">
        <ele>684.4</ele>
        <time>2020-05-23T11:53:34Z</time>
      </trkpt>
      <trkpt lat="45.10737" lon="4.67473">
        <ele>685</ele>
        <time>2020-05-23T11:53:38Z</time>
      </trkpt>
      <trkpt lat="45.1076" lon="4.67513">
        <ele>684.6</ele>
        <time>2020-05-23T11:53:42Z</time>
      </trkpt>
      <trkpt lat="45.10787" lon="4.67552">
        <ele>684</ele>
        <time>2020-05-23T11:53:46Z</time>
      </trkpt>
      <trkpt lat="45.1082" lon="4.67576">
        <ele>684</ele>
        <time>2020-05-23T11:53:50Z</time>
      </trkpt>
      <trkpt lat="45.10853" lon="4.6758">
        <ele>683.6</ele>
        <time>2020-05-23T11:53:54Z</time>
      </trkpt>
      <trkpt lat="45.10881" lon="4.67574">
        <ele>683.6</ele>
        <time>2020-05-23T11:53:58Z</time>
      </trkpt>
      <trkpt lat="45.1091" lon="4.67561">
        <ele>683.4</ele>
        <time>2020-05-23T11:54:02Z</time>
      </trkpt>
      <trkpt lat="45.10942" lon="4.67534">
        <ele>683.4</ele>
        <time>2020-05-23T11:54:06Z</time>
      </trkpt>
      <trkpt lat="45.10976" lon="4.67515">
        <ele>682.6</ele>
        <time>2020-05-23T11:54:10Z</time>
      </trkpt>
      <trkpt lat="45.11004" lon="4.67535">
        <ele>683</ele>
        <time>2020-05-23T11:54:14Z</time>
      </trkpt>
      <trkpt lat="45.11009" lon="4.67573">
        <ele>682.4</ele>
        <time>2020-05-23T11:54:18Z</time>
      </trkpt>
      <trkpt lat="45.11002" lon="4.67611">
        <ele>683</ele>
        <time>2020-05-23T11:54:22Z</time>
      </trkpt>
      <trkpt lat="45.10993" lon="4.67649">
        <ele>682.8</ele>
        <time>2020-05-23T11:54:26Z</time>
      </trkpt>
      <trkpt lat="45.10983" lon="4.6769">
        <ele>682.8</ele>
        <time>2020-05-23T11:54:30Z</time>
      </trkpt>
      <trkpt lat="45.10972" lon="4.67731">
        <ele>682.4</ele>
        <time>2020-05-23T11:54:34Z</time>
      </trkpt>
      <trkpt lat="45.10961" lon="4.67773">
        <ele>682.2</ele>
        <time>2020-05-23T11:54:38Z</time>
      </trkpt>
      <trkpt lat="45.1095" lon="4.67816">
        <ele>682.2</ele>
        <time>2020-05-23T11:54:42Z</time>
      </trkpt>
      <trkpt lat="45.10939" lon="4.67859">
        <ele>682</ele>
        <time>2020-05-23T11:54:46Z</time>
      </trkpt>
      <trkpt lat="45.10928" lon="4.67902">
        <ele>682</ele>
        <time>2020-05-23T11:54:50Z</time>
      </trkpt>
      <trkpt lat="45.10917" lon="4.67948">
        <ele>681.2</ele>
        <time>2020-05-23T11:54:54Z</time>
      </trkpt>
      <trkpt lat="45.10906" lon="4.67993">
        <ele>680.8</ele>
        <time>2020-05-23T11:54:58Z</time>
      </trkpt>
      <trkpt lat="45.10895" lon="4.68037">
        <ele>680.4</ele>
        <time>2020-05-23T11:55:02Z</time>
      </trkpt>
      <trkpt lat="45.10884" lon="4.68081">
        <ele>680</ele>
        <time>2020-05-23T11:55:06Z</time>
      </trkpt>
      <trkpt lat="45.10873" lon="4.68123">
        <ele>679.8</ele>
        <time>2020-05-23T11:55:10Z</time>
      </trkpt>
      <trkpt lat="45.10863" lon="4.68167">
        <ele>680.2</ele>
        <time>2020-05-23T11:55:14Z</time>
      </trkpt>
      <trkpt lat="45.10852" lon="4.68209">
        <ele>680</ele>
        <time>2020-05-23T11:55:18Z</time>
      </trkpt>
      <trkpt lat="45.10841" lon="4.68251">
        <ele>680</ele>
        <time>2020-05-23T11:55:22Z</time>
      </trkpt>
      <trkpt lat="45.10833" lon="4.68293">
        <ele>679.6</ele>
        <time>2020-05-23T11:55:26Z</time>
      </trkpt>
      <trkpt lat="45.10834" lon="4.68336">
        <ele>680</ele>
        <time>2020-05-23T11:55:30Z</time>
      </trkpt>
      <trkpt lat="45.10838" lon="4.68378">
        <ele>680.4</ele>
        <time>2020-05-23T11:55:34Z</time>
      </trkpt>
      <trkpt lat="45.10839" lon="4.68419">
        <ele>679.4</ele>
        <time>2020-05-23T11:55:38Z</time>
      </trkpt>
      <trkpt lat="45.10835" lon="4.68459">
        <ele>678.8</ele>
        <time>2020-05-23T11:55:42Z</time>
      </trkpt>
      <trkpt lat="45.10829" lon="4.68497">
        <ele>679</ele>
        <time>2020-05-23T11:55:46Z</time>
      </trkpt>
      <trkpt lat="45.10822" lon="4.68533">
        <ele>678.8</ele>
        <time>2020-05-23T11:55:50Z</time>
      </trkpt>
      <trkpt lat="45.10816" lon="4.68571">
        <ele>678.8</ele>
        <time>2020-05-23T11:55:54Z</time>
      </trkpt>
      <trkpt lat="45.1081" lon="4.6861">
        <ele>678.8</ele>
        <time>2020-05-23T11:55:58Z</time>
      </trkpt>
      <trkpt lat="45.10806" lon="4.68648">
        <ele>678.8</ele>
        <time>2020-05-23T11:56:02Z</time>
      </trkpt>
      <trkpt lat="45.10808" lon="4.68685">
        <ele>678.8</ele>
        <time>2020-05-23T11:56:06Z</time>
      </trkpt>
      <trkpt lat="45.10816" lon="4.68721">
        <ele>679</ele>
        <time>2020-05-23T11:56:10Z</time>
      </trkpt>
      <trkpt lat="45.10827" lon="4.68755">
        <ele>678</ele>
        <time>2020-05-23T11:56:14Z</time>
      </trkpt>
      <trkpt lat="45.10837" lon="4.68788">
        <ele>678.4</ele>
        <time>2020-05-23T11:56:18Z</time>
      </trkpt>
      <trkpt lat="45.10845" lon="4.68821">
        <ele>678.2</ele>
        <time>2020-05-23T11:56:22Z</time>
      </trkpt>
      <trkpt lat="45.10851" lon="4.68854">
        <ele>678.4</ele>
        <time>2020-05-23T11:56:26Z</time>
      </trkpt>
      <trkpt lat="45.10856" lon="4.68886">
        <ele>678.4</ele>
        <time>2020-05-23T11:56:30Z</time>
      </trkpt>
      <trkpt lat="45.10862" lon="4.68915">
        <ele>678.6</ele>
        <time>2020-05-23T11:56:34Z</time>
      </trkpt>
      <trkpt lat="45.1087" lon="4.68945">
        <ele>678.8</ele>
        <time>2020-05-23T11:56:38Z</time>
      </trkpt>
      <trkpt lat="45.10879" lon="4.68974">
        <ele>678.8</ele>
        <time>2020-05-23T11:56:42Z</time>
      </trkpt>
      <trkpt lat="45.10889" lon="4.69002">
        <ele>679</ele>
        <time>2020-05-23T11:56:46Z</time>
      </trkpt>
      <trkpt lat="45.10898" lon="4.69028">
        <ele>679.2</ele>
        <time>2020-05-23T11:56:50Z</time>
      </trkpt>
      <trkpt lat="45.10907" lon="4.69052">
        <ele>679.2</ele>
        <time>2020-05-23T11:56:54Z</time>
      </trkpt>
      <trkpt lat="45.10915" lon="4.69076">
        <ele>679.2</ele>
        <time>2020-05-23T11:56:58Z</time>
      </trkpt>
      <trkpt lat="45.10923" lon="4.69099">
        <ele>678.8</ele>
        <time>2020-05-23T11:57:02Z</time>
      </trkpt>
      <trkpt lat="45.1093" lon="4.69123">
        <ele>678.8</ele>
        <time>2020-05-23T11:57:06Z</time>
      </trkpt>
      <trkpt lat="45.10936" lon="4.69149">
        <ele>678.6</ele>
        <time>2020-05-23T11:57:10Z</time>
      </trkpt>
      <trkpt lat="45.10943" lon="4.69176">
        <ele>678.8</ele>
        <time>2020-05-23T11:57:14Z</time>
      </trkpt>
      <trkpt lat="45.10949" lon="4.69202">
        <ele>679</ele>
        <time>2020-05-23T11:57:18Z</time>
      </trkpt>
      <trkpt lat="45.10954" lon="4.69228">
        <ele>679.4</ele>
        <time>2020-05-23T11:57:22Z</time>
      </trkpt>
      <trkpt lat="45.1096" lon="4.69254">
        <ele>678.8</ele>
        <time>2020-05-23T11:57:26Z</time>
      </trkpt>
      <trkpt lat="45.10966" lon="4.69281">
        <ele>678.2</ele>
        <time>2020-05-23T11:57:30Z</time>
      </trkpt>
      <trkpt lat="45.10973" lon="4.69312">
        <ele>678.6</ele>
        <time>2020-05-23T11:57:34Z</time>
      </trkpt>
      <trkpt lat="45.1098" lon="4.69346">
        <ele>678</ele>
        <time>2020-05-23T11:57:38Z</time>
      </trkpt>
      <trkpt lat="45.10989" lon="4.69385">
        <ele>678</ele>
        <time>2020-05-23T11:57:42Z</time>
      </trkpt>
      <trkpt lat="45.10999" lon="4.69424">
        <ele>677.6</ele>
        <time>2020-05-23T11:57:46Z</time>
      </trkpt>
      <trkpt lat="45.11013" lon="4.69464">
        <ele>664.8</ele>
        <time>2020-05-23T11:57:50Z</time>
      </trkpt>
      <trkpt lat="45.11031" lon="4.69502">
        <ele>554.4</ele>
        <time>2020-05-23T11:57:54Z</time>
      </trkpt>
      <trkpt lat="45.11053" lon="4.69534">
        <ele>510.6</ele>
        <time>2020-05-23T11:57:58Z</time>
      </trkpt>
      <trkpt lat="45.11077" lon="4.69563">
        <ele>495.2</ele>
        <time>2020-05-23T11:58:02Z</time>
      </trkpt>
      <trkpt lat="45.11097" lon="4.69596">
        <ele>488.6</ele>
        <time>2020-05-23T11:58:06Z</time>
      </trkpt>
      <trkpt lat="45.11113" lon="4.69631">
        <ele>486.2</ele>
        <time>2020-05-23T11:58:10Z</time>
      </trkpt>
      <trkpt lat="45.11127" lon="4.69661">
        <ele>486</ele>
        <time>2020-05-23T11:58:14Z</time>
      </trkpt>
      <trkpt lat="45.11141" lon="4.69688">
        <ele>486.2</ele>
        <time>2020-05-23T11:58:18Z</time>
      </trkpt>
      <trkpt lat="45.11156" lon="4.69712">
        <ele>485.2</ele>
        <time>2020-05-23T11:58:22Z</time>
      </trkpt>
      <trkpt lat="45.11173" lon="4.69736">
        <ele>485</ele>
        <time>2020-05-23T11:58:26Z</time>
      </trkpt>
      <trkpt lat="45.11189" lon="4.69762">
        <ele>483.2</ele>
        <time>2020-05-23T11:58:30Z</time>
      </trkpt>
      <trkpt lat="45.112" lon="4.69791">
        <ele>484</ele>
        <time>2020-05-23T11:58:34Z</time>
      </trkpt>
      <trkpt lat="45.11209" lon="4.6982">
        <ele>484.2</ele>
        <time>2020-05-23T11:58:38Z</time>
      </trkpt>
      <trkpt lat="45.11215" lon="4.69847">
        <ele>484.4</ele>
        <time>2020-05-23T11:58:42Z</time>
      </trkpt>
      <trkpt lat="45.1122" lon="4.69871">
        <ele>484.6</ele>
        <time>2020-05-23T11:58:46Z</time>
      </trkpt>
      <trkpt lat="45.11225" lon="4.69892">
        <ele>486</ele>
        <time>2020-05-23T11:58:50Z</time>
      </trkpt>
      <trkpt lat="45.1123" lon="4.69912">
        <ele>486.8</ele>
        <time>2020-05-23T11:58:54Z</time>
      </trkpt>
      <trkpt lat="45.11234" lon="4.6993">
        <ele>486.6</ele>
        <time>2020-05-23T11:58:58Z</time>
      </trkpt>
      <trkpt lat="45.11239" lon="4.69948">
        <ele>487.6</ele>
        <time>2020-05-23T11:59:02Z</time>
      </trkpt>
      <trkpt lat="45.11246" lon="4.69965">
        <ele>488.6</ele>
        <time>2020-05-23T11:59:06Z</time>
      </trkpt>
      <trkpt lat="45.11255" lon="4.69982">
        <ele>487.8</ele>
        <time>2020-05-23T11:59:10Z</time>
      </trkpt>
      <trkpt lat="45.11265" lon="4.69997">
        <ele>488.4</ele>
        <time>2020-05-23T11:59:14Z</time>
      </trkpt>
      <trkpt lat="45.11277" lon="4.70012">
        <ele>487.8</ele>
        <time>2020-05-23T11:59:18Z</time>
      </trkpt>
      <trkpt lat="45.11289" lon="4.70025">
        <ele>488</ele>
        <time>2020-05-23T11:59:22Z</time>
      </trkpt>
      <trkpt lat="45.113" lon="4.70039">
        <ele>487.6</ele>
        <time>2020-05-23T11:59:26Z</time>
      </trkpt>
      <trkpt lat="45.11311" lon="4.70053">
        <ele>487.8</ele>
        <time>2020-05-23T11:59:30Z</time>
      </trkpt>
      <trkpt lat="45.1132" lon="4.7007">
        <ele>488.4</ele>
        <time>2020-05-23T11:59:34Z</time>
      </trkpt>
      <trkpt lat="45.11328" lon="4.70088">
        <ele>488.4</ele>
        <time>2020-05-23T11:59:38Z</time>
      </trkpt>
      <trkpt lat="45.11335" lon="4.70106">
        <ele>489.6</ele>
        <time>2020-05-23T11:59:42Z</time>
      </trkpt>
      <trkpt lat="45.11339" lon="4.70122">
        <ele>490.2</ele>
        <time>2020-05-23T11:59:46Z</time>
      </trkpt>
      <trkpt lat="45.11347" lon="4.70115">
        <ele>491.2</ele>
        <time>2020-05-23T12:01:05Z</time>
      </trkpt>
      <trkpt lat="45.11358" lon="4.701">
        <ele>490</ele>
        <time>2020-05-23T12:01:09Z</time>
      </trkpt>
      <trkpt lat="45.11372" lon="4.7009">
        <ele>489</ele>
        <time>2020-05-23T12:01:13Z</time>
      </trkpt>
      <trkpt lat="45.11386" lon="4.70079">
        <ele>488.6</ele>
        <time>2020-05-23T12:01:17Z</time>
      </trkpt>
      <trkpt lat="45.11401" lon="4.7007">
        <ele>488</ele>
        <time>2020-05-23T12:01:21Z</time>
      </trkpt>
      <trkpt lat="45.11417" lon="4.70065">
        <ele>487.4</ele>
        <time>2020-05-23T12:01:25Z</time>
      </trkpt>
      <trkpt lat="45.11435" lon="4.70067">
        <ele>487</ele>
        <time>2020-05-23T12:01:29Z</time>
      </trkpt>
      <trkpt lat="45.11453" lon="4.70075">
        <ele>486.8</ele>
        <time>2020-05-23T12:01:33Z</time>
      </trkpt>
      <trkpt lat="45.11471" lon="4.70088">
        <ele>485.4</ele>
        <time>2020-05-23T12:01:37Z</time>
      </trkpt>
      <trkpt lat="45.11489" lon="4.70101">
        <ele>485.8</ele>
        <time>2020-05-23T12:01:41Z</time>
      </trkpt>
      <trkpt lat="45.11508" lon="4.70115">
        <ele>485.6</ele>
        <time>2020-05-23T12:01:45Z</time>
      </trkpt>
      <trkpt lat="45.11527" lon="4.70128">
        <ele>484.4</ele>
        <time>2020-05-23T12:01:49Z</time>
      </trkpt>
      <trkpt lat="45.11545" lon="4.70142">
        <ele>483.4</ele>
        <time>2020-05-23T12:01:53Z</time>
      </trkpt>
      <trkpt lat="45.11563" lon="4.70154">
        <ele>482.6</ele>
        <time>2020-05-23T12:01:57Z</time>
      </trkpt>
      <trkpt lat="45.11582" lon="4.70164">
        <ele>483.6</ele>
        <time>2020-05-23T12:02:01Z</time>
      </trkpt>
      <trkpt lat="45.11602" lon="4.70174">
        <ele>483</ele>
        <time>2020-05-23T12:02:05Z</time>
      </trkpt>
      <trkpt lat="45.11622" lon="4.7018">
        <ele>482.6</ele>
        <time>2020-05-23T12:02:09Z</time>
      </trkpt>
      <trkpt lat="45.11643" lon="4.70177">
        <ele>482.6</ele>
        <time>2020-05-23T12:02:13Z</time>
      </trkpt>
      <trkpt lat="45.11663" lon="4.70163">
        <ele>482.8</ele>
        <time>2020-05-23T12:02:17Z</time>
      </trkpt>
      <trkpt lat="45.11686" lon="4.70152">
        <ele>482.4</ele>
        <time>2020-05-23T12:02:21Z</time>
      </trkpt>
      <trkpt lat="45.1171" lon="4.70159">
        <ele>482.2</ele>
        <time>2020-05-23T12:02:25Z</time>
      </trkpt>
      <trkpt lat="45.11724" lon="4.70186">
        <ele>482.6</ele>
        <time>2020-05-23T12:02:29Z</time>
      </trkpt>
      <trkpt lat="45.11734" lon="4.70215">
        <ele>482.6</ele>
        <time>2020-05-23T12:02:33Z</time>
      </trkpt>
      <trkpt lat="45.11747" lon="4.7024">
        <ele>482.4</ele>
        <time>2020-05-23T12:02:37Z</time>
      </trkpt>
      <trkpt lat="45.11761" lon="4.70262">
        <ele>482.6</ele>
        <time>2020-05-23T12:02:41Z</time>
      </trkpt>
      <trkpt lat="45.11777" lon="4.70284">
        <ele>482.4</ele>
        <time>2020-05-23T12:02:45Z</time>
      </trkpt>
      <trkpt lat="45.11794" lon="4.70302">
        <ele>482.2</ele>
        <time>2020-05-23T12:02:49Z</time>
      </trkpt>
      <trkpt lat="45.11813" lon="4.70314">
        <ele>482.6</ele>
        <time>2020-05-23T12:02:53Z</time>
      </trkpt>
      <trkpt lat="45.11834" lon="4.70325">
        <ele>482.4</ele>
        <time>2020-05-23T12:02:57Z</time>
      </trkpt>
      <trkpt lat="45.11854" lon="4.70336">
        <ele>482.4</ele>
        <time>2020-05-23T12:03:01Z</time>
      </trkpt>
      <trkpt lat="45.11875" lon="4.70347">
        <ele>482.4</ele>
        <time>2020-05-23T12:03:05Z</time>
      </trkpt>
      <trkpt lat="45.11895" lon="4.70358">
        <ele>482.4</ele>
        <time>2020-05-23T12:03:09Z</time>
      </trkpt>
      <trkpt lat="45.11916" lon="4.70369">
        <ele>483</ele>
        <time>2020-05-23T12:03:13Z</time>
      </trkpt>
      <trkpt lat="45.11936" lon="4.7038">
        <ele>482.4</ele>
        <time>2020-05-23T12:03:17Z</time>
      </trkpt>
      <trkpt lat="45.11956" lon="4.7039">
        <ele>482.4</ele>
        <time>2020-05-23T12:03:21Z</time>
      </trkpt>
      <trkpt lat="45.11978" lon="4.70397">
        <ele>482.6</ele>
        <time>2020-05-23T12:03:25Z</time>
      </trkpt>
      <trkpt lat="45.12001" lon="4.704">
        <ele>482.4</ele>
        <time>2020-05-23T12:03:29Z</time>
      </trkpt>
      <trkpt lat="45.12025" lon="4.70398">
        <ele>482.2</ele>
        <time>2020-05-23T12:03:33Z</time>
      </trkpt>
      <trkpt lat="45.12049" lon="4.7039">
        <ele>482.2</ele>
        <time>2020-05-23T12:03:37Z</time>
      </trkpt>
      <trkpt lat="45.12073" lon="4.70386">
        <ele>482.4</ele>
        <time>2020-05-23T12:03:41Z</time>
      </trkpt>
      <trkpt lat="45.12095" lon="4.70403">
        <ele>482.2</ele>
        <time>2020-05-23T12:03:45Z</time>
      </trkpt>
      <trkpt lat="45.12103" lon="4.70438">
        <ele>482.2</ele>
        <time>2020-05-23T12:03:49Z</time>
      </trkpt>
      <trkpt lat="45.12105" lon="4.70473">
        <ele>482.6</ele>
        <time>2020-05-23T12:03:53Z</time>
      </trkpt>
      <trkpt lat="45.12116" lon="4.70504">
        <ele>482.4</ele>
        <time>2020-05-23T12:03:57Z</time>
      </trkpt>
      <trkpt lat="45.12136" lon="4.70525">
        <ele>482.2</ele>
        <time>2020-05-23T12:04:01Z</time>
      </trkpt>
      <trkpt lat="45.12159" lon="4.70541">
        <ele>482.6</ele>
        <time>2020-05-23T12:04:05Z</time>
      </trkpt>
      <trkpt lat="45.12181" lon="4.70558">
        <ele>482.4</ele>
        <time>2020-05-23T12:04:09Z</time>
      </trkpt>
      <trkpt lat="45.12205" lon="4.70574">
        <ele>482.4</ele>
        <time>2020-05-23T12:04:13Z</time>
      </trkpt>
      <trkpt lat="45.12229" lon="4.70592">
        <ele>482</ele>
        <time>2020-05-23T12:04:17Z</time>
      </trkpt>
      <trkpt lat="45.12251" lon="4.70608">
        <ele>482.4</ele>
        <time>2020-05-23T12:04:21Z</time>
      </trkpt>
      <trkpt lat="45.12274" lon="4.70621">
        <ele>482.2</ele>
        <time>2020-05-23T12:04:25Z</time>
      </trkpt>
      <trkpt lat="45.123" lon="4.70627">
        <ele>482.6</ele>
        <time>2020-05-23T12:04:29Z</time>
      </trkpt>
      <trkpt lat="45.12326" lon="4.70628">
        <ele>482</ele>
        <time>2020-05-23T12:04:33Z</time>
      </trkpt>
      <trkpt lat="45.12352" lon="4.70628">
        <ele>482.4</ele>
        <time>2020-05-23T12:04:37Z</time>
      </trkpt>
      <trkpt lat="45.12378" lon="4.70625">
        <ele>482.2</ele>
        <time>2020-05-23T12:04:41Z</time>
      </trkpt>
      <trkpt lat="45.12404" lon="4.70615">
        <ele>482.6</ele>
        <time>2020-05-23T12:04:45Z</time>
      </trkpt>
      <trkpt lat="45.1243" lon="4.70602">
        <ele>482</ele>
        <time>2020-05-23T12:04:49Z</time>
      </trkpt>
      <trkpt lat="45.12457" lon="4.70589">
        <ele>482</ele>
        <time>2020-05-23T12:04:53Z</time>
      </trkpt>
      <trkpt lat="45.12482" lon="4.70573">
        <ele>482.2</ele>
        <time>2020-05-23T12:04:57Z</time>
      </trkpt>
      <trkpt lat="45.12508" lon="4.70557">
        <ele>482</ele>
        <time>2020-05-23T12:05:01Z</time>
      </trkpt>
      <trkpt lat="45.12535" lon="4.70547">
        <ele>482.6</ele>
        <time>2020-05-23T12:05:05Z</time>
      </trkpt>
      <trkpt lat="45.12562" lon="4.7054">
        <ele>482.2</ele>
        <time>2020-05-23T12:05:09Z</time>
      </trkpt>
      <trkpt lat="45.12588" lon="4.70532">
        <ele>482</ele>
        <time>2020-05-23T12:05:13Z</time>
      </trkpt>
      <trkpt lat="45.12613" lon="4.70524">
        <ele>482.8</ele>
        <time>2020-05-23T12:05:17Z</time>
      </trkpt>
      <trkpt lat="45.1264" lon="4.70518">
        <ele>482.4</ele>
        <time>2020-05-23T12:05:21Z</time>
      </trkpt>
      <trkpt lat="45.12666" lon="4.7051">
        <ele>482.8</ele>
        <time>2020-05-23T12:05:25Z</time>
      </trkpt>
      <trkpt lat="45.12693" lon="4.70502">
        <ele>482.6</ele>
        <time>2020-05-23T12:05:29Z</time>
      </trkpt>
      <trkpt lat="45.12719" lon="4.70495">
        <ele>482.2</ele>
        <time>2020-05-23T12:05:33Z</time>
      </trkpt>
      <trkpt lat="45.12745" lon="4.70488">
        <ele>482.8</ele>
        <time>2020-05-23T12:05:37Z</time>
      </trkpt>
      <trkpt lat="45.1277" lon="4.70482">
        <ele>482.6</ele>
        <time>2020-05-23T12:05:41Z</time>
      </trkpt>
      <trkpt lat="45.12793" lon="4.70476">
        <ele>483</ele>
        <time>2020-05-23T12:05:45Z</time>
      </trkpt>
      <trkpt lat="45.12817" lon="4.70465">
        <ele>483.2</ele>
        <time>2020-05-23T12:05:49Z</time>
      </trkpt>
      <trkpt lat="45.12841" lon="4.70447">
        <ele>482.4</ele>
        <time>2020-05-23T12:05:53Z</time>
      </trkpt>
      <trkpt lat="45.12865" lon="4.70425">
        <ele>482.4</ele>
        <time>2020-05-23T12:05:57Z</time>
      </trkpt>
      <trkpt lat="45.12889" lon="4.70403">
        <ele>482</ele>
        <time>2020-05-23T12:06:01Z</time>
      </trkpt>
      <trkpt lat="45.12915" lon="4.70386">
        <ele>482.4</ele>
        <time>2020-05-23T12:06:05Z</time>
      </trkpt>
      <trkpt lat="45.12944" lon="4.70382">
        <ele>482.8</ele>
        <time>2020-05-23T12:06:09Z</time>
      </trkpt>
      <trkpt lat="45.12972" lon="4.7039">
        <ele>482.6</ele>
        <time>2020-05-23T12:06:13Z</time>
      </trkpt>
      <trkpt lat="45.12999" lon="4.70403">
        <ele>481.6</ele>
        <time>2020-05-23T12:06:17Z</time>
      </trkpt>
      <trkpt lat="45.13027" lon="4.70415">
        <ele>482.2</ele>
        <time>2020-05-23T12:06:21Z</time>
      </trkpt>
      <trkpt lat="45.13055" lon="4.7042">
        <ele>482</ele>
        <time>2020-05-23T12:06:25Z</time>
      </trkpt>
      <trkpt lat="45.13085" lon="4.70411">
        <ele>482</ele>
        <time>2020-05-23T12:06:29Z</time>
      </trkpt>
      <trkpt lat="45.13107" lon="4.70384">
        <ele>482</ele>
        <time>2020-05-23T12:06:33Z</time>
      </trkpt>
      <trkpt lat="45.13121" lon="4.70344">
        <ele>481.6</ele>
        <time>2020-05-23T12:06:37Z</time>
      </trkpt>
      <trkpt lat="45.13133" lon="4.70301">
        <ele>481.2</ele>
        <time>2020-05-23T12:06:41Z</time>
      </trkpt>
      <trkpt lat="45.13154" lon="4.70265">
        <ele>480.6</ele>
        <time>2020-05-23T12:06:45Z</time>
      </trkpt>
      <trkpt lat="45.13184" lon="4.70257">
        <ele>480.4</ele>
        <time>2020-05-23T12:06:49Z</time>
      </trkpt>
      <trkpt lat="45.13211" lon="4.70269">
        <ele>480.2</ele>
        <time>2020-05-23T12:06:53Z</time>
      </trkpt>
      <trkpt lat="45.13233" lon="4.70285">
        <ele>481</ele>
        <time>2020-05-23T12:06:57Z</time>
      </trkpt>
      <trkpt lat="45.1325" lon="4.70299">
        <ele>480.2</ele>
        <time>2020-05-23T12:07:01Z</time>
      </trkpt>
      <trkpt lat="45.13266" lon="4.70311">
        <ele>465.2</ele>
        <time>2020-05-23T12:07:05Z</time>
      </trkpt>
      <trkpt lat="45.13281" lon="4.70321">
        <ele>450</ele>
        <time>2020-05-23T12:07:09Z</time>
      </trkpt>
      <trkpt lat="45.13296" lon="4.70331">
        <ele>440.6</ele>
        <time>2020-05-23T12:07:13Z</time>
      </trkpt>
      <trkpt lat="45.1331" lon="4.70342">
        <ele>435.4</ele>
        <time>2020-05-23T12:07:17Z</time>
      </trkpt>
      <trkpt lat="45.13323" lon="4.70355">
        <ele>432.6</ele>
        <time>2020-05-23T12:07:21Z</time>
      </trkpt>
      <trkpt lat="45.13335" lon="4.70369">
        <ele>432.2</ele>
        <time>2020-05-23T12:07:25Z</time>
      </trkpt>
      <trkpt lat="45.13347" lon="4.70384">
        <ele>431.6</ele>
        <time>2020-05-23T12:07:29Z</time>
      </trkpt>
      <trkpt lat="45.13359" lon="4.704">
        <ele>432.4</ele>
        <time>2020-05-23T12:07:33Z</time>
      </trkpt>
      <trkpt lat="45.13372" lon="4.70415">
        <ele>431.8</ele>
        <time>2020-05-23T12:07:37Z</time>
      </trkpt>
      <trkpt lat="45.13382" lon="4.7043">
        <ele>432</ele>
        <time>2020-05-23T12:07:41Z</time>
      </trkpt>
      <trkpt lat="45.13392" lon="4.70447">
        <ele>432.6</ele>
        <time>2020-05-23T12:07:45Z</time>
      </trkpt>
      <trkpt lat="45.13401" lon="4.70462">
        <ele>433.4</ele>
        <time>2020-05-23T12:07:49Z</time>
      </trkpt>
      <trkpt lat="45.1341" lon="4.70478">
        <ele>433.2</ele>
        <time>2020-05-23T12:07:53Z</time>
      </trkpt>
      <trkpt lat="45.1342" lon="4.70495">
        <ele>434.4</ele>
        <time>2020-05-23T12:07:57Z</time>
      </trkpt>
      <trkpt lat="45.13429" lon="4.70512">
        <ele>434.4</ele>
        <time>2020-05-23T12:08:01Z</time>
      </trkpt>
      <trkpt lat="45.13439" lon="4.70528">
        <ele>435</ele>
        <time>2020-05-23T12:08:05Z</time>
      </trkpt>
      <trkpt lat="45.13448" lon="4.70544">
        <ele>435.4</ele>
        <time>2020-05-23T12:08:09Z</time>
      </trkpt>
      <trkpt lat="45.13457" lon="4.7056">
        <ele>435.8</ele>
        <time>2020-05-23T12:08:13Z</time>
      </trkpt>
      <trkpt lat="45.13467" lon="4.70576">
        <ele>436.6</ele>
        <time>2020-05-23T12:08:17Z</time>
      </trkpt>
      <trkpt lat="45.13476" lon="4.70592">
        <ele>437.2</ele>
        <time>2020-05-23T12:08:21Z</time>
      </trkpt>
      <trkpt lat="45.13485" lon="4.70608">
        <ele>437.6</ele>
        <time>2020-05-23T12:08:25Z</time>
      </trkpt>
      <trkpt lat="45.13494" lon="4.70624">
        <ele>437.2</ele>
        <time>2020-05-23T12:08:29Z</time>
      </trkpt>
      <trkpt lat="45.13503" lon="4.70639">
        <ele>437.8</ele>
        <time>2020-05-23T12:08:33Z</time>
      </trkpt>
      <trkpt lat="45.13513" lon="4.70653">
        <ele>437.6</ele>
        <time>2020-05-23T12:08:37Z</time>
      </trkpt>
      <trkpt lat="45.13524" lon="4.70665">
        <ele>437.8</ele>
        <time>2020-05-23T12:08:41Z</time>
      </trkpt>
      <trkpt lat="45.13537" lon="4.70675">
        <ele>437.8</ele>
        <time>2020-05-23T12:08:45Z</time>
      </trkpt>
      <trkpt lat="45.13551" lon="4.70682">
        <ele>438.6</ele>
        <time>2020-05-23T12:08:49Z</time>
      </trkpt>
      <trkpt lat="45.13566" lon="4.70687">
        <ele>439</ele>
        <time>2020-05-23T12:08:53Z</time>
      </trkpt>
      <trkpt lat="45.13582" lon="4.70691">
        <ele>439</ele>
        <time>2020-05-23T12:08:57Z</time>
      </trkpt>
      <trkpt lat="45.13598" lon="4.70696">
        <ele>439.6</ele>
        <time>2020-05-23T12:09:01Z</time>
      </trkpt>
      <trkpt lat="45.13615" lon="4.707">
        <ele>439.6</ele>
        <time>2020-05-23T12:09:05Z</time>
      </trkpt>
      <trkpt lat="45.13634" lon="4.70705">
        <ele>439.6</ele>
        <time>2020-05-23T12:09:09Z</time>
      </trkpt>
      <trkpt lat="45.13654" lon="4.70711">
        <ele>438.8</ele>
        <time>2020-05-23T12:09:13Z</time>
      </trkpt>
      <trkpt lat="45.13674" lon="4.70717">
        <ele>438.6</ele>
        <time>2020-05-23T12:09:17Z</time>
      </trkpt>
      <trkpt lat="45.13695" lon="4.70722">
        <ele>438</ele>
        <time>2020-05-23T12:09:21Z</time>
      </trkpt>
      <trkpt lat="45.13716" lon="4.70727">
        <ele>437.4</ele>
        <time>2020-05-23T12:09:25Z</time>
      </trkpt>
      <trkpt lat="45.13736" lon="4.70733">
        <ele>437.8</ele>
        <time>2020-05-23T12:09:29Z</time>
      </trkpt>
      <trkpt lat="45.13755" lon="4.70738">
        <ele>437.6</ele>
        <time>2020-05-23T12:09:33Z</time>
      </trkpt>
      <trkpt lat="45.13774" lon="4.70743">
        <ele>437.6</ele>
        <time>2020-05-23T12:09:37Z</time>
      </trkpt>
      <trkpt lat="45.13793" lon="4.70749">
        <ele>438.4</ele>
        <time>2020-05-23T12:09:41Z</time>
      </trkpt>
      <trkpt lat="45.13811" lon="4.70759">
        <ele>438.4</ele>
        <time>2020-05-23T12:09:45Z</time>
      </trkpt>
      <trkpt lat="45.13828" lon="4.70774">
        <ele>438.2</ele>
        <time>2020-05-23T12:09:49Z</time>
      </trkpt>
      <trkpt lat="45.13843" lon="4.70791">
        <ele>438.8</ele>
        <time>2020-05-23T12:09:53Z</time>
      </trkpt>
      <trkpt lat="45.13858" lon="4.70808">
        <ele>439.2</ele>
        <time>2020-05-23T12:09:57Z</time>
      </trkpt>
      <trkpt lat="45.13875" lon="4.70822">
        <ele>439.6</ele>
        <time>2020-05-23T12:10:01Z</time>
      </trkpt>
      <trkpt lat="45.13894" lon="4.70829">
        <ele>439.6</ele>
        <time>2020-05-23T12:10:05Z</time>
      </trkpt>
      <trkpt lat="45.13915" lon="4.70829">
        <ele>439.8</ele>
        <time>2020-05-23T12:10:09Z</time>
      </trkpt>
      <trkpt lat="45.13936" lon="4.70816">
        <ele>439.6</ele>
        <time>2020-05-23T12:10:13Z</time>
      </trkpt>
      <trkpt lat="45.13953" lon="4.70798">
        <ele>440.2</ele>
        <time>2020-05-23T12:10:17Z</time>
      </trkpt>
      <trkpt lat="45.1397" lon="4.70781">
        <ele>440.8</ele>
        <time>2020-05-23T12:10:21Z</time>
      </trkpt>
      <trkpt lat="45.13986" lon="4.70763">
        <ele>440.8</ele>
        <time>2020-05-23T12:10:25Z</time>
      </trkpt>
      <trkpt lat="45.14002" lon="4.70744">
        <ele>441.2</ele>
        <time>2020-05-23T12:10:29Z</time>
      </trkpt>
      <trkpt lat="45.1402" lon="4.70727">
        <ele>440.8</ele>
        <time>2020-05-23T12:10:33Z</time>
      </trkpt>
      <trkpt lat="45.14036" lon="4.7071">
        <ele>441</ele>
        <time>2020-05-23T12:10:37Z</time>
      </trkpt>
      <trkpt lat="45.14051" lon="4.70693">
        <ele>440.6</ele>
        <time>2020-05-23T12:10:41Z</time>
      </trkpt>
      <trkpt lat="45.14067" lon="4.70676">
        <ele>440.6</ele>
        <time>2020-05-23T12:10:45Z</time>
      </trkpt>
      <trkpt lat="45.14084" lon="4.70662">
        <ele>441.2</ele>
        <time>2020-05-23T12:10:49Z</time>
      </trkpt>
      <trkpt lat="45.14102" lon="4.70655">
        <ele>441</ele>
        <time>2020-05-23T12:10:53Z</time>
      </trkpt>
      <trkpt lat="45.14117" lon="4.70652">
        <ele>440.8</ele>
        <time>2020-05-23T12:10:57Z</time>
      </trkpt>
      <trkpt lat="45.14132" lon="4.70652">
        <ele>441.4</ele>
        <time>2020-05-23T12:11:01Z</time>
      </trkpt>
      <trkpt lat="45.14154" lon="4.70651">
        <ele>441.8</ele>
        <time>2020-05-23T12:11:05Z</time>
      </trkpt>
      <trkpt lat="45.14172" lon="4.70648">
        <ele>441.6</ele>
        <time>2020-05-23T12:11:09Z</time>
      </trkpt>
      <trkpt lat="45.14191" lon="4.70645">
        <ele>442.4</ele>
        <time>2020-05-23T12:11:13Z</time>
      </trkpt>
      <trkpt lat="45.14208" lon="4.70641">
        <ele>442</ele>
        <time>2020-05-23T12:11:17Z</time>
      </trkpt>
      <trkpt lat="45.14224" lon="4.70639">
        <ele>442.2</ele>
        <time>2020-05-23T12:11:21Z</time>
      </trkpt>
      <trkpt lat="45.1424" lon="4.70638">
        <ele>442.8</ele>
        <time>2020-05-23T12:11:25Z</time>
      </trkpt>
      <trkpt lat="45.14255" lon="4.70636">
        <ele>442.6</ele>
        <time>2020-05-23T12:11:29Z</time>
      </trkpt>
      <trkpt lat="45.1427" lon="4.70635">
        <ele>442.8</ele>
        <time>2020-05-23T12:11:33Z</time>
      </trkpt>
      <trkpt lat="45.14285" lon="4.70633">
        <ele>443.2</ele>
        <time>2020-05-23T12:11:37Z</time>
      </trkpt>
      <trkpt lat="45.14301" lon="4.70631">
        <ele>443.2</ele>
        <time>2020-05-23T12:11:41Z</time>
      </trkpt>
      <trkpt lat="45.14317" lon="4.7063">
        <ele>443.6</ele>
        <time>2020-05-23T12:11:45Z</time>
      </trkpt>
      <trkpt lat="45.14333" lon="4.70629">
        <ele>444</ele>
        <time>2020-05-23T12:11:49Z</time>
      </trkpt>
      <trkpt lat="45.1435" lon="4.70627">
        <ele>444.2</ele>
        <time>2020-05-23T12:11:53Z</time>
      </trkpt>
      <trkpt lat="45.14366" lon="4.70625">
        <ele>444.6</ele>
        <time>2020-05-23T12:11:57Z</time>
      </trkpt>
      <trkpt lat="45.14382" lon="4.70624">
        <ele>444.8</ele>
        <time>2020-05-23T12:12:01Z</time>
      </trkpt>
      <trkpt lat="45.14399" lon="4.70623">
        <ele>444.4</ele>
        <time>2020-05-23T12:12:05Z</time>
      </trkpt>
      <trkpt lat="45.14415" lon="4.7062">
        <ele>444.6</ele>
        <time>2020-05-23T12:12:09Z</time>
      </trkpt>
      <trkpt lat="45.14429" lon="4.70619">
        <ele>444.4</ele>
        <time>2020-05-23T12:12:13Z</time>
      </trkpt>
      <trkpt lat="45.14443" lon="4.70619">
        <ele>444.6</ele>
        <time>2020-05-23T12:12:17Z</time>
      </trkpt>
      <trkpt lat="45.14457" lon="4.70623">
        <ele>444.8</ele>
        <time>2020-05-23T12:12:21Z</time>
      </trkpt>
      <trkpt lat="45.14472" lon="4.70621">
        <ele>445</ele>
        <time>2020-05-23T12:12:25Z</time>
      </trkpt>
      <trkpt lat="45.14486" lon="4.70615">
        <ele>445</ele>
        <time>2020-05-23T12:12:29Z</time>
      </trkpt>
      <trkpt lat="45.14501" lon="4.70613">
        <ele>445</ele>
        <time>2020-05-23T12:12:33Z</time>
      </trkpt>
      <trkpt lat="45.14516" lon="4.70611">
        <ele>445.2</ele>
        <time>2020-05-23T12:12:37Z</time>
      </trkpt>
      <trkpt lat="45.14532" lon="4.7061">
        <ele>445.6</ele>
        <time>2020-05-23T12:12:41Z</time>
      </trkpt>
      <trkpt lat="45.14549" lon="4.70608">
        <ele>445.2</ele>
        <time>2020-05-23T12:12:45Z</time>
      </trkpt>
      <trkpt lat="45.14566" lon="4.70606">
        <ele>444.6</ele>
        <time>2020-05-23T12:12:49Z</time>
      </trkpt>
      <trkpt lat="45.14584" lon="4.70604">
        <ele>445</ele>
        <time>2020-05-23T12:12:53Z</time>
      </trkpt>
      <trkpt lat="45.146" lon="4.70603">
        <ele>444.8</ele>
        <time>2020-05-23T12:12:57Z</time>
      </trkpt>
      <trkpt lat="45.14613" lon="4.70603">
        <ele>444.6</ele>
        <time>2020-05-23T12:13:01Z</time>
      </trkpt>
      <trkpt lat="45.14626" lon="4.706">
        <ele>444.4</ele>
        <time>2020-05-23T12:13:05Z</time>
      </trkpt>
      <trkpt lat="45.1464" lon="4.706">
        <ele>444.4</ele>
        <time>2020-05-23T12:13:09Z</time>
      </trkpt>
      <trkpt lat="45.14655" lon="4.70608">
        <ele>443.8</ele>
        <time>2020-05-23T12:13:13Z</time>
      </trkpt>
      <trkpt lat="45.14667" lon="4.70614">
        <ele>443.8</ele>
        <time>2020-05-23T12:13:17Z</time>
      </trkpt>
      <trkpt lat="45.14681" lon="4.70616">
        <ele>443.2</ele>
        <time>2020-05-23T12:13:21Z</time>
      </trkpt>
      <trkpt lat="45.14697" lon="4.70608">
        <ele>443.4</ele>
        <time>2020-05-23T12:13:25Z</time>
      </trkpt>
      <trkpt lat="45.14714" lon="4.70603">
        <ele>442.6</ele>
        <time>2020-05-23T12:13:29Z</time>
      </trkpt>
      <trkpt lat="45.14732" lon="4.70597">
        <ele>442.8</ele>
        <time>2020-05-23T12:13:33Z</time>
      </trkpt>
      <trkpt lat="45.14751" lon="4.7059">
        <ele>443</ele>
        <time>2020-05-23T12:13:37Z</time>
      </trkpt>
      <trkpt lat="45.14773" lon="4.70584">
        <ele>443</ele>
        <time>2020-05-23T12:13:41Z</time>
      </trkpt>
      <trkpt lat="45.14798" lon="4.70576">
        <ele>442</ele>
        <time>2020-05-23T12:13:45Z</time>
      </trkpt>
      <trkpt lat="45.14826" lon="4.70569">
        <ele>441.8</ele>
        <time>2020-05-23T12:13:49Z</time>
      </trkpt>
      <trkpt lat="45.14855" lon="4.70569">
        <ele>441.6</ele>
        <time>2020-05-23T12:13:53Z</time>
      </trkpt>
      <trkpt lat="45.1487" lon="4.70596">
        <ele>442</ele>
        <time>2020-05-23T12:13:57Z</time>
      </trkpt>
      <trkpt lat="45.14874" lon="4.70631">
        <ele>441.4</ele>
        <time>2020-05-23T12:14:01Z</time>
      </trkpt>
      <trkpt lat="45.14877" lon="4.70667">
        <ele>442</ele>
        <time>2020-05-23T12:14:05Z</time>
      </trkpt>
      <trkpt lat="45.1488" lon="4.70702">
        <ele>442</ele>
        <time>2020-05-23T12:14:09Z</time>
      </trkpt>
      <trkpt lat="45.14883" lon="4.70737">
        <ele>441.8</ele>
        <time>2020-05-23T12:14:13Z</time>
      </trkpt>
      <trkpt lat="45.14887" lon="4.70771">
        <ele>441.6</ele>
        <time>2020-05-23T12:14:17Z</time>
      </trkpt>
      <trkpt lat="45.14893" lon="4.70803">
        <ele>441.6</ele>
        <time>2020-05-23T12:14:21Z</time>
      </trkpt>
      <trkpt lat="45.14902" lon="4.70833">
        <ele>441.6</ele>
        <time>2020-05-23T12:14:25Z</time>
      </trkpt>
      <trkpt lat="45.14914" lon="4.7086">
        <ele>441.6</ele>
        <time>2020-05-23T12:14:29Z</time>
      </trkpt>
      <trkpt lat="45.14929" lon="4.70884">
        <ele>441.6</ele>
        <time>2020-05-23T12:14:33Z</time>
      </trkpt>
      <trkpt lat="45.14945" lon="4.70906">
        <ele>441.6</ele>
        <time>2020-05-23T12:14:37Z</time>
      </trkpt>
      <trkpt lat="45.14962" lon="4.70929">
        <ele>442</ele>
        <time>2020-05-23T12:14:41Z</time>
      </trkpt>
      <trkpt lat="45.14979" lon="4.70953">
        <ele>442.2</ele>
        <time>2020-05-23T12:14:45Z</time>
      </trkpt>
      <trkpt lat="45.14999" lon="4.70977">
        <ele>441.8</ele>
        <time>2020-05-23T12:14:49Z</time>
      </trkpt>
      <trkpt lat="45.15021" lon="4.71004">
        <ele>441.2</ele>
        <time>2020-05-23T12:14:53Z</time>
      </trkpt>
      <trkpt lat="45.15044" lon="4.71032">
        <ele>441.2</ele>
        <time>2020-05-23T12:14:57Z</time>
      </trkpt>
      <trkpt lat="45.15069" lon="4.71061">
        <ele>440.8</ele>
        <time>2020-05-23T12:15:01Z</time>
      </trkpt>
      <trkpt lat="45.15093" lon="4.71089">
        <ele>440.4</ele>
        <time>2020-05-23T12:15:05Z</time>
      </trkpt>
      <trkpt lat="45.15116" lon="4.71117">
        <ele>440.2</ele>
        <time>2020-05-23T12:15:09Z</time>
      </trkpt>
      <trkpt lat="45.15138" lon="4.71142">
        <ele>440.4</ele>
        <time>2020-05-23T12:15:13Z</time>
      </trkpt>
      <trkpt lat="45.15158" lon="4.71167">
        <ele>440.2</ele>
        <time>2020-05-23T12:15:17Z</time>
      </trkpt>
      <trkpt lat="45.15177" lon="4.71191">
        <ele>440.4</ele>
        <time>2020-05-23T12:15:21Z</time>
      </trkpt>
      <trkpt lat="45.15194" lon="4.71215">
        <ele>439.8</ele>
        <time>2020-05-23T12:15:25Z</time>
      </trkpt>
      <trkpt lat="45.15209" lon="4.7124">
        <ele>440</ele>
        <time>2020-05-23T12:15:29Z</time>
      </trkpt>
      <trkpt lat="45.15223" lon="4.71265">
        <ele>440.2</ele>
        <time>2020-05-23T12:15:33Z</time>
      </trkpt>
      <trkpt lat="45.15236" lon="4.71289">
        <ele>440.2</ele>
        <time>2020-05-23T12:15:37Z</time>
      </trkpt>
      <trkpt lat="45.15249" lon="4.71313">
        <ele>440.4</ele>
        <time>2020-05-23T12:15:41Z</time>
      </trkpt>
      <trkpt lat="45.15263" lon="4.71339">
        <ele>440.2</ele>
        <time>2020-05-23T12:15:45Z</time>
      </trkpt>
      <trkpt lat="45.15278" lon="4.71365">
        <ele>440.2</ele>
        <time>2020-05-23T12:15:49Z</time>
      </trkpt>
      <trkpt lat="45.15292" lon="4.71391">
        <ele>440</ele>
        <time>2020-05-23T12:15:53Z</time>
      </trkpt>
      <trkpt lat="45.15306" lon="4.71416">
        <ele>440.2</ele>
        <time>2020-05-23T12:15:57Z</time>
      </trkpt>
      <trkpt lat="45.15319" lon="4.71441">
        <ele>440.2</ele>
        <time>2020-05-23T12:16:01Z</time>
      </trkpt>
      <trkpt lat="45.15334" lon="4.71468">
        <ele>440.2</ele>
        <time>2020-05-23T12:16:05Z</time>
      </trkpt>
      <trkpt lat="45.15349" lon="4.71495">
        <ele>440.2</ele>
        <time>2020-05-23T12:16:09Z</time>
      </trkpt>
      <trkpt lat="45.15363" lon="4.71521">
        <ele>440.4</ele>
        <time>2020-05-23T12:16:13Z</time>
      </trkpt>
      <trkpt lat="45.15379" lon="4.71548">
        <ele>440.6</ele>
        <time>2020-05-23T12:16:17Z</time>
      </trkpt>
      <trkpt lat="45.15397" lon="4.71576">
        <ele>440.2</ele>
        <time>2020-05-23T12:16:21Z</time>
      </trkpt>
      <trkpt lat="45.15416" lon="4.71602">
        <ele>440</ele>
        <time>2020-05-23T12:16:25Z</time>
      </trkpt>
      <trkpt lat="45.15437" lon="4.71627">
        <ele>439.8</ele>
        <time>2020-05-23T12:16:29Z</time>
      </trkpt>
      <trkpt lat="45.15458" lon="4.7165">
        <ele>439.6</ele>
        <time>2020-05-23T12:16:33Z</time>
      </trkpt>
      <trkpt lat="45.15479" lon="4.71672">
        <ele>439.8</ele>
        <time>2020-05-23T12:16:37Z</time>
      </trkpt>
      <trkpt lat="45.155" lon="4.71695">
        <ele>439.6</ele>
        <time>2020-05-23T12:16:41Z</time>
      </trkpt>
      <trkpt lat="45.15522" lon="4.71718">
        <ele>439.2</ele>
        <time>2020-05-23T12:16:45Z</time>
      </trkpt>
      <trkpt lat="45.15545" lon="4.71741">
        <ele>439.6</ele>
        <time>2020-05-23T12:16:49Z</time>
      </trkpt>
      <trkpt lat="45.15569" lon="4.71764">
        <ele>439.2</ele>
        <time>2020-05-23T12:16:53Z</time>
      </trkpt>
      <trkpt lat="45.15592" lon="4.71787">
        <ele>438.8</ele>
        <time>2020-05-23T12:16:57Z</time>
      </trkpt>
      <trkpt lat="45.15615" lon="4.7181">
        <ele>439.2</ele>
        <time>2020-05-23T12:17:01Z</time>
      </trkpt>
      <trkpt lat="45.15637" lon="4.71832">
        <ele>438.8</ele>
        <time>2020-05-23T12:17:05Z</time>
      </trkpt>
      <trkpt lat="45.15659" lon="4.71854">
        <ele>438.4</ele>
        <time>2020-05-23T12:17:09Z</time>
      </trkpt>
      <trkpt lat="45.1568" lon="4.71875">
        <ele>438.6</ele>
        <time>2020-05-23T12:17:13Z</time>
      </trkpt>
      <trkpt lat="45.15701" lon="4.71895">
        <ele>438.6</ele>
        <time>2020-05-23T12:17:17Z</time>
      </trkpt>
      <trkpt lat="45.15722" lon="4.71917">
        <ele>438.8</ele>
        <time>2020-05-23T12:17:21Z</time>
      </trkpt>
      <trkpt lat="45.15742" lon="4.71945">
        <ele>438.6</ele>
        <time>2020-05-23T12:17:25Z</time>
      </trkpt>
      <trkpt lat="45.15753" lon="4.71984">
        <ele>438.2</ele>
        <time>2020-05-23T12:17:29Z</time>
      </trkpt>
      <trkpt lat="45.1576" lon="4.72025">
        <ele>438.4</ele>
        <time>2020-05-23T12:17:33Z</time>
      </trkpt>
      <trkpt lat="45.15772" lon="4.72064">
        <ele>438.4</ele>
        <time>2020-05-23T12:17:37Z</time>
      </trkpt>
      <trkpt lat="45.15785" lon="4.721">
        <ele>437.8</ele>
        <time>2020-05-23T12:17:41Z</time>
      </trkpt>
      <trkpt lat="45.15787" lon="4.72139">
        <ele>437.4</ele>
        <time>2020-05-23T12:17:45Z</time>
      </trkpt>
      <trkpt lat="45.15791" lon="4.72179">
        <ele>437.8</ele>
        <time>2020-05-23T12:17:49Z</time>
      </trkpt>
      <trkpt lat="45.15799" lon="4.72217">
        <ele>437.6</ele>
        <time>2020-05-23T12:17:53Z</time>
      </trkpt>
      <trkpt lat="45.15806" lon="4.72254">
        <ele>438</ele>
        <time>2020-05-23T12:17:57Z</time>
      </trkpt>
      <trkpt lat="45.15813" lon="4.72288">
        <ele>437.6</ele>
        <time>2020-05-23T12:18:01Z</time>
      </trkpt>
      <trkpt lat="45.15819" lon="4.72322">
        <ele>437.4</ele>
        <time>2020-05-23T12:18:05Z</time>
      </trkpt>
      <trkpt lat="45.15826" lon="4.72359">
        <ele>437</ele>
        <time>2020-05-23T12:18:09Z</time>
      </trkpt>
      <trkpt lat="45.15834" lon="4.72399">
        <ele>437</ele>
        <time>2020-05-23T12:18:13Z</time>
      </trkpt>
      <trkpt lat="45.15841" lon="4.72439">
        <ele>436.4</ele>
        <time>2020-05-23T12:18:17Z</time>
      </trkpt>
      <trkpt lat="45.15849" lon="4.72479">
        <ele>435.6</ele>
        <time>2020-05-23T12:18:21Z</time>
      </trkpt>
      <trkpt lat="45.15857" lon="4.72519">
        <ele>436.4</ele>
        <time>2020-05-23T12:18:25Z</time>
      </trkpt>
      <trkpt lat="45.15864" lon="4.72557">
        <ele>436</ele>
        <time>2020-05-23T12:18:29Z</time>
      </trkpt>
      <trkpt lat="45.15869" lon="4.72592">
        <ele>435.8</ele>
        <time>2020-05-23T12:18:33Z</time>
      </trkpt>
      <trkpt lat="45.15874" lon="4.72626">
        <ele>436.4</ele>
        <time>2020-05-23T12:18:37Z</time>
      </trkpt>
      <trkpt lat="45.15879" lon="4.72659">
        <ele>435.4</ele>
        <time>2020-05-23T12:18:41Z</time>
      </trkpt>
      <trkpt lat="45.15884" lon="4.7269">
        <ele>435.4</ele>
        <time>2020-05-23T12:18:45Z</time>
      </trkpt>
      <trkpt lat="45.15889" lon="4.7272">
        <ele>435.2</ele>
        <time>2020-05-23T12:18:49Z</time>
      </trkpt>
      <trkpt lat="45.15895" lon="4.72751">
        <ele>435.2</ele>
        <time>2020-05-23T12:18:53Z</time>
      </trkpt>
      <trkpt lat="45.159" lon="4.72781">
        <ele>436</ele>
        <time>2020-05-23T12:18:57Z</time>
      </trkpt>
      <trkpt lat="45.15906" lon="4.72812">
        <ele>435.4</ele>
        <time>2020-05-23T12:19:01Z</time>
      </trkpt>
      <trkpt lat="45.15911" lon="4.72842">
        <ele>435.6</ele>
        <time>2020-05-23T12:19:05Z</time>
      </trkpt>
      <trkpt lat="45.15914" lon="4.72869">
        <ele>435.8</ele>
        <time>2020-05-23T12:19:09Z</time>
      </trkpt>
      <trkpt lat="45.15915" lon="4.72894">
        <ele>435.6</ele>
        <time>2020-05-23T12:19:13Z</time>
      </trkpt>
      <trkpt lat="45.15914" lon="4.72915">
        <ele>435.8</ele>
        <time>2020-05-23T12:19:17Z</time>
      </trkpt>
      <trkpt lat="45.1591" lon="4.72936">
        <ele>435.8</ele>
        <time>2020-05-23T12:19:21Z</time>
      </trkpt>
      <trkpt lat="45.15904" lon="4.72955">
        <ele>436</ele>
        <time>2020-05-23T12:19:25Z</time>
      </trkpt>
      <trkpt lat="45.15898" lon="4.72972">
        <ele>436.2</ele>
        <time>2020-05-23T12:19:29Z</time>
      </trkpt>
      <trkpt lat="45.15891" lon="4.72991">
        <ele>435.8</ele>
        <time>2020-05-23T12:19:33Z</time>
      </trkpt>
      <trkpt lat="45.15884" lon="4.7301">
        <ele>436.2</ele>
        <time>2020-05-23T12:19:37Z</time>
      </trkpt>
      <trkpt lat="45.15877" lon="4.73029">
        <ele>436</ele>
        <time>2020-05-23T12:19:41Z</time>
      </trkpt>
      <trkpt lat="45.15869" lon="4.73048">
        <ele>435.4</ele>
        <time>2020-05-23T12:19:45Z</time>
      </trkpt>
      <trkpt lat="45.15861" lon="4.73067">
        <ele>428</ele>
        <time>2020-05-23T12:19:49Z</time>
      </trkpt>
      <trkpt lat="45.1585" lon="4.73084">
        <ele>417.2</ele>
        <time>2020-05-23T12:19:53Z</time>
      </trkpt>
      <trkpt lat="45.15836" lon="4.73096">
        <ele>409.4</ele>
        <time>2020-05-23T12:19:57Z</time>
      </trkpt>
      <trkpt lat="45.15821" lon="4.73106">
        <ele>404.8</ele>
        <time>2020-05-23T12:20:01Z</time>
      </trkpt>
      <trkpt lat="45.15806" lon="4.73114">
        <ele>402.8</ele>
        <time>2020-05-23T12:20:05Z</time>
      </trkpt>
      <trkpt lat="45.15792" lon="4.73123">
        <ele>401.6</ele>
        <time>2020-05-23T12:20:09Z</time>
      </trkpt>
      <trkpt lat="45.15779" lon="4.73131">
        <ele>401.8</ele>
        <time>2020-05-23T12:20:13Z</time>
      </trkpt>
      <trkpt lat="45.15765" lon="4.73139">
        <ele>401.8</ele>
        <time>2020-05-23T12:20:17Z</time>
      </trkpt>
      <trkpt lat="45.15752" lon="4.73149">
        <ele>402</ele>
        <time>2020-05-23T12:20:21Z</time>
      </trkpt>
      <trkpt lat="45.15741" lon="4.73162">
        <ele>402.6</ele>
        <time>2020-05-23T12:20:25Z</time>
      </trkpt>
      <trkpt lat="45.15731" lon="4.73178">
        <ele>402.6</ele>
        <time>2020-05-23T12:20:29Z</time>
      </trkpt>
      <trkpt lat="45.15725" lon="4.73198">
        <ele>403</ele>
        <time>2020-05-23T12:20:33Z</time>
      </trkpt>
      <trkpt lat="45.15723" lon="4.73218">
        <ele>403</ele>
        <time>2020-05-23T12:20:37Z</time>
      </trkpt>
      <trkpt lat="45.15725" lon="4.73239">
        <ele>403</ele>
        <time>2020-05-23T12:20:41Z</time>
      </trkpt>
      <trkpt lat="45.1573" lon="4.73258">
        <ele>403.4</ele>
        <time>2020-05-23T12:20:45Z</time>
      </trkpt>
      <trkpt lat="45.15738" lon="4.73274">
        <ele>403.2</ele>
        <time>2020-05-23T12:20:49Z</time>
      </trkpt>
      <trkpt lat="45.15748" lon="4.73288">
        <ele>403.4</ele>
        <time>2020-05-23T12:20:53Z</time>
      </trkpt>
      <trkpt lat="45.1576" lon="4.73297">
        <ele>403.8</ele>
        <time>2020-05-23T12:20:57Z</time>
      </trkpt>
      <trkpt lat="45.15772" lon="4.73305">
        <ele>403.6</ele>
        <time>2020-05-23T12:21:01Z</time>
      </trkpt>
      <trkpt lat="45.15784" lon="4.73312">
        <ele>404.6</ele>
        <time>2020-05-23T12:21:05Z</time>
      </trkpt>
      <trkpt lat="45.15797" lon="4.73319">
        <ele>404.8</ele>
        <time>2020-05-23T12:21:09Z</time>
      </trkpt>
      <trkpt lat="45.15808" lon="4.73326">
        <ele>405.2</ele>
        <time>2020-05-23T12:21:13Z</time>
      </trkpt>
      <trkpt lat="45.15821" lon="4.73333">
        <ele>405.4</ele>
        <time>2020-05-23T12:21:17Z</time>
      </trkpt>
      <trkpt lat="45.15833" lon="4.73341">
        <ele>406</ele>
        <time>2020-05-23T12:21:21Z</time>
      </trkpt>
      <trkpt lat="45.15846" lon="4.73348">
        <ele>406.2</ele>
        <time>2020-05-23T12:21:25Z</time>
      </trkpt>
      <trkpt lat="45.15857" lon="4.73357">
        <ele>406</ele>
        <time>2020-05-23T12:21:29Z</time>
      </trkpt>
      <trkpt lat="45.15868" lon="4.73367">
        <ele>406.6</ele>
        <time>2020-05-23T12:21:33Z</time>
      </trkpt>
      <trkpt lat="45.15878" lon="4.73381">
        <ele>406</ele>
        <time>2020-05-23T12:21:37Z</time>
      </trkpt>
      <trkpt lat="45.15885" lon="4.73399">
        <ele>406.8</ele>
        <time>2020-05-23T12:21:41Z</time>
      </trkpt>
      <trkpt lat="45.15889" lon="4.73418">
        <ele>407.4</ele>
        <time>2020-05-23T12:21:45Z</time>
      </trkpt>
      <trkpt lat="45.15891" lon="4.73438">
        <ele>408.6</ele>
        <time>2020-05-23T12:21:49Z</time>
      </trkpt>
      <trkpt lat="45.1589" lon="4.73458">
        <ele>408.8</ele>
        <time>2020-05-23T12:21:53Z</time>
      </trkpt>
      <trkpt lat="45.15887" lon="4.73477">
        <ele>409.6</ele>
        <time>2020-05-23T12:21:57Z</time>
      </trkpt>
      <trkpt lat="45.15881" lon="4.73492">
        <ele>410.2</ele>
        <time>2020-05-23T12:22:01Z</time>
      </trkpt>
      <trkpt lat="45.15874" lon="4.73508">
        <ele>411</ele>
        <time>2020-05-23T12:22:05Z</time>
      </trkpt>
      <trkpt lat="45.15865" lon="4.73522">
        <ele>411.2</ele>
        <time>2020-05-23T12:22:09Z</time>
      </trkpt>
      <trkpt lat="45.15856" lon="4.73533">
        <ele>412.6</ele>
        <time>2020-05-23T12:22:13Z</time>
      </trkpt>
      <trkpt lat="45.15846" lon="4.73543">
        <ele>413.6</ele>
        <time>2020-05-23T12:22:17Z</time>
      </trkpt>
      <trkpt lat="45.15837" lon="4.73553">
        <ele>414</ele>
        <time>2020-05-23T12:22:21Z</time>
      </trkpt>
      <trkpt lat="45.15827" lon="4.73565">
        <ele>414.2</ele>
        <time>2020-05-23T12:22:25Z</time>
      </trkpt>
      <trkpt lat="45.15817" lon="4.73575">
        <ele>414.8</ele>
        <time>2020-05-23T12:22:29Z</time>
      </trkpt>
      <trkpt lat="45.15807" lon="4.73586">
        <ele>415.4</ele>
        <time>2020-05-23T12:22:33Z</time>
      </trkpt>
      <trkpt lat="45.15797" lon="4.73598">
        <ele>416</ele>
        <time>2020-05-23T12:22:37Z</time>
      </trkpt>
      <trkpt lat="45.15789" lon="4.73612">
        <ele>416</ele>
        <time>2020-05-23T12:22:41Z</time>
      </trkpt>
      <trkpt lat="45.15783" lon="4.73629">
        <ele>416.8</ele>
        <time>2020-05-23T12:22:45Z</time>
      </trkpt>
      <trkpt lat="45.15781" lon="4.73646">
        <ele>416.8</ele>
        <time>2020-05-23T12:22:49Z</time>
      </trkpt>
      <trkpt lat="45.15784" lon="4.73665">
        <ele>417.4</ele>
        <time>2020-05-23T12:22:53Z</time>
      </trkpt>
      <trkpt lat="45.15789" lon="4.73682">
        <ele>416.8</ele>
        <time>2020-05-23T12:22:57Z</time>
      </trkpt>
      <trkpt lat="45.15797" lon="4.73697">
        <ele>418</ele>
        <time>2020-05-23T12:23:01Z</time>
      </trkpt>
      <trkpt lat="45.15805" lon="4.73711">
        <ele>418</ele>
        <time>2020-05-23T12:23:05Z</time>
      </trkpt>
      <trkpt lat="45.15813" lon="4.73725">
        <ele>417.6</ele>
        <time>2020-05-23T12:23:09Z</time>
      </trkpt>
      <trkpt lat="45.15818" lon="4.73742">
        <ele>417.8</ele>
        <time>2020-05-23T12:23:13Z</time>
      </trkpt>
      <trkpt lat="45.15822" lon="4.7376">
        <ele>417.8</ele>
        <time>2020-05-23T12:23:17Z</time>
      </trkpt>
      <trkpt lat="45.15823" lon="4.73779">
        <ele>418.2</ele>
        <time>2020-05-23T12:23:21Z</time>
      </trkpt>
      <trkpt lat="45.1582" lon="4.73797">
        <ele>418.2</ele>
        <time>2020-05-23T12:23:25Z</time>
      </trkpt>
      <trkpt lat="45.15817" lon="4.73814">
        <ele>418</ele>
        <time>2020-05-23T12:23:29Z</time>
      </trkpt>
      <trkpt lat="45.15813" lon="4.73831">
        <ele>418.4</ele>
        <time>2020-05-23T12:23:33Z</time>
      </trkpt>
      <trkpt lat="45.15809" lon="4.73847">
        <ele>418</ele>
        <time>2020-05-23T12:23:37Z</time>
      </trkpt>
      <trkpt lat="45.15805" lon="4.73863">
        <ele>418.2</ele>
        <time>2020-05-23T12:23:41Z</time>
      </trkpt>
      <trkpt lat="45.15803" lon="4.73881">
        <ele>418</ele>
        <time>2020-05-23T12:23:45Z</time>
      </trkpt>
      <trkpt lat="45.15801" lon="4.73899">
        <ele>418</ele>
        <time>2020-05-23T12:23:49Z</time>
      </trkpt>
      <trkpt lat="45.15802" lon="4.73917">
        <ele>418</ele>
        <time>2020-05-23T12:23:53Z</time>
      </trkpt>
      <trkpt lat="45.15804" lon="4.73935">
        <ele>418.6</ele>
        <time>2020-05-23T12:23:57Z</time>
      </trkpt>
      <trkpt lat="45.15809" lon="4.73952">
        <ele>418.6</ele>
        <time>2020-05-23T12:24:01Z</time>
      </trkpt>
      <trkpt lat="45.15817" lon="4.73968">
        <ele>418.4</ele>
        <time>2020-05-23T12:24:05Z</time>
      </trkpt>
      <trkpt lat="45.15826" lon="4.7398">
        <ele>419.2</ele>
        <time>2020-05-23T12:24:09Z</time>
      </trkpt>
      <trkpt lat="45.15836" lon="4.73992">
        <ele>419.6</ele>
        <time>2020-05-23T12:24:13Z</time>
      </trkpt>
      <trkpt lat="45.15847" lon="4.74004">
        <ele>419.8</ele>
        <time>2020-05-23T12:24:17Z</time>
      </trkpt>
      <trkpt lat="45.15857" lon="4.74018">
        <ele>419.2</ele>
        <time>2020-05-23T12:24:21Z</time>
      </trkpt>
      <trkpt lat="45.15866" lon="4.74039">
        <ele>419.8</ele>
        <time>2020-05-23T12:24:25Z</time>
      </trkpt>
      <trkpt lat="45.15872" lon="4.74063">
        <ele>419.8</ele>
        <time>2020-05-23T12:24:29Z</time>
      </trkpt>
      <trkpt lat="45.15878" lon="4.74089">
        <ele>420</ele>
        <time>2020-05-23T12:24:33Z</time>
      </trkpt>
      <trkpt lat="45.15885" lon="4.74117">
        <ele>419.2</ele>
        <time>2020-05-23T12:24:37Z</time>
      </trkpt>
      <trkpt lat="45.15891" lon="4.74143">
        <ele>420</ele>
        <time>2020-05-23T12:24:41Z</time>
      </trkpt>
      <trkpt lat="45.15901" lon="4.74169">
        <ele>419.8</ele>
        <time>2020-05-23T12:24:45Z</time>
      </trkpt>
      <trkpt lat="45.15913" lon="4.74192">
        <ele>419.4</ele>
        <time>2020-05-23T12:24:49Z</time>
      </trkpt>
      <trkpt lat="45.15928" lon="4.74213">
        <ele>419.4</ele>
        <time>2020-05-23T12:24:53Z</time>
      </trkpt>
      <trkpt lat="45.15944" lon="4.74231">
        <ele>419.6</ele>
        <time>2020-05-23T12:24:57Z</time>
      </trkpt>
      <trkpt lat="45.15961" lon="4.74247">
        <ele>419.8</ele>
        <time>2020-05-23T12:25:01Z</time>
      </trkpt>
      <trkpt lat="45.15979" lon="4.74264">
        <ele>419.8</ele>
        <time>2020-05-23T12:25:05Z</time>
      </trkpt>
      <trkpt lat="45.15997" lon="4.74281">
        <ele>419.6</ele>
        <time>2020-05-23T12:25:09Z</time>
      </trkpt>
      <trkpt lat="45.16014" lon="4.74298">
        <ele>420</ele>
        <time>2020-05-23T12:25:13Z</time>
      </trkpt>
      <trkpt lat="45.16032" lon="4.74316">
        <ele>419.8</ele>
        <time>2020-05-23T12:25:17Z</time>
      </trkpt>
      <trkpt lat="45.16049" lon="4.74333">
        <ele>419.4</ele>
        <time>2020-05-23T12:25:21Z</time>
      </trkpt>
      <trkpt lat="45.16067" lon="4.7435">
        <ele>420.2</ele>
        <time>2020-05-23T12:25:25Z</time>
      </trkpt>
      <trkpt lat="45.16084" lon="4.74367">
        <ele>419.6</ele>
        <time>2020-05-23T12:25:29Z</time>
      </trkpt>
      <trkpt lat="45.16101" lon="4.74384">
        <ele>420</ele>
        <time>2020-05-23T12:25:33Z</time>
      </trkpt>
      <trkpt lat="45.16118" lon="4.744">
        <ele>420.4</ele>
        <time>2020-05-23T12:25:37Z</time>
      </trkpt>
      <trkpt lat="45.16135" lon="4.74417">
        <ele>421</ele>
        <time>2020-05-23T12:25:41Z</time>
      </trkpt>
      <trkpt lat="45.16153" lon="4.74434">
        <ele>421</ele>
        <time>2020-05-23T12:25:45Z</time>
      </trkpt>
      <trkpt lat="45.1617" lon="4.74451">
        <ele>420.6</ele>
        <time>2020-05-23T12:25:49Z</time>
      </trkpt>
      <trkpt lat="45.16187" lon="4.74468">
        <ele>421.2</ele>
        <time>2020-05-23T12:25:53Z</time>
      </trkpt>
      <trkpt lat="45.16204" lon="4.74487">
        <ele>421.4</ele>
        <time>2020-05-23T12:25:57Z</time>
      </trkpt>
      <trkpt lat="45.16219" lon="4.7451">
        <ele>421.8</ele>
        <time>2020-05-23T12:26:01Z</time>
      </trkpt>
      <trkpt lat="45.16229" lon="4.74537">
        <ele>422</ele>
        <time>2020-05-23T12:26:05Z</time>
      </trkpt>
      <trkpt lat="45.16235" lon="4.74566">
        <ele>422</ele>
        <time>2020-05-23T12:26:09Z</time>
      </trkpt>
      <trkpt lat="45.16235" lon="4.74593">
        <ele>422.4</ele>
        <time>2020-05-23T12:26:13Z</time>
      </trkpt>
      <trkpt lat="45.16233" lon="4.7462">
        <ele>423</ele>
        <time>2020-05-23T12:26:17Z</time>
      </trkpt>
      <trkpt lat="45.16231" lon="4.74645">
        <ele>422.8</ele>
        <time>2020-05-23T12:26:21Z</time>
      </trkpt>
      <trkpt lat="45.1623" lon="4.74668">
        <ele>423.2</ele>
        <time>2020-05-23T12:26:25Z</time>
      </trkpt>
      <trkpt lat="45.16229" lon="4.74689">
        <ele>423.2</ele>
        <time>2020-05-23T12:26:29Z</time>
      </trkpt>
      <trkpt lat="45.16229" lon="4.74711">
        <ele>423.8</ele>
        <time>2020-05-23T12:26:33Z</time>
      </trkpt>
      <trkpt lat="45.1623" lon="4.74732">
        <ele>423.8</ele>
        <time>2020-05-23T12:26:37Z</time>
      </trkpt>
      <trkpt lat="45.16232" lon="4.74755">
        <ele>423.8</ele>
        <time>2020-05-23T12:26:41Z</time>
      </trkpt>
      <trkpt lat="45.16233" lon="4.74777">
        <ele>423.8</ele>
        <time>2020-05-23T12:26:45Z</time>
      </trkpt>
      <trkpt lat="45.16235" lon="4.748">
        <ele>423.8</ele>
        <time>2020-05-23T12:26:49Z</time>
      </trkpt>
      <trkpt lat="45.16238" lon="4.74822">
        <ele>424</ele>
        <time>2020-05-23T12:26:53Z</time>
      </trkpt>
      <trkpt lat="45.16242" lon="4.74841">
        <ele>424.4</ele>
        <time>2020-05-23T12:26:57Z</time>
      </trkpt>
      <trkpt lat="45.16247" lon="4.74859">
        <ele>424.6</ele>
        <time>2020-05-23T12:27:01Z</time>
      </trkpt>
      <trkpt lat="45.16253" lon="4.74875">
        <ele>424.8</ele>
        <time>2020-05-23T12:27:05Z</time>
      </trkpt>
      <trkpt lat="45.16261" lon="4.74893">
        <ele>425</ele>
        <time>2020-05-23T12:27:09Z</time>
      </trkpt>
      <trkpt lat="45.16271" lon="4.74913">
        <ele>425</ele>
        <time>2020-05-23T12:27:13Z</time>
      </trkpt>
      <trkpt lat="45.1628" lon="4.74934">
        <ele>425.6</ele>
        <time>2020-05-23T12:27:17Z</time>
      </trkpt>
      <trkpt lat="45.16291" lon="4.74955">
        <ele>425.6</ele>
        <time>2020-05-23T12:27:21Z</time>
      </trkpt>
      <trkpt lat="45.16301" lon="4.74976">
        <ele>425.4</ele>
        <time>2020-05-23T12:27:25Z</time>
      </trkpt>
      <trkpt lat="45.16311" lon="4.74997">
        <ele>425.6</ele>
        <time>2020-05-23T12:27:29Z</time>
      </trkpt>
      <trkpt lat="45.16322" lon="4.75018">
        <ele>426</ele>
        <time>2020-05-23T12:27:33Z</time>
      </trkpt>
      <trkpt lat="45.16332" lon="4.7504">
        <ele>426.2</ele>
        <time>2020-05-23T12:27:37Z</time>
      </trkpt>
      <trkpt lat="45.16342" lon="4.75062">
        <ele>426.2</ele>
        <time>2020-05-23T12:27:41Z</time>
      </trkpt>
      <trkpt lat="45.16352" lon="4.75083">
        <ele>425.8</ele>
        <time>2020-05-23T12:27:45Z</time>
      </trkpt>
      <trkpt lat="45.16362" lon="4.75103">
        <ele>426.2</ele>
        <time>2020-05-23T12:27:49Z</time>
      </trkpt>
      <trkpt lat="45.16371" lon="4.75122">
        <ele>426</ele>
        <time>2020-05-23T12:27:53Z</time>
      </trkpt>
      <trkpt lat="45.1638" lon="4.75141">
        <ele>425.6</ele>
        <time>2020-05-23T12:27:57Z</time>
      </trkpt>
      <trkpt lat="45.16389" lon="4.75161">
        <ele>426.6</ele>
        <time>2020-05-23T12:28:01Z</time>
      </trkpt>
      <trkpt lat="45.16399" lon="4.75182">
        <ele>426.4</ele>
        <time>2020-05-23T12:28:05Z</time>
      </trkpt>
      <trkpt lat="45.16409" lon="4.75203">
        <ele>426.4</ele>
        <time>2020-05-23T12:28:09Z</time>
      </trkpt>
      <trkpt lat="45.16419" lon="4.75224">
        <ele>427</ele>
        <time>2020-05-23T12:28:13Z</time>
      </trkpt>
      <trkpt lat="45.1643" lon="4.75246">
        <ele>426.8</ele>
        <time>2020-05-23T12:28:17Z</time>
      </trkpt>
      <trkpt lat="45.16441" lon="4.75269">
        <ele>426.8</ele>
        <time>2020-05-23T12:28:21Z</time>
      </trkpt>
      <trkpt lat="45.16454" lon="4.75294">
        <ele>426.8</ele>
        <time>2020-05-23T12:28:25Z</time>
      </trkpt>
      <trkpt lat="45.16468" lon="4.75322">
        <ele>427</ele>
        <time>2020-05-23T12:28:29Z</time>
      </trkpt>
      <trkpt lat="45.16482" lon="4.75349">
        <ele>427.4</ele>
        <time>2020-05-23T12:28:33Z</time>
      </trkpt>
      <trkpt lat="45.16496" lon="4.75378">
        <ele>427.2</ele>
        <time>2020-05-23T12:28:37Z</time>
      </trkpt>
      <trkpt lat="45.16511" lon="4.75407">
        <ele>427.4</ele>
        <time>2020-05-23T12:28:41Z</time>
      </trkpt>
      <trkpt lat="45.16525" lon="4.75436">
        <ele>427.6</ele>
        <time>2020-05-23T12:28:45Z</time>
      </trkpt>
      <trkpt lat="45.16537" lon="4.75463">
        <ele>427</ele>
        <time>2020-05-23T12:28:49Z</time>
      </trkpt>
      <trkpt lat="45.16549" lon="4.75493">
        <ele>427.6</ele>
        <time>2020-05-23T12:28:53Z</time>
      </trkpt>
      <trkpt lat="45.16563" lon="4.75524">
        <ele>428</ele>
        <time>2020-05-23T12:28:57Z</time>
      </trkpt>
      <trkpt lat="45.16577" lon="4.75557">
        <ele>427.4</ele>
        <time>2020-05-23T12:29:01Z</time>
      </trkpt>
      <trkpt lat="45.16592" lon="4.7559">
        <ele>427.4</ele>
        <time>2020-05-23T12:29:05Z</time>
      </trkpt>
      <trkpt lat="45.16607" lon="4.75624">
        <ele>427.2</ele>
        <time>2020-05-23T12:29:09Z</time>
      </trkpt>
      <trkpt lat="45.16622" lon="4.75657">
        <ele>427.4</ele>
        <time>2020-05-23T12:29:13Z</time>
      </trkpt>
      <trkpt lat="45.16638" lon="4.7569">
        <ele>427.8</ele>
        <time>2020-05-23T12:29:17Z</time>
      </trkpt>
      <trkpt lat="45.16653" lon="4.75723">
        <ele>427.4</ele>
        <time>2020-05-23T12:29:21Z</time>
      </trkpt>
      <trkpt lat="45.16664" lon="4.75758">
        <ele>427.4</ele>
        <time>2020-05-23T12:29:25Z</time>
      </trkpt>
      <trkpt lat="45.16669" lon="4.75794">
        <ele>427.2</ele>
        <time>2020-05-23T12:29:29Z</time>
      </trkpt>
      <trkpt lat="45.16673" lon="4.75827">
        <ele>426.4</ele>
        <time>2020-05-23T12:29:33Z</time>
      </trkpt>
      <trkpt lat="45.16676" lon="4.75862">
        <ele>426.8</ele>
        <time>2020-05-23T12:29:37Z</time>
      </trkpt>
      <trkpt lat="45.16681" lon="4.75901">
        <ele>427</ele>
        <time>2020-05-23T12:29:41Z</time>
      </trkpt>
      <trkpt lat="45.1669" lon="4.75939">
        <ele>426.6</ele>
        <time>2020-05-23T12:29:45Z</time>
      </trkpt>
      <trkpt lat="45.16705" lon="4.75972">
        <ele>426.6</ele>
        <time>2020-05-23T12:29:49Z</time>
      </trkpt>
      <trkpt lat="45.16724" lon="4.75996">
        <ele>426.2</ele>
        <time>2020-05-23T12:29:53Z</time>
      </trkpt>
      <trkpt lat="45.16744" lon="4.76017">
        <ele>426.6</ele>
        <time>2020-05-23T12:29:57Z</time>
      </trkpt>
      <trkpt lat="45.16762" lon="4.76035">
        <ele>426.8</ele>
        <time>2020-05-23T12:30:01Z</time>
      </trkpt>
      <trkpt lat="45.1678" lon="4.76052">
        <ele>426.6</ele>
        <time>2020-05-23T12:30:05Z</time>
      </trkpt>
      <trkpt lat="45.16798" lon="4.76069">
        <ele>426.2</ele>
        <time>2020-05-23T12:30:09Z</time>
      </trkpt>
      <trkpt lat="45.16816" lon="4.76086">
        <ele>426.6</ele>
        <time>2020-05-23T12:30:13Z</time>
      </trkpt>
      <trkpt lat="45.16835" lon="4.76103">
        <ele>426.8</ele>
        <time>2020-05-23T12:30:17Z</time>
      </trkpt>
      <trkpt lat="45.16855" lon="4.7612">
        <ele>426.2</ele>
        <time>2020-05-23T12:30:21Z</time>
      </trkpt>
      <trkpt lat="45.16877" lon="4.76133">
        <ele>426.8</ele>
        <time>2020-05-23T12:30:25Z</time>
      </trkpt>
      <trkpt lat="45.16901" lon="4.76143">
        <ele>426.2</ele>
        <time>2020-05-23T12:30:29Z</time>
      </trkpt>
      <trkpt lat="45.16927" lon="4.76152">
        <ele>426.2</ele>
        <time>2020-05-23T12:30:33Z</time>
      </trkpt>
      <trkpt lat="45.16955" lon="4.76158">
        <ele>425.6</ele>
        <time>2020-05-23T12:30:37Z</time>
      </trkpt>
      <trkpt lat="45.16984" lon="4.76172">
        <ele>425.4</ele>
        <time>2020-05-23T12:30:41Z</time>
      </trkpt>
      <trkpt lat="45.17006" lon="4.76195">
        <ele>425.6</ele>
        <time>2020-05-23T12:30:45Z</time>
      </trkpt>
      <trkpt lat="45.17027" lon="4.76225">
        <ele>425</ele>
        <time>2020-05-23T12:30:49Z</time>
      </trkpt>
      <trkpt lat="45.17045" lon="4.7626">
        <ele>426.2</ele>
        <time>2020-05-23T12:30:53Z</time>
      </trkpt>
      <trkpt lat="45.17058" lon="4.76297">
        <ele>425.2</ele>
        <time>2020-05-23T12:30:57Z</time>
      </trkpt>
      <trkpt lat="45.17067" lon="4.76333">
        <ele>425</ele>
        <time>2020-05-23T12:31:01Z</time>
      </trkpt>
      <trkpt lat="45.17079" lon="4.76368">
        <ele>424.4</ele>
        <time>2020-05-23T12:31:05Z</time>
      </trkpt>
      <trkpt lat="45.17092" lon="4.76405">
        <ele>424.2</ele>
        <time>2020-05-23T12:31:09Z</time>
      </trkpt>
      <trkpt lat="45.17104" lon="4.76441">
        <ele>424.2</ele>
        <time>2020-05-23T12:31:13Z</time>
      </trkpt>
      <trkpt lat="45.17115" lon="4.76479">
        <ele>424.2</ele>
        <time>2020-05-23T12:31:17Z</time>
      </trkpt>
      <trkpt lat="45.17124" lon="4.76519">
        <ele>424.2</ele>
        <time>2020-05-23T12:31:21Z</time>
      </trkpt>
      <trkpt lat="45.1713" lon="4.76557">
        <ele>424.2</ele>
        <time>2020-05-23T12:31:25Z</time>
      </trkpt>
      <trkpt lat="45.17128" lon="4.76593">
        <ele>423.8</ele>
        <time>2020-05-23T12:31:29Z</time>
      </trkpt>
      <trkpt lat="45.17125" lon="4.76629">
        <ele>423.8</ele>
        <time>2020-05-23T12:31:33Z</time>
      </trkpt>
      <trkpt lat="45.17116" lon="4.76663">
        <ele>424</ele>
        <time>2020-05-23T12:31:37Z</time>
      </trkpt>
      <trkpt lat="45.17102" lon="4.76695">
        <ele>423.8</ele>
        <time>2020-05-23T12:31:41Z</time>
      </trkpt>
      <trkpt lat="45.17084" lon="4.76721">
        <ele>423.8</ele>
        <time>2020-05-23T12:31:45Z</time>
      </trkpt>
      <trkpt lat="45.17063" lon="4.76743">
        <ele>423.8</ele>
        <time>2020-05-23T12:31:49Z</time>
      </trkpt>
      <trkpt lat="45.1704" lon="4.76761">
        <ele>423.6</ele>
        <time>2020-05-23T12:31:53Z</time>
      </trkpt>
      <trkpt lat="45.17017" lon="4.76777">
        <ele>423.6</ele>
        <time>2020-05-23T12:31:57Z</time>
      </trkpt>
      <trkpt lat="45.16994" lon="4.76795">
        <ele>423.6</ele>
        <time>2020-05-23T12:32:01Z</time>
      </trkpt>
      <trkpt lat="45.1697" lon="4.76813">
        <ele>423.8</ele>
        <time>2020-05-23T12:32:05Z</time>
      </trkpt>
      <trkpt lat="45.16947" lon="4.76832">
        <ele>423.4</ele>
        <time>2020-05-23T12:32:09Z</time>
      </trkpt>
      <trkpt lat="45.16928" lon="4.76858">
        <ele>423.8</ele>
        <time>2020-05-23T12:32:13Z</time>
      </trkpt>
      <trkpt lat="45.16915" lon="4.76892">
        <ele>423.8</ele>
        <time>2020-05-23T12:32:17Z</time>
      </trkpt>
      <trkpt lat="45.1691" lon="4.7693">
        <ele>423</ele>
        <time>2020-05-23T12:32:21Z</time>
      </trkpt>
      <trkpt lat="45.16919" lon="4.76969">
        <ele>422.6</ele>
        <time>2020-05-23T12:32:25Z</time>
      </trkpt>
      <trkpt lat="45.16933" lon="4.77006">
        <ele>422.6</ele>
        <time>2020-05-23T12:32:29Z</time>
      </trkpt>
      <trkpt lat="45.16947" lon="4.77044">
        <ele>422.6</ele>
        <time>2020-05-23T12:32:33Z</time>
      </trkpt>
      <trkpt lat="45.16963" lon="4.77085">
        <ele>422.4</ele>
        <time>2020-05-23T12:32:37Z</time>
      </trkpt>
      <trkpt lat="45.1698" lon="4.77128">
        <ele>422</ele>
        <time>2020-05-23T12:32:41Z</time>
      </trkpt>
      <trkpt lat="45.16997" lon="4.7717">
        <ele>421.8</ele>
        <time>2020-05-23T12:32:45Z</time>
      </trkpt>
      <trkpt lat="45.17021" lon="4.77201">
        <ele>421.2</ele>
        <time>2020-05-23T12:32:49Z</time>
      </trkpt>
      <trkpt lat="45.17052" lon="4.77218">
        <ele>421</ele>
        <time>2020-05-23T12:32:53Z</time>
      </trkpt>
      <trkpt lat="45.17081" lon="4.77237">
        <ele>420.2</ele>
        <time>2020-05-23T12:32:57Z</time>
      </trkpt>
      <trkpt lat="45.17102" lon="4.77273">
        <ele>420</ele>
        <time>2020-05-23T12:33:01Z</time>
      </trkpt>
      <trkpt lat="45.17107" lon="4.77321">
        <ele>419.4</ele>
        <time>2020-05-23T12:33:05Z</time>
      </trkpt>
      <trkpt lat="45.171" lon="4.7737">
        <ele>418.8</ele>
        <time>2020-05-23T12:33:09Z</time>
      </trkpt>
      <trkpt lat="45.17101" lon="4.77417">
        <ele>418.8</ele>
        <time>2020-05-23T12:33:13Z</time>
      </trkpt>
      <trkpt lat="45.17123" lon="4.77453">
        <ele>417.8</ele>
        <time>2020-05-23T12:33:17Z</time>
      </trkpt>
      <trkpt lat="45.1715" lon="4.77479">
        <ele>417.6</ele>
        <time>2020-05-23T12:33:21Z</time>
      </trkpt>
      <trkpt lat="45.17177" lon="4.77505">
        <ele>417.4</ele>
        <time>2020-05-23T12:33:25Z</time>
      </trkpt>
      <trkpt lat="45.17201" lon="4.77534">
        <ele>416.4</ele>
        <time>2020-05-23T12:33:29Z</time>
      </trkpt>
      <trkpt lat="45.17216" lon="4.77577">
        <ele>416</ele>
        <time>2020-05-23T12:33:33Z</time>
      </trkpt>
      <trkpt lat="45.17224" lon="4.77621">
        <ele>416.8</ele>
        <time>2020-05-23T12:33:37Z</time>
      </trkpt>
      <trkpt lat="45.17238" lon="4.77662">
        <ele>415.2</ele>
        <time>2020-05-23T12:33:41Z</time>
      </trkpt>
      <trkpt lat="45.17254" lon="4.77705">
        <ele>415.4</ele>
        <time>2020-05-23T12:33:45Z</time>
      </trkpt>
      <trkpt lat="45.17269" lon="4.77749">
        <ele>414.8</ele>
        <time>2020-05-23T12:33:49Z</time>
      </trkpt>
      <trkpt lat="45.17277" lon="4.77798">
        <ele>414.4</ele>
        <time>2020-05-23T12:33:53Z</time>
      </trkpt>
      <trkpt lat="45.17278" lon="4.77848">
        <ele>414</ele>
        <time>2020-05-23T12:33:57Z</time>
      </trkpt>
      <trkpt lat="45.1729" lon="4.77894">
        <ele>413</ele>
        <time>2020-05-23T12:34:01Z</time>
      </trkpt>
      <trkpt lat="45.17306" lon="4.77939">
        <ele>412.8</ele>
        <time>2020-05-23T12:34:05Z</time>
      </trkpt>
      <trkpt lat="45.17315" lon="4.77989">
        <ele>412.2</ele>
        <time>2020-05-23T12:34:09Z</time>
      </trkpt>
      <trkpt lat="45.17329" lon="4.78034">
        <ele>411.4</ele>
        <time>2020-05-23T12:34:13Z</time>
      </trkpt>
      <trkpt lat="45.17353" lon="4.7807">
        <ele>411.8</ele>
        <time>2020-05-23T12:34:17Z</time>
      </trkpt>
      <trkpt lat="45.17374" lon="4.78112">
        <ele>411</ele>
        <time>2020-05-23T12:34:21Z</time>
      </trkpt>
      <trkpt lat="45.17379" lon="4.78161">
        <ele>410.8</ele>
        <time>2020-05-23T12:34:25Z</time>
      </trkpt>
      <trkpt lat="45.17392" lon="4.78205">
        <ele>410.4</ele>
        <time>2020-05-23T12:34:29Z</time>
      </trkpt>
      <trkpt lat="45.17416" lon="4.78235">
        <ele>409.4</ele>
        <time>2020-05-23T12:34:33Z</time>
      </trkpt>
      <trkpt lat="45.17442" lon="4.78269">
        <ele>409.6</ele>
        <time>2020-05-23T12:34:37Z</time>
      </trkpt>
      <trkpt lat="45.17458" lon="4.78313">
        <ele>409</ele>
        <time>2020-05-23T12:34:41Z</time>
      </trkpt>
      <trkpt lat="45.17474" lon="4.78362">
        <ele>408.4</ele>
        <time>2020-05-23T12:34:45Z</time>
      </trkpt>
      <trkpt lat="45.17485" lon="4.78413">
        <ele>408.2</ele>
        <time>2020-05-23T12:34:49Z</time>
      </trkpt>
      <trkpt lat="45.17507" lon="4.78453">
        <ele>407.8</ele>
        <time>2020-05-23T12:34:53Z</time>
      </trkpt>
      <trkpt lat="45.1754" lon="4.78467">
        <ele>406.6</ele>
        <time>2020-05-23T12:34:57Z</time>
      </trkpt>
      <trkpt lat="45.17573" lon="4.78449">
        <ele>406.6</ele>
        <time>2020-05-23T12:35:01Z</time>
      </trkpt>
      <trkpt lat="45.17594" lon="4.7841">
        <ele>406.6</ele>
        <time>2020-05-23T12:35:05Z</time>
      </trkpt>
      <trkpt lat="45.17611" lon="4.7837">
        <ele>405.8</ele>
        <time>2020-05-23T12:35:09Z</time>
      </trkpt>
      <trkpt lat="45.17627" lon="4.78325">
        <ele>405.2</ele>
        <time>2020-05-23T12:35:13Z</time>
      </trkpt>
      <trkpt lat="45.17631" lon="4.78275">
        <ele>404.8</ele>
        <time>2020-05-23T12:35:17Z</time>
      </trkpt>
      <trkpt lat="45.17622" lon="4.78225">
        <ele>404.8</ele>
        <time>2020-05-23T12:35:21Z</time>
      </trkpt>
      <trkpt lat="45.17621" lon="4.78171">
        <ele>404.2</ele>
        <time>2020-05-23T12:35:25Z</time>
      </trkpt>
      <trkpt lat="45.17635" lon="4.78125">
        <ele>403.8</ele>
        <time>2020-05-23T12:35:29Z</time>
      </trkpt>
      <trkpt lat="45.17655" lon="4.78108">
        <ele>403.2</ele>
        <time>2020-05-23T12:35:33Z</time>
      </trkpt>
      <trkpt lat="45.17663" lon="4.78135">
        <ele>402.6</ele>
        <time>2020-05-23T12:35:37Z</time>
      </trkpt>
      <trkpt lat="45.17667" lon="4.78172">
        <ele>402.6</ele>
        <time>2020-05-23T12:35:41Z</time>
      </trkpt>
      <trkpt lat="45.17678" lon="4.78209">
        <ele>402</ele>
        <time>2020-05-23T12:35:45Z</time>
      </trkpt>
      <trkpt lat="45.17686" lon="4.7825">
        <ele>401.4</ele>
        <time>2020-05-23T12:35:49Z</time>
      </trkpt>
      <trkpt lat="45.17687" lon="4.78294">
        <ele>401.2</ele>
        <time>2020-05-23T12:35:53Z</time>
      </trkpt>
      <trkpt lat="45.1768" lon="4.78339">
        <ele>401</ele>
        <time>2020-05-23T12:35:57Z</time>
      </trkpt>
      <trkpt lat="45.17675" lon="4.78383">
        <ele>400.4</ele>
        <time>2020-05-23T12:36:01Z</time>
      </trkpt>
      <trkpt lat="45.17669" lon="4.78429">
        <ele>399.2</ele>
        <time>2020-05-23T12:36:05Z</time>
      </trkpt>
      <trkpt lat="45.17662" lon="4.78473">
        <ele>399</ele>
        <time>2020-05-23T12:36:09Z</time>
      </trkpt>
      <trkpt lat="45.17656" lon="4.78521">
        <ele>398.6</ele>
        <time>2020-05-23T12:36:13Z</time>
      </trkpt>
      <trkpt lat="45.17649" lon="4.7857">
        <ele>397.8</ele>
        <time>2020-05-23T12:36:17Z</time>
      </trkpt>
      <trkpt lat="45.17654" lon="4.78626">
        <ele>397.4</ele>
        <time>2020-05-23T12:36:21Z</time>
      </trkpt>
      <trkpt lat="45.17666" lon="4.78676">
        <ele>396.6</ele>
        <time>2020-05-23T12:36:25Z</time>
      </trkpt>
      <trkpt lat="45.17679" lon="4.78726">
        <ele>396.4</ele>
        <time>2020-05-23T12:36:29Z</time>
      </trkpt>
      <trkpt lat="45.17692" lon="4.7878">
        <ele>395.6</ele>
        <time>2020-05-23T12:36:33Z</time>
      </trkpt>
      <trkpt lat="45.17704" lon="4.78835">
        <ele>394.6</ele>
        <time>2020-05-23T12:36:37Z</time>
      </trkpt>
      <trkpt lat="45.17718" lon="4.78889">
        <ele>394</ele>
        <time>2020-05-23T12:36:41Z</time>
      </trkpt>
      <trkpt lat="45.1772" lon="4.78945">
        <ele>393</ele>
        <time>2020-05-23T12:36:45Z</time>
      </trkpt>
      <trkpt lat="45.17719" lon="4.78999">
        <ele>392.8</ele>
        <time>2020-05-23T12:36:49Z</time>
      </trkpt>
      <trkpt lat="45.1773" lon="4.79053">
        <ele>392.2</ele>
        <time>2020-05-23T12:36:53Z</time>
      </trkpt>
      <trkpt lat="45.1774" lon="4.79104">
        <ele>391.2</ele>
        <time>2020-05-23T12:36:57Z</time>
      </trkpt>
      <trkpt lat="45.1776" lon="4.79152">
        <ele>390.4</ele>
        <time>2020-05-23T12:37:01Z</time>
      </trkpt>
      <trkpt lat="45.17781" lon="4.79197">
        <ele>389.4</ele>
        <time>2020-05-23T12:37:05Z</time>
      </trkpt>
      <trkpt lat="45.17808" lon="4.79238">
        <ele>389</ele>
        <time>2020-05-23T12:37:09Z</time>
      </trkpt>
      <trkpt lat="45.17819" lon="4.79296">
        <ele>388.4</ele>
        <time>2020-05-23T12:37:13Z</time>
      </trkpt>
      <trkpt lat="45.17836" lon="4.79348">
        <ele>387</ele>
        <time>2020-05-23T12:37:17Z</time>
      </trkpt>
      <trkpt lat="45.17861" lon="4.79393">
        <ele>386.4</ele>
        <time>2020-05-23T12:37:21Z</time>
      </trkpt>
      <trkpt lat="45.17885" lon="4.79439">
        <ele>385.6</ele>
        <time>2020-05-23T12:37:25Z</time>
      </trkpt>
      <trkpt lat="45.17909" lon="4.79483">
        <ele>385.2</ele>
        <time>2020-05-23T12:37:29Z</time>
      </trkpt>
      <trkpt lat="45.17949" lon="4.79498">
        <ele>384.4</ele>
        <time>2020-05-23T12:37:33Z</time>
      </trkpt>
      <trkpt lat="45.17987" lon="4.79494">
        <ele>384.6</ele>
        <time>2020-05-23T12:37:37Z</time>
      </trkpt>
      <trkpt lat="45.18026" lon="4.795">
        <ele>384.4</ele>
        <time>2020-05-23T12:37:41Z</time>
      </trkpt>
      <trkpt lat="45.18067" lon="4.79512">
        <ele>383.2</ele>
        <time>2020-05-23T12:37:45Z</time>
      </trkpt>
      <trkpt lat="45.18103" lon="4.79537">
        <ele>382.8</ele>
        <time>2020-05-23T12:37:49Z</time>
      </trkpt>
      <trkpt lat="45.18136" lon="4.79569">
        <ele>382.8</ele>
        <time>2020-05-23T12:37:53Z</time>
      </trkpt>
      <trkpt lat="45.18166" lon="4.79608">
        <ele>382</ele>
        <time>2020-05-23T12:37:57Z</time>
      </trkpt>
      <trkpt lat="45.18179" lon="4.79663">
        <ele>381.6</ele>
        <time>2020-05-23T12:38:01Z</time>
      </trkpt>
      <trkpt lat="45.18186" lon="4.79703">
        <ele>381</ele>
        <time>2020-05-23T12:38:05Z</time>
      </trkpt>
      <trkpt lat="45.18203" lon="4.79714">
        <ele>380.2</ele>
        <time>2020-05-23T12:38:09Z</time>
      </trkpt>
      <trkpt lat="45.18224" lon="4.79712">
        <ele>380.2</ele>
        <time>2020-05-23T12:38:13Z</time>
      </trkpt>
      <trkpt lat="45.18247" lon="4.79709">
        <ele>379.6</ele>
        <time>2020-05-23T12:38:17Z</time>
      </trkpt>
      <trkpt lat="45.18275" lon="4.79707">
        <ele>380</ele>
        <time>2020-05-23T12:38:21Z</time>
      </trkpt>
      <trkpt lat="45.18302" lon="4.79698">
        <ele>379.2</ele>
        <time>2020-05-23T12:38:25Z</time>
      </trkpt>
      <trkpt lat="45.18328" lon="4.79679">
        <ele>378.4</ele>
        <time>2020-05-23T12:38:29Z</time>
      </trkpt>
      <trkpt lat="45.18353" lon="4.79651">
        <ele>378.2</ele>
        <time>2020-05-23T12:38:33Z</time>
      </trkpt>
      <trkpt lat="45.18367" lon="4.7961">
        <ele>377.8</ele>
        <time>2020-05-23T12:38:37Z</time>
      </trkpt>
      <trkpt lat="45.18384" lon="4.79568">
        <ele>377</ele>
        <time>2020-05-23T12:38:41Z</time>
      </trkpt>
      <trkpt lat="45.18393" lon="4.79526">
        <ele>376.4</ele>
        <time>2020-05-23T12:38:45Z</time>
      </trkpt>
      <trkpt lat="45.18371" lon="4.79487">
        <ele>375.8</ele>
        <time>2020-05-23T12:38:49Z</time>
      </trkpt>
      <trkpt lat="45.18345" lon="4.79454">
        <ele>375</ele>
        <time>2020-05-23T12:38:53Z</time>
      </trkpt>
      <trkpt lat="45.18308" lon="4.7945">
        <ele>375</ele>
        <time>2020-05-23T12:38:57Z</time>
      </trkpt>
      <trkpt lat="45.18278" lon="4.79444">
        <ele>374.4</ele>
        <time>2020-05-23T12:39:01Z</time>
      </trkpt>
      <trkpt lat="45.18282" lon="4.79411">
        <ele>373.2</ele>
        <time>2020-05-23T12:39:05Z</time>
      </trkpt>
      <trkpt lat="45.18301" lon="4.79383">
        <ele>372.8</ele>
        <time>2020-05-23T12:39:09Z</time>
      </trkpt>
      <trkpt lat="45.18311" lon="4.79343">
        <ele>373</ele>
        <time>2020-05-23T12:39:13Z</time>
      </trkpt>
      <trkpt lat="45.18302" lon="4.79298">
        <ele>372.4</ele>
        <time>2020-05-23T12:39:17Z</time>
      </trkpt>
      <trkpt lat="45.18281" lon="4.79257">
        <ele>372</ele>
        <time>2020-05-23T12:39:21Z</time>
      </trkpt>
      <trkpt lat="45.18262" lon="4.7922">
        <ele>371.2</ele>
        <time>2020-05-23T12:39:25Z</time>
      </trkpt>
      <trkpt lat="45.18253" lon="4.79173">
        <ele>371</ele>
        <time>2020-05-23T12:39:29Z</time>
      </trkpt>
      <trkpt lat="45.18236" lon="4.79121">
        <ele>369.6</ele>
        <time>2020-05-23T12:39:33Z</time>
      </trkpt>
      <trkpt lat="45.18218" lon="4.79075">
        <ele>369</ele>
        <time>2020-05-23T12:39:37Z</time>
      </trkpt>
      <trkpt lat="45.18224" lon="4.79034">
        <ele>368.8</ele>
        <time>2020-05-23T12:39:41Z</time>
      </trkpt>
      <trkpt lat="45.18246" lon="4.79028">
        <ele>368</ele>
        <time>2020-05-23T12:39:45Z</time>
      </trkpt>
      <trkpt lat="45.1826" lon="4.79052">
        <ele>367.8</ele>
        <time>2020-05-23T12:39:49Z</time>
      </trkpt>
      <trkpt lat="45.18279" lon="4.79088">
        <ele>367.6</ele>
        <time>2020-05-23T12:39:53Z</time>
      </trkpt>
      <trkpt lat="45.18299" lon="4.79119">
        <ele>366.8</ele>
        <time>2020-05-23T12:39:57Z</time>
      </trkpt>
      <trkpt lat="45.18319" lon="4.79151">
        <ele>365.8</ele>
        <time>2020-05-23T12:40:01Z</time>
      </trkpt>
      <trkpt lat="45.18352" lon="4.79184">
        <ele>365.2</ele>
        <time>2020-05-23T12:40:05Z</time>
      </trkpt>
      <trkpt lat="45.18379" lon="4.79221">
        <ele>364</ele>
        <time>2020-05-23T12:40:09Z</time>
      </trkpt>
      <trkpt lat="45.18404" lon="4.79273">
        <ele>363.4</ele>
        <time>2020-05-23T12:40:13Z</time>
      </trkpt>
      <trkpt lat="45.18442" lon="4.7931">
        <ele>363.4</ele>
        <time>2020-05-23T12:40:17Z</time>
      </trkpt>
      <trkpt lat="45.18484" lon="4.79336">
        <ele>363</ele>
        <time>2020-05-23T12:40:21Z</time>
      </trkpt>
      <trkpt lat="45.18523" lon="4.7937">
        <ele>361.4</ele>
        <time>2020-05-23T12:40:25Z</time>
      </trkpt>
      <trkpt lat="45.18561" lon="4.79403">
        <ele>360.6</ele>
        <time>2020-05-23T12:40:29Z</time>
      </trkpt>
      <trkpt lat="45.18597" lon="4.79437">
        <ele>361</ele>
        <time>2020-05-23T12:40:33Z</time>
      </trkpt>
      <trkpt lat="45.18634" lon="4.79471">
        <ele>359</ele>
        <time>2020-05-23T12:40:37Z</time>
      </trkpt>
      <trkpt lat="45.18666" lon="4.79505">
        <ele>358.4</ele>
        <time>2020-05-23T12:40:41Z</time>
      </trkpt>
      <trkpt lat="45.18676" lon="4.79553">
        <ele>358.4</ele>
        <time>2020-05-23T12:40:45Z</time>
      </trkpt>
      <trkpt lat="45.18673" lon="4.79605">
        <ele>356.8</ele>
        <time>2020-05-23T12:40:49Z</time>
      </trkpt>
      <trkpt lat="45.18669" lon="4.7965">
        <ele>356.6</ele>
        <time>2020-05-23T12:40:53Z</time>
      </trkpt>
      <trkpt lat="45.18667" lon="4.79694">
        <ele>354.8</ele>
        <time>2020-05-23T12:40:57Z</time>
      </trkpt>
      <trkpt lat="45.18664" lon="4.79738">
        <ele>354</ele>
        <time>2020-05-23T12:41:01Z</time>
      </trkpt>
      <trkpt lat="45.18662" lon="4.79781">
        <ele>353.6</ele>
        <time>2020-05-23T12:41:05Z</time>
      </trkpt>
      <trkpt lat="45.18662" lon="4.79815">
        <ele>352.6</ele>
        <time>2020-05-23T12:41:09Z</time>
      </trkpt>
      <trkpt lat="45.18664" lon="4.79851">
        <ele>352</ele>
        <time>2020-05-23T12:41:13Z</time>
      </trkpt>
      <trkpt lat="45.18666" lon="4.79875">
        <ele>351.2</ele>
        <time>2020-05-23T12:41:17Z</time>
      </trkpt>
      <trkpt lat="45.18674" lon="4.799">
        <ele>348.2</ele>
        <time>2020-05-23T12:41:58Z</time>
      </trkpt>
      <trkpt lat="45.1869" lon="4.79901">
        <ele>348.2</ele>
        <time>2020-05-23T12:42:02Z</time>
      </trkpt>
      <trkpt lat="45.18711" lon="4.79895">
        <ele>347.6</ele>
        <time>2020-05-23T12:42:06Z</time>
      </trkpt>
      <trkpt lat="45.18732" lon="4.79889">
        <ele>347.2</ele>
        <time>2020-05-23T12:42:10Z</time>
      </trkpt>
      <trkpt lat="45.18749" lon="4.79893">
        <ele>346.8</ele>
        <time>2020-05-23T12:42:14Z</time>
      </trkpt>
      <trkpt lat="45.18764" lon="4.799">
        <ele>346.8</ele>
        <time>2020-05-23T12:42:18Z</time>
      </trkpt>
      <trkpt lat="45.1877" lon="4.79905">
        <ele>346.4</ele>
        <time>2020-05-23T12:42:22Z</time>
      </trkpt>
      <trkpt lat="45.18774" lon="4.79917">
        <ele>346.2</ele>
        <time>2020-05-23T12:42:26Z</time>
      </trkpt>
    </trkseg>
  </trk>
</gpx>